<?xml version="1.0" encoding="UTF-8" standalone="no" ?>
<gpx xmlns="http://www.topografix.com/GPX/1/1" xmlns:xsi="http://www.w3.org/2001/XMLSchema-instance" xsi:schemaLocation="http://www.topografix.com/GPX/1/1 http://www.topografix.com/GPX/1/1/gpx.xsd" version="1.1" creator="VisuGPX - https://www.visugpx.com">
  <metadata>
    <name>sortie cyclos Pierre</name>
    <desc><![CDATA[Une sortie cyclo autour de la forêt de chaux]]></desc>
  </metadata>
  <wpt lat="47.09521" lon="5.49833">
    <ele>228</ele>
  </wpt>
  <trk>
    <name><![CDATA[sortie cyclos Pierre_1]]></name>
    <trkseg>
      <trkpt lat="47.09521" lon="5.49833">
        <ele>228</ele>
        <time>2010-08-01T06:07:53Z</time>
      </trkpt>
      <trkpt lat="47.09518" lon="5.4982">
        <ele>228</ele>
        <time>2010-08-01T06:08:30Z</time>
      </trkpt>
      <trkpt lat="47.09511" lon="5.49806">
        <ele>228</ele>
        <time>2010-08-01T06:08:33Z</time>
      </trkpt>
      <trkpt lat="47.09505" lon="5.49795">
        <ele>228</ele>
        <time>2010-08-01T06:08:35Z</time>
      </trkpt>
      <trkpt lat="47.09499" lon="5.49783">
        <ele>228</ele>
        <time>2010-08-01T06:08:37Z</time>
      </trkpt>
      <trkpt lat="47.09492" lon="5.49771">
        <ele>228</ele>
        <time>2010-08-01T06:08:39Z</time>
      </trkpt>
      <trkpt lat="47.09488" lon="5.49757">
        <ele>228</ele>
        <time>2010-08-01T06:08:41Z</time>
      </trkpt>
      <trkpt lat="47.09481" lon="5.49744">
        <ele>228</ele>
        <time>2010-08-01T06:08:43Z</time>
      </trkpt>
      <trkpt lat="47.09476" lon="5.4973">
        <ele>228</ele>
        <time>2010-08-01T06:08:45Z</time>
      </trkpt>
      <trkpt lat="47.09476" lon="5.49716">
        <ele>228</ele>
        <time>2010-08-01T06:08:47Z</time>
      </trkpt>
      <trkpt lat="47.09483" lon="5.49703">
        <ele>228</ele>
        <time>2010-08-01T06:08:49Z</time>
      </trkpt>
      <trkpt lat="47.09491" lon="5.49692">
        <ele>228</ele>
        <time>2010-08-01T06:08:51Z</time>
      </trkpt>
      <trkpt lat="47.09499" lon="5.49678">
        <ele>228</ele>
        <time>2010-08-01T06:08:53Z</time>
      </trkpt>
      <trkpt lat="47.095" lon="5.49663">
        <ele>228</ele>
        <time>2010-08-01T06:08:55Z</time>
      </trkpt>
      <trkpt lat="47.09496" lon="5.49649">
        <ele>228</ele>
        <time>2010-08-01T06:08:57Z</time>
      </trkpt>
      <trkpt lat="47.09488" lon="5.49637">
        <ele>228</ele>
        <time>2010-08-01T06:08:59Z</time>
      </trkpt>
      <trkpt lat="47.09477" lon="5.49634">
        <ele>228</ele>
        <time>2010-08-01T06:09:01Z</time>
      </trkpt>
      <trkpt lat="47.09465" lon="5.49641">
        <ele>228</ele>
        <time>2010-08-01T06:09:03Z</time>
      </trkpt>
      <trkpt lat="47.09457" lon="5.49656">
        <ele>228</ele>
        <time>2010-08-01T06:09:05Z</time>
      </trkpt>
      <trkpt lat="47.09446" lon="5.49668">
        <ele>228</ele>
        <time>2010-08-01T06:09:07Z</time>
      </trkpt>
      <trkpt lat="47.09435" lon="5.49678">
        <ele>228</ele>
        <time>2010-08-01T06:09:09Z</time>
      </trkpt>
      <trkpt lat="47.09424" lon="5.49689">
        <ele>228</ele>
        <time>2010-08-01T06:09:11Z</time>
      </trkpt>
      <trkpt lat="47.09415" lon="5.49706">
        <ele>228</ele>
        <time>2010-08-01T06:09:13Z</time>
      </trkpt>
      <trkpt lat="47.0941" lon="5.49718">
        <ele>228</ele>
        <time>2010-08-01T06:09:14Z</time>
      </trkpt>
      <trkpt lat="47.09406" lon="5.49731">
        <ele>228</ele>
        <time>2010-08-01T06:09:15Z</time>
      </trkpt>
      <trkpt lat="47.09402" lon="5.49745">
        <ele>228</ele>
        <time>2010-08-01T06:09:16Z</time>
      </trkpt>
      <trkpt lat="47.09399" lon="5.4976">
        <ele>228</ele>
        <time>2010-08-01T06:09:17Z</time>
      </trkpt>
      <trkpt lat="47.09395" lon="5.49775">
        <ele>228</ele>
        <time>2010-08-01T06:09:18Z</time>
      </trkpt>
      <trkpt lat="47.09391" lon="5.49791">
        <ele>228</ele>
        <time>2010-08-01T06:09:19Z</time>
      </trkpt>
      <trkpt lat="47.09388" lon="5.49808">
        <ele>228</ele>
        <time>2010-08-01T06:09:20Z</time>
      </trkpt>
      <trkpt lat="47.09383" lon="5.49824">
        <ele>228</ele>
        <time>2010-08-01T06:09:21Z</time>
      </trkpt>
      <trkpt lat="47.09379" lon="5.4984">
        <ele>223</ele>
        <time>2010-08-01T06:09:22Z</time>
      </trkpt>
      <trkpt lat="47.09375" lon="5.49855">
        <ele>223</ele>
        <time>2010-08-01T06:09:23Z</time>
      </trkpt>
      <trkpt lat="47.09372" lon="5.49871">
        <ele>223</ele>
        <time>2010-08-01T06:09:24Z</time>
      </trkpt>
      <trkpt lat="47.09367" lon="5.49885">
        <ele>223</ele>
        <time>2010-08-01T06:09:25Z</time>
      </trkpt>
      <trkpt lat="47.09362" lon="5.49898">
        <ele>223</ele>
        <time>2010-08-01T06:09:26Z</time>
      </trkpt>
      <trkpt lat="47.09354" lon="5.49911">
        <ele>223</ele>
        <time>2010-08-01T06:09:27Z</time>
      </trkpt>
      <trkpt lat="47.09346" lon="5.49921">
        <ele>217</ele>
        <time>2010-08-01T06:09:28Z</time>
      </trkpt>
      <trkpt lat="47.0933" lon="5.49933">
        <ele>217</ele>
        <time>2010-08-01T06:09:30Z</time>
      </trkpt>
      <trkpt lat="47.09316" lon="5.49932">
        <ele>217</ele>
        <time>2010-08-01T06:09:32Z</time>
      </trkpt>
      <trkpt lat="47.09303" lon="5.49916">
        <ele>217</ele>
        <time>2010-08-01T06:09:34Z</time>
      </trkpt>
      <trkpt lat="47.09297" lon="5.49907">
        <ele>217</ele>
        <time>2010-08-01T06:09:35Z</time>
      </trkpt>
      <trkpt lat="47.09284" lon="5.49891">
        <ele>217</ele>
        <time>2010-08-01T06:09:37Z</time>
      </trkpt>
      <trkpt lat="47.09269" lon="5.49877">
        <ele>211</ele>
        <time>2010-08-01T06:09:39Z</time>
      </trkpt>
      <trkpt lat="47.09254" lon="5.49862">
        <ele>211</ele>
        <time>2010-08-01T06:09:41Z</time>
      </trkpt>
      <trkpt lat="47.0924" lon="5.49849">
        <ele>211</ele>
        <time>2010-08-01T06:09:43Z</time>
      </trkpt>
      <trkpt lat="47.09224" lon="5.49835">
        <ele>211</ele>
        <time>2010-08-01T06:09:45Z</time>
      </trkpt>
      <trkpt lat="47.09209" lon="5.49821">
        <ele>211</ele>
        <time>2010-08-01T06:09:47Z</time>
      </trkpt>
      <trkpt lat="47.09195" lon="5.49808">
        <ele>211</ele>
        <time>2010-08-01T06:09:49Z</time>
      </trkpt>
      <trkpt lat="47.09181" lon="5.49796">
        <ele>211</ele>
        <time>2010-08-01T06:09:51Z</time>
      </trkpt>
      <trkpt lat="47.09167" lon="5.49784">
        <ele>211</ele>
        <time>2010-08-01T06:09:53Z</time>
      </trkpt>
      <trkpt lat="47.09153" lon="5.49773">
        <ele>211</ele>
        <time>2010-08-01T06:09:55Z</time>
      </trkpt>
      <trkpt lat="47.09139" lon="5.49761">
        <ele>211</ele>
        <time>2010-08-01T06:09:57Z</time>
      </trkpt>
      <trkpt lat="47.09126" lon="5.49749">
        <ele>211</ele>
        <time>2010-08-01T06:09:59Z</time>
      </trkpt>
      <trkpt lat="47.09113" lon="5.49738">
        <ele>217</ele>
        <time>2010-08-01T06:10:01Z</time>
      </trkpt>
      <trkpt lat="47.091" lon="5.49726">
        <ele>217</ele>
        <time>2010-08-01T06:10:03Z</time>
      </trkpt>
      <trkpt lat="47.09086" lon="5.49713">
        <ele>217</ele>
        <time>2010-08-01T06:10:05Z</time>
      </trkpt>
      <trkpt lat="47.09073" lon="5.497">
        <ele>217</ele>
        <time>2010-08-01T06:10:07Z</time>
      </trkpt>
      <trkpt lat="47.09061" lon="5.49687">
        <ele>217</ele>
        <time>2010-08-01T06:10:09Z</time>
      </trkpt>
      <trkpt lat="47.09046" lon="5.49676">
        <ele>217</ele>
        <time>2010-08-01T06:10:11Z</time>
      </trkpt>
      <trkpt lat="47.09032" lon="5.49664">
        <ele>217</ele>
        <time>2010-08-01T06:10:13Z</time>
      </trkpt>
      <trkpt lat="47.09018" lon="5.49652">
        <ele>217</ele>
        <time>2010-08-01T06:10:15Z</time>
      </trkpt>
      <trkpt lat="47.09005" lon="5.49641">
        <ele>217</ele>
        <time>2010-08-01T06:10:17Z</time>
      </trkpt>
      <trkpt lat="47.08991" lon="5.4963">
        <ele>217</ele>
        <time>2010-08-01T06:10:19Z</time>
      </trkpt>
      <trkpt lat="47.08977" lon="5.49618">
        <ele>217</ele>
        <time>2010-08-01T06:10:21Z</time>
      </trkpt>
      <trkpt lat="47.08965" lon="5.49606">
        <ele>217</ele>
        <time>2010-08-01T06:10:23Z</time>
      </trkpt>
      <trkpt lat="47.08954" lon="5.49589">
        <ele>217</ele>
        <time>2010-08-01T06:10:25Z</time>
      </trkpt>
      <trkpt lat="47.08943" lon="5.49572">
        <ele>217</ele>
        <time>2010-08-01T06:10:27Z</time>
      </trkpt>
      <trkpt lat="47.08933" lon="5.49556">
        <ele>211</ele>
        <time>2010-08-01T06:10:29Z</time>
      </trkpt>
      <trkpt lat="47.08923" lon="5.4954">
        <ele>211</ele>
        <time>2010-08-01T06:10:31Z</time>
      </trkpt>
      <trkpt lat="47.08915" lon="5.49523">
        <ele>211</ele>
        <time>2010-08-01T06:10:33Z</time>
      </trkpt>
      <trkpt lat="47.08908" lon="5.49504">
        <ele>211</ele>
        <time>2010-08-01T06:10:35Z</time>
      </trkpt>
      <trkpt lat="47.08905" lon="5.49485">
        <ele>211</ele>
        <time>2010-08-01T06:10:37Z</time>
      </trkpt>
      <trkpt lat="47.08902" lon="5.49469">
        <ele>211</ele>
        <time>2010-08-01T06:10:39Z</time>
      </trkpt>
      <trkpt lat="47.08899" lon="5.49456">
        <ele>211</ele>
        <time>2010-08-01T06:10:41Z</time>
      </trkpt>
      <trkpt lat="47.08895" lon="5.49444">
        <ele>211</ele>
        <time>2010-08-01T06:10:45Z</time>
      </trkpt>
      <trkpt lat="47.08886" lon="5.49439">
        <ele>211</ele>
        <time>2010-08-01T06:11:14Z</time>
      </trkpt>
      <trkpt lat="47.08875" lon="5.49443">
        <ele>211</ele>
        <time>2010-08-01T06:11:17Z</time>
      </trkpt>
      <trkpt lat="47.08865" lon="5.49447">
        <ele>217</ele>
        <time>2010-08-01T06:11:19Z</time>
      </trkpt>
      <trkpt lat="47.08853" lon="5.49454">
        <ele>217</ele>
        <time>2010-08-01T06:11:21Z</time>
      </trkpt>
      <trkpt lat="47.08841" lon="5.4946">
        <ele>217</ele>
        <time>2010-08-01T06:11:23Z</time>
      </trkpt>
      <trkpt lat="47.08829" lon="5.49467">
        <ele>217</ele>
        <time>2010-08-01T06:11:25Z</time>
      </trkpt>
      <trkpt lat="47.08817" lon="5.49475">
        <ele>217</ele>
        <time>2010-08-01T06:11:27Z</time>
      </trkpt>
      <trkpt lat="47.08805" lon="5.49482">
        <ele>217</ele>
        <time>2010-08-01T06:11:29Z</time>
      </trkpt>
      <trkpt lat="47.08793" lon="5.49491">
        <ele>217</ele>
        <time>2010-08-01T06:11:31Z</time>
      </trkpt>
      <trkpt lat="47.0878" lon="5.495">
        <ele>217</ele>
        <time>2010-08-01T06:11:33Z</time>
      </trkpt>
      <trkpt lat="47.08767" lon="5.4951">
        <ele>217</ele>
        <time>2010-08-01T06:11:35Z</time>
      </trkpt>
      <trkpt lat="47.08753" lon="5.4952">
        <ele>217</ele>
        <time>2010-08-01T06:11:37Z</time>
      </trkpt>
      <trkpt lat="47.08738" lon="5.49527">
        <ele>211</ele>
        <time>2010-08-01T06:11:39Z</time>
      </trkpt>
      <trkpt lat="47.08724" lon="5.49528">
        <ele>211</ele>
        <time>2010-08-01T06:11:41Z</time>
      </trkpt>
      <trkpt lat="47.08711" lon="5.49518">
        <ele>211</ele>
        <time>2010-08-01T06:11:43Z</time>
      </trkpt>
      <trkpt lat="47.08699" lon="5.49502">
        <ele>211</ele>
        <time>2010-08-01T06:11:45Z</time>
      </trkpt>
      <trkpt lat="47.08684" lon="5.49493">
        <ele>211</ele>
        <time>2010-08-01T06:11:47Z</time>
      </trkpt>
      <trkpt lat="47.0867" lon="5.495">
        <ele>211</ele>
        <time>2010-08-01T06:11:49Z</time>
      </trkpt>
      <trkpt lat="47.08664" lon="5.49519">
        <ele>211</ele>
        <time>2010-08-01T06:11:51Z</time>
      </trkpt>
      <trkpt lat="47.08665" lon="5.49542">
        <ele>211</ele>
        <time>2010-08-01T06:11:53Z</time>
      </trkpt>
      <trkpt lat="47.08665" lon="5.49561">
        <ele>211</ele>
        <time>2010-08-01T06:11:55Z</time>
      </trkpt>
      <trkpt lat="47.08658" lon="5.49575">
        <ele>211</ele>
        <time>2010-08-01T06:11:57Z</time>
      </trkpt>
      <trkpt lat="47.08646" lon="5.49582">
        <ele>211</ele>
        <time>2010-08-01T06:11:59Z</time>
      </trkpt>
      <trkpt lat="47.08634" lon="5.49589">
        <ele>211</ele>
        <time>2010-08-01T06:12:01Z</time>
      </trkpt>
      <trkpt lat="47.08622" lon="5.49597">
        <ele>211</ele>
        <time>2010-08-01T06:12:03Z</time>
      </trkpt>
      <trkpt lat="47.0861" lon="5.49606">
        <ele>211</ele>
        <time>2010-08-01T06:12:05Z</time>
      </trkpt>
      <trkpt lat="47.08597" lon="5.49614">
        <ele>211</ele>
        <time>2010-08-01T06:12:07Z</time>
      </trkpt>
      <trkpt lat="47.08584" lon="5.49621">
        <ele>211</ele>
        <time>2010-08-01T06:12:09Z</time>
      </trkpt>
      <trkpt lat="47.08572" lon="5.49629">
        <ele>211</ele>
        <time>2010-08-01T06:12:11Z</time>
      </trkpt>
      <trkpt lat="47.0856" lon="5.49637">
        <ele>211</ele>
        <time>2010-08-01T06:12:13Z</time>
      </trkpt>
      <trkpt lat="47.08549" lon="5.49644">
        <ele>211</ele>
        <time>2010-08-01T06:12:15Z</time>
      </trkpt>
      <trkpt lat="47.08537" lon="5.49652">
        <ele>211</ele>
        <time>2010-08-01T06:12:17Z</time>
      </trkpt>
      <trkpt lat="47.08526" lon="5.4966">
        <ele>211</ele>
        <time>2010-08-01T06:12:19Z</time>
      </trkpt>
      <trkpt lat="47.08516" lon="5.49667">
        <ele>211</ele>
        <time>2010-08-01T06:12:21Z</time>
      </trkpt>
      <trkpt lat="47.08505" lon="5.49675">
        <ele>211</ele>
        <time>2010-08-01T06:12:23Z</time>
      </trkpt>
      <trkpt lat="47.08495" lon="5.49682">
        <ele>211</ele>
        <time>2010-08-01T06:12:25Z</time>
      </trkpt>
      <trkpt lat="47.08486" lon="5.49688">
        <ele>211</ele>
        <time>2010-08-01T06:12:27Z</time>
      </trkpt>
      <trkpt lat="47.08477" lon="5.49694">
        <ele>211</ele>
        <time>2010-08-01T06:12:29Z</time>
      </trkpt>
      <trkpt lat="47.08465" lon="5.49704">
        <ele>217</ele>
        <time>2010-08-01T06:12:32Z</time>
      </trkpt>
      <trkpt lat="47.08456" lon="5.49711">
        <ele>217</ele>
        <time>2010-08-01T06:12:34Z</time>
      </trkpt>
      <trkpt lat="47.08448" lon="5.49717">
        <ele>217</ele>
        <time>2010-08-01T06:12:36Z</time>
      </trkpt>
      <trkpt lat="47.08439" lon="5.49722">
        <ele>217</ele>
        <time>2010-08-01T06:12:38Z</time>
      </trkpt>
      <trkpt lat="47.0843" lon="5.49728">
        <ele>223</ele>
        <time>2010-08-01T06:12:40Z</time>
      </trkpt>
      <trkpt lat="47.08422" lon="5.49733">
        <ele>223</ele>
        <time>2010-08-01T06:12:42Z</time>
      </trkpt>
      <trkpt lat="47.08413" lon="5.49739">
        <ele>223</ele>
        <time>2010-08-01T06:12:44Z</time>
      </trkpt>
      <trkpt lat="47.08403" lon="5.49746">
        <ele>228</ele>
        <time>2010-08-01T06:12:46Z</time>
      </trkpt>
      <trkpt lat="47.08395" lon="5.49752">
        <ele>228</ele>
        <time>2010-08-01T06:12:48Z</time>
      </trkpt>
      <trkpt lat="47.08386" lon="5.49756">
        <ele>228</ele>
        <time>2010-08-01T06:12:50Z</time>
      </trkpt>
      <trkpt lat="47.08375" lon="5.49765">
        <ele>237</ele>
        <time>2010-08-01T06:12:53Z</time>
      </trkpt>
      <trkpt lat="47.08365" lon="5.49773">
        <ele>243</ele>
        <time>2010-08-01T06:12:56Z</time>
      </trkpt>
      <trkpt lat="47.08356" lon="5.49784">
        <ele>243</ele>
        <time>2010-08-01T06:12:59Z</time>
      </trkpt>
      <trkpt lat="47.08346" lon="5.49793">
        <ele>243</ele>
        <time>2010-08-01T06:13:02Z</time>
      </trkpt>
      <trkpt lat="47.08333" lon="5.498">
        <ele>250</ele>
        <time>2010-08-01T06:13:05Z</time>
      </trkpt>
      <trkpt lat="47.08322" lon="5.49807">
        <ele>250</ele>
        <time>2010-08-01T06:13:08Z</time>
      </trkpt>
      <trkpt lat="47.0831" lon="5.49812">
        <ele>250</ele>
        <time>2010-08-01T06:13:11Z</time>
      </trkpt>
      <trkpt lat="47.08302" lon="5.49816">
        <ele>250</ele>
        <time>2010-08-01T06:13:13Z</time>
      </trkpt>
      <trkpt lat="47.08293" lon="5.49819">
        <ele>255</ele>
        <time>2010-08-01T06:13:15Z</time>
      </trkpt>
      <trkpt lat="47.0828" lon="5.49824">
        <ele>255</ele>
        <time>2010-08-01T06:13:18Z</time>
      </trkpt>
      <trkpt lat="47.08271" lon="5.49827">
        <ele>255</ele>
        <time>2010-08-01T06:13:20Z</time>
      </trkpt>
      <trkpt lat="47.08259" lon="5.49832">
        <ele>255</ele>
        <time>2010-08-01T06:13:23Z</time>
      </trkpt>
      <trkpt lat="47.08249" lon="5.49832">
        <ele>255</ele>
        <time>2010-08-01T06:13:25Z</time>
      </trkpt>
      <trkpt lat="47.08238" lon="5.49835">
        <ele>255</ele>
        <time>2010-08-01T06:13:28Z</time>
      </trkpt>
      <trkpt lat="47.08226" lon="5.49835">
        <ele>255</ele>
        <time>2010-08-01T06:13:31Z</time>
      </trkpt>
      <trkpt lat="47.08214" lon="5.49834">
        <ele>250</ele>
        <time>2010-08-01T06:13:34Z</time>
      </trkpt>
      <trkpt lat="47.08205" lon="5.49829">
        <ele>250</ele>
        <time>2010-08-01T06:14:04Z</time>
      </trkpt>
      <trkpt lat="47.08196" lon="5.49831">
        <ele>250</ele>
        <time>2010-08-01T06:14:08Z</time>
      </trkpt>
      <trkpt lat="47.08185" lon="5.49835">
        <ele>250</ele>
        <time>2010-08-01T06:14:11Z</time>
      </trkpt>
      <trkpt lat="47.08181" lon="5.4985">
        <ele>243</ele>
        <time>2010-08-01T06:14:13Z</time>
      </trkpt>
      <trkpt lat="47.08181" lon="5.49866">
        <ele>243</ele>
        <time>2010-08-01T06:14:15Z</time>
      </trkpt>
      <trkpt lat="47.08181" lon="5.49883">
        <ele>243</ele>
        <time>2010-08-01T06:14:17Z</time>
      </trkpt>
      <trkpt lat="47.08182" lon="5.49901">
        <ele>243</ele>
        <time>2010-08-01T06:14:19Z</time>
      </trkpt>
      <trkpt lat="47.08181" lon="5.4992">
        <ele>243</ele>
        <time>2010-08-01T06:14:21Z</time>
      </trkpt>
      <trkpt lat="47.08181" lon="5.4994">
        <ele>243</ele>
        <time>2010-08-01T06:14:23Z</time>
      </trkpt>
      <trkpt lat="47.08179" lon="5.49959">
        <ele>243</ele>
        <time>2010-08-01T06:14:25Z</time>
      </trkpt>
      <trkpt lat="47.08178" lon="5.49979">
        <ele>243</ele>
        <time>2010-08-01T06:14:27Z</time>
      </trkpt>
      <trkpt lat="47.08176" lon="5.5">
        <ele>236</ele>
        <time>2010-08-01T06:14:29Z</time>
      </trkpt>
      <trkpt lat="47.08175" lon="5.5002">
        <ele>236</ele>
        <time>2010-08-01T06:14:31Z</time>
      </trkpt>
      <trkpt lat="47.08173" lon="5.5004">
        <ele>236</ele>
        <time>2010-08-01T06:14:33Z</time>
      </trkpt>
      <trkpt lat="47.08171" lon="5.5006">
        <ele>236</ele>
        <time>2010-08-01T06:14:35Z</time>
      </trkpt>
      <trkpt lat="47.0817" lon="5.5008">
        <ele>236</ele>
        <time>2010-08-01T06:14:37Z</time>
      </trkpt>
      <trkpt lat="47.08168" lon="5.50099">
        <ele>236</ele>
        <time>2010-08-01T06:14:39Z</time>
      </trkpt>
      <trkpt lat="47.08168" lon="5.50118">
        <ele>236</ele>
        <time>2010-08-01T06:14:41Z</time>
      </trkpt>
      <trkpt lat="47.08169" lon="5.50137">
        <ele>236</ele>
        <time>2010-08-01T06:14:43Z</time>
      </trkpt>
      <trkpt lat="47.08172" lon="5.50155">
        <ele>236</ele>
        <time>2010-08-01T06:14:45Z</time>
      </trkpt>
      <trkpt lat="47.08176" lon="5.50173">
        <ele>236</ele>
        <time>2010-08-01T06:14:47Z</time>
      </trkpt>
      <trkpt lat="47.08179" lon="5.50191">
        <ele>236</ele>
        <time>2010-08-01T06:14:49Z</time>
      </trkpt>
      <trkpt lat="47.08183" lon="5.50208">
        <ele>236</ele>
        <time>2010-08-01T06:14:51Z</time>
      </trkpt>
      <trkpt lat="47.08186" lon="5.50227">
        <ele>236</ele>
        <time>2010-08-01T06:14:53Z</time>
      </trkpt>
      <trkpt lat="47.08186" lon="5.50245">
        <ele>236</ele>
        <time>2010-08-01T06:14:55Z</time>
      </trkpt>
      <trkpt lat="47.08186" lon="5.50264">
        <ele>236</ele>
        <time>2010-08-01T06:14:57Z</time>
      </trkpt>
      <trkpt lat="47.08186" lon="5.50281">
        <ele>236</ele>
        <time>2010-08-01T06:14:59Z</time>
      </trkpt>
      <trkpt lat="47.08184" lon="5.50298">
        <ele>236</ele>
        <time>2010-08-01T06:15:01Z</time>
      </trkpt>
      <trkpt lat="47.08184" lon="5.50314">
        <ele>236</ele>
        <time>2010-08-01T06:15:03Z</time>
      </trkpt>
      <trkpt lat="47.08184" lon="5.5033">
        <ele>236</ele>
        <time>2010-08-01T06:15:05Z</time>
      </trkpt>
      <trkpt lat="47.08183" lon="5.50347">
        <ele>236</ele>
        <time>2010-08-01T06:15:07Z</time>
      </trkpt>
      <trkpt lat="47.08182" lon="5.50363">
        <ele>236</ele>
        <time>2010-08-01T06:15:09Z</time>
      </trkpt>
      <trkpt lat="47.08181" lon="5.50379">
        <ele>236</ele>
        <time>2010-08-01T06:15:11Z</time>
      </trkpt>
      <trkpt lat="47.08181" lon="5.50395">
        <ele>236</ele>
        <time>2010-08-01T06:15:13Z</time>
      </trkpt>
      <trkpt lat="47.08181" lon="5.5041">
        <ele>236</ele>
        <time>2010-08-01T06:15:15Z</time>
      </trkpt>
      <trkpt lat="47.0818" lon="5.50427">
        <ele>236</ele>
        <time>2010-08-01T06:15:17Z</time>
      </trkpt>
      <trkpt lat="47.0818" lon="5.50443">
        <ele>236</ele>
        <time>2010-08-01T06:15:19Z</time>
      </trkpt>
      <trkpt lat="47.0818" lon="5.50459">
        <ele>236</ele>
        <time>2010-08-01T06:15:21Z</time>
      </trkpt>
      <trkpt lat="47.08181" lon="5.50476">
        <ele>236</ele>
        <time>2010-08-01T06:15:23Z</time>
      </trkpt>
      <trkpt lat="47.08181" lon="5.50493">
        <ele>236</ele>
        <time>2010-08-01T06:15:25Z</time>
      </trkpt>
      <trkpt lat="47.08179" lon="5.5051">
        <ele>236</ele>
        <time>2010-08-01T06:15:27Z</time>
      </trkpt>
      <trkpt lat="47.08172" lon="5.50524">
        <ele>236</ele>
        <time>2010-08-01T06:15:29Z</time>
      </trkpt>
      <trkpt lat="47.08162" lon="5.50537">
        <ele>236</ele>
        <time>2010-08-01T06:15:31Z</time>
      </trkpt>
      <trkpt lat="47.08152" lon="5.5055">
        <ele>236</ele>
        <time>2010-08-01T06:15:33Z</time>
      </trkpt>
      <trkpt lat="47.08143" lon="5.50562">
        <ele>236</ele>
        <time>2010-08-01T06:15:35Z</time>
      </trkpt>
      <trkpt lat="47.08133" lon="5.50574">
        <ele>236</ele>
        <time>2010-08-01T06:15:37Z</time>
      </trkpt>
      <trkpt lat="47.08124" lon="5.50586">
        <ele>236</ele>
        <time>2010-08-01T06:15:39Z</time>
      </trkpt>
      <trkpt lat="47.08113" lon="5.50598">
        <ele>236</ele>
        <time>2010-08-01T06:15:41Z</time>
      </trkpt>
      <trkpt lat="47.08103" lon="5.5061">
        <ele>236</ele>
        <time>2010-08-01T06:15:43Z</time>
      </trkpt>
      <trkpt lat="47.08094" lon="5.50622">
        <ele>236</ele>
        <time>2010-08-01T06:15:45Z</time>
      </trkpt>
      <trkpt lat="47.08082" lon="5.50633">
        <ele>236</ele>
        <time>2010-08-01T06:15:47Z</time>
      </trkpt>
      <trkpt lat="47.08073" lon="5.50646">
        <ele>236</ele>
        <time>2010-08-01T06:15:49Z</time>
      </trkpt>
      <trkpt lat="47.08063" lon="5.50657">
        <ele>236</ele>
        <time>2010-08-01T06:15:51Z</time>
      </trkpt>
      <trkpt lat="47.08052" lon="5.50669">
        <ele>236</ele>
        <time>2010-08-01T06:15:53Z</time>
      </trkpt>
      <trkpt lat="47.08041" lon="5.5068">
        <ele>236</ele>
        <time>2010-08-01T06:15:55Z</time>
      </trkpt>
      <trkpt lat="47.0803" lon="5.5069">
        <ele>236</ele>
        <time>2010-08-01T06:15:57Z</time>
      </trkpt>
      <trkpt lat="47.0802" lon="5.50699">
        <ele>236</ele>
        <time>2010-08-01T06:15:59Z</time>
      </trkpt>
      <trkpt lat="47.08009" lon="5.50708">
        <ele>236</ele>
        <time>2010-08-01T06:16:01Z</time>
      </trkpt>
      <trkpt lat="47.07998" lon="5.50717">
        <ele>236</ele>
        <time>2010-08-01T06:16:03Z</time>
      </trkpt>
      <trkpt lat="47.07987" lon="5.50725">
        <ele>236</ele>
        <time>2010-08-01T06:16:05Z</time>
      </trkpt>
      <trkpt lat="47.07976" lon="5.50734">
        <ele>236</ele>
        <time>2010-08-01T06:16:07Z</time>
      </trkpt>
      <trkpt lat="47.07964" lon="5.50744">
        <ele>241</ele>
        <time>2010-08-01T06:16:09Z</time>
      </trkpt>
      <trkpt lat="47.07952" lon="5.50753">
        <ele>241</ele>
        <time>2010-08-01T06:16:11Z</time>
      </trkpt>
      <trkpt lat="47.0794" lon="5.50763">
        <ele>241</ele>
        <time>2010-08-01T06:16:13Z</time>
      </trkpt>
      <trkpt lat="47.07928" lon="5.50773">
        <ele>241</ele>
        <time>2010-08-01T06:16:15Z</time>
      </trkpt>
      <trkpt lat="47.07916" lon="5.50783">
        <ele>241</ele>
        <time>2010-08-01T06:16:17Z</time>
      </trkpt>
      <trkpt lat="47.07903" lon="5.50794">
        <ele>241</ele>
        <time>2010-08-01T06:16:19Z</time>
      </trkpt>
      <trkpt lat="47.07889" lon="5.50804">
        <ele>241</ele>
        <time>2010-08-01T06:16:21Z</time>
      </trkpt>
      <trkpt lat="47.07876" lon="5.50816">
        <ele>241</ele>
        <time>2010-08-01T06:16:23Z</time>
      </trkpt>
      <trkpt lat="47.07863" lon="5.50829">
        <ele>241</ele>
        <time>2010-08-01T06:16:25Z</time>
      </trkpt>
      <trkpt lat="47.07851" lon="5.50842">
        <ele>241</ele>
        <time>2010-08-01T06:16:27Z</time>
      </trkpt>
      <trkpt lat="47.07837" lon="5.50858">
        <ele>241</ele>
        <time>2010-08-01T06:16:29Z</time>
      </trkpt>
      <trkpt lat="47.07824" lon="5.50872">
        <ele>241</ele>
        <time>2010-08-01T06:16:31Z</time>
      </trkpt>
      <trkpt lat="47.0781" lon="5.50887">
        <ele>241</ele>
        <time>2010-08-01T06:16:33Z</time>
      </trkpt>
      <trkpt lat="47.07797" lon="5.50903">
        <ele>241</ele>
        <time>2010-08-01T06:16:35Z</time>
      </trkpt>
      <trkpt lat="47.07784" lon="5.50918">
        <ele>241</ele>
        <time>2010-08-01T06:16:37Z</time>
      </trkpt>
      <trkpt lat="47.07771" lon="5.50932">
        <ele>241</ele>
        <time>2010-08-01T06:16:39Z</time>
      </trkpt>
      <trkpt lat="47.07759" lon="5.50947">
        <ele>241</ele>
        <time>2010-08-01T06:16:41Z</time>
      </trkpt>
      <trkpt lat="47.07747" lon="5.50962">
        <ele>241</ele>
        <time>2010-08-01T06:16:43Z</time>
      </trkpt>
      <trkpt lat="47.07738" lon="5.5098">
        <ele>241</ele>
        <time>2010-08-01T06:16:45Z</time>
      </trkpt>
      <trkpt lat="47.0773" lon="5.51">
        <ele>241</ele>
        <time>2010-08-01T06:16:47Z</time>
      </trkpt>
      <trkpt lat="47.07727" lon="5.51022">
        <ele>241</ele>
        <time>2010-08-01T06:16:49Z</time>
      </trkpt>
      <trkpt lat="47.07728" lon="5.51045">
        <ele>241</ele>
        <time>2010-08-01T06:16:51Z</time>
      </trkpt>
      <trkpt lat="47.07732" lon="5.51066">
        <ele>241</ele>
        <time>2010-08-01T06:16:53Z</time>
      </trkpt>
      <trkpt lat="47.07736" lon="5.51088">
        <ele>241</ele>
        <time>2010-08-01T06:16:55Z</time>
      </trkpt>
      <trkpt lat="47.0774" lon="5.51108">
        <ele>241</ele>
        <time>2010-08-01T06:16:57Z</time>
      </trkpt>
      <trkpt lat="47.07744" lon="5.51129">
        <ele>241</ele>
        <time>2010-08-01T06:16:59Z</time>
      </trkpt>
      <trkpt lat="47.07746" lon="5.51149">
        <ele>241</ele>
        <time>2010-08-01T06:17:01Z</time>
      </trkpt>
      <trkpt lat="47.07747" lon="5.51169">
        <ele>241</ele>
        <time>2010-08-01T06:17:03Z</time>
      </trkpt>
      <trkpt lat="47.07747" lon="5.51189">
        <ele>241</ele>
        <time>2010-08-01T06:17:05Z</time>
      </trkpt>
      <trkpt lat="47.07747" lon="5.51209">
        <ele>241</ele>
        <time>2010-08-01T06:17:07Z</time>
      </trkpt>
      <trkpt lat="47.07746" lon="5.51229">
        <ele>241</ele>
        <time>2010-08-01T06:17:09Z</time>
      </trkpt>
      <trkpt lat="47.07744" lon="5.51248">
        <ele>241</ele>
        <time>2010-08-01T06:17:11Z</time>
      </trkpt>
      <trkpt lat="47.07743" lon="5.51266">
        <ele>241</ele>
        <time>2010-08-01T06:17:13Z</time>
      </trkpt>
      <trkpt lat="47.07741" lon="5.51283">
        <ele>241</ele>
        <time>2010-08-01T06:17:15Z</time>
      </trkpt>
      <trkpt lat="47.07738" lon="5.51298">
        <ele>241</ele>
        <time>2010-08-01T06:17:17Z</time>
      </trkpt>
      <trkpt lat="47.07735" lon="5.51312">
        <ele>241</ele>
        <time>2010-08-01T06:17:19Z</time>
      </trkpt>
      <trkpt lat="47.07739" lon="5.51295">
        <ele>241</ele>
        <time>2010-08-01T06:17:26Z</time>
      </trkpt>
      <trkpt lat="47.07741" lon="5.5128">
        <ele>241</ele>
        <time>2010-08-01T06:17:28Z</time>
      </trkpt>
      <trkpt lat="47.07743" lon="5.51264">
        <ele>241</ele>
        <time>2010-08-01T06:17:30Z</time>
      </trkpt>
      <trkpt lat="47.07746" lon="5.51249">
        <ele>241</ele>
        <time>2010-08-01T06:17:32Z</time>
      </trkpt>
      <trkpt lat="47.07757" lon="5.51246">
        <ele>241</ele>
        <time>2010-08-01T06:17:35Z</time>
      </trkpt>
      <trkpt lat="47.07769" lon="5.51255">
        <ele>241</ele>
        <time>2010-08-01T06:17:38Z</time>
      </trkpt>
      <trkpt lat="47.07778" lon="5.51261">
        <ele>241</ele>
        <time>2010-08-01T06:17:40Z</time>
      </trkpt>
      <trkpt lat="47.07789" lon="5.51267">
        <ele>241</ele>
        <time>2010-08-01T06:17:42Z</time>
      </trkpt>
      <trkpt lat="47.078" lon="5.51275">
        <ele>241</ele>
        <time>2010-08-01T06:17:44Z</time>
      </trkpt>
      <trkpt lat="47.07812" lon="5.51282">
        <ele>241</ele>
        <time>2010-08-01T06:17:46Z</time>
      </trkpt>
      <trkpt lat="47.07824" lon="5.51288">
        <ele>241</ele>
        <time>2010-08-01T06:17:48Z</time>
      </trkpt>
      <trkpt lat="47.07836" lon="5.51294">
        <ele>241</ele>
        <time>2010-08-01T06:17:50Z</time>
      </trkpt>
      <trkpt lat="47.0785" lon="5.51302">
        <ele>241</ele>
        <time>2010-08-01T06:17:52Z</time>
      </trkpt>
      <trkpt lat="47.07862" lon="5.51309">
        <ele>241</ele>
        <time>2010-08-01T06:17:54Z</time>
      </trkpt>
      <trkpt lat="47.07874" lon="5.51315">
        <ele>241</ele>
        <time>2010-08-01T06:17:56Z</time>
      </trkpt>
      <trkpt lat="47.07882" lon="5.51321">
        <ele>241</ele>
        <time>2010-08-01T06:17:58Z</time>
      </trkpt>
      <trkpt lat="47.07891" lon="5.51326">
        <ele>241</ele>
        <time>2010-08-01T06:18:00Z</time>
      </trkpt>
      <trkpt lat="47.079" lon="5.51328">
        <ele>241</ele>
        <time>2010-08-01T06:18:03Z</time>
      </trkpt>
      <trkpt lat="47.07905" lon="5.51317">
        <ele>241</ele>
        <time>2010-08-01T06:18:31Z</time>
      </trkpt>
      <trkpt lat="47.079" lon="5.51328">
        <ele>251</ele>
        <time>2010-08-01T06:20:04Z</time>
      </trkpt>
      <trkpt lat="47.07904" lon="5.51315">
        <ele>242</ele>
        <time>2010-08-01T06:21:25Z</time>
      </trkpt>
      <trkpt lat="47.07898" lon="5.51326">
        <ele>250</ele>
        <time>2010-08-01T06:25:18Z</time>
      </trkpt>
      <trkpt lat="47.07905" lon="5.51317">
        <ele>250</ele>
        <time>2010-08-01T06:27:45Z</time>
      </trkpt>
      <trkpt lat="47.07898" lon="5.51326">
        <ele>250</ele>
        <time>2010-08-01T06:31:56Z</time>
      </trkpt>
      <trkpt lat="47.07901" lon="5.51312">
        <ele>238</ele>
        <time>2010-08-01T06:33:57Z</time>
      </trkpt>
      <trkpt lat="47.07905" lon="5.51324">
        <ele>238</ele>
        <time>2010-08-01T06:35:18Z</time>
      </trkpt>
      <trkpt lat="47.07895" lon="5.51328">
        <ele>238</ele>
        <time>2010-08-01T06:35:26Z</time>
      </trkpt>
      <trkpt lat="47.07885" lon="5.5132">
        <ele>238</ele>
        <time>2010-08-01T06:35:31Z</time>
      </trkpt>
      <trkpt lat="47.07874" lon="5.51315">
        <ele>238</ele>
        <time>2010-08-01T06:35:35Z</time>
      </trkpt>
      <trkpt lat="47.07863" lon="5.51311">
        <ele>243</ele>
        <time>2010-08-01T06:35:39Z</time>
      </trkpt>
      <trkpt lat="47.07854" lon="5.51305">
        <ele>243</ele>
        <time>2010-08-01T06:35:42Z</time>
      </trkpt>
      <trkpt lat="47.07844" lon="5.51301">
        <ele>243</ele>
        <time>2010-08-01T06:35:45Z</time>
      </trkpt>
      <trkpt lat="47.07834" lon="5.51295">
        <ele>243</ele>
        <time>2010-08-01T06:35:48Z</time>
      </trkpt>
      <trkpt lat="47.07825" lon="5.51289">
        <ele>243</ele>
        <time>2010-08-01T06:35:51Z</time>
      </trkpt>
      <trkpt lat="47.07816" lon="5.51284">
        <ele>243</ele>
        <time>2010-08-01T06:35:54Z</time>
      </trkpt>
      <trkpt lat="47.07807" lon="5.51278">
        <ele>243</ele>
        <time>2010-08-01T06:35:57Z</time>
      </trkpt>
      <trkpt lat="47.07796" lon="5.51272">
        <ele>243</ele>
        <time>2010-08-01T06:36:00Z</time>
      </trkpt>
      <trkpt lat="47.07785" lon="5.51265">
        <ele>243</ele>
        <time>2010-08-01T06:36:03Z</time>
      </trkpt>
      <trkpt lat="47.07774" lon="5.51258">
        <ele>243</ele>
        <time>2010-08-01T06:36:06Z</time>
      </trkpt>
      <trkpt lat="47.07764" lon="5.51252">
        <ele>243</ele>
        <time>2010-08-01T06:36:09Z</time>
      </trkpt>
      <trkpt lat="47.07756" lon="5.51245">
        <ele>243</ele>
        <time>2010-08-01T06:36:12Z</time>
      </trkpt>
      <trkpt lat="47.07748" lon="5.51255">
        <ele>243</ele>
        <time>2010-08-01T06:36:18Z</time>
      </trkpt>
      <trkpt lat="47.07746" lon="5.5127">
        <ele>243</ele>
        <time>2010-08-01T06:36:21Z</time>
      </trkpt>
      <trkpt lat="47.07742" lon="5.51286">
        <ele>243</ele>
        <time>2010-08-01T06:36:24Z</time>
      </trkpt>
      <trkpt lat="47.07738" lon="5.51304">
        <ele>243</ele>
        <time>2010-08-01T06:36:27Z</time>
      </trkpt>
      <trkpt lat="47.07735" lon="5.51317">
        <ele>243</ele>
        <time>2010-08-01T06:36:29Z</time>
      </trkpt>
      <trkpt lat="47.07732" lon="5.5133">
        <ele>243</ele>
        <time>2010-08-01T06:36:31Z</time>
      </trkpt>
      <trkpt lat="47.07729" lon="5.51345">
        <ele>243</ele>
        <time>2010-08-01T06:36:33Z</time>
      </trkpt>
      <trkpt lat="47.07726" lon="5.51359">
        <ele>243</ele>
        <time>2010-08-01T06:36:35Z</time>
      </trkpt>
      <trkpt lat="47.07723" lon="5.51373">
        <ele>243</ele>
        <time>2010-08-01T06:36:37Z</time>
      </trkpt>
      <trkpt lat="47.0772" lon="5.5139">
        <ele>243</ele>
        <time>2010-08-01T06:36:39Z</time>
      </trkpt>
      <trkpt lat="47.07717" lon="5.51405">
        <ele>243</ele>
        <time>2010-08-01T06:36:41Z</time>
      </trkpt>
      <trkpt lat="47.07714" lon="5.51421">
        <ele>243</ele>
        <time>2010-08-01T06:36:43Z</time>
      </trkpt>
      <trkpt lat="47.07711" lon="5.51438">
        <ele>243</ele>
        <time>2010-08-01T06:36:45Z</time>
      </trkpt>
      <trkpt lat="47.07708" lon="5.51455">
        <ele>243</ele>
        <time>2010-08-01T06:36:47Z</time>
      </trkpt>
      <trkpt lat="47.07704" lon="5.51471">
        <ele>243</ele>
        <time>2010-08-01T06:36:49Z</time>
      </trkpt>
      <trkpt lat="47.07701" lon="5.51488">
        <ele>243</ele>
        <time>2010-08-01T06:36:51Z</time>
      </trkpt>
      <trkpt lat="47.07697" lon="5.51505">
        <ele>243</ele>
        <time>2010-08-01T06:36:53Z</time>
      </trkpt>
      <trkpt lat="47.07693" lon="5.51522">
        <ele>243</ele>
        <time>2010-08-01T06:36:55Z</time>
      </trkpt>
      <trkpt lat="47.0769" lon="5.5154">
        <ele>243</ele>
        <time>2010-08-01T06:36:57Z</time>
      </trkpt>
      <trkpt lat="47.07685" lon="5.51557">
        <ele>243</ele>
        <time>2010-08-01T06:36:59Z</time>
      </trkpt>
      <trkpt lat="47.07679" lon="5.51574">
        <ele>243</ele>
        <time>2010-08-01T06:37:01Z</time>
      </trkpt>
      <trkpt lat="47.07673" lon="5.51591">
        <ele>243</ele>
        <time>2010-08-01T06:37:03Z</time>
      </trkpt>
      <trkpt lat="47.07668" lon="5.5161">
        <ele>243</ele>
        <time>2010-08-01T06:37:05Z</time>
      </trkpt>
      <trkpt lat="47.07661" lon="5.51629">
        <ele>243</ele>
        <time>2010-08-01T06:37:07Z</time>
      </trkpt>
      <trkpt lat="47.07654" lon="5.51647">
        <ele>243</ele>
        <time>2010-08-01T06:37:09Z</time>
      </trkpt>
      <trkpt lat="47.07647" lon="5.51666">
        <ele>243</ele>
        <time>2010-08-01T06:37:11Z</time>
      </trkpt>
      <trkpt lat="47.07641" lon="5.51685">
        <ele>243</ele>
        <time>2010-08-01T06:37:13Z</time>
      </trkpt>
      <trkpt lat="47.07636" lon="5.51704">
        <ele>243</ele>
        <time>2010-08-01T06:37:15Z</time>
      </trkpt>
      <trkpt lat="47.07631" lon="5.51723">
        <ele>243</ele>
        <time>2010-08-01T06:37:17Z</time>
      </trkpt>
      <trkpt lat="47.07627" lon="5.51742">
        <ele>243</ele>
        <time>2010-08-01T06:37:19Z</time>
      </trkpt>
      <trkpt lat="47.07623" lon="5.5176">
        <ele>243</ele>
        <time>2010-08-01T06:37:21Z</time>
      </trkpt>
      <trkpt lat="47.07619" lon="5.51778">
        <ele>243</ele>
        <time>2010-08-01T06:37:23Z</time>
      </trkpt>
      <trkpt lat="47.07614" lon="5.51795">
        <ele>243</ele>
        <time>2010-08-01T06:37:25Z</time>
      </trkpt>
      <trkpt lat="47.0761" lon="5.51812">
        <ele>243</ele>
        <time>2010-08-01T06:37:27Z</time>
      </trkpt>
      <trkpt lat="47.07606" lon="5.51828">
        <ele>249</ele>
        <time>2010-08-01T06:37:29Z</time>
      </trkpt>
      <trkpt lat="47.07602" lon="5.51846">
        <ele>249</ele>
        <time>2010-08-01T06:37:31Z</time>
      </trkpt>
      <trkpt lat="47.07597" lon="5.51865">
        <ele>249</ele>
        <time>2010-08-01T06:37:33Z</time>
      </trkpt>
      <trkpt lat="47.07593" lon="5.51884">
        <ele>249</ele>
        <time>2010-08-01T06:37:35Z</time>
      </trkpt>
      <trkpt lat="47.07588" lon="5.51904">
        <ele>249</ele>
        <time>2010-08-01T06:37:37Z</time>
      </trkpt>
      <trkpt lat="47.07585" lon="5.51924">
        <ele>249</ele>
        <time>2010-08-01T06:37:39Z</time>
      </trkpt>
      <trkpt lat="47.07579" lon="5.51945">
        <ele>249</ele>
        <time>2010-08-01T06:37:41Z</time>
      </trkpt>
      <trkpt lat="47.07576" lon="5.51966">
        <ele>249</ele>
        <time>2010-08-01T06:37:43Z</time>
      </trkpt>
      <trkpt lat="47.07572" lon="5.51987">
        <ele>249</ele>
        <time>2010-08-01T06:37:45Z</time>
      </trkpt>
      <trkpt lat="47.07565" lon="5.52008">
        <ele>249</ele>
        <time>2010-08-01T06:37:47Z</time>
      </trkpt>
      <trkpt lat="47.07559" lon="5.52026">
        <ele>249</ele>
        <time>2010-08-01T06:37:49Z</time>
      </trkpt>
      <trkpt lat="47.07556" lon="5.52047">
        <ele>249</ele>
        <time>2010-08-01T06:37:51Z</time>
      </trkpt>
      <trkpt lat="47.07552" lon="5.5207">
        <ele>249</ele>
        <time>2010-08-01T06:37:53Z</time>
      </trkpt>
      <trkpt lat="47.07548" lon="5.52092">
        <ele>249</ele>
        <time>2010-08-01T06:37:55Z</time>
      </trkpt>
      <trkpt lat="47.07544" lon="5.52114">
        <ele>249</ele>
        <time>2010-08-01T06:37:57Z</time>
      </trkpt>
      <trkpt lat="47.07539" lon="5.52135">
        <ele>249</ele>
        <time>2010-08-01T06:37:59Z</time>
      </trkpt>
      <trkpt lat="47.07533" lon="5.52153">
        <ele>255</ele>
        <time>2010-08-01T06:38:01Z</time>
      </trkpt>
      <trkpt lat="47.07527" lon="5.52172">
        <ele>255</ele>
        <time>2010-08-01T06:38:03Z</time>
      </trkpt>
      <trkpt lat="47.07523" lon="5.52194">
        <ele>255</ele>
        <time>2010-08-01T06:38:05Z</time>
      </trkpt>
      <trkpt lat="47.07519" lon="5.52213">
        <ele>255</ele>
        <time>2010-08-01T06:38:07Z</time>
      </trkpt>
      <trkpt lat="47.07512" lon="5.52236">
        <ele>255</ele>
        <time>2010-08-01T06:38:09Z</time>
      </trkpt>
      <trkpt lat="47.07508" lon="5.52257">
        <ele>255</ele>
        <time>2010-08-01T06:38:11Z</time>
      </trkpt>
      <trkpt lat="47.07506" lon="5.52279">
        <ele>255</ele>
        <time>2010-08-01T06:38:13Z</time>
      </trkpt>
      <trkpt lat="47.075" lon="5.52302">
        <ele>255</ele>
        <time>2010-08-01T06:38:15Z</time>
      </trkpt>
      <trkpt lat="47.07493" lon="5.52322">
        <ele>255</ele>
        <time>2010-08-01T06:38:17Z</time>
      </trkpt>
      <trkpt lat="47.07488" lon="5.5234">
        <ele>255</ele>
        <time>2010-08-01T06:38:19Z</time>
      </trkpt>
      <trkpt lat="47.07484" lon="5.5236">
        <ele>250</ele>
        <time>2010-08-01T06:38:21Z</time>
      </trkpt>
      <trkpt lat="47.0748" lon="5.52378">
        <ele>250</ele>
        <time>2010-08-01T06:38:23Z</time>
      </trkpt>
      <trkpt lat="47.07474" lon="5.52397">
        <ele>250</ele>
        <time>2010-08-01T06:38:25Z</time>
      </trkpt>
      <trkpt lat="47.07468" lon="5.52415">
        <ele>250</ele>
        <time>2010-08-01T06:38:27Z</time>
      </trkpt>
      <trkpt lat="47.07461" lon="5.52432">
        <ele>250</ele>
        <time>2010-08-01T06:38:29Z</time>
      </trkpt>
      <trkpt lat="47.07456" lon="5.52448">
        <ele>250</ele>
        <time>2010-08-01T06:38:31Z</time>
      </trkpt>
      <trkpt lat="47.07452" lon="5.52462">
        <ele>257</ele>
        <time>2010-08-01T06:38:33Z</time>
      </trkpt>
      <trkpt lat="47.07447" lon="5.52478">
        <ele>257</ele>
        <time>2010-08-01T06:38:35Z</time>
      </trkpt>
      <trkpt lat="47.07438" lon="5.52496">
        <ele>257</ele>
        <time>2010-08-01T06:38:37Z</time>
      </trkpt>
      <trkpt lat="47.07431" lon="5.52512">
        <ele>257</ele>
        <time>2010-08-01T06:38:39Z</time>
      </trkpt>
      <trkpt lat="47.07423" lon="5.5253">
        <ele>257</ele>
        <time>2010-08-01T06:38:41Z</time>
      </trkpt>
      <trkpt lat="47.07415" lon="5.52546">
        <ele>257</ele>
        <time>2010-08-01T06:38:43Z</time>
      </trkpt>
      <trkpt lat="47.07407" lon="5.52564">
        <ele>251</ele>
        <time>2010-08-01T06:38:45Z</time>
      </trkpt>
      <trkpt lat="47.07398" lon="5.52582">
        <ele>251</ele>
        <time>2010-08-01T06:38:47Z</time>
      </trkpt>
      <trkpt lat="47.07387" lon="5.52598">
        <ele>251</ele>
        <time>2010-08-01T06:38:49Z</time>
      </trkpt>
      <trkpt lat="47.07374" lon="5.52616">
        <ele>243</ele>
        <time>2010-08-01T06:38:51Z</time>
      </trkpt>
      <trkpt lat="47.07366" lon="5.52636">
        <ele>243</ele>
        <time>2010-08-01T06:38:53Z</time>
      </trkpt>
      <trkpt lat="47.07365" lon="5.52649">
        <ele>243</ele>
        <time>2010-08-01T06:38:54Z</time>
      </trkpt>
      <trkpt lat="47.07366" lon="5.52663">
        <ele>237</ele>
        <time>2010-08-01T06:38:55Z</time>
      </trkpt>
      <trkpt lat="47.07368" lon="5.52678">
        <ele>237</ele>
        <time>2010-08-01T06:38:56Z</time>
      </trkpt>
      <trkpt lat="47.07374" lon="5.52702">
        <ele>237</ele>
        <time>2010-08-01T06:38:58Z</time>
      </trkpt>
      <trkpt lat="47.07379" lon="5.52725">
        <ele>237</ele>
        <time>2010-08-01T06:39:00Z</time>
      </trkpt>
      <trkpt lat="47.0738" lon="5.52747">
        <ele>237</ele>
        <time>2010-08-01T06:39:02Z</time>
      </trkpt>
      <trkpt lat="47.07378" lon="5.52766">
        <ele>237</ele>
        <time>2010-08-01T06:39:04Z</time>
      </trkpt>
      <trkpt lat="47.07374" lon="5.52783">
        <ele>237</ele>
        <time>2010-08-01T06:39:06Z</time>
      </trkpt>
      <trkpt lat="47.07369" lon="5.52798">
        <ele>237</ele>
        <time>2010-08-01T06:39:08Z</time>
      </trkpt>
      <trkpt lat="47.07364" lon="5.52813">
        <ele>237</ele>
        <time>2010-08-01T06:39:10Z</time>
      </trkpt>
      <trkpt lat="47.07358" lon="5.52829">
        <ele>237</ele>
        <time>2010-08-01T06:39:12Z</time>
      </trkpt>
      <trkpt lat="47.07354" lon="5.52843">
        <ele>243</ele>
        <time>2010-08-01T06:39:14Z</time>
      </trkpt>
      <trkpt lat="47.07349" lon="5.52857">
        <ele>243</ele>
        <time>2010-08-01T06:39:16Z</time>
      </trkpt>
      <trkpt lat="47.07344" lon="5.52872">
        <ele>243</ele>
        <time>2010-08-01T06:39:18Z</time>
      </trkpt>
      <trkpt lat="47.0734" lon="5.52885">
        <ele>243</ele>
        <time>2010-08-01T06:39:20Z</time>
      </trkpt>
      <trkpt lat="47.07336" lon="5.529">
        <ele>248</ele>
        <time>2010-08-01T06:39:22Z</time>
      </trkpt>
      <trkpt lat="47.07333" lon="5.52913">
        <ele>248</ele>
        <time>2010-08-01T06:39:24Z</time>
      </trkpt>
      <trkpt lat="47.07328" lon="5.52926">
        <ele>256</ele>
        <time>2010-08-01T06:39:26Z</time>
      </trkpt>
      <trkpt lat="47.07323" lon="5.52939">
        <ele>256</ele>
        <time>2010-08-01T06:39:28Z</time>
      </trkpt>
      <trkpt lat="47.07317" lon="5.52954">
        <ele>256</ele>
        <time>2010-08-01T06:39:30Z</time>
      </trkpt>
      <trkpt lat="47.07313" lon="5.5297">
        <ele>256</ele>
        <time>2010-08-01T06:39:32Z</time>
      </trkpt>
      <trkpt lat="47.07309" lon="5.52985">
        <ele>256</ele>
        <time>2010-08-01T06:39:34Z</time>
      </trkpt>
      <trkpt lat="47.07304" lon="5.53001">
        <ele>256</ele>
        <time>2010-08-01T06:39:36Z</time>
      </trkpt>
      <trkpt lat="47.07299" lon="5.53016">
        <ele>256</ele>
        <time>2010-08-01T06:39:38Z</time>
      </trkpt>
      <trkpt lat="47.07293" lon="5.53033">
        <ele>256</ele>
        <time>2010-08-01T06:39:40Z</time>
      </trkpt>
      <trkpt lat="47.07288" lon="5.5305">
        <ele>256</ele>
        <time>2010-08-01T06:39:42Z</time>
      </trkpt>
      <trkpt lat="47.07282" lon="5.53066">
        <ele>256</ele>
        <time>2010-08-01T06:39:44Z</time>
      </trkpt>
      <trkpt lat="47.07277" lon="5.53082">
        <ele>256</ele>
        <time>2010-08-01T06:39:46Z</time>
      </trkpt>
      <trkpt lat="47.07272" lon="5.53097">
        <ele>262</ele>
        <time>2010-08-01T06:39:48Z</time>
      </trkpt>
      <trkpt lat="47.07268" lon="5.53113">
        <ele>262</ele>
        <time>2010-08-01T06:39:50Z</time>
      </trkpt>
      <trkpt lat="47.07263" lon="5.53128">
        <ele>262</ele>
        <time>2010-08-01T06:39:52Z</time>
      </trkpt>
      <trkpt lat="47.07256" lon="5.53144">
        <ele>262</ele>
        <time>2010-08-01T06:39:54Z</time>
      </trkpt>
      <trkpt lat="47.07251" lon="5.53158">
        <ele>262</ele>
        <time>2010-08-01T06:39:56Z</time>
      </trkpt>
      <trkpt lat="47.07245" lon="5.53175">
        <ele>262</ele>
        <time>2010-08-01T06:39:58Z</time>
      </trkpt>
      <trkpt lat="47.07237" lon="5.53192">
        <ele>262</ele>
        <time>2010-08-01T06:40:00Z</time>
      </trkpt>
      <trkpt lat="47.07231" lon="5.53208">
        <ele>262</ele>
        <time>2010-08-01T06:40:02Z</time>
      </trkpt>
      <trkpt lat="47.07225" lon="5.53225">
        <ele>262</ele>
        <time>2010-08-01T06:40:04Z</time>
      </trkpt>
      <trkpt lat="47.07217" lon="5.53241">
        <ele>262</ele>
        <time>2010-08-01T06:40:06Z</time>
      </trkpt>
      <trkpt lat="47.0721" lon="5.53258">
        <ele>262</ele>
        <time>2010-08-01T06:40:08Z</time>
      </trkpt>
      <trkpt lat="47.07204" lon="5.53275">
        <ele>262</ele>
        <time>2010-08-01T06:40:10Z</time>
      </trkpt>
      <trkpt lat="47.07198" lon="5.5329">
        <ele>262</ele>
        <time>2010-08-01T06:40:12Z</time>
      </trkpt>
      <trkpt lat="47.0719" lon="5.53307">
        <ele>262</ele>
        <time>2010-08-01T06:40:14Z</time>
      </trkpt>
      <trkpt lat="47.07183" lon="5.53323">
        <ele>262</ele>
        <time>2010-08-01T06:40:16Z</time>
      </trkpt>
      <trkpt lat="47.07177" lon="5.53338">
        <ele>262</ele>
        <time>2010-08-01T06:40:18Z</time>
      </trkpt>
      <trkpt lat="47.07171" lon="5.53353">
        <ele>262</ele>
        <time>2010-08-01T06:40:20Z</time>
      </trkpt>
      <trkpt lat="47.07164" lon="5.53369">
        <ele>262</ele>
        <time>2010-08-01T06:40:22Z</time>
      </trkpt>
      <trkpt lat="47.07158" lon="5.53387">
        <ele>256</ele>
        <time>2010-08-01T06:40:24Z</time>
      </trkpt>
      <trkpt lat="47.0715" lon="5.53404">
        <ele>256</ele>
        <time>2010-08-01T06:40:26Z</time>
      </trkpt>
      <trkpt lat="47.07143" lon="5.53421">
        <ele>256</ele>
        <time>2010-08-01T06:40:28Z</time>
      </trkpt>
      <trkpt lat="47.07136" lon="5.53437">
        <ele>256</ele>
        <time>2010-08-01T06:40:30Z</time>
      </trkpt>
      <trkpt lat="47.07129" lon="5.53453">
        <ele>256</ele>
        <time>2010-08-01T06:40:32Z</time>
      </trkpt>
      <trkpt lat="47.07121" lon="5.5347">
        <ele>250</ele>
        <time>2010-08-01T06:40:34Z</time>
      </trkpt>
      <trkpt lat="47.07114" lon="5.53488">
        <ele>250</ele>
        <time>2010-08-01T06:40:36Z</time>
      </trkpt>
      <trkpt lat="47.07109" lon="5.53506">
        <ele>250</ele>
        <time>2010-08-01T06:40:38Z</time>
      </trkpt>
      <trkpt lat="47.07102" lon="5.53523">
        <ele>250</ele>
        <time>2010-08-01T06:40:40Z</time>
      </trkpt>
      <trkpt lat="47.07096" lon="5.5354">
        <ele>250</ele>
        <time>2010-08-01T06:40:42Z</time>
      </trkpt>
      <trkpt lat="47.0709" lon="5.53556">
        <ele>255</ele>
        <time>2010-08-01T06:40:44Z</time>
      </trkpt>
      <trkpt lat="47.07085" lon="5.53572">
        <ele>255</ele>
        <time>2010-08-01T06:40:46Z</time>
      </trkpt>
      <trkpt lat="47.07078" lon="5.53588">
        <ele>261</ele>
        <time>2010-08-01T06:40:48Z</time>
      </trkpt>
      <trkpt lat="47.07069" lon="5.53607">
        <ele>261</ele>
        <time>2010-08-01T06:40:50Z</time>
      </trkpt>
      <trkpt lat="47.07061" lon="5.53625">
        <ele>261</ele>
        <time>2010-08-01T06:40:52Z</time>
      </trkpt>
      <trkpt lat="47.07053" lon="5.53643">
        <ele>255</ele>
        <time>2010-08-01T06:40:54Z</time>
      </trkpt>
      <trkpt lat="47.07045" lon="5.53662">
        <ele>255</ele>
        <time>2010-08-01T06:40:56Z</time>
      </trkpt>
      <trkpt lat="47.07037" lon="5.53681">
        <ele>255</ele>
        <time>2010-08-01T06:40:58Z</time>
      </trkpt>
      <trkpt lat="47.07029" lon="5.537">
        <ele>255</ele>
        <time>2010-08-01T06:41:00Z</time>
      </trkpt>
      <trkpt lat="47.07021" lon="5.53719">
        <ele>255</ele>
        <time>2010-08-01T06:41:02Z</time>
      </trkpt>
      <trkpt lat="47.07012" lon="5.53737">
        <ele>255</ele>
        <time>2010-08-01T06:41:04Z</time>
      </trkpt>
      <trkpt lat="47.07002" lon="5.53753">
        <ele>255</ele>
        <time>2010-08-01T06:41:06Z</time>
      </trkpt>
      <trkpt lat="47.06991" lon="5.53769">
        <ele>255</ele>
        <time>2010-08-01T06:41:08Z</time>
      </trkpt>
      <trkpt lat="47.0698" lon="5.53785">
        <ele>249</ele>
        <time>2010-08-01T06:41:10Z</time>
      </trkpt>
      <trkpt lat="47.06967" lon="5.53802">
        <ele>249</ele>
        <time>2010-08-01T06:41:12Z</time>
      </trkpt>
      <trkpt lat="47.06955" lon="5.53817">
        <ele>249</ele>
        <time>2010-08-01T06:41:14Z</time>
      </trkpt>
      <trkpt lat="47.06943" lon="5.53833">
        <ele>249</ele>
        <time>2010-08-01T06:41:16Z</time>
      </trkpt>
      <trkpt lat="47.0693" lon="5.53848">
        <ele>249</ele>
        <time>2010-08-01T06:41:18Z</time>
      </trkpt>
      <trkpt lat="47.06916" lon="5.53862">
        <ele>249</ele>
        <time>2010-08-01T06:41:20Z</time>
      </trkpt>
      <trkpt lat="47.06902" lon="5.53871">
        <ele>249</ele>
        <time>2010-08-01T06:41:22Z</time>
      </trkpt>
      <trkpt lat="47.06888" lon="5.5388">
        <ele>249</ele>
        <time>2010-08-01T06:41:24Z</time>
      </trkpt>
      <trkpt lat="47.06874" lon="5.53887">
        <ele>249</ele>
        <time>2010-08-01T06:41:26Z</time>
      </trkpt>
      <trkpt lat="47.06861" lon="5.53895">
        <ele>249</ele>
        <time>2010-08-01T06:41:28Z</time>
      </trkpt>
      <trkpt lat="47.06848" lon="5.53902">
        <ele>249</ele>
        <time>2010-08-01T06:41:30Z</time>
      </trkpt>
      <trkpt lat="47.06835" lon="5.53908">
        <ele>249</ele>
        <time>2010-08-01T06:41:32Z</time>
      </trkpt>
      <trkpt lat="47.06823" lon="5.53917">
        <ele>249</ele>
        <time>2010-08-01T06:41:34Z</time>
      </trkpt>
      <trkpt lat="47.0681" lon="5.53925">
        <ele>249</ele>
        <time>2010-08-01T06:41:36Z</time>
      </trkpt>
      <trkpt lat="47.06797" lon="5.53932">
        <ele>249</ele>
        <time>2010-08-01T06:41:38Z</time>
      </trkpt>
      <trkpt lat="47.06784" lon="5.53941">
        <ele>249</ele>
        <time>2010-08-01T06:41:40Z</time>
      </trkpt>
      <trkpt lat="47.0677" lon="5.53949">
        <ele>249</ele>
        <time>2010-08-01T06:41:42Z</time>
      </trkpt>
      <trkpt lat="47.06757" lon="5.53957">
        <ele>249</ele>
        <time>2010-08-01T06:41:44Z</time>
      </trkpt>
      <trkpt lat="47.06743" lon="5.53967">
        <ele>249</ele>
        <time>2010-08-01T06:41:46Z</time>
      </trkpt>
      <trkpt lat="47.06729" lon="5.53976">
        <ele>249</ele>
        <time>2010-08-01T06:41:48Z</time>
      </trkpt>
      <trkpt lat="47.06713" lon="5.53986">
        <ele>249</ele>
        <time>2010-08-01T06:41:50Z</time>
      </trkpt>
      <trkpt lat="47.06697" lon="5.53995">
        <ele>249</ele>
        <time>2010-08-01T06:41:52Z</time>
      </trkpt>
      <trkpt lat="47.06689" lon="5.54001">
        <ele>249</ele>
        <time>2010-08-01T06:41:53Z</time>
      </trkpt>
      <trkpt lat="47.0668" lon="5.54007">
        <ele>249</ele>
        <time>2010-08-01T06:41:54Z</time>
      </trkpt>
      <trkpt lat="47.06672" lon="5.54013">
        <ele>249</ele>
        <time>2010-08-01T06:41:55Z</time>
      </trkpt>
      <trkpt lat="47.06663" lon="5.54019">
        <ele>249</ele>
        <time>2010-08-01T06:41:56Z</time>
      </trkpt>
      <trkpt lat="47.06648" lon="5.54031">
        <ele>249</ele>
        <time>2010-08-01T06:41:58Z</time>
      </trkpt>
      <trkpt lat="47.06633" lon="5.5404">
        <ele>249</ele>
        <time>2010-08-01T06:42:00Z</time>
      </trkpt>
      <trkpt lat="47.06618" lon="5.5405">
        <ele>249</ele>
        <time>2010-08-01T06:42:02Z</time>
      </trkpt>
      <trkpt lat="47.06605" lon="5.54058">
        <ele>249</ele>
        <time>2010-08-01T06:42:04Z</time>
      </trkpt>
      <trkpt lat="47.06592" lon="5.54067">
        <ele>249</ele>
        <time>2010-08-01T06:42:06Z</time>
      </trkpt>
      <trkpt lat="47.0658" lon="5.54076">
        <ele>244</ele>
        <time>2010-08-01T06:42:08Z</time>
      </trkpt>
      <trkpt lat="47.06568" lon="5.54084">
        <ele>244</ele>
        <time>2010-08-01T06:42:10Z</time>
      </trkpt>
      <trkpt lat="47.06555" lon="5.54092">
        <ele>244</ele>
        <time>2010-08-01T06:42:12Z</time>
      </trkpt>
      <trkpt lat="47.06543" lon="5.54099">
        <ele>244</ele>
        <time>2010-08-01T06:42:14Z</time>
      </trkpt>
      <trkpt lat="47.06531" lon="5.54106">
        <ele>244</ele>
        <time>2010-08-01T06:42:16Z</time>
      </trkpt>
      <trkpt lat="47.06517" lon="5.54112">
        <ele>244</ele>
        <time>2010-08-01T06:42:18Z</time>
      </trkpt>
      <trkpt lat="47.06506" lon="5.5412">
        <ele>250</ele>
        <time>2010-08-01T06:42:20Z</time>
      </trkpt>
      <trkpt lat="47.06494" lon="5.54128">
        <ele>250</ele>
        <time>2010-08-01T06:42:22Z</time>
      </trkpt>
      <trkpt lat="47.06482" lon="5.54134">
        <ele>250</ele>
        <time>2010-08-01T06:42:24Z</time>
      </trkpt>
      <trkpt lat="47.06472" lon="5.54141">
        <ele>250</ele>
        <time>2010-08-01T06:42:26Z</time>
      </trkpt>
      <trkpt lat="47.06463" lon="5.54148">
        <ele>250</ele>
        <time>2010-08-01T06:42:28Z</time>
      </trkpt>
      <trkpt lat="47.06453" lon="5.54154">
        <ele>256</ele>
        <time>2010-08-01T06:42:30Z</time>
      </trkpt>
      <trkpt lat="47.06444" lon="5.54159">
        <ele>256</ele>
        <time>2010-08-01T06:42:32Z</time>
      </trkpt>
      <trkpt lat="47.06434" lon="5.54165">
        <ele>256</ele>
        <time>2010-08-01T06:42:34Z</time>
      </trkpt>
      <trkpt lat="47.06425" lon="5.54172">
        <ele>256</ele>
        <time>2010-08-01T06:42:36Z</time>
      </trkpt>
      <trkpt lat="47.06415" lon="5.54177">
        <ele>256</ele>
        <time>2010-08-01T06:42:38Z</time>
      </trkpt>
      <trkpt lat="47.06406" lon="5.54184">
        <ele>264</ele>
        <time>2010-08-01T06:42:40Z</time>
      </trkpt>
      <trkpt lat="47.06397" lon="5.54191">
        <ele>264</ele>
        <time>2010-08-01T06:42:42Z</time>
      </trkpt>
      <trkpt lat="47.06387" lon="5.54196">
        <ele>264</ele>
        <time>2010-08-01T06:42:44Z</time>
      </trkpt>
      <trkpt lat="47.06378" lon="5.54201">
        <ele>264</ele>
        <time>2010-08-01T06:42:46Z</time>
      </trkpt>
      <trkpt lat="47.06368" lon="5.54209">
        <ele>271</ele>
        <time>2010-08-01T06:42:48Z</time>
      </trkpt>
      <trkpt lat="47.06357" lon="5.54215">
        <ele>271</ele>
        <time>2010-08-01T06:42:50Z</time>
      </trkpt>
      <trkpt lat="47.06347" lon="5.5422">
        <ele>271</ele>
        <time>2010-08-01T06:42:52Z</time>
      </trkpt>
      <trkpt lat="47.06338" lon="5.54227">
        <ele>271</ele>
        <time>2010-08-01T06:42:54Z</time>
      </trkpt>
      <trkpt lat="47.06328" lon="5.54234">
        <ele>271</ele>
        <time>2010-08-01T06:42:56Z</time>
      </trkpt>
      <trkpt lat="47.06319" lon="5.54239">
        <ele>276</ele>
        <time>2010-08-01T06:42:58Z</time>
      </trkpt>
      <trkpt lat="47.06309" lon="5.54245">
        <ele>276</ele>
        <time>2010-08-01T06:43:00Z</time>
      </trkpt>
      <trkpt lat="47.06301" lon="5.54252">
        <ele>276</ele>
        <time>2010-08-01T06:43:02Z</time>
      </trkpt>
      <trkpt lat="47.06292" lon="5.54257">
        <ele>276</ele>
        <time>2010-08-01T06:43:04Z</time>
      </trkpt>
      <trkpt lat="47.06283" lon="5.54263">
        <ele>282</ele>
        <time>2010-08-01T06:43:06Z</time>
      </trkpt>
      <trkpt lat="47.06274" lon="5.54271">
        <ele>282</ele>
        <time>2010-08-01T06:43:08Z</time>
      </trkpt>
      <trkpt lat="47.06264" lon="5.54278">
        <ele>282</ele>
        <time>2010-08-01T06:43:10Z</time>
      </trkpt>
      <trkpt lat="47.06254" lon="5.54284">
        <ele>282</ele>
        <time>2010-08-01T06:43:12Z</time>
      </trkpt>
      <trkpt lat="47.06245" lon="5.5429">
        <ele>282</ele>
        <time>2010-08-01T06:43:14Z</time>
      </trkpt>
      <trkpt lat="47.06235" lon="5.54297">
        <ele>282</ele>
        <time>2010-08-01T06:43:16Z</time>
      </trkpt>
      <trkpt lat="47.06223" lon="5.54301">
        <ele>282</ele>
        <time>2010-08-01T06:43:18Z</time>
      </trkpt>
      <trkpt lat="47.06212" lon="5.54308">
        <ele>282</ele>
        <time>2010-08-01T06:43:20Z</time>
      </trkpt>
      <trkpt lat="47.062" lon="5.54314">
        <ele>282</ele>
        <time>2010-08-01T06:43:22Z</time>
      </trkpt>
      <trkpt lat="47.0619" lon="5.5432">
        <ele>282</ele>
        <time>2010-08-01T06:43:24Z</time>
      </trkpt>
      <trkpt lat="47.06179" lon="5.54326">
        <ele>282</ele>
        <time>2010-08-01T06:43:26Z</time>
      </trkpt>
      <trkpt lat="47.06169" lon="5.54332">
        <ele>282</ele>
        <time>2010-08-01T06:43:28Z</time>
      </trkpt>
      <trkpt lat="47.06158" lon="5.54337">
        <ele>282</ele>
        <time>2010-08-01T06:43:30Z</time>
      </trkpt>
      <trkpt lat="47.06147" lon="5.54344">
        <ele>282</ele>
        <time>2010-08-01T06:43:32Z</time>
      </trkpt>
      <trkpt lat="47.06138" lon="5.54351">
        <ele>282</ele>
        <time>2010-08-01T06:43:34Z</time>
      </trkpt>
      <trkpt lat="47.06126" lon="5.54359">
        <ele>282</ele>
        <time>2010-08-01T06:43:36Z</time>
      </trkpt>
      <trkpt lat="47.06114" lon="5.54367">
        <ele>282</ele>
        <time>2010-08-01T06:43:38Z</time>
      </trkpt>
      <trkpt lat="47.06104" lon="5.54376">
        <ele>282</ele>
        <time>2010-08-01T06:43:40Z</time>
      </trkpt>
      <trkpt lat="47.06094" lon="5.54384">
        <ele>282</ele>
        <time>2010-08-01T06:43:42Z</time>
      </trkpt>
      <trkpt lat="47.06081" lon="5.54392">
        <ele>282</ele>
        <time>2010-08-01T06:43:44Z</time>
      </trkpt>
      <trkpt lat="47.06068" lon="5.544">
        <ele>277</ele>
        <time>2010-08-01T06:43:46Z</time>
      </trkpt>
      <trkpt lat="47.06056" lon="5.54408">
        <ele>277</ele>
        <time>2010-08-01T06:43:48Z</time>
      </trkpt>
      <trkpt lat="47.06045" lon="5.54415">
        <ele>277</ele>
        <time>2010-08-01T06:43:50Z</time>
      </trkpt>
      <trkpt lat="47.06034" lon="5.54422">
        <ele>277</ele>
        <time>2010-08-01T06:43:52Z</time>
      </trkpt>
      <trkpt lat="47.06023" lon="5.54429">
        <ele>270</ele>
        <time>2010-08-01T06:43:54Z</time>
      </trkpt>
      <trkpt lat="47.0601" lon="5.54435">
        <ele>270</ele>
        <time>2010-08-01T06:43:56Z</time>
      </trkpt>
      <trkpt lat="47.05998" lon="5.54444">
        <ele>270</ele>
        <time>2010-08-01T06:43:58Z</time>
      </trkpt>
      <trkpt lat="47.05985" lon="5.54453">
        <ele>270</ele>
        <time>2010-08-01T06:44:00Z</time>
      </trkpt>
      <trkpt lat="47.05972" lon="5.54461">
        <ele>270</ele>
        <time>2010-08-01T06:44:02Z</time>
      </trkpt>
      <trkpt lat="47.05958" lon="5.54468">
        <ele>264</ele>
        <time>2010-08-01T06:44:04Z</time>
      </trkpt>
      <trkpt lat="47.05944" lon="5.54476">
        <ele>264</ele>
        <time>2010-08-01T06:44:06Z</time>
      </trkpt>
      <trkpt lat="47.05929" lon="5.54485">
        <ele>264</ele>
        <time>2010-08-01T06:44:08Z</time>
      </trkpt>
      <trkpt lat="47.05914" lon="5.54493">
        <ele>258</ele>
        <time>2010-08-01T06:44:10Z</time>
      </trkpt>
      <trkpt lat="47.05905" lon="5.54498">
        <ele>258</ele>
        <time>2010-08-01T06:44:11Z</time>
      </trkpt>
      <trkpt lat="47.0589" lon="5.54508">
        <ele>258</ele>
        <time>2010-08-01T06:44:13Z</time>
      </trkpt>
      <trkpt lat="47.05881" lon="5.54513">
        <ele>258</ele>
        <time>2010-08-01T06:44:14Z</time>
      </trkpt>
      <trkpt lat="47.05872" lon="5.54519">
        <ele>258</ele>
        <time>2010-08-01T06:44:15Z</time>
      </trkpt>
      <trkpt lat="47.05864" lon="5.54525">
        <ele>258</ele>
        <time>2010-08-01T06:44:16Z</time>
      </trkpt>
      <trkpt lat="47.05855" lon="5.5453">
        <ele>258</ele>
        <time>2010-08-01T06:44:17Z</time>
      </trkpt>
      <trkpt lat="47.05847" lon="5.54536">
        <ele>258</ele>
        <time>2010-08-01T06:44:18Z</time>
      </trkpt>
      <trkpt lat="47.05837" lon="5.54543">
        <ele>258</ele>
        <time>2010-08-01T06:44:19Z</time>
      </trkpt>
      <trkpt lat="47.05828" lon="5.54549">
        <ele>252</ele>
        <time>2010-08-01T06:44:20Z</time>
      </trkpt>
      <trkpt lat="47.05819" lon="5.54555">
        <ele>252</ele>
        <time>2010-08-01T06:44:21Z</time>
      </trkpt>
      <trkpt lat="47.0581" lon="5.54562">
        <ele>252</ele>
        <time>2010-08-01T06:44:22Z</time>
      </trkpt>
      <trkpt lat="47.058" lon="5.54568">
        <ele>252</ele>
        <time>2010-08-01T06:44:23Z</time>
      </trkpt>
      <trkpt lat="47.05793" lon="5.54574">
        <ele>252</ele>
        <time>2010-08-01T06:44:24Z</time>
      </trkpt>
      <trkpt lat="47.05783" lon="5.54579">
        <ele>252</ele>
        <time>2010-08-01T06:44:25Z</time>
      </trkpt>
      <trkpt lat="47.05773" lon="5.54584">
        <ele>252</ele>
        <time>2010-08-01T06:44:26Z</time>
      </trkpt>
      <trkpt lat="47.05765" lon="5.54589">
        <ele>252</ele>
        <time>2010-08-01T06:44:27Z</time>
      </trkpt>
      <trkpt lat="47.05756" lon="5.54596">
        <ele>252</ele>
        <time>2010-08-01T06:44:28Z</time>
      </trkpt>
      <trkpt lat="47.05746" lon="5.54601">
        <ele>252</ele>
        <time>2010-08-01T06:44:29Z</time>
      </trkpt>
      <trkpt lat="47.05737" lon="5.54607">
        <ele>252</ele>
        <time>2010-08-01T06:44:30Z</time>
      </trkpt>
      <trkpt lat="47.05729" lon="5.54613">
        <ele>252</ele>
        <time>2010-08-01T06:44:31Z</time>
      </trkpt>
      <trkpt lat="47.05711" lon="5.54623">
        <ele>252</ele>
        <time>2010-08-01T06:44:33Z</time>
      </trkpt>
      <trkpt lat="47.05703" lon="5.54628">
        <ele>252</ele>
        <time>2010-08-01T06:44:34Z</time>
      </trkpt>
      <trkpt lat="47.05694" lon="5.54633">
        <ele>252</ele>
        <time>2010-08-01T06:44:35Z</time>
      </trkpt>
      <trkpt lat="47.05685" lon="5.54638">
        <ele>252</ele>
        <time>2010-08-01T06:44:36Z</time>
      </trkpt>
      <trkpt lat="47.05676" lon="5.54643">
        <ele>252</ele>
        <time>2010-08-01T06:44:37Z</time>
      </trkpt>
      <trkpt lat="47.05668" lon="5.5465">
        <ele>252</ele>
        <time>2010-08-01T06:44:38Z</time>
      </trkpt>
      <trkpt lat="47.05659" lon="5.54655">
        <ele>252</ele>
        <time>2010-08-01T06:44:39Z</time>
      </trkpt>
      <trkpt lat="47.05644" lon="5.54667">
        <ele>252</ele>
        <time>2010-08-01T06:44:41Z</time>
      </trkpt>
      <trkpt lat="47.05628" lon="5.54677">
        <ele>258</ele>
        <time>2010-08-01T06:44:43Z</time>
      </trkpt>
      <trkpt lat="47.05619" lon="5.54683">
        <ele>258</ele>
        <time>2010-08-01T06:44:44Z</time>
      </trkpt>
      <trkpt lat="47.05611" lon="5.54689">
        <ele>258</ele>
        <time>2010-08-01T06:44:45Z</time>
      </trkpt>
      <trkpt lat="47.05602" lon="5.54695">
        <ele>258</ele>
        <time>2010-08-01T06:44:46Z</time>
      </trkpt>
      <trkpt lat="47.05594" lon="5.54701">
        <ele>258</ele>
        <time>2010-08-01T06:44:47Z</time>
      </trkpt>
      <trkpt lat="47.05585" lon="5.54706">
        <ele>258</ele>
        <time>2010-08-01T06:44:48Z</time>
      </trkpt>
      <trkpt lat="47.05576" lon="5.54711">
        <ele>258</ele>
        <time>2010-08-01T06:44:49Z</time>
      </trkpt>
      <trkpt lat="47.0556" lon="5.54722">
        <ele>258</ele>
        <time>2010-08-01T06:44:51Z</time>
      </trkpt>
      <trkpt lat="47.05544" lon="5.54732">
        <ele>258</ele>
        <time>2010-08-01T06:44:53Z</time>
      </trkpt>
      <trkpt lat="47.05529" lon="5.54742">
        <ele>258</ele>
        <time>2010-08-01T06:44:55Z</time>
      </trkpt>
      <trkpt lat="47.05515" lon="5.54752">
        <ele>258</ele>
        <time>2010-08-01T06:44:57Z</time>
      </trkpt>
      <trkpt lat="47.05498" lon="5.5476">
        <ele>258</ele>
        <time>2010-08-01T06:44:59Z</time>
      </trkpt>
      <trkpt lat="47.0549" lon="5.54764">
        <ele>258</ele>
        <time>2010-08-01T06:45:00Z</time>
      </trkpt>
      <trkpt lat="47.05481" lon="5.5477">
        <ele>258</ele>
        <time>2010-08-01T06:45:01Z</time>
      </trkpt>
      <trkpt lat="47.05473" lon="5.54776">
        <ele>258</ele>
        <time>2010-08-01T06:45:02Z</time>
      </trkpt>
      <trkpt lat="47.05463" lon="5.54782">
        <ele>258</ele>
        <time>2010-08-01T06:45:03Z</time>
      </trkpt>
      <trkpt lat="47.05452" lon="5.54787">
        <ele>258</ele>
        <time>2010-08-01T06:45:04Z</time>
      </trkpt>
      <trkpt lat="47.05441" lon="5.54793">
        <ele>253</ele>
        <time>2010-08-01T06:45:05Z</time>
      </trkpt>
      <trkpt lat="47.05432" lon="5.54799">
        <ele>253</ele>
        <time>2010-08-01T06:45:06Z</time>
      </trkpt>
      <trkpt lat="47.05421" lon="5.54805">
        <ele>253</ele>
        <time>2010-08-01T06:45:07Z</time>
      </trkpt>
      <trkpt lat="47.05412" lon="5.54812">
        <ele>253</ele>
        <time>2010-08-01T06:45:08Z</time>
      </trkpt>
      <trkpt lat="47.05404" lon="5.5482">
        <ele>253</ele>
        <time>2010-08-01T06:45:09Z</time>
      </trkpt>
      <trkpt lat="47.05394" lon="5.54827">
        <ele>253</ele>
        <time>2010-08-01T06:45:10Z</time>
      </trkpt>
      <trkpt lat="47.05385" lon="5.54835">
        <ele>253</ele>
        <time>2010-08-01T06:45:11Z</time>
      </trkpt>
      <trkpt lat="47.05376" lon="5.54841">
        <ele>253</ele>
        <time>2010-08-01T06:45:12Z</time>
      </trkpt>
      <trkpt lat="47.05366" lon="5.54846">
        <ele>253</ele>
        <time>2010-08-01T06:45:13Z</time>
      </trkpt>
      <trkpt lat="47.05356" lon="5.54851">
        <ele>253</ele>
        <time>2010-08-01T06:45:14Z</time>
      </trkpt>
      <trkpt lat="47.05346" lon="5.54856">
        <ele>253</ele>
        <time>2010-08-01T06:45:15Z</time>
      </trkpt>
      <trkpt lat="47.05336" lon="5.54862">
        <ele>253</ele>
        <time>2010-08-01T06:45:16Z</time>
      </trkpt>
      <trkpt lat="47.05327" lon="5.54867">
        <ele>246</ele>
        <time>2010-08-01T06:45:17Z</time>
      </trkpt>
      <trkpt lat="47.05312" lon="5.54875">
        <ele>246</ele>
        <time>2010-08-01T06:45:19Z</time>
      </trkpt>
      <trkpt lat="47.05302" lon="5.54885">
        <ele>246</ele>
        <time>2010-08-01T06:45:21Z</time>
      </trkpt>
      <trkpt lat="47.05298" lon="5.54899">
        <ele>246</ele>
        <time>2010-08-01T06:45:23Z</time>
      </trkpt>
      <trkpt lat="47.05301" lon="5.5492">
        <ele>240</ele>
        <time>2010-08-01T06:45:25Z</time>
      </trkpt>
      <trkpt lat="47.05304" lon="5.54933">
        <ele>240</ele>
        <time>2010-08-01T06:45:26Z</time>
      </trkpt>
      <trkpt lat="47.05309" lon="5.54957">
        <ele>240</ele>
        <time>2010-08-01T06:45:28Z</time>
      </trkpt>
      <trkpt lat="47.05313" lon="5.5497">
        <ele>240</ele>
        <time>2010-08-01T06:45:29Z</time>
      </trkpt>
      <trkpt lat="47.05316" lon="5.54985">
        <ele>240</ele>
        <time>2010-08-01T06:45:30Z</time>
      </trkpt>
      <trkpt lat="47.05321" lon="5.54997">
        <ele>240</ele>
        <time>2010-08-01T06:45:31Z</time>
      </trkpt>
      <trkpt lat="47.05325" lon="5.5501">
        <ele>240</ele>
        <time>2010-08-01T06:45:32Z</time>
      </trkpt>
      <trkpt lat="47.05328" lon="5.55023">
        <ele>235</ele>
        <time>2010-08-01T06:45:33Z</time>
      </trkpt>
      <trkpt lat="47.05331" lon="5.55036">
        <ele>235</ele>
        <time>2010-08-01T06:45:34Z</time>
      </trkpt>
      <trkpt lat="47.05335" lon="5.55049">
        <ele>235</ele>
        <time>2010-08-01T06:45:35Z</time>
      </trkpt>
      <trkpt lat="47.05338" lon="5.55062">
        <ele>235</ele>
        <time>2010-08-01T06:45:36Z</time>
      </trkpt>
      <trkpt lat="47.05341" lon="5.55075">
        <ele>235</ele>
        <time>2010-08-01T06:45:37Z</time>
      </trkpt>
      <trkpt lat="47.05344" lon="5.55088">
        <ele>235</ele>
        <time>2010-08-01T06:45:38Z</time>
      </trkpt>
      <trkpt lat="47.0535" lon="5.55109">
        <ele>235</ele>
        <time>2010-08-01T06:45:40Z</time>
      </trkpt>
      <trkpt lat="47.05356" lon="5.5513">
        <ele>235</ele>
        <time>2010-08-01T06:45:42Z</time>
      </trkpt>
      <trkpt lat="47.0536" lon="5.55148">
        <ele>235</ele>
        <time>2010-08-01T06:45:44Z</time>
      </trkpt>
      <trkpt lat="47.05364" lon="5.55166">
        <ele>235</ele>
        <time>2010-08-01T06:45:46Z</time>
      </trkpt>
      <trkpt lat="47.05368" lon="5.55182">
        <ele>235</ele>
        <time>2010-08-01T06:45:48Z</time>
      </trkpt>
      <trkpt lat="47.05371" lon="5.55198">
        <ele>235</ele>
        <time>2010-08-01T06:45:50Z</time>
      </trkpt>
      <trkpt lat="47.05374" lon="5.55215">
        <ele>235</ele>
        <time>2010-08-01T06:45:52Z</time>
      </trkpt>
      <trkpt lat="47.05379" lon="5.5523">
        <ele>240</ele>
        <time>2010-08-01T06:45:54Z</time>
      </trkpt>
      <trkpt lat="47.05382" lon="5.55245">
        <ele>240</ele>
        <time>2010-08-01T06:45:56Z</time>
      </trkpt>
      <trkpt lat="47.05385" lon="5.5526">
        <ele>240</ele>
        <time>2010-08-01T06:45:58Z</time>
      </trkpt>
      <trkpt lat="47.0539" lon="5.55276">
        <ele>240</ele>
        <time>2010-08-01T06:46:00Z</time>
      </trkpt>
      <trkpt lat="47.05393" lon="5.55291">
        <ele>240</ele>
        <time>2010-08-01T06:46:02Z</time>
      </trkpt>
      <trkpt lat="47.05396" lon="5.55307">
        <ele>240</ele>
        <time>2010-08-01T06:46:04Z</time>
      </trkpt>
      <trkpt lat="47.054" lon="5.55322">
        <ele>246</ele>
        <time>2010-08-01T06:46:06Z</time>
      </trkpt>
      <trkpt lat="47.05403" lon="5.55339">
        <ele>246</ele>
        <time>2010-08-01T06:46:08Z</time>
      </trkpt>
      <trkpt lat="47.05406" lon="5.55355">
        <ele>246</ele>
        <time>2010-08-01T06:46:10Z</time>
      </trkpt>
      <trkpt lat="47.05409" lon="5.55371">
        <ele>246</ele>
        <time>2010-08-01T06:46:12Z</time>
      </trkpt>
      <trkpt lat="47.05413" lon="5.55386">
        <ele>246</ele>
        <time>2010-08-01T06:46:14Z</time>
      </trkpt>
      <trkpt lat="47.05417" lon="5.55401">
        <ele>246</ele>
        <time>2010-08-01T06:46:16Z</time>
      </trkpt>
      <trkpt lat="47.05421" lon="5.55418">
        <ele>251</ele>
        <time>2010-08-01T06:46:18Z</time>
      </trkpt>
      <trkpt lat="47.05425" lon="5.55432">
        <ele>251</ele>
        <time>2010-08-01T06:46:20Z</time>
      </trkpt>
      <trkpt lat="47.05428" lon="5.55447">
        <ele>251</ele>
        <time>2010-08-01T06:46:22Z</time>
      </trkpt>
      <trkpt lat="47.05432" lon="5.55463">
        <ele>251</ele>
        <time>2010-08-01T06:46:24Z</time>
      </trkpt>
      <trkpt lat="47.05435" lon="5.55478">
        <ele>251</ele>
        <time>2010-08-01T06:46:26Z</time>
      </trkpt>
      <trkpt lat="47.05438" lon="5.55494">
        <ele>251</ele>
        <time>2010-08-01T06:46:28Z</time>
      </trkpt>
      <trkpt lat="47.0544" lon="5.55511">
        <ele>251</ele>
        <time>2010-08-01T06:46:30Z</time>
      </trkpt>
      <trkpt lat="47.05443" lon="5.55526">
        <ele>251</ele>
        <time>2010-08-01T06:46:32Z</time>
      </trkpt>
      <trkpt lat="47.05446" lon="5.55542">
        <ele>251</ele>
        <time>2010-08-01T06:46:34Z</time>
      </trkpt>
      <trkpt lat="47.0545" lon="5.55556">
        <ele>251</ele>
        <time>2010-08-01T06:46:36Z</time>
      </trkpt>
      <trkpt lat="47.05453" lon="5.55571">
        <ele>251</ele>
        <time>2010-08-01T06:46:38Z</time>
      </trkpt>
      <trkpt lat="47.05457" lon="5.55586">
        <ele>251</ele>
        <time>2010-08-01T06:46:40Z</time>
      </trkpt>
      <trkpt lat="47.0546" lon="5.55602">
        <ele>251</ele>
        <time>2010-08-01T06:46:42Z</time>
      </trkpt>
      <trkpt lat="47.05463" lon="5.55617">
        <ele>251</ele>
        <time>2010-08-01T06:46:44Z</time>
      </trkpt>
      <trkpt lat="47.05467" lon="5.55633">
        <ele>251</ele>
        <time>2010-08-01T06:46:46Z</time>
      </trkpt>
      <trkpt lat="47.0547" lon="5.55649">
        <ele>251</ele>
        <time>2010-08-01T06:46:48Z</time>
      </trkpt>
      <trkpt lat="47.05473" lon="5.55666">
        <ele>251</ele>
        <time>2010-08-01T06:46:50Z</time>
      </trkpt>
      <trkpt lat="47.05476" lon="5.55681">
        <ele>251</ele>
        <time>2010-08-01T06:46:52Z</time>
      </trkpt>
      <trkpt lat="47.05479" lon="5.55697">
        <ele>251</ele>
        <time>2010-08-01T06:46:54Z</time>
      </trkpt>
      <trkpt lat="47.05483" lon="5.55713">
        <ele>251</ele>
        <time>2010-08-01T06:46:56Z</time>
      </trkpt>
      <trkpt lat="47.05487" lon="5.55728">
        <ele>251</ele>
        <time>2010-08-01T06:46:58Z</time>
      </trkpt>
      <trkpt lat="47.05492" lon="5.55745">
        <ele>251</ele>
        <time>2010-08-01T06:47:00Z</time>
      </trkpt>
      <trkpt lat="47.05496" lon="5.55762">
        <ele>251</ele>
        <time>2010-08-01T06:47:02Z</time>
      </trkpt>
      <trkpt lat="47.05501" lon="5.55779">
        <ele>251</ele>
        <time>2010-08-01T06:47:04Z</time>
      </trkpt>
      <trkpt lat="47.05505" lon="5.55796">
        <ele>251</ele>
        <time>2010-08-01T06:47:06Z</time>
      </trkpt>
      <trkpt lat="47.05508" lon="5.55813">
        <ele>251</ele>
        <time>2010-08-01T06:47:08Z</time>
      </trkpt>
      <trkpt lat="47.05512" lon="5.55829">
        <ele>251</ele>
        <time>2010-08-01T06:47:10Z</time>
      </trkpt>
      <trkpt lat="47.05516" lon="5.55845">
        <ele>251</ele>
        <time>2010-08-01T06:47:12Z</time>
      </trkpt>
      <trkpt lat="47.0552" lon="5.55861">
        <ele>251</ele>
        <time>2010-08-01T06:47:14Z</time>
      </trkpt>
      <trkpt lat="47.05524" lon="5.55878">
        <ele>251</ele>
        <time>2010-08-01T06:47:16Z</time>
      </trkpt>
      <trkpt lat="47.05527" lon="5.55896">
        <ele>251</ele>
        <time>2010-08-01T06:47:18Z</time>
      </trkpt>
      <trkpt lat="47.05532" lon="5.55912">
        <ele>251</ele>
        <time>2010-08-01T06:47:20Z</time>
      </trkpt>
      <trkpt lat="47.05535" lon="5.5593">
        <ele>251</ele>
        <time>2010-08-01T06:47:22Z</time>
      </trkpt>
      <trkpt lat="47.05539" lon="5.55947">
        <ele>251</ele>
        <time>2010-08-01T06:47:24Z</time>
      </trkpt>
      <trkpt lat="47.05543" lon="5.55965">
        <ele>251</ele>
        <time>2010-08-01T06:47:26Z</time>
      </trkpt>
      <trkpt lat="47.05548" lon="5.55983">
        <ele>251</ele>
        <time>2010-08-01T06:47:28Z</time>
      </trkpt>
      <trkpt lat="47.05551" lon="5.56002">
        <ele>251</ele>
        <time>2010-08-01T06:47:30Z</time>
      </trkpt>
      <trkpt lat="47.05556" lon="5.56024">
        <ele>251</ele>
        <time>2010-08-01T06:47:32Z</time>
      </trkpt>
      <trkpt lat="47.0556" lon="5.56046">
        <ele>251</ele>
        <time>2010-08-01T06:47:34Z</time>
      </trkpt>
      <trkpt lat="47.05566" lon="5.56068">
        <ele>251</ele>
        <time>2010-08-01T06:47:36Z</time>
      </trkpt>
      <trkpt lat="47.05572" lon="5.56092">
        <ele>251</ele>
        <time>2010-08-01T06:47:38Z</time>
      </trkpt>
      <trkpt lat="47.05575" lon="5.56105">
        <ele>251</ele>
        <time>2010-08-01T06:47:39Z</time>
      </trkpt>
      <trkpt lat="47.05577" lon="5.56118">
        <ele>251</ele>
        <time>2010-08-01T06:47:40Z</time>
      </trkpt>
      <trkpt lat="47.0558" lon="5.56132">
        <ele>251</ele>
        <time>2010-08-01T06:47:41Z</time>
      </trkpt>
      <trkpt lat="47.05583" lon="5.56146">
        <ele>245</ele>
        <time>2010-08-01T06:47:42Z</time>
      </trkpt>
      <trkpt lat="47.05586" lon="5.56161">
        <ele>245</ele>
        <time>2010-08-01T06:47:43Z</time>
      </trkpt>
      <trkpt lat="47.0559" lon="5.56176">
        <ele>245</ele>
        <time>2010-08-01T06:47:44Z</time>
      </trkpt>
      <trkpt lat="47.05593" lon="5.56191">
        <ele>245</ele>
        <time>2010-08-01T06:47:45Z</time>
      </trkpt>
      <trkpt lat="47.05597" lon="5.56206">
        <ele>245</ele>
        <time>2010-08-01T06:47:46Z</time>
      </trkpt>
      <trkpt lat="47.056" lon="5.56223">
        <ele>245</ele>
        <time>2010-08-01T06:47:47Z</time>
      </trkpt>
      <trkpt lat="47.05604" lon="5.56239">
        <ele>245</ele>
        <time>2010-08-01T06:47:48Z</time>
      </trkpt>
      <trkpt lat="47.05608" lon="5.56256">
        <ele>245</ele>
        <time>2010-08-01T06:47:49Z</time>
      </trkpt>
      <trkpt lat="47.05611" lon="5.56272">
        <ele>240</ele>
        <time>2010-08-01T06:47:50Z</time>
      </trkpt>
      <trkpt lat="47.05615" lon="5.56288">
        <ele>240</ele>
        <time>2010-08-01T06:47:51Z</time>
      </trkpt>
      <trkpt lat="47.05619" lon="5.56305">
        <ele>240</ele>
        <time>2010-08-01T06:47:52Z</time>
      </trkpt>
      <trkpt lat="47.05622" lon="5.56322">
        <ele>240</ele>
        <time>2010-08-01T06:47:53Z</time>
      </trkpt>
      <trkpt lat="47.05626" lon="5.56338">
        <ele>240</ele>
        <time>2010-08-01T06:47:54Z</time>
      </trkpt>
      <trkpt lat="47.0563" lon="5.56355">
        <ele>240</ele>
        <time>2010-08-01T06:47:55Z</time>
      </trkpt>
      <trkpt lat="47.05634" lon="5.56373">
        <ele>240</ele>
        <time>2010-08-01T06:47:56Z</time>
      </trkpt>
      <trkpt lat="47.05638" lon="5.5639">
        <ele>234</ele>
        <time>2010-08-01T06:47:57Z</time>
      </trkpt>
      <trkpt lat="47.05641" lon="5.56408">
        <ele>234</ele>
        <time>2010-08-01T06:47:58Z</time>
      </trkpt>
      <trkpt lat="47.05645" lon="5.56426">
        <ele>234</ele>
        <time>2010-08-01T06:47:59Z</time>
      </trkpt>
      <trkpt lat="47.05649" lon="5.56443">
        <ele>234</ele>
        <time>2010-08-01T06:48:00Z</time>
      </trkpt>
      <trkpt lat="47.05653" lon="5.56459">
        <ele>234</ele>
        <time>2010-08-01T06:48:01Z</time>
      </trkpt>
      <trkpt lat="47.05656" lon="5.56474">
        <ele>234</ele>
        <time>2010-08-01T06:48:02Z</time>
      </trkpt>
      <trkpt lat="47.05659" lon="5.56488">
        <ele>234</ele>
        <time>2010-08-01T06:48:03Z</time>
      </trkpt>
      <trkpt lat="47.05662" lon="5.56502">
        <ele>234</ele>
        <time>2010-08-01T06:48:04Z</time>
      </trkpt>
      <trkpt lat="47.05665" lon="5.56514">
        <ele>234</ele>
        <time>2010-08-01T06:48:05Z</time>
      </trkpt>
      <trkpt lat="47.05667" lon="5.56527">
        <ele>234</ele>
        <time>2010-08-01T06:48:06Z</time>
      </trkpt>
      <trkpt lat="47.05673" lon="5.56549">
        <ele>234</ele>
        <time>2010-08-01T06:48:08Z</time>
      </trkpt>
      <trkpt lat="47.05676" lon="5.56571">
        <ele>234</ele>
        <time>2010-08-01T06:48:10Z</time>
      </trkpt>
      <trkpt lat="47.05681" lon="5.56591">
        <ele>234</ele>
        <time>2010-08-01T06:48:12Z</time>
      </trkpt>
      <trkpt lat="47.05687" lon="5.56608">
        <ele>240</ele>
        <time>2010-08-01T06:48:14Z</time>
      </trkpt>
      <trkpt lat="47.05691" lon="5.56625">
        <ele>240</ele>
        <time>2010-08-01T06:48:16Z</time>
      </trkpt>
      <trkpt lat="47.05696" lon="5.56642">
        <ele>240</ele>
        <time>2010-08-01T06:48:18Z</time>
      </trkpt>
      <trkpt lat="47.05699" lon="5.56659">
        <ele>246</ele>
        <time>2010-08-01T06:48:20Z</time>
      </trkpt>
      <trkpt lat="47.05704" lon="5.56674">
        <ele>246</ele>
        <time>2010-08-01T06:48:22Z</time>
      </trkpt>
      <trkpt lat="47.05708" lon="5.56691">
        <ele>246</ele>
        <time>2010-08-01T06:48:24Z</time>
      </trkpt>
      <trkpt lat="47.05711" lon="5.56707">
        <ele>246</ele>
        <time>2010-08-01T06:48:26Z</time>
      </trkpt>
      <trkpt lat="47.05715" lon="5.56724">
        <ele>252</ele>
        <time>2010-08-01T06:48:28Z</time>
      </trkpt>
      <trkpt lat="47.05718" lon="5.5674">
        <ele>252</ele>
        <time>2010-08-01T06:48:30Z</time>
      </trkpt>
      <trkpt lat="47.05722" lon="5.56756">
        <ele>252</ele>
        <time>2010-08-01T06:48:32Z</time>
      </trkpt>
      <trkpt lat="47.05726" lon="5.56772">
        <ele>252</ele>
        <time>2010-08-01T06:48:34Z</time>
      </trkpt>
      <trkpt lat="47.05729" lon="5.56789">
        <ele>252</ele>
        <time>2010-08-01T06:48:36Z</time>
      </trkpt>
      <trkpt lat="47.05732" lon="5.56806">
        <ele>252</ele>
        <time>2010-08-01T06:48:38Z</time>
      </trkpt>
      <trkpt lat="47.05735" lon="5.56823">
        <ele>252</ele>
        <time>2010-08-01T06:48:40Z</time>
      </trkpt>
      <trkpt lat="47.05738" lon="5.56841">
        <ele>252</ele>
        <time>2010-08-01T06:48:42Z</time>
      </trkpt>
      <trkpt lat="47.05743" lon="5.56858">
        <ele>252</ele>
        <time>2010-08-01T06:48:44Z</time>
      </trkpt>
      <trkpt lat="47.05747" lon="5.56875">
        <ele>252</ele>
        <time>2010-08-01T06:48:46Z</time>
      </trkpt>
      <trkpt lat="47.05751" lon="5.56892">
        <ele>252</ele>
        <time>2010-08-01T06:48:48Z</time>
      </trkpt>
      <trkpt lat="47.05754" lon="5.56911">
        <ele>252</ele>
        <time>2010-08-01T06:48:50Z</time>
      </trkpt>
      <trkpt lat="47.05759" lon="5.56927">
        <ele>252</ele>
        <time>2010-08-01T06:48:52Z</time>
      </trkpt>
      <trkpt lat="47.05762" lon="5.56944">
        <ele>252</ele>
        <time>2010-08-01T06:48:54Z</time>
      </trkpt>
      <trkpt lat="47.05766" lon="5.5696">
        <ele>252</ele>
        <time>2010-08-01T06:48:56Z</time>
      </trkpt>
      <trkpt lat="47.0577" lon="5.56977">
        <ele>252</ele>
        <time>2010-08-01T06:48:58Z</time>
      </trkpt>
      <trkpt lat="47.05773" lon="5.56994">
        <ele>252</ele>
        <time>2010-08-01T06:49:00Z</time>
      </trkpt>
      <trkpt lat="47.05777" lon="5.57011">
        <ele>252</ele>
        <time>2010-08-01T06:49:02Z</time>
      </trkpt>
      <trkpt lat="47.0578" lon="5.57028">
        <ele>252</ele>
        <time>2010-08-01T06:49:04Z</time>
      </trkpt>
      <trkpt lat="47.05784" lon="5.57045">
        <ele>252</ele>
        <time>2010-08-01T06:49:06Z</time>
      </trkpt>
      <trkpt lat="47.05788" lon="5.57063">
        <ele>252</ele>
        <time>2010-08-01T06:49:08Z</time>
      </trkpt>
      <trkpt lat="47.05792" lon="5.5708">
        <ele>252</ele>
        <time>2010-08-01T06:49:10Z</time>
      </trkpt>
      <trkpt lat="47.05796" lon="5.57098">
        <ele>252</ele>
        <time>2010-08-01T06:49:12Z</time>
      </trkpt>
      <trkpt lat="47.05799" lon="5.57117">
        <ele>252</ele>
        <time>2010-08-01T06:49:14Z</time>
      </trkpt>
      <trkpt lat="47.05804" lon="5.57136">
        <ele>252</ele>
        <time>2010-08-01T06:49:16Z</time>
      </trkpt>
      <trkpt lat="47.05808" lon="5.57158">
        <ele>252</ele>
        <time>2010-08-01T06:49:18Z</time>
      </trkpt>
      <trkpt lat="47.05814" lon="5.57179">
        <ele>252</ele>
        <time>2010-08-01T06:49:20Z</time>
      </trkpt>
      <trkpt lat="47.0582" lon="5.57203">
        <ele>252</ele>
        <time>2010-08-01T06:49:22Z</time>
      </trkpt>
      <trkpt lat="47.05823" lon="5.57215">
        <ele>252</ele>
        <time>2010-08-01T06:49:23Z</time>
      </trkpt>
      <trkpt lat="47.05826" lon="5.57228">
        <ele>252</ele>
        <time>2010-08-01T06:49:24Z</time>
      </trkpt>
      <trkpt lat="47.05829" lon="5.57241">
        <ele>252</ele>
        <time>2010-08-01T06:49:25Z</time>
      </trkpt>
      <trkpt lat="47.05832" lon="5.57254">
        <ele>247</ele>
        <time>2010-08-01T06:49:26Z</time>
      </trkpt>
      <trkpt lat="47.05834" lon="5.57267">
        <ele>247</ele>
        <time>2010-08-01T06:49:27Z</time>
      </trkpt>
      <trkpt lat="47.05837" lon="5.5728">
        <ele>247</ele>
        <time>2010-08-01T06:49:28Z</time>
      </trkpt>
      <trkpt lat="47.0584" lon="5.57293">
        <ele>247</ele>
        <time>2010-08-01T06:49:29Z</time>
      </trkpt>
      <trkpt lat="47.05843" lon="5.57306">
        <ele>247</ele>
        <time>2010-08-01T06:49:30Z</time>
      </trkpt>
      <trkpt lat="47.05849" lon="5.5733">
        <ele>247</ele>
        <time>2010-08-01T06:49:32Z</time>
      </trkpt>
      <trkpt lat="47.05851" lon="5.57343">
        <ele>247</ele>
        <time>2010-08-01T06:49:33Z</time>
      </trkpt>
      <trkpt lat="47.05858" lon="5.57366">
        <ele>247</ele>
        <time>2010-08-01T06:49:35Z</time>
      </trkpt>
      <trkpt lat="47.05863" lon="5.57389">
        <ele>247</ele>
        <time>2010-08-01T06:49:37Z</time>
      </trkpt>
      <trkpt lat="47.05868" lon="5.57413">
        <ele>247</ele>
        <time>2010-08-01T06:49:39Z</time>
      </trkpt>
      <trkpt lat="47.05873" lon="5.57435">
        <ele>247</ele>
        <time>2010-08-01T06:49:41Z</time>
      </trkpt>
      <trkpt lat="47.05878" lon="5.57458">
        <ele>247</ele>
        <time>2010-08-01T06:49:43Z</time>
      </trkpt>
      <trkpt lat="47.05883" lon="5.5748">
        <ele>247</ele>
        <time>2010-08-01T06:49:45Z</time>
      </trkpt>
      <trkpt lat="47.05887" lon="5.57503">
        <ele>247</ele>
        <time>2010-08-01T06:49:47Z</time>
      </trkpt>
      <trkpt lat="47.05892" lon="5.57524">
        <ele>247</ele>
        <time>2010-08-01T06:49:49Z</time>
      </trkpt>
      <trkpt lat="47.05897" lon="5.57542">
        <ele>247</ele>
        <time>2010-08-01T06:49:51Z</time>
      </trkpt>
      <trkpt lat="47.05901" lon="5.57561">
        <ele>247</ele>
        <time>2010-08-01T06:49:53Z</time>
      </trkpt>
      <trkpt lat="47.05905" lon="5.57579">
        <ele>247</ele>
        <time>2010-08-01T06:49:55Z</time>
      </trkpt>
      <trkpt lat="47.05909" lon="5.57597">
        <ele>247</ele>
        <time>2010-08-01T06:49:57Z</time>
      </trkpt>
      <trkpt lat="47.05914" lon="5.57613">
        <ele>247</ele>
        <time>2010-08-01T06:49:59Z</time>
      </trkpt>
      <trkpt lat="47.05918" lon="5.5763">
        <ele>252</ele>
        <time>2010-08-01T06:50:01Z</time>
      </trkpt>
      <trkpt lat="47.05921" lon="5.57647">
        <ele>252</ele>
        <time>2010-08-01T06:50:03Z</time>
      </trkpt>
      <trkpt lat="47.05925" lon="5.57663">
        <ele>252</ele>
        <time>2010-08-01T06:50:05Z</time>
      </trkpt>
      <trkpt lat="47.05928" lon="5.5768">
        <ele>252</ele>
        <time>2010-08-01T06:50:07Z</time>
      </trkpt>
      <trkpt lat="47.05932" lon="5.57697">
        <ele>252</ele>
        <time>2010-08-01T06:50:09Z</time>
      </trkpt>
      <trkpt lat="47.05937" lon="5.57713">
        <ele>252</ele>
        <time>2010-08-01T06:50:11Z</time>
      </trkpt>
      <trkpt lat="47.05941" lon="5.57729">
        <ele>252</ele>
        <time>2010-08-01T06:50:13Z</time>
      </trkpt>
      <trkpt lat="47.05945" lon="5.57746">
        <ele>252</ele>
        <time>2010-08-01T06:50:15Z</time>
      </trkpt>
      <trkpt lat="47.05948" lon="5.57765">
        <ele>252</ele>
        <time>2010-08-01T06:50:17Z</time>
      </trkpt>
      <trkpt lat="47.05953" lon="5.57781">
        <ele>258</ele>
        <time>2010-08-01T06:50:19Z</time>
      </trkpt>
      <trkpt lat="47.05956" lon="5.57798">
        <ele>258</ele>
        <time>2010-08-01T06:50:21Z</time>
      </trkpt>
      <trkpt lat="47.05959" lon="5.57816">
        <ele>258</ele>
        <time>2010-08-01T06:50:23Z</time>
      </trkpt>
      <trkpt lat="47.05964" lon="5.57833">
        <ele>258</ele>
        <time>2010-08-01T06:50:25Z</time>
      </trkpt>
      <trkpt lat="47.05967" lon="5.5785">
        <ele>258</ele>
        <time>2010-08-01T06:50:27Z</time>
      </trkpt>
      <trkpt lat="47.05971" lon="5.57868">
        <ele>258</ele>
        <time>2010-08-01T06:50:29Z</time>
      </trkpt>
      <trkpt lat="47.05975" lon="5.57886">
        <ele>258</ele>
        <time>2010-08-01T06:50:31Z</time>
      </trkpt>
      <trkpt lat="47.05979" lon="5.57903">
        <ele>258</ele>
        <time>2010-08-01T06:50:33Z</time>
      </trkpt>
      <trkpt lat="47.05982" lon="5.5792">
        <ele>258</ele>
        <time>2010-08-01T06:50:35Z</time>
      </trkpt>
      <trkpt lat="47.05987" lon="5.57938">
        <ele>258</ele>
        <time>2010-08-01T06:50:37Z</time>
      </trkpt>
      <trkpt lat="47.05991" lon="5.57956">
        <ele>258</ele>
        <time>2010-08-01T06:50:39Z</time>
      </trkpt>
      <trkpt lat="47.05994" lon="5.57974">
        <ele>258</ele>
        <time>2010-08-01T06:50:41Z</time>
      </trkpt>
      <trkpt lat="47.05999" lon="5.57992">
        <ele>258</ele>
        <time>2010-08-01T06:50:43Z</time>
      </trkpt>
      <trkpt lat="47.06003" lon="5.58011">
        <ele>258</ele>
        <time>2010-08-01T06:50:45Z</time>
      </trkpt>
      <trkpt lat="47.06008" lon="5.5803">
        <ele>258</ele>
        <time>2010-08-01T06:50:47Z</time>
      </trkpt>
      <trkpt lat="47.06012" lon="5.58049">
        <ele>258</ele>
        <time>2010-08-01T06:50:49Z</time>
      </trkpt>
      <trkpt lat="47.06016" lon="5.58069">
        <ele>258</ele>
        <time>2010-08-01T06:50:51Z</time>
      </trkpt>
      <trkpt lat="47.0602" lon="5.58088">
        <ele>258</ele>
        <time>2010-08-01T06:50:53Z</time>
      </trkpt>
      <trkpt lat="47.06025" lon="5.58107">
        <ele>258</ele>
        <time>2010-08-01T06:50:55Z</time>
      </trkpt>
      <trkpt lat="47.06028" lon="5.58127">
        <ele>258</ele>
        <time>2010-08-01T06:50:57Z</time>
      </trkpt>
      <trkpt lat="47.06033" lon="5.58147">
        <ele>258</ele>
        <time>2010-08-01T06:50:59Z</time>
      </trkpt>
      <trkpt lat="47.06037" lon="5.58166">
        <ele>258</ele>
        <time>2010-08-01T06:51:01Z</time>
      </trkpt>
      <trkpt lat="47.06042" lon="5.58187">
        <ele>258</ele>
        <time>2010-08-01T06:51:03Z</time>
      </trkpt>
      <trkpt lat="47.06047" lon="5.58207">
        <ele>258</ele>
        <time>2010-08-01T06:51:05Z</time>
      </trkpt>
      <trkpt lat="47.06052" lon="5.58228">
        <ele>258</ele>
        <time>2010-08-01T06:51:07Z</time>
      </trkpt>
      <trkpt lat="47.06056" lon="5.58249">
        <ele>258</ele>
        <time>2010-08-01T06:51:09Z</time>
      </trkpt>
      <trkpt lat="47.06061" lon="5.58271">
        <ele>258</ele>
        <time>2010-08-01T06:51:11Z</time>
      </trkpt>
      <trkpt lat="47.06066" lon="5.58292">
        <ele>258</ele>
        <time>2010-08-01T06:51:13Z</time>
      </trkpt>
      <trkpt lat="47.06072" lon="5.58314">
        <ele>258</ele>
        <time>2010-08-01T06:51:15Z</time>
      </trkpt>
      <trkpt lat="47.06077" lon="5.58335">
        <ele>258</ele>
        <time>2010-08-01T06:51:17Z</time>
      </trkpt>
      <trkpt lat="47.06082" lon="5.58357">
        <ele>258</ele>
        <time>2010-08-01T06:51:19Z</time>
      </trkpt>
      <trkpt lat="47.06085" lon="5.58377">
        <ele>258</ele>
        <time>2010-08-01T06:51:21Z</time>
      </trkpt>
      <trkpt lat="47.06083" lon="5.58397">
        <ele>253</ele>
        <time>2010-08-01T06:51:23Z</time>
      </trkpt>
      <trkpt lat="47.06074" lon="5.58413">
        <ele>253</ele>
        <time>2010-08-01T06:51:25Z</time>
      </trkpt>
      <trkpt lat="47.06056" lon="5.58418">
        <ele>253</ele>
        <time>2010-08-01T06:51:27Z</time>
      </trkpt>
      <trkpt lat="47.06041" lon="5.58422">
        <ele>253</ele>
        <time>2010-08-01T06:51:29Z</time>
      </trkpt>
      <trkpt lat="47.06028" lon="5.58431">
        <ele>258</ele>
        <time>2010-08-01T06:51:31Z</time>
      </trkpt>
      <trkpt lat="47.06014" lon="5.58439">
        <ele>258</ele>
        <time>2010-08-01T06:51:33Z</time>
      </trkpt>
      <trkpt lat="47.05998" lon="5.58445">
        <ele>258</ele>
        <time>2010-08-01T06:51:35Z</time>
      </trkpt>
      <trkpt lat="47.05985" lon="5.58452">
        <ele>265</ele>
        <time>2010-08-01T06:51:37Z</time>
      </trkpt>
      <trkpt lat="47.0597" lon="5.58461">
        <ele>265</ele>
        <time>2010-08-01T06:51:39Z</time>
      </trkpt>
      <trkpt lat="47.05954" lon="5.58468">
        <ele>265</ele>
        <time>2010-08-01T06:51:41Z</time>
      </trkpt>
      <trkpt lat="47.05939" lon="5.58475">
        <ele>265</ele>
        <time>2010-08-01T06:51:43Z</time>
      </trkpt>
      <trkpt lat="47.05923" lon="5.58484">
        <ele>270</ele>
        <time>2010-08-01T06:51:45Z</time>
      </trkpt>
      <trkpt lat="47.05915" lon="5.58489">
        <ele>270</ele>
        <time>2010-08-01T06:51:46Z</time>
      </trkpt>
      <trkpt lat="47.05897" lon="5.58497">
        <ele>270</ele>
        <time>2010-08-01T06:51:48Z</time>
      </trkpt>
      <trkpt lat="47.0588" lon="5.58506">
        <ele>270</ele>
        <time>2010-08-01T06:51:50Z</time>
      </trkpt>
      <trkpt lat="47.05865" lon="5.58516">
        <ele>270</ele>
        <time>2010-08-01T06:51:52Z</time>
      </trkpt>
      <trkpt lat="47.05848" lon="5.58524">
        <ele>276</ele>
        <time>2010-08-01T06:51:54Z</time>
      </trkpt>
      <trkpt lat="47.05831" lon="5.58532">
        <ele>276</ele>
        <time>2010-08-01T06:51:56Z</time>
      </trkpt>
      <trkpt lat="47.05813" lon="5.58538">
        <ele>276</ele>
        <time>2010-08-01T06:51:58Z</time>
      </trkpt>
      <trkpt lat="47.05805" lon="5.58543">
        <ele>276</ele>
        <time>2010-08-01T06:51:59Z</time>
      </trkpt>
      <trkpt lat="47.05791" lon="5.58554">
        <ele>276</ele>
        <time>2010-08-01T06:52:01Z</time>
      </trkpt>
      <trkpt lat="47.05776" lon="5.58565">
        <ele>276</ele>
        <time>2010-08-01T06:52:03Z</time>
      </trkpt>
      <trkpt lat="47.0576" lon="5.58573">
        <ele>276</ele>
        <time>2010-08-01T06:52:05Z</time>
      </trkpt>
      <trkpt lat="47.05744" lon="5.58583">
        <ele>276</ele>
        <time>2010-08-01T06:52:07Z</time>
      </trkpt>
      <trkpt lat="47.05728" lon="5.58592">
        <ele>276</ele>
        <time>2010-08-01T06:52:09Z</time>
      </trkpt>
      <trkpt lat="47.05713" lon="5.58601">
        <ele>276</ele>
        <time>2010-08-01T06:52:11Z</time>
      </trkpt>
      <trkpt lat="47.05696" lon="5.58611">
        <ele>276</ele>
        <time>2010-08-01T06:52:13Z</time>
      </trkpt>
      <trkpt lat="47.0568" lon="5.58621">
        <ele>276</ele>
        <time>2010-08-01T06:52:15Z</time>
      </trkpt>
      <trkpt lat="47.05671" lon="5.58626">
        <ele>276</ele>
        <time>2010-08-01T06:52:16Z</time>
      </trkpt>
      <trkpt lat="47.05662" lon="5.58632">
        <ele>276</ele>
        <time>2010-08-01T06:52:17Z</time>
      </trkpt>
      <trkpt lat="47.05652" lon="5.58636">
        <ele>276</ele>
        <time>2010-08-01T06:52:18Z</time>
      </trkpt>
      <trkpt lat="47.05643" lon="5.58642">
        <ele>276</ele>
        <time>2010-08-01T06:52:19Z</time>
      </trkpt>
      <trkpt lat="47.05634" lon="5.58647">
        <ele>270</ele>
        <time>2010-08-01T06:52:20Z</time>
      </trkpt>
      <trkpt lat="47.05626" lon="5.58651">
        <ele>270</ele>
        <time>2010-08-01T06:52:21Z</time>
      </trkpt>
      <trkpt lat="47.05615" lon="5.58657">
        <ele>265</ele>
        <time>2010-08-01T06:52:22Z</time>
      </trkpt>
      <trkpt lat="47.05606" lon="5.58662">
        <ele>265</ele>
        <time>2010-08-01T06:52:23Z</time>
      </trkpt>
      <trkpt lat="47.05595" lon="5.58668">
        <ele>265</ele>
        <time>2010-08-01T06:52:24Z</time>
      </trkpt>
      <trkpt lat="47.05585" lon="5.58673">
        <ele>258</ele>
        <time>2010-08-01T06:52:25Z</time>
      </trkpt>
      <trkpt lat="47.05575" lon="5.58678">
        <ele>258</ele>
        <time>2010-08-01T06:52:26Z</time>
      </trkpt>
      <trkpt lat="47.05565" lon="5.58684">
        <ele>258</ele>
        <time>2010-08-01T06:52:27Z</time>
      </trkpt>
      <trkpt lat="47.05556" lon="5.58689">
        <ele>258</ele>
        <time>2010-08-01T06:52:28Z</time>
      </trkpt>
      <trkpt lat="47.05545" lon="5.58696">
        <ele>252</ele>
        <time>2010-08-01T06:52:29Z</time>
      </trkpt>
      <trkpt lat="47.05536" lon="5.587">
        <ele>252</ele>
        <time>2010-08-01T06:52:30Z</time>
      </trkpt>
      <trkpt lat="47.05526" lon="5.58705">
        <ele>252</ele>
        <time>2010-08-01T06:52:31Z</time>
      </trkpt>
      <trkpt lat="47.05517" lon="5.5871">
        <ele>252</ele>
        <time>2010-08-01T06:52:32Z</time>
      </trkpt>
      <trkpt lat="47.05508" lon="5.58714">
        <ele>252</ele>
        <time>2010-08-01T06:52:33Z</time>
      </trkpt>
      <trkpt lat="47.05498" lon="5.5872">
        <ele>252</ele>
        <time>2010-08-01T06:52:34Z</time>
      </trkpt>
      <trkpt lat="47.05489" lon="5.58724">
        <ele>247</ele>
        <time>2010-08-01T06:52:35Z</time>
      </trkpt>
      <trkpt lat="47.05479" lon="5.5873">
        <ele>247</ele>
        <time>2010-08-01T06:52:36Z</time>
      </trkpt>
      <trkpt lat="47.0547" lon="5.58734">
        <ele>247</ele>
        <time>2010-08-01T06:52:37Z</time>
      </trkpt>
      <trkpt lat="47.0546" lon="5.58739">
        <ele>247</ele>
        <time>2010-08-01T06:52:38Z</time>
      </trkpt>
      <trkpt lat="47.05451" lon="5.58744">
        <ele>247</ele>
        <time>2010-08-01T06:52:39Z</time>
      </trkpt>
      <trkpt lat="47.05442" lon="5.58749">
        <ele>247</ele>
        <time>2010-08-01T06:52:40Z</time>
      </trkpt>
      <trkpt lat="47.05433" lon="5.58754">
        <ele>241</ele>
        <time>2010-08-01T06:52:41Z</time>
      </trkpt>
      <trkpt lat="47.05423" lon="5.58758">
        <ele>241</ele>
        <time>2010-08-01T06:52:42Z</time>
      </trkpt>
      <trkpt lat="47.05414" lon="5.58764">
        <ele>241</ele>
        <time>2010-08-01T06:52:43Z</time>
      </trkpt>
      <trkpt lat="47.05405" lon="5.58769">
        <ele>241</ele>
        <time>2010-08-01T06:52:44Z</time>
      </trkpt>
      <trkpt lat="47.05388" lon="5.5878">
        <ele>241</ele>
        <time>2010-08-01T06:52:46Z</time>
      </trkpt>
      <trkpt lat="47.05379" lon="5.58786">
        <ele>241</ele>
        <time>2010-08-01T06:52:47Z</time>
      </trkpt>
      <trkpt lat="47.0537" lon="5.58792">
        <ele>241</ele>
        <time>2010-08-01T06:52:48Z</time>
      </trkpt>
      <trkpt lat="47.05361" lon="5.58795">
        <ele>241</ele>
        <time>2010-08-01T06:52:49Z</time>
      </trkpt>
      <trkpt lat="47.05351" lon="5.58799">
        <ele>241</ele>
        <time>2010-08-01T06:52:50Z</time>
      </trkpt>
      <trkpt lat="47.05342" lon="5.58804">
        <ele>241</ele>
        <time>2010-08-01T06:52:51Z</time>
      </trkpt>
      <trkpt lat="47.05332" lon="5.58809">
        <ele>241</ele>
        <time>2010-08-01T06:52:52Z</time>
      </trkpt>
      <trkpt lat="47.05323" lon="5.58814">
        <ele>241</ele>
        <time>2010-08-01T06:52:53Z</time>
      </trkpt>
      <trkpt lat="47.05314" lon="5.58819">
        <ele>241</ele>
        <time>2010-08-01T06:52:54Z</time>
      </trkpt>
      <trkpt lat="47.05304" lon="5.58822">
        <ele>241</ele>
        <time>2010-08-01T06:52:55Z</time>
      </trkpt>
      <trkpt lat="47.05296" lon="5.58828">
        <ele>241</ele>
        <time>2010-08-01T06:52:56Z</time>
      </trkpt>
      <trkpt lat="47.05286" lon="5.58831">
        <ele>247</ele>
        <time>2010-08-01T06:52:57Z</time>
      </trkpt>
      <trkpt lat="47.05277" lon="5.58836">
        <ele>247</ele>
        <time>2010-08-01T06:52:58Z</time>
      </trkpt>
      <trkpt lat="47.05269" lon="5.5884">
        <ele>247</ele>
        <time>2010-08-01T06:52:59Z</time>
      </trkpt>
      <trkpt lat="47.0526" lon="5.58844">
        <ele>247</ele>
        <time>2010-08-01T06:53:00Z</time>
      </trkpt>
      <trkpt lat="47.05244" lon="5.58853">
        <ele>247</ele>
        <time>2010-08-01T06:53:02Z</time>
      </trkpt>
      <trkpt lat="47.05234" lon="5.58856">
        <ele>247</ele>
        <time>2010-08-01T06:53:03Z</time>
      </trkpt>
      <trkpt lat="47.05223" lon="5.58864">
        <ele>247</ele>
        <time>2010-08-01T06:53:05Z</time>
      </trkpt>
      <trkpt lat="47.05216" lon="5.58874">
        <ele>247</ele>
        <time>2010-08-01T06:53:07Z</time>
      </trkpt>
      <trkpt lat="47.05215" lon="5.5889">
        <ele>247</ele>
        <time>2010-08-01T06:53:09Z</time>
      </trkpt>
      <trkpt lat="47.05221" lon="5.58909">
        <ele>247</ele>
        <time>2010-08-01T06:53:11Z</time>
      </trkpt>
      <trkpt lat="47.05226" lon="5.58928">
        <ele>242</ele>
        <time>2010-08-01T06:53:13Z</time>
      </trkpt>
      <trkpt lat="47.05233" lon="5.58947">
        <ele>242</ele>
        <time>2010-08-01T06:53:15Z</time>
      </trkpt>
      <trkpt lat="47.05239" lon="5.58967">
        <ele>236</ele>
        <time>2010-08-01T06:53:17Z</time>
      </trkpt>
      <trkpt lat="47.05242" lon="5.58988">
        <ele>236</ele>
        <time>2010-08-01T06:53:19Z</time>
      </trkpt>
      <trkpt lat="47.05247" lon="5.59009">
        <ele>231</ele>
        <time>2010-08-01T06:53:21Z</time>
      </trkpt>
      <trkpt lat="47.05252" lon="5.59031">
        <ele>231</ele>
        <time>2010-08-01T06:53:23Z</time>
      </trkpt>
      <trkpt lat="47.05255" lon="5.59049">
        <ele>231</ele>
        <time>2010-08-01T06:53:25Z</time>
      </trkpt>
      <trkpt lat="47.05258" lon="5.59069">
        <ele>231</ele>
        <time>2010-08-01T06:53:27Z</time>
      </trkpt>
      <trkpt lat="47.05261" lon="5.59087">
        <ele>231</ele>
        <time>2010-08-01T06:53:29Z</time>
      </trkpt>
      <trkpt lat="47.05265" lon="5.5911">
        <ele>231</ele>
        <time>2010-08-01T06:53:31Z</time>
      </trkpt>
      <trkpt lat="47.05268" lon="5.5913">
        <ele>231</ele>
        <time>2010-08-01T06:53:33Z</time>
      </trkpt>
      <trkpt lat="47.05271" lon="5.59151">
        <ele>231</ele>
        <time>2010-08-01T06:53:35Z</time>
      </trkpt>
      <trkpt lat="47.05273" lon="5.59171">
        <ele>231</ele>
        <time>2010-08-01T06:53:37Z</time>
      </trkpt>
      <trkpt lat="47.05274" lon="5.5919">
        <ele>231</ele>
        <time>2010-08-01T06:53:39Z</time>
      </trkpt>
      <trkpt lat="47.05277" lon="5.59209">
        <ele>231</ele>
        <time>2010-08-01T06:53:41Z</time>
      </trkpt>
      <trkpt lat="47.05278" lon="5.59227">
        <ele>231</ele>
        <time>2010-08-01T06:53:43Z</time>
      </trkpt>
      <trkpt lat="47.05278" lon="5.59248">
        <ele>231</ele>
        <time>2010-08-01T06:53:45Z</time>
      </trkpt>
      <trkpt lat="47.05279" lon="5.5927">
        <ele>231</ele>
        <time>2010-08-01T06:53:47Z</time>
      </trkpt>
      <trkpt lat="47.05279" lon="5.59289">
        <ele>231</ele>
        <time>2010-08-01T06:53:49Z</time>
      </trkpt>
      <trkpt lat="47.05277" lon="5.59309">
        <ele>231</ele>
        <time>2010-08-01T06:53:51Z</time>
      </trkpt>
      <trkpt lat="47.05273" lon="5.59328">
        <ele>231</ele>
        <time>2010-08-01T06:53:53Z</time>
      </trkpt>
      <trkpt lat="47.05268" lon="5.59347">
        <ele>236</ele>
        <time>2010-08-01T06:53:55Z</time>
      </trkpt>
      <trkpt lat="47.05263" lon="5.59365">
        <ele>236</ele>
        <time>2010-08-01T06:53:57Z</time>
      </trkpt>
      <trkpt lat="47.05257" lon="5.59383">
        <ele>236</ele>
        <time>2010-08-01T06:53:59Z</time>
      </trkpt>
      <trkpt lat="47.05252" lon="5.59402">
        <ele>236</ele>
        <time>2010-08-01T06:54:01Z</time>
      </trkpt>
      <trkpt lat="47.05246" lon="5.5942">
        <ele>236</ele>
        <time>2010-08-01T06:54:03Z</time>
      </trkpt>
      <trkpt lat="47.0524" lon="5.59438">
        <ele>242</ele>
        <time>2010-08-01T06:54:05Z</time>
      </trkpt>
      <trkpt lat="47.05234" lon="5.59459">
        <ele>242</ele>
        <time>2010-08-01T06:54:07Z</time>
      </trkpt>
      <trkpt lat="47.05228" lon="5.5948">
        <ele>242</ele>
        <time>2010-08-01T06:54:09Z</time>
      </trkpt>
      <trkpt lat="47.05223" lon="5.595">
        <ele>242</ele>
        <time>2010-08-01T06:54:11Z</time>
      </trkpt>
      <trkpt lat="47.05218" lon="5.5952">
        <ele>242</ele>
        <time>2010-08-01T06:54:13Z</time>
      </trkpt>
      <trkpt lat="47.05212" lon="5.5954">
        <ele>242</ele>
        <time>2010-08-01T06:54:15Z</time>
      </trkpt>
      <trkpt lat="47.05207" lon="5.59561">
        <ele>242</ele>
        <time>2010-08-01T06:54:17Z</time>
      </trkpt>
      <trkpt lat="47.05201" lon="5.59582">
        <ele>242</ele>
        <time>2010-08-01T06:54:19Z</time>
      </trkpt>
      <trkpt lat="47.05195" lon="5.59604">
        <ele>242</ele>
        <time>2010-08-01T06:54:21Z</time>
      </trkpt>
      <trkpt lat="47.05189" lon="5.59625">
        <ele>242</ele>
        <time>2010-08-01T06:54:23Z</time>
      </trkpt>
      <trkpt lat="47.05182" lon="5.59646">
        <ele>242</ele>
        <time>2010-08-01T06:54:25Z</time>
      </trkpt>
      <trkpt lat="47.05176" lon="5.59668">
        <ele>242</ele>
        <time>2010-08-01T06:54:27Z</time>
      </trkpt>
      <trkpt lat="47.05171" lon="5.59689">
        <ele>242</ele>
        <time>2010-08-01T06:54:29Z</time>
      </trkpt>
      <trkpt lat="47.05164" lon="5.59712">
        <ele>242</ele>
        <time>2010-08-01T06:54:31Z</time>
      </trkpt>
      <trkpt lat="47.05157" lon="5.59735">
        <ele>242</ele>
        <time>2010-08-01T06:54:33Z</time>
      </trkpt>
      <trkpt lat="47.05147" lon="5.59756">
        <ele>242</ele>
        <time>2010-08-01T06:54:35Z</time>
      </trkpt>
      <trkpt lat="47.05137" lon="5.59777">
        <ele>242</ele>
        <time>2010-08-01T06:54:37Z</time>
      </trkpt>
      <trkpt lat="47.0513" lon="5.59786">
        <ele>242</ele>
        <time>2010-08-01T06:54:38Z</time>
      </trkpt>
      <trkpt lat="47.05119" lon="5.59803">
        <ele>242</ele>
        <time>2010-08-01T06:54:40Z</time>
      </trkpt>
      <trkpt lat="47.05109" lon="5.5982">
        <ele>242</ele>
        <time>2010-08-01T06:54:42Z</time>
      </trkpt>
      <trkpt lat="47.05099" lon="5.59836">
        <ele>242</ele>
        <time>2010-08-01T06:54:44Z</time>
      </trkpt>
      <trkpt lat="47.05091" lon="5.59853">
        <ele>242</ele>
        <time>2010-08-01T06:54:46Z</time>
      </trkpt>
      <trkpt lat="47.05083" lon="5.59869">
        <ele>242</ele>
        <time>2010-08-01T06:54:48Z</time>
      </trkpt>
      <trkpt lat="47.05074" lon="5.59884">
        <ele>242</ele>
        <time>2010-08-01T06:54:50Z</time>
      </trkpt>
      <trkpt lat="47.05064" lon="5.59898">
        <ele>242</ele>
        <time>2010-08-01T06:54:52Z</time>
      </trkpt>
      <trkpt lat="47.05056" lon="5.59913">
        <ele>242</ele>
        <time>2010-08-01T06:54:54Z</time>
      </trkpt>
      <trkpt lat="47.05048" lon="5.59928">
        <ele>242</ele>
        <time>2010-08-01T06:54:56Z</time>
      </trkpt>
      <trkpt lat="47.05039" lon="5.59942">
        <ele>248</ele>
        <time>2010-08-01T06:54:58Z</time>
      </trkpt>
      <trkpt lat="47.05031" lon="5.59958">
        <ele>248</ele>
        <time>2010-08-01T06:55:00Z</time>
      </trkpt>
      <trkpt lat="47.05024" lon="5.59973">
        <ele>248</ele>
        <time>2010-08-01T06:55:02Z</time>
      </trkpt>
      <trkpt lat="47.05018" lon="5.59989">
        <ele>248</ele>
        <time>2010-08-01T06:55:04Z</time>
      </trkpt>
      <trkpt lat="47.0501" lon="5.60005">
        <ele>248</ele>
        <time>2010-08-01T06:55:06Z</time>
      </trkpt>
      <trkpt lat="47.05004" lon="5.60021">
        <ele>248</ele>
        <time>2010-08-01T06:55:08Z</time>
      </trkpt>
      <trkpt lat="47.04997" lon="5.60038">
        <ele>248</ele>
        <time>2010-08-01T06:55:10Z</time>
      </trkpt>
      <trkpt lat="47.04989" lon="5.60054">
        <ele>248</ele>
        <time>2010-08-01T06:55:12Z</time>
      </trkpt>
      <trkpt lat="47.04981" lon="5.60068">
        <ele>248</ele>
        <time>2010-08-01T06:55:14Z</time>
      </trkpt>
      <trkpt lat="47.04975" lon="5.60084">
        <ele>248</ele>
        <time>2010-08-01T06:55:16Z</time>
      </trkpt>
      <trkpt lat="47.04966" lon="5.60101">
        <ele>248</ele>
        <time>2010-08-01T06:55:18Z</time>
      </trkpt>
      <trkpt lat="47.04958" lon="5.60118">
        <ele>248</ele>
        <time>2010-08-01T06:55:20Z</time>
      </trkpt>
      <trkpt lat="47.04951" lon="5.60136">
        <ele>248</ele>
        <time>2010-08-01T06:55:22Z</time>
      </trkpt>
      <trkpt lat="47.04944" lon="5.60155">
        <ele>248</ele>
        <time>2010-08-01T06:55:24Z</time>
      </trkpt>
      <trkpt lat="47.04939" lon="5.60175">
        <ele>248</ele>
        <time>2010-08-01T06:55:26Z</time>
      </trkpt>
      <trkpt lat="47.04935" lon="5.60194">
        <ele>248</ele>
        <time>2010-08-01T06:55:28Z</time>
      </trkpt>
      <trkpt lat="47.04932" lon="5.60214">
        <ele>248</ele>
        <time>2010-08-01T06:55:30Z</time>
      </trkpt>
      <trkpt lat="47.04929" lon="5.60234">
        <ele>248</ele>
        <time>2010-08-01T06:55:32Z</time>
      </trkpt>
      <trkpt lat="47.04926" lon="5.60255">
        <ele>248</ele>
        <time>2010-08-01T06:55:34Z</time>
      </trkpt>
      <trkpt lat="47.04922" lon="5.60276">
        <ele>248</ele>
        <time>2010-08-01T06:55:36Z</time>
      </trkpt>
      <trkpt lat="47.04918" lon="5.60296">
        <ele>241</ele>
        <time>2010-08-01T06:55:38Z</time>
      </trkpt>
      <trkpt lat="47.04916" lon="5.60316">
        <ele>241</ele>
        <time>2010-08-01T06:55:40Z</time>
      </trkpt>
      <trkpt lat="47.04915" lon="5.60337">
        <ele>241</ele>
        <time>2010-08-01T06:55:42Z</time>
      </trkpt>
      <trkpt lat="47.04917" lon="5.60358">
        <ele>241</ele>
        <time>2010-08-01T06:55:44Z</time>
      </trkpt>
      <trkpt lat="47.04919" lon="5.60379">
        <ele>241</ele>
        <time>2010-08-01T06:55:46Z</time>
      </trkpt>
      <trkpt lat="47.04921" lon="5.60401">
        <ele>241</ele>
        <time>2010-08-01T06:55:48Z</time>
      </trkpt>
      <trkpt lat="47.04923" lon="5.60422">
        <ele>241</ele>
        <time>2010-08-01T06:55:50Z</time>
      </trkpt>
      <trkpt lat="47.04925" lon="5.60445">
        <ele>241</ele>
        <time>2010-08-01T06:55:52Z</time>
      </trkpt>
      <trkpt lat="47.04927" lon="5.60469">
        <ele>241</ele>
        <time>2010-08-01T06:55:54Z</time>
      </trkpt>
      <trkpt lat="47.04928" lon="5.60492">
        <ele>241</ele>
        <time>2010-08-01T06:55:56Z</time>
      </trkpt>
      <trkpt lat="47.04927" lon="5.60514">
        <ele>241</ele>
        <time>2010-08-01T06:55:58Z</time>
      </trkpt>
      <trkpt lat="47.04928" lon="5.60534">
        <ele>241</ele>
        <time>2010-08-01T06:56:00Z</time>
      </trkpt>
      <trkpt lat="47.04928" lon="5.60557">
        <ele>241</ele>
        <time>2010-08-01T06:56:02Z</time>
      </trkpt>
      <trkpt lat="47.04929" lon="5.60578">
        <ele>241</ele>
        <time>2010-08-01T06:56:04Z</time>
      </trkpt>
      <trkpt lat="47.04927" lon="5.606">
        <ele>235</ele>
        <time>2010-08-01T06:56:06Z</time>
      </trkpt>
      <trkpt lat="47.04927" lon="5.60621">
        <ele>235</ele>
        <time>2010-08-01T06:56:08Z</time>
      </trkpt>
      <trkpt lat="47.04926" lon="5.60641">
        <ele>235</ele>
        <time>2010-08-01T06:56:10Z</time>
      </trkpt>
      <trkpt lat="47.04923" lon="5.60662">
        <ele>235</ele>
        <time>2010-08-01T06:56:12Z</time>
      </trkpt>
      <trkpt lat="47.0492" lon="5.60681">
        <ele>235</ele>
        <time>2010-08-01T06:56:14Z</time>
      </trkpt>
      <trkpt lat="47.04917" lon="5.60702">
        <ele>235</ele>
        <time>2010-08-01T06:56:16Z</time>
      </trkpt>
      <trkpt lat="47.04913" lon="5.60722">
        <ele>235</ele>
        <time>2010-08-01T06:56:18Z</time>
      </trkpt>
      <trkpt lat="47.04908" lon="5.60742">
        <ele>235</ele>
        <time>2010-08-01T06:56:20Z</time>
      </trkpt>
      <trkpt lat="47.04904" lon="5.60761">
        <ele>235</ele>
        <time>2010-08-01T06:56:22Z</time>
      </trkpt>
      <trkpt lat="47.049" lon="5.60781">
        <ele>235</ele>
        <time>2010-08-01T06:56:24Z</time>
      </trkpt>
      <trkpt lat="47.04893" lon="5.60801">
        <ele>235</ele>
        <time>2010-08-01T06:56:26Z</time>
      </trkpt>
      <trkpt lat="47.04885" lon="5.6082">
        <ele>235</ele>
        <time>2010-08-01T06:56:28Z</time>
      </trkpt>
      <trkpt lat="47.04879" lon="5.60839">
        <ele>235</ele>
        <time>2010-08-01T06:56:30Z</time>
      </trkpt>
      <trkpt lat="47.04874" lon="5.60859">
        <ele>235</ele>
        <time>2010-08-01T06:56:32Z</time>
      </trkpt>
      <trkpt lat="47.04875" lon="5.60878">
        <ele>235</ele>
        <time>2010-08-01T06:56:34Z</time>
      </trkpt>
      <trkpt lat="47.04881" lon="5.60893">
        <ele>235</ele>
        <time>2010-08-01T06:56:36Z</time>
      </trkpt>
      <trkpt lat="47.04896" lon="5.60911">
        <ele>235</ele>
        <time>2010-08-01T06:56:39Z</time>
      </trkpt>
      <trkpt lat="47.04909" lon="5.60919">
        <ele>235</ele>
        <time>2010-08-01T06:56:41Z</time>
      </trkpt>
      <trkpt lat="47.04917" lon="5.60935">
        <ele>235</ele>
        <time>2010-08-01T06:56:43Z</time>
      </trkpt>
      <trkpt lat="47.04921" lon="5.60954">
        <ele>235</ele>
        <time>2010-08-01T06:56:45Z</time>
      </trkpt>
      <trkpt lat="47.04921" lon="5.60974">
        <ele>235</ele>
        <time>2010-08-01T06:56:47Z</time>
      </trkpt>
      <trkpt lat="47.0492" lon="5.60994">
        <ele>235</ele>
        <time>2010-08-01T06:56:49Z</time>
      </trkpt>
      <trkpt lat="47.04918" lon="5.61013">
        <ele>235</ele>
        <time>2010-08-01T06:56:51Z</time>
      </trkpt>
      <trkpt lat="47.04916" lon="5.61032">
        <ele>235</ele>
        <time>2010-08-01T06:56:53Z</time>
      </trkpt>
      <trkpt lat="47.04913" lon="5.61052">
        <ele>235</ele>
        <time>2010-08-01T06:56:55Z</time>
      </trkpt>
      <trkpt lat="47.04911" lon="5.61071">
        <ele>235</ele>
        <time>2010-08-01T06:56:57Z</time>
      </trkpt>
      <trkpt lat="47.0491" lon="5.6109">
        <ele>235</ele>
        <time>2010-08-01T06:56:59Z</time>
      </trkpt>
      <trkpt lat="47.04909" lon="5.6111">
        <ele>235</ele>
        <time>2010-08-01T06:57:01Z</time>
      </trkpt>
      <trkpt lat="47.04908" lon="5.6113">
        <ele>235</ele>
        <time>2010-08-01T06:57:03Z</time>
      </trkpt>
      <trkpt lat="47.04908" lon="5.61151">
        <ele>235</ele>
        <time>2010-08-01T06:57:05Z</time>
      </trkpt>
      <trkpt lat="47.0491" lon="5.61171">
        <ele>235</ele>
        <time>2010-08-01T06:57:07Z</time>
      </trkpt>
      <trkpt lat="47.0491" lon="5.61191">
        <ele>235</ele>
        <time>2010-08-01T06:57:09Z</time>
      </trkpt>
      <trkpt lat="47.0491" lon="5.6121">
        <ele>235</ele>
        <time>2010-08-01T06:57:11Z</time>
      </trkpt>
      <trkpt lat="47.04911" lon="5.61228">
        <ele>235</ele>
        <time>2010-08-01T06:57:13Z</time>
      </trkpt>
      <trkpt lat="47.04911" lon="5.61246">
        <ele>235</ele>
        <time>2010-08-01T06:57:15Z</time>
      </trkpt>
      <trkpt lat="47.0491" lon="5.61264">
        <ele>235</ele>
        <time>2010-08-01T06:57:17Z</time>
      </trkpt>
      <trkpt lat="47.0491" lon="5.61282">
        <ele>235</ele>
        <time>2010-08-01T06:57:19Z</time>
      </trkpt>
      <trkpt lat="47.04908" lon="5.61301">
        <ele>235</ele>
        <time>2010-08-01T06:57:21Z</time>
      </trkpt>
      <trkpt lat="47.04906" lon="5.6132">
        <ele>235</ele>
        <time>2010-08-01T06:57:23Z</time>
      </trkpt>
      <trkpt lat="47.04904" lon="5.61339">
        <ele>235</ele>
        <time>2010-08-01T06:57:25Z</time>
      </trkpt>
      <trkpt lat="47.04901" lon="5.61358">
        <ele>235</ele>
        <time>2010-08-01T06:57:27Z</time>
      </trkpt>
      <trkpt lat="47.04897" lon="5.61376">
        <ele>235</ele>
        <time>2010-08-01T06:57:29Z</time>
      </trkpt>
      <trkpt lat="47.04894" lon="5.61395">
        <ele>235</ele>
        <time>2010-08-01T06:57:31Z</time>
      </trkpt>
      <trkpt lat="47.04889" lon="5.61411">
        <ele>235</ele>
        <time>2010-08-01T06:57:33Z</time>
      </trkpt>
      <trkpt lat="47.04885" lon="5.61428">
        <ele>235</ele>
        <time>2010-08-01T06:57:35Z</time>
      </trkpt>
      <trkpt lat="47.04881" lon="5.61446">
        <ele>235</ele>
        <time>2010-08-01T06:57:37Z</time>
      </trkpt>
      <trkpt lat="47.04878" lon="5.61465">
        <ele>235</ele>
        <time>2010-08-01T06:57:39Z</time>
      </trkpt>
      <trkpt lat="47.04875" lon="5.61484">
        <ele>235</ele>
        <time>2010-08-01T06:57:41Z</time>
      </trkpt>
      <trkpt lat="47.04871" lon="5.61502">
        <ele>235</ele>
        <time>2010-08-01T06:57:43Z</time>
      </trkpt>
      <trkpt lat="47.04867" lon="5.61521">
        <ele>235</ele>
        <time>2010-08-01T06:57:45Z</time>
      </trkpt>
      <trkpt lat="47.04862" lon="5.6154">
        <ele>235</ele>
        <time>2010-08-01T06:57:47Z</time>
      </trkpt>
      <trkpt lat="47.04857" lon="5.61558">
        <ele>235</ele>
        <time>2010-08-01T06:57:49Z</time>
      </trkpt>
      <trkpt lat="47.04853" lon="5.61577">
        <ele>235</ele>
        <time>2010-08-01T06:57:51Z</time>
      </trkpt>
      <trkpt lat="47.04847" lon="5.61597">
        <ele>235</ele>
        <time>2010-08-01T06:57:53Z</time>
      </trkpt>
      <trkpt lat="47.04842" lon="5.61617">
        <ele>235</ele>
        <time>2010-08-01T06:57:55Z</time>
      </trkpt>
      <trkpt lat="47.04837" lon="5.61635">
        <ele>235</ele>
        <time>2010-08-01T06:57:57Z</time>
      </trkpt>
      <trkpt lat="47.04832" lon="5.61655">
        <ele>235</ele>
        <time>2010-08-01T06:57:59Z</time>
      </trkpt>
      <trkpt lat="47.04828" lon="5.61677">
        <ele>235</ele>
        <time>2010-08-01T06:58:01Z</time>
      </trkpt>
      <trkpt lat="47.04824" lon="5.61699">
        <ele>235</ele>
        <time>2010-08-01T06:58:03Z</time>
      </trkpt>
      <trkpt lat="47.04819" lon="5.6172">
        <ele>235</ele>
        <time>2010-08-01T06:58:05Z</time>
      </trkpt>
      <trkpt lat="47.04812" lon="5.6174">
        <ele>235</ele>
        <time>2010-08-01T06:58:07Z</time>
      </trkpt>
      <trkpt lat="47.04804" lon="5.61757">
        <ele>235</ele>
        <time>2010-08-01T06:58:09Z</time>
      </trkpt>
      <trkpt lat="47.04795" lon="5.61772">
        <ele>235</ele>
        <time>2010-08-01T06:58:11Z</time>
      </trkpt>
      <trkpt lat="47.04787" lon="5.61789">
        <ele>235</ele>
        <time>2010-08-01T06:58:13Z</time>
      </trkpt>
      <trkpt lat="47.04784" lon="5.61809">
        <ele>235</ele>
        <time>2010-08-01T06:58:15Z</time>
      </trkpt>
      <trkpt lat="47.04783" lon="5.61831">
        <ele>235</ele>
        <time>2010-08-01T06:58:17Z</time>
      </trkpt>
      <trkpt lat="47.04784" lon="5.61852">
        <ele>235</ele>
        <time>2010-08-01T06:58:19Z</time>
      </trkpt>
      <trkpt lat="47.04786" lon="5.61874">
        <ele>229</ele>
        <time>2010-08-01T06:58:21Z</time>
      </trkpt>
      <trkpt lat="47.04789" lon="5.61895">
        <ele>229</ele>
        <time>2010-08-01T06:58:23Z</time>
      </trkpt>
      <trkpt lat="47.04792" lon="5.61917">
        <ele>229</ele>
        <time>2010-08-01T06:58:25Z</time>
      </trkpt>
      <trkpt lat="47.04793" lon="5.61938">
        <ele>229</ele>
        <time>2010-08-01T06:58:27Z</time>
      </trkpt>
      <trkpt lat="47.04794" lon="5.6196">
        <ele>229</ele>
        <time>2010-08-01T06:58:29Z</time>
      </trkpt>
      <trkpt lat="47.04795" lon="5.61982">
        <ele>229</ele>
        <time>2010-08-01T06:58:31Z</time>
      </trkpt>
      <trkpt lat="47.04795" lon="5.62003">
        <ele>229</ele>
        <time>2010-08-01T06:58:33Z</time>
      </trkpt>
      <trkpt lat="47.04792" lon="5.62024">
        <ele>229</ele>
        <time>2010-08-01T06:58:35Z</time>
      </trkpt>
      <trkpt lat="47.0479" lon="5.62044">
        <ele>229</ele>
        <time>2010-08-01T06:58:37Z</time>
      </trkpt>
      <trkpt lat="47.04787" lon="5.62063">
        <ele>229</ele>
        <time>2010-08-01T06:58:39Z</time>
      </trkpt>
      <trkpt lat="47.04787" lon="5.62083">
        <ele>229</ele>
        <time>2010-08-01T06:58:41Z</time>
      </trkpt>
      <trkpt lat="47.04789" lon="5.62102">
        <ele>229</ele>
        <time>2010-08-01T06:58:43Z</time>
      </trkpt>
      <trkpt lat="47.04791" lon="5.62121">
        <ele>229</ele>
        <time>2010-08-01T06:58:45Z</time>
      </trkpt>
      <trkpt lat="47.04794" lon="5.62139">
        <ele>229</ele>
        <time>2010-08-01T06:58:47Z</time>
      </trkpt>
      <trkpt lat="47.04795" lon="5.62158">
        <ele>229</ele>
        <time>2010-08-01T06:58:49Z</time>
      </trkpt>
      <trkpt lat="47.04795" lon="5.62178">
        <ele>229</ele>
        <time>2010-08-01T06:58:51Z</time>
      </trkpt>
      <trkpt lat="47.04792" lon="5.62197">
        <ele>229</ele>
        <time>2010-08-01T06:58:53Z</time>
      </trkpt>
      <trkpt lat="47.04786" lon="5.62215">
        <ele>229</ele>
        <time>2010-08-01T06:58:55Z</time>
      </trkpt>
      <trkpt lat="47.0478" lon="5.62232">
        <ele>229</ele>
        <time>2010-08-01T06:58:57Z</time>
      </trkpt>
      <trkpt lat="47.04776" lon="5.6225">
        <ele>229</ele>
        <time>2010-08-01T06:58:59Z</time>
      </trkpt>
      <trkpt lat="47.04772" lon="5.62268">
        <ele>229</ele>
        <time>2010-08-01T06:59:01Z</time>
      </trkpt>
      <trkpt lat="47.0477" lon="5.62287">
        <ele>229</ele>
        <time>2010-08-01T06:59:03Z</time>
      </trkpt>
      <trkpt lat="47.04765" lon="5.62304">
        <ele>229</ele>
        <time>2010-08-01T06:59:05Z</time>
      </trkpt>
      <trkpt lat="47.0476" lon="5.62321">
        <ele>229</ele>
        <time>2010-08-01T06:59:07Z</time>
      </trkpt>
      <trkpt lat="47.04756" lon="5.62339">
        <ele>229</ele>
        <time>2010-08-01T06:59:09Z</time>
      </trkpt>
      <trkpt lat="47.04752" lon="5.62358">
        <ele>229</ele>
        <time>2010-08-01T06:59:11Z</time>
      </trkpt>
      <trkpt lat="47.04748" lon="5.62377">
        <ele>229</ele>
        <time>2010-08-01T06:59:13Z</time>
      </trkpt>
      <trkpt lat="47.04743" lon="5.62395">
        <ele>229</ele>
        <time>2010-08-01T06:59:15Z</time>
      </trkpt>
      <trkpt lat="47.04739" lon="5.62414">
        <ele>229</ele>
        <time>2010-08-01T06:59:17Z</time>
      </trkpt>
      <trkpt lat="47.04734" lon="5.62432">
        <ele>229</ele>
        <time>2010-08-01T06:59:19Z</time>
      </trkpt>
      <trkpt lat="47.04731" lon="5.62451">
        <ele>229</ele>
        <time>2010-08-01T06:59:21Z</time>
      </trkpt>
      <trkpt lat="47.04729" lon="5.62469">
        <ele>229</ele>
        <time>2010-08-01T06:59:23Z</time>
      </trkpt>
      <trkpt lat="47.04725" lon="5.62489">
        <ele>229</ele>
        <time>2010-08-01T06:59:25Z</time>
      </trkpt>
      <trkpt lat="47.04723" lon="5.6251">
        <ele>229</ele>
        <time>2010-08-01T06:59:27Z</time>
      </trkpt>
      <trkpt lat="47.0472" lon="5.6253">
        <ele>229</ele>
        <time>2010-08-01T06:59:29Z</time>
      </trkpt>
      <trkpt lat="47.0472" lon="5.62551">
        <ele>229</ele>
        <time>2010-08-01T06:59:31Z</time>
      </trkpt>
      <trkpt lat="47.0472" lon="5.6257">
        <ele>229</ele>
        <time>2010-08-01T06:59:33Z</time>
      </trkpt>
      <trkpt lat="47.04719" lon="5.6259">
        <ele>229</ele>
        <time>2010-08-01T06:59:35Z</time>
      </trkpt>
      <trkpt lat="47.04717" lon="5.62608">
        <ele>229</ele>
        <time>2010-08-01T06:59:37Z</time>
      </trkpt>
      <trkpt lat="47.04713" lon="5.62627">
        <ele>229</ele>
        <time>2010-08-01T06:59:39Z</time>
      </trkpt>
      <trkpt lat="47.04708" lon="5.62648">
        <ele>229</ele>
        <time>2010-08-01T06:59:41Z</time>
      </trkpt>
      <trkpt lat="47.04705" lon="5.6267">
        <ele>229</ele>
        <time>2010-08-01T06:59:43Z</time>
      </trkpt>
      <trkpt lat="47.04705" lon="5.6269">
        <ele>229</ele>
        <time>2010-08-01T06:59:45Z</time>
      </trkpt>
      <trkpt lat="47.04707" lon="5.6271">
        <ele>229</ele>
        <time>2010-08-01T06:59:47Z</time>
      </trkpt>
      <trkpt lat="47.0471" lon="5.6273">
        <ele>229</ele>
        <time>2010-08-01T06:59:49Z</time>
      </trkpt>
      <trkpt lat="47.04713" lon="5.62749">
        <ele>229</ele>
        <time>2010-08-01T06:59:51Z</time>
      </trkpt>
      <trkpt lat="47.04717" lon="5.62768">
        <ele>229</ele>
        <time>2010-08-01T06:59:53Z</time>
      </trkpt>
      <trkpt lat="47.04719" lon="5.62786">
        <ele>229</ele>
        <time>2010-08-01T06:59:55Z</time>
      </trkpt>
      <trkpt lat="47.04721" lon="5.62804">
        <ele>229</ele>
        <time>2010-08-01T06:59:57Z</time>
      </trkpt>
      <trkpt lat="47.04717" lon="5.62821">
        <ele>229</ele>
        <time>2010-08-01T06:59:59Z</time>
      </trkpt>
      <trkpt lat="47.04708" lon="5.62833">
        <ele>229</ele>
        <time>2010-08-01T07:00:01Z</time>
      </trkpt>
      <trkpt lat="47.04693" lon="5.62841">
        <ele>229</ele>
        <time>2010-08-01T07:00:03Z</time>
      </trkpt>
      <trkpt lat="47.04678" lon="5.62847">
        <ele>229</ele>
        <time>2010-08-01T07:00:05Z</time>
      </trkpt>
      <trkpt lat="47.04663" lon="5.62851">
        <ele>229</ele>
        <time>2010-08-01T07:00:07Z</time>
      </trkpt>
      <trkpt lat="47.04648" lon="5.62857">
        <ele>229</ele>
        <time>2010-08-01T07:00:09Z</time>
      </trkpt>
      <trkpt lat="47.04634" lon="5.62862">
        <ele>229</ele>
        <time>2010-08-01T07:00:11Z</time>
      </trkpt>
      <trkpt lat="47.0462" lon="5.62868">
        <ele>229</ele>
        <time>2010-08-01T07:00:13Z</time>
      </trkpt>
      <trkpt lat="47.04606" lon="5.62874">
        <ele>229</ele>
        <time>2010-08-01T07:00:15Z</time>
      </trkpt>
      <trkpt lat="47.04593" lon="5.62881">
        <ele>229</ele>
        <time>2010-08-01T07:00:17Z</time>
      </trkpt>
      <trkpt lat="47.04581" lon="5.6289">
        <ele>229</ele>
        <time>2010-08-01T07:00:19Z</time>
      </trkpt>
      <trkpt lat="47.04569" lon="5.62901">
        <ele>229</ele>
        <time>2010-08-01T07:00:21Z</time>
      </trkpt>
      <trkpt lat="47.04558" lon="5.62911">
        <ele>229</ele>
        <time>2010-08-01T07:00:23Z</time>
      </trkpt>
      <trkpt lat="47.04547" lon="5.62925">
        <ele>229</ele>
        <time>2010-08-01T07:00:25Z</time>
      </trkpt>
      <trkpt lat="47.04536" lon="5.62938">
        <ele>229</ele>
        <time>2010-08-01T07:00:27Z</time>
      </trkpt>
      <trkpt lat="47.04522" lon="5.62948">
        <ele>229</ele>
        <time>2010-08-01T07:00:29Z</time>
      </trkpt>
      <trkpt lat="47.04508" lon="5.62953">
        <ele>229</ele>
        <time>2010-08-01T07:00:31Z</time>
      </trkpt>
      <trkpt lat="47.04493" lon="5.62954">
        <ele>229</ele>
        <time>2010-08-01T07:00:33Z</time>
      </trkpt>
      <trkpt lat="47.0448" lon="5.62955">
        <ele>229</ele>
        <time>2010-08-01T07:00:35Z</time>
      </trkpt>
      <trkpt lat="47.04466" lon="5.6296">
        <ele>229</ele>
        <time>2010-08-01T07:00:37Z</time>
      </trkpt>
      <trkpt lat="47.04453" lon="5.62965">
        <ele>229</ele>
        <time>2010-08-01T07:00:39Z</time>
      </trkpt>
      <trkpt lat="47.0444" lon="5.62971">
        <ele>229</ele>
        <time>2010-08-01T07:00:41Z</time>
      </trkpt>
      <trkpt lat="47.04426" lon="5.62974">
        <ele>229</ele>
        <time>2010-08-01T07:00:43Z</time>
      </trkpt>
      <trkpt lat="47.04412" lon="5.62975">
        <ele>229</ele>
        <time>2010-08-01T07:00:45Z</time>
      </trkpt>
      <trkpt lat="47.04399" lon="5.62972">
        <ele>229</ele>
        <time>2010-08-01T07:00:47Z</time>
      </trkpt>
      <trkpt lat="47.04386" lon="5.62968">
        <ele>229</ele>
        <time>2010-08-01T07:00:49Z</time>
      </trkpt>
      <trkpt lat="47.04372" lon="5.62963">
        <ele>229</ele>
        <time>2010-08-01T07:00:51Z</time>
      </trkpt>
      <trkpt lat="47.04358" lon="5.6296">
        <ele>229</ele>
        <time>2010-08-01T07:00:53Z</time>
      </trkpt>
      <trkpt lat="47.04344" lon="5.62963">
        <ele>229</ele>
        <time>2010-08-01T07:00:55Z</time>
      </trkpt>
      <trkpt lat="47.04331" lon="5.62971">
        <ele>229</ele>
        <time>2010-08-01T07:00:57Z</time>
      </trkpt>
      <trkpt lat="47.0432" lon="5.62981">
        <ele>229</ele>
        <time>2010-08-01T07:00:59Z</time>
      </trkpt>
      <trkpt lat="47.04309" lon="5.62994">
        <ele>229</ele>
        <time>2010-08-01T07:01:01Z</time>
      </trkpt>
      <trkpt lat="47.04299" lon="5.63005">
        <ele>235</ele>
        <time>2010-08-01T07:01:03Z</time>
      </trkpt>
      <trkpt lat="47.04289" lon="5.63016">
        <ele>235</ele>
        <time>2010-08-01T07:01:05Z</time>
      </trkpt>
      <trkpt lat="47.04281" lon="5.63026">
        <ele>235</ele>
        <time>2010-08-01T07:01:07Z</time>
      </trkpt>
      <trkpt lat="47.04272" lon="5.63036">
        <ele>235</ele>
        <time>2010-08-01T07:01:09Z</time>
      </trkpt>
      <trkpt lat="47.04264" lon="5.63044">
        <ele>235</ele>
        <time>2010-08-01T07:01:11Z</time>
      </trkpt>
      <trkpt lat="47.04256" lon="5.63053">
        <ele>235</ele>
        <time>2010-08-01T07:01:13Z</time>
      </trkpt>
      <trkpt lat="47.04247" lon="5.6306">
        <ele>235</ele>
        <time>2010-08-01T07:01:15Z</time>
      </trkpt>
      <trkpt lat="47.04239" lon="5.63068">
        <ele>240</ele>
        <time>2010-08-01T07:01:17Z</time>
      </trkpt>
      <trkpt lat="47.0423" lon="5.63074">
        <ele>240</ele>
        <time>2010-08-01T07:01:19Z</time>
      </trkpt>
      <trkpt lat="47.04223" lon="5.63083">
        <ele>240</ele>
        <time>2010-08-01T07:01:21Z</time>
      </trkpt>
      <trkpt lat="47.04217" lon="5.63095">
        <ele>240</ele>
        <time>2010-08-01T07:01:23Z</time>
      </trkpt>
      <trkpt lat="47.04213" lon="5.63107">
        <ele>240</ele>
        <time>2010-08-01T07:01:25Z</time>
      </trkpt>
      <trkpt lat="47.04208" lon="5.63121">
        <ele>240</ele>
        <time>2010-08-01T07:01:27Z</time>
      </trkpt>
      <trkpt lat="47.04204" lon="5.63132">
        <ele>240</ele>
        <time>2010-08-01T07:01:29Z</time>
      </trkpt>
      <trkpt lat="47.04199" lon="5.63145">
        <ele>246</ele>
        <time>2010-08-01T07:01:31Z</time>
      </trkpt>
      <trkpt lat="47.04191" lon="5.63161">
        <ele>246</ele>
        <time>2010-08-01T07:01:34Z</time>
      </trkpt>
      <trkpt lat="47.04184" lon="5.63171">
        <ele>246</ele>
        <time>2010-08-01T07:01:36Z</time>
      </trkpt>
      <trkpt lat="47.04177" lon="5.63181">
        <ele>246</ele>
        <time>2010-08-01T07:01:38Z</time>
      </trkpt>
      <trkpt lat="47.04169" lon="5.6319">
        <ele>246</ele>
        <time>2010-08-01T07:01:40Z</time>
      </trkpt>
      <trkpt lat="47.0416" lon="5.63199">
        <ele>246</ele>
        <time>2010-08-01T07:01:42Z</time>
      </trkpt>
      <trkpt lat="47.04151" lon="5.63207">
        <ele>246</ele>
        <time>2010-08-01T07:01:44Z</time>
      </trkpt>
      <trkpt lat="47.04144" lon="5.63215">
        <ele>251</ele>
        <time>2010-08-01T07:01:46Z</time>
      </trkpt>
      <trkpt lat="47.04136" lon="5.63224">
        <ele>251</ele>
        <time>2010-08-01T07:01:48Z</time>
      </trkpt>
      <trkpt lat="47.04129" lon="5.63235">
        <ele>251</ele>
        <time>2010-08-01T07:01:50Z</time>
      </trkpt>
      <trkpt lat="47.04121" lon="5.63246">
        <ele>251</ele>
        <time>2010-08-01T07:01:52Z</time>
      </trkpt>
      <trkpt lat="47.04113" lon="5.63259">
        <ele>251</ele>
        <time>2010-08-01T07:01:54Z</time>
      </trkpt>
      <trkpt lat="47.04106" lon="5.63273">
        <ele>251</ele>
        <time>2010-08-01T07:01:56Z</time>
      </trkpt>
      <trkpt lat="47.04098" lon="5.6329">
        <ele>251</ele>
        <time>2010-08-01T07:01:58Z</time>
      </trkpt>
      <trkpt lat="47.04091" lon="5.63308">
        <ele>251</ele>
        <time>2010-08-01T07:02:00Z</time>
      </trkpt>
      <trkpt lat="47.04084" lon="5.63318">
        <ele>251</ele>
        <time>2010-08-01T07:02:01Z</time>
      </trkpt>
      <trkpt lat="47.04078" lon="5.63328">
        <ele>251</ele>
        <time>2010-08-01T07:02:02Z</time>
      </trkpt>
      <trkpt lat="47.04067" lon="5.63349">
        <ele>251</ele>
        <time>2010-08-01T07:02:04Z</time>
      </trkpt>
      <trkpt lat="47.04057" lon="5.63371">
        <ele>251</ele>
        <time>2010-08-01T07:02:06Z</time>
      </trkpt>
      <trkpt lat="47.04053" lon="5.63384">
        <ele>251</ele>
        <time>2010-08-01T07:02:07Z</time>
      </trkpt>
      <trkpt lat="47.04049" lon="5.63396">
        <ele>246</ele>
        <time>2010-08-01T07:02:08Z</time>
      </trkpt>
      <trkpt lat="47.04045" lon="5.63409">
        <ele>246</ele>
        <time>2010-08-01T07:02:09Z</time>
      </trkpt>
      <trkpt lat="47.04041" lon="5.63422">
        <ele>246</ele>
        <time>2010-08-01T07:02:10Z</time>
      </trkpt>
      <trkpt lat="47.04035" lon="5.63436">
        <ele>246</ele>
        <time>2010-08-01T07:02:11Z</time>
      </trkpt>
      <trkpt lat="47.04029" lon="5.63449">
        <ele>246</ele>
        <time>2010-08-01T07:02:12Z</time>
      </trkpt>
      <trkpt lat="47.04022" lon="5.63462">
        <ele>240</ele>
        <time>2010-08-01T07:02:13Z</time>
      </trkpt>
      <trkpt lat="47.04014" lon="5.63474">
        <ele>240</ele>
        <time>2010-08-01T07:02:14Z</time>
      </trkpt>
      <trkpt lat="47.04003" lon="5.63481">
        <ele>240</ele>
        <time>2010-08-01T07:02:15Z</time>
      </trkpt>
      <trkpt lat="47.03992" lon="5.63485">
        <ele>240</ele>
        <time>2010-08-01T07:02:16Z</time>
      </trkpt>
      <trkpt lat="47.03981" lon="5.63488">
        <ele>240</ele>
        <time>2010-08-01T07:02:17Z</time>
      </trkpt>
      <trkpt lat="47.03971" lon="5.63491">
        <ele>240</ele>
        <time>2010-08-01T07:02:18Z</time>
      </trkpt>
      <trkpt lat="47.0396" lon="5.63495">
        <ele>240</ele>
        <time>2010-08-01T07:02:19Z</time>
      </trkpt>
      <trkpt lat="47.03949" lon="5.63499">
        <ele>240</ele>
        <time>2010-08-01T07:02:20Z</time>
      </trkpt>
      <trkpt lat="47.0394" lon="5.63502">
        <ele>240</ele>
        <time>2010-08-01T07:02:21Z</time>
      </trkpt>
      <trkpt lat="47.03931" lon="5.63505">
        <ele>240</ele>
        <time>2010-08-01T07:02:22Z</time>
      </trkpt>
      <trkpt lat="47.03922" lon="5.63508">
        <ele>240</ele>
        <time>2010-08-01T07:02:23Z</time>
      </trkpt>
      <trkpt lat="47.03913" lon="5.63511">
        <ele>240</ele>
        <time>2010-08-01T07:02:24Z</time>
      </trkpt>
      <trkpt lat="47.03897" lon="5.63517">
        <ele>240</ele>
        <time>2010-08-01T07:02:26Z</time>
      </trkpt>
      <trkpt lat="47.03882" lon="5.63521">
        <ele>240</ele>
        <time>2010-08-01T07:02:28Z</time>
      </trkpt>
      <trkpt lat="47.03868" lon="5.63526">
        <ele>240</ele>
        <time>2010-08-01T07:02:30Z</time>
      </trkpt>
      <trkpt lat="47.03853" lon="5.6353">
        <ele>240</ele>
        <time>2010-08-01T07:02:32Z</time>
      </trkpt>
      <trkpt lat="47.03839" lon="5.63534">
        <ele>234</ele>
        <time>2010-08-01T07:02:34Z</time>
      </trkpt>
      <trkpt lat="47.03826" lon="5.63538">
        <ele>234</ele>
        <time>2010-08-01T07:02:36Z</time>
      </trkpt>
      <trkpt lat="47.03812" lon="5.63543">
        <ele>234</ele>
        <time>2010-08-01T07:02:38Z</time>
      </trkpt>
      <trkpt lat="47.03798" lon="5.63548">
        <ele>234</ele>
        <time>2010-08-01T07:02:40Z</time>
      </trkpt>
      <trkpt lat="47.03785" lon="5.63552">
        <ele>234</ele>
        <time>2010-08-01T07:02:42Z</time>
      </trkpt>
      <trkpt lat="47.03772" lon="5.63557">
        <ele>234</ele>
        <time>2010-08-01T07:02:44Z</time>
      </trkpt>
      <trkpt lat="47.0376" lon="5.63561">
        <ele>234</ele>
        <time>2010-08-01T07:02:46Z</time>
      </trkpt>
      <trkpt lat="47.03748" lon="5.63564">
        <ele>234</ele>
        <time>2010-08-01T07:02:48Z</time>
      </trkpt>
      <trkpt lat="47.03737" lon="5.63568">
        <ele>234</ele>
        <time>2010-08-01T07:02:50Z</time>
      </trkpt>
      <trkpt lat="47.03726" lon="5.63572">
        <ele>234</ele>
        <time>2010-08-01T07:02:52Z</time>
      </trkpt>
      <trkpt lat="47.03715" lon="5.63574">
        <ele>234</ele>
        <time>2010-08-01T07:02:54Z</time>
      </trkpt>
      <trkpt lat="47.03705" lon="5.63577">
        <ele>240</ele>
        <time>2010-08-01T07:02:56Z</time>
      </trkpt>
      <trkpt lat="47.03694" lon="5.6358">
        <ele>240</ele>
        <time>2010-08-01T07:02:58Z</time>
      </trkpt>
      <trkpt lat="47.03683" lon="5.63582">
        <ele>240</ele>
        <time>2010-08-01T07:03:00Z</time>
      </trkpt>
      <trkpt lat="47.03672" lon="5.63586">
        <ele>240</ele>
        <time>2010-08-01T07:03:02Z</time>
      </trkpt>
      <trkpt lat="47.03661" lon="5.6359">
        <ele>240</ele>
        <time>2010-08-01T07:03:04Z</time>
      </trkpt>
      <trkpt lat="47.0365" lon="5.63593">
        <ele>240</ele>
        <time>2010-08-01T07:03:06Z</time>
      </trkpt>
      <trkpt lat="47.03639" lon="5.63598">
        <ele>240</ele>
        <time>2010-08-01T07:03:08Z</time>
      </trkpt>
      <trkpt lat="47.03628" lon="5.63602">
        <ele>240</ele>
        <time>2010-08-01T07:03:10Z</time>
      </trkpt>
      <trkpt lat="47.03617" lon="5.63606">
        <ele>240</ele>
        <time>2010-08-01T07:03:12Z</time>
      </trkpt>
      <trkpt lat="47.03605" lon="5.6361">
        <ele>240</ele>
        <time>2010-08-01T07:03:14Z</time>
      </trkpt>
      <trkpt lat="47.03594" lon="5.63614">
        <ele>240</ele>
        <time>2010-08-01T07:03:16Z</time>
      </trkpt>
      <trkpt lat="47.03581" lon="5.63617">
        <ele>240</ele>
        <time>2010-08-01T07:03:18Z</time>
      </trkpt>
      <trkpt lat="47.03569" lon="5.63621">
        <ele>240</ele>
        <time>2010-08-01T07:03:20Z</time>
      </trkpt>
      <trkpt lat="47.03556" lon="5.63626">
        <ele>240</ele>
        <time>2010-08-01T07:03:22Z</time>
      </trkpt>
      <trkpt lat="47.03543" lon="5.6363">
        <ele>240</ele>
        <time>2010-08-01T07:03:24Z</time>
      </trkpt>
      <trkpt lat="47.0353" lon="5.63634">
        <ele>240</ele>
        <time>2010-08-01T07:03:26Z</time>
      </trkpt>
      <trkpt lat="47.03516" lon="5.63639">
        <ele>240</ele>
        <time>2010-08-01T07:03:28Z</time>
      </trkpt>
      <trkpt lat="47.03504" lon="5.63643">
        <ele>246</ele>
        <time>2010-08-01T07:03:30Z</time>
      </trkpt>
      <trkpt lat="47.03491" lon="5.63647">
        <ele>246</ele>
        <time>2010-08-01T07:03:32Z</time>
      </trkpt>
      <trkpt lat="47.03478" lon="5.63652">
        <ele>246</ele>
        <time>2010-08-01T07:03:34Z</time>
      </trkpt>
      <trkpt lat="47.03465" lon="5.63655">
        <ele>246</ele>
        <time>2010-08-01T07:03:36Z</time>
      </trkpt>
      <trkpt lat="47.03453" lon="5.63659">
        <ele>246</ele>
        <time>2010-08-01T07:03:38Z</time>
      </trkpt>
      <trkpt lat="47.03442" lon="5.63662">
        <ele>246</ele>
        <time>2010-08-01T07:03:40Z</time>
      </trkpt>
      <trkpt lat="47.03432" lon="5.63666">
        <ele>246</ele>
        <time>2010-08-01T07:03:42Z</time>
      </trkpt>
      <trkpt lat="47.0342" lon="5.63669">
        <ele>246</ele>
        <time>2010-08-01T07:03:44Z</time>
      </trkpt>
      <trkpt lat="47.03408" lon="5.63672">
        <ele>246</ele>
        <time>2010-08-01T07:03:46Z</time>
      </trkpt>
      <trkpt lat="47.03395" lon="5.63676">
        <ele>246</ele>
        <time>2010-08-01T07:03:48Z</time>
      </trkpt>
      <trkpt lat="47.03382" lon="5.63679">
        <ele>246</ele>
        <time>2010-08-01T07:03:50Z</time>
      </trkpt>
      <trkpt lat="47.03368" lon="5.63684">
        <ele>246</ele>
        <time>2010-08-01T07:03:52Z</time>
      </trkpt>
      <trkpt lat="47.03354" lon="5.63688">
        <ele>246</ele>
        <time>2010-08-01T07:03:54Z</time>
      </trkpt>
      <trkpt lat="47.0334" lon="5.63692">
        <ele>246</ele>
        <time>2010-08-01T07:03:56Z</time>
      </trkpt>
      <trkpt lat="47.03326" lon="5.63697">
        <ele>246</ele>
        <time>2010-08-01T07:03:58Z</time>
      </trkpt>
      <trkpt lat="47.03312" lon="5.63702">
        <ele>246</ele>
        <time>2010-08-01T07:04:00Z</time>
      </trkpt>
      <trkpt lat="47.03298" lon="5.63706">
        <ele>246</ele>
        <time>2010-08-01T07:04:02Z</time>
      </trkpt>
      <trkpt lat="47.03283" lon="5.63711">
        <ele>246</ele>
        <time>2010-08-01T07:04:04Z</time>
      </trkpt>
      <trkpt lat="47.03269" lon="5.63714">
        <ele>246</ele>
        <time>2010-08-01T07:04:06Z</time>
      </trkpt>
      <trkpt lat="47.03255" lon="5.63719">
        <ele>246</ele>
        <time>2010-08-01T07:04:08Z</time>
      </trkpt>
      <trkpt lat="47.03241" lon="5.63723">
        <ele>246</ele>
        <time>2010-08-01T07:04:10Z</time>
      </trkpt>
      <trkpt lat="47.03228" lon="5.63727">
        <ele>246</ele>
        <time>2010-08-01T07:04:12Z</time>
      </trkpt>
      <trkpt lat="47.03214" lon="5.63731">
        <ele>246</ele>
        <time>2010-08-01T07:04:14Z</time>
      </trkpt>
      <trkpt lat="47.03201" lon="5.63734">
        <ele>246</ele>
        <time>2010-08-01T07:04:16Z</time>
      </trkpt>
      <trkpt lat="47.03189" lon="5.63738">
        <ele>246</ele>
        <time>2010-08-01T07:04:18Z</time>
      </trkpt>
      <trkpt lat="47.03177" lon="5.63742">
        <ele>240</ele>
        <time>2010-08-01T07:04:20Z</time>
      </trkpt>
      <trkpt lat="47.03164" lon="5.63746">
        <ele>240</ele>
        <time>2010-08-01T07:04:22Z</time>
      </trkpt>
      <trkpt lat="47.03153" lon="5.6375">
        <ele>240</ele>
        <time>2010-08-01T07:04:24Z</time>
      </trkpt>
      <trkpt lat="47.03142" lon="5.63753">
        <ele>240</ele>
        <time>2010-08-01T07:04:26Z</time>
      </trkpt>
      <trkpt lat="47.03131" lon="5.63756">
        <ele>240</ele>
        <time>2010-08-01T07:04:28Z</time>
      </trkpt>
      <trkpt lat="47.0312" lon="5.63761">
        <ele>247</ele>
        <time>2010-08-01T07:04:30Z</time>
      </trkpt>
      <trkpt lat="47.03109" lon="5.63764">
        <ele>247</ele>
        <time>2010-08-01T07:04:32Z</time>
      </trkpt>
      <trkpt lat="47.03099" lon="5.63767">
        <ele>247</ele>
        <time>2010-08-01T07:04:34Z</time>
      </trkpt>
      <trkpt lat="47.03087" lon="5.63771">
        <ele>247</ele>
        <time>2010-08-01T07:04:36Z</time>
      </trkpt>
      <trkpt lat="47.03076" lon="5.63775">
        <ele>247</ele>
        <time>2010-08-01T07:04:38Z</time>
      </trkpt>
      <trkpt lat="47.03064" lon="5.63778">
        <ele>247</ele>
        <time>2010-08-01T07:04:40Z</time>
      </trkpt>
      <trkpt lat="47.03052" lon="5.63783">
        <ele>247</ele>
        <time>2010-08-01T07:04:42Z</time>
      </trkpt>
      <trkpt lat="47.03039" lon="5.63788">
        <ele>247</ele>
        <time>2010-08-01T07:04:44Z</time>
      </trkpt>
      <trkpt lat="47.03026" lon="5.63793">
        <ele>247</ele>
        <time>2010-08-01T07:04:46Z</time>
      </trkpt>
      <trkpt lat="47.03013" lon="5.63796">
        <ele>247</ele>
        <time>2010-08-01T07:04:48Z</time>
      </trkpt>
      <trkpt lat="47.03" lon="5.638">
        <ele>247</ele>
        <time>2010-08-01T07:04:50Z</time>
      </trkpt>
      <trkpt lat="47.02985" lon="5.63803">
        <ele>247</ele>
        <time>2010-08-01T07:04:52Z</time>
      </trkpt>
      <trkpt lat="47.02971" lon="5.63808">
        <ele>247</ele>
        <time>2010-08-01T07:04:54Z</time>
      </trkpt>
      <trkpt lat="47.02956" lon="5.63813">
        <ele>247</ele>
        <time>2010-08-01T07:04:56Z</time>
      </trkpt>
      <trkpt lat="47.02941" lon="5.63818">
        <ele>247</ele>
        <time>2010-08-01T07:04:58Z</time>
      </trkpt>
      <trkpt lat="47.02925" lon="5.63823">
        <ele>247</ele>
        <time>2010-08-01T07:05:00Z</time>
      </trkpt>
      <trkpt lat="47.0291" lon="5.63828">
        <ele>247</ele>
        <time>2010-08-01T07:05:02Z</time>
      </trkpt>
      <trkpt lat="47.02894" lon="5.63832">
        <ele>247</ele>
        <time>2010-08-01T07:05:04Z</time>
      </trkpt>
      <trkpt lat="47.02878" lon="5.63838">
        <ele>247</ele>
        <time>2010-08-01T07:05:06Z</time>
      </trkpt>
      <trkpt lat="47.02861" lon="5.63844">
        <ele>247</ele>
        <time>2010-08-01T07:05:08Z</time>
      </trkpt>
      <trkpt lat="47.02844" lon="5.63849">
        <ele>247</ele>
        <time>2010-08-01T07:05:10Z</time>
      </trkpt>
      <trkpt lat="47.02826" lon="5.63855">
        <ele>247</ele>
        <time>2010-08-01T07:05:12Z</time>
      </trkpt>
      <trkpt lat="47.02809" lon="5.63861">
        <ele>247</ele>
        <time>2010-08-01T07:05:14Z</time>
      </trkpt>
      <trkpt lat="47.02791" lon="5.63867">
        <ele>247</ele>
        <time>2010-08-01T07:05:16Z</time>
      </trkpt>
      <trkpt lat="47.02774" lon="5.63873">
        <ele>247</ele>
        <time>2010-08-01T07:05:18Z</time>
      </trkpt>
      <trkpt lat="47.02765" lon="5.63875">
        <ele>247</ele>
        <time>2010-08-01T07:05:19Z</time>
      </trkpt>
      <trkpt lat="47.02756" lon="5.63879">
        <ele>242</ele>
        <time>2010-08-01T07:05:20Z</time>
      </trkpt>
      <trkpt lat="47.02739" lon="5.63884">
        <ele>242</ele>
        <time>2010-08-01T07:05:22Z</time>
      </trkpt>
      <trkpt lat="47.0273" lon="5.63887">
        <ele>242</ele>
        <time>2010-08-01T07:05:23Z</time>
      </trkpt>
      <trkpt lat="47.02712" lon="5.63893">
        <ele>242</ele>
        <time>2010-08-01T07:05:25Z</time>
      </trkpt>
      <trkpt lat="47.02695" lon="5.63899">
        <ele>242</ele>
        <time>2010-08-01T07:05:27Z</time>
      </trkpt>
      <trkpt lat="47.02679" lon="5.63904">
        <ele>242</ele>
        <time>2010-08-01T07:05:29Z</time>
      </trkpt>
      <trkpt lat="47.02662" lon="5.63909">
        <ele>242</ele>
        <time>2010-08-01T07:05:31Z</time>
      </trkpt>
      <trkpt lat="47.02645" lon="5.63915">
        <ele>242</ele>
        <time>2010-08-01T07:05:33Z</time>
      </trkpt>
      <trkpt lat="47.02629" lon="5.63921">
        <ele>242</ele>
        <time>2010-08-01T07:05:35Z</time>
      </trkpt>
      <trkpt lat="47.02612" lon="5.63927">
        <ele>242</ele>
        <time>2010-08-01T07:05:37Z</time>
      </trkpt>
      <trkpt lat="47.02603" lon="5.63931">
        <ele>242</ele>
        <time>2010-08-01T07:05:38Z</time>
      </trkpt>
      <trkpt lat="47.02586" lon="5.6394">
        <ele>242</ele>
        <time>2010-08-01T07:05:40Z</time>
      </trkpt>
      <trkpt lat="47.02578" lon="5.63944">
        <ele>242</ele>
        <time>2010-08-01T07:05:41Z</time>
      </trkpt>
      <trkpt lat="47.02569" lon="5.63949">
        <ele>242</ele>
        <time>2010-08-01T07:05:42Z</time>
      </trkpt>
      <trkpt lat="47.02553" lon="5.63959">
        <ele>242</ele>
        <time>2010-08-01T07:05:44Z</time>
      </trkpt>
      <trkpt lat="47.02544" lon="5.63963">
        <ele>242</ele>
        <time>2010-08-01T07:05:45Z</time>
      </trkpt>
      <trkpt lat="47.02535" lon="5.63968">
        <ele>242</ele>
        <time>2010-08-01T07:05:46Z</time>
      </trkpt>
      <trkpt lat="47.02527" lon="5.63973">
        <ele>242</ele>
        <time>2010-08-01T07:05:47Z</time>
      </trkpt>
      <trkpt lat="47.02518" lon="5.63978">
        <ele>242</ele>
        <time>2010-08-01T07:05:48Z</time>
      </trkpt>
      <trkpt lat="47.02509" lon="5.63982">
        <ele>242</ele>
        <time>2010-08-01T07:05:49Z</time>
      </trkpt>
      <trkpt lat="47.025" lon="5.63988">
        <ele>242</ele>
        <time>2010-08-01T07:05:50Z</time>
      </trkpt>
      <trkpt lat="47.02492" lon="5.63992">
        <ele>242</ele>
        <time>2010-08-01T07:05:51Z</time>
      </trkpt>
      <trkpt lat="47.02483" lon="5.63997">
        <ele>242</ele>
        <time>2010-08-01T07:05:52Z</time>
      </trkpt>
      <trkpt lat="47.02467" lon="5.64007">
        <ele>242</ele>
        <time>2010-08-01T07:05:54Z</time>
      </trkpt>
      <trkpt lat="47.02459" lon="5.64014">
        <ele>242</ele>
        <time>2010-08-01T07:05:55Z</time>
      </trkpt>
      <trkpt lat="47.02451" lon="5.64021">
        <ele>242</ele>
        <time>2010-08-01T07:05:56Z</time>
      </trkpt>
      <trkpt lat="47.02443" lon="5.64028">
        <ele>242</ele>
        <time>2010-08-01T07:05:57Z</time>
      </trkpt>
      <trkpt lat="47.02427" lon="5.64043">
        <ele>242</ele>
        <time>2010-08-01T07:05:59Z</time>
      </trkpt>
      <trkpt lat="47.02419" lon="5.6405">
        <ele>242</ele>
        <time>2010-08-01T07:06:00Z</time>
      </trkpt>
      <trkpt lat="47.0241" lon="5.64056">
        <ele>242</ele>
        <time>2010-08-01T07:06:01Z</time>
      </trkpt>
      <trkpt lat="47.02401" lon="5.6406">
        <ele>242</ele>
        <time>2010-08-01T07:06:02Z</time>
      </trkpt>
      <trkpt lat="47.02391" lon="5.64064">
        <ele>242</ele>
        <time>2010-08-01T07:06:03Z</time>
      </trkpt>
      <trkpt lat="47.02382" lon="5.64066">
        <ele>242</ele>
        <time>2010-08-01T07:06:04Z</time>
      </trkpt>
      <trkpt lat="47.02372" lon="5.64067">
        <ele>242</ele>
        <time>2010-08-01T07:06:05Z</time>
      </trkpt>
      <trkpt lat="47.02362" lon="5.64067">
        <ele>242</ele>
        <time>2010-08-01T07:06:06Z</time>
      </trkpt>
      <trkpt lat="47.02353" lon="5.64066">
        <ele>242</ele>
        <time>2010-08-01T07:06:07Z</time>
      </trkpt>
      <trkpt lat="47.02343" lon="5.64066">
        <ele>242</ele>
        <time>2010-08-01T07:06:08Z</time>
      </trkpt>
      <trkpt lat="47.02334" lon="5.64065">
        <ele>242</ele>
        <time>2010-08-01T07:06:09Z</time>
      </trkpt>
      <trkpt lat="47.02325" lon="5.64065">
        <ele>242</ele>
        <time>2010-08-01T07:06:10Z</time>
      </trkpt>
      <trkpt lat="47.02315" lon="5.64064">
        <ele>242</ele>
        <time>2010-08-01T07:06:11Z</time>
      </trkpt>
      <trkpt lat="47.02306" lon="5.64063">
        <ele>242</ele>
        <time>2010-08-01T07:06:12Z</time>
      </trkpt>
      <trkpt lat="47.02297" lon="5.64061">
        <ele>242</ele>
        <time>2010-08-01T07:06:13Z</time>
      </trkpt>
      <trkpt lat="47.02288" lon="5.64059">
        <ele>242</ele>
        <time>2010-08-01T07:06:14Z</time>
      </trkpt>
      <trkpt lat="47.02279" lon="5.64057">
        <ele>242</ele>
        <time>2010-08-01T07:06:15Z</time>
      </trkpt>
      <trkpt lat="47.02269" lon="5.64054">
        <ele>242</ele>
        <time>2010-08-01T07:06:16Z</time>
      </trkpt>
      <trkpt lat="47.0226" lon="5.6405">
        <ele>242</ele>
        <time>2010-08-01T07:06:17Z</time>
      </trkpt>
      <trkpt lat="47.02252" lon="5.64047">
        <ele>242</ele>
        <time>2010-08-01T07:06:18Z</time>
      </trkpt>
      <trkpt lat="47.02243" lon="5.64043">
        <ele>242</ele>
        <time>2010-08-01T07:06:19Z</time>
      </trkpt>
      <trkpt lat="47.02226" lon="5.64036">
        <ele>242</ele>
        <time>2010-08-01T07:06:21Z</time>
      </trkpt>
      <trkpt lat="47.02209" lon="5.64032">
        <ele>242</ele>
        <time>2010-08-01T07:06:23Z</time>
      </trkpt>
      <trkpt lat="47.02191" lon="5.64028">
        <ele>242</ele>
        <time>2010-08-01T07:06:25Z</time>
      </trkpt>
      <trkpt lat="47.02173" lon="5.64029">
        <ele>242</ele>
        <time>2010-08-01T07:06:27Z</time>
      </trkpt>
      <trkpt lat="47.02164" lon="5.64031">
        <ele>242</ele>
        <time>2010-08-01T07:06:28Z</time>
      </trkpt>
      <trkpt lat="47.02146" lon="5.64037">
        <ele>242</ele>
        <time>2010-08-01T07:06:30Z</time>
      </trkpt>
      <trkpt lat="47.02137" lon="5.64041">
        <ele>242</ele>
        <time>2010-08-01T07:06:31Z</time>
      </trkpt>
      <trkpt lat="47.02128" lon="5.64046">
        <ele>242</ele>
        <time>2010-08-01T07:06:32Z</time>
      </trkpt>
      <trkpt lat="47.0212" lon="5.6405">
        <ele>242</ele>
        <time>2010-08-01T07:06:33Z</time>
      </trkpt>
      <trkpt lat="47.02111" lon="5.64054">
        <ele>242</ele>
        <time>2010-08-01T07:06:34Z</time>
      </trkpt>
      <trkpt lat="47.02102" lon="5.64058">
        <ele>242</ele>
        <time>2010-08-01T07:06:35Z</time>
      </trkpt>
      <trkpt lat="47.02084" lon="5.64065">
        <ele>242</ele>
        <time>2010-08-01T07:06:37Z</time>
      </trkpt>
      <trkpt lat="47.02075" lon="5.64068">
        <ele>237</ele>
        <time>2010-08-01T07:06:38Z</time>
      </trkpt>
      <trkpt lat="47.02067" lon="5.64072">
        <ele>237</ele>
        <time>2010-08-01T07:06:39Z</time>
      </trkpt>
      <trkpt lat="47.02057" lon="5.64076">
        <ele>237</ele>
        <time>2010-08-01T07:06:40Z</time>
      </trkpt>
      <trkpt lat="47.02048" lon="5.6408">
        <ele>237</ele>
        <time>2010-08-01T07:06:41Z</time>
      </trkpt>
      <trkpt lat="47.02038" lon="5.64085">
        <ele>237</ele>
        <time>2010-08-01T07:06:42Z</time>
      </trkpt>
      <trkpt lat="47.02029" lon="5.64089">
        <ele>237</ele>
        <time>2010-08-01T07:06:43Z</time>
      </trkpt>
      <trkpt lat="47.02019" lon="5.64093">
        <ele>237</ele>
        <time>2010-08-01T07:06:44Z</time>
      </trkpt>
      <trkpt lat="47.02009" lon="5.64097">
        <ele>237</ele>
        <time>2010-08-01T07:06:45Z</time>
      </trkpt>
      <trkpt lat="47.02" lon="5.64102">
        <ele>237</ele>
        <time>2010-08-01T07:06:46Z</time>
      </trkpt>
      <trkpt lat="47.01991" lon="5.64106">
        <ele>231</ele>
        <time>2010-08-01T07:06:47Z</time>
      </trkpt>
      <trkpt lat="47.01981" lon="5.6411">
        <ele>231</ele>
        <time>2010-08-01T07:06:48Z</time>
      </trkpt>
      <trkpt lat="47.01972" lon="5.64112">
        <ele>231</ele>
        <time>2010-08-01T07:06:49Z</time>
      </trkpt>
      <trkpt lat="47.01963" lon="5.64116">
        <ele>231</ele>
        <time>2010-08-01T07:06:50Z</time>
      </trkpt>
      <trkpt lat="47.01954" lon="5.6412">
        <ele>231</ele>
        <time>2010-08-01T07:06:51Z</time>
      </trkpt>
      <trkpt lat="47.01939" lon="5.64126">
        <ele>231</ele>
        <time>2010-08-01T07:06:53Z</time>
      </trkpt>
      <trkpt lat="47.01927" lon="5.64129">
        <ele>231</ele>
        <time>2010-08-01T07:06:55Z</time>
      </trkpt>
      <trkpt lat="47.01918" lon="5.64134">
        <ele>231</ele>
        <time>2010-08-01T07:06:57Z</time>
      </trkpt>
      <trkpt lat="47.01913" lon="5.64154">
        <ele>225</ele>
        <time>2010-08-01T07:07:00Z</time>
      </trkpt>
      <trkpt lat="47.01913" lon="5.64173">
        <ele>225</ele>
        <time>2010-08-01T07:07:02Z</time>
      </trkpt>
      <trkpt lat="47.01915" lon="5.64196">
        <ele>225</ele>
        <time>2010-08-01T07:07:04Z</time>
      </trkpt>
      <trkpt lat="47.01917" lon="5.64218">
        <ele>225</ele>
        <time>2010-08-01T07:07:06Z</time>
      </trkpt>
      <trkpt lat="47.01916" lon="5.64241">
        <ele>225</ele>
        <time>2010-08-01T07:07:08Z</time>
      </trkpt>
      <trkpt lat="47.01914" lon="5.64263">
        <ele>225</ele>
        <time>2010-08-01T07:07:10Z</time>
      </trkpt>
      <trkpt lat="47.01911" lon="5.64285">
        <ele>225</ele>
        <time>2010-08-01T07:07:12Z</time>
      </trkpt>
      <trkpt lat="47.0191" lon="5.64309">
        <ele>225</ele>
        <time>2010-08-01T07:07:14Z</time>
      </trkpt>
      <trkpt lat="47.01908" lon="5.6433">
        <ele>225</ele>
        <time>2010-08-01T07:07:16Z</time>
      </trkpt>
      <trkpt lat="47.01903" lon="5.6435">
        <ele>225</ele>
        <time>2010-08-01T07:07:18Z</time>
      </trkpt>
      <trkpt lat="47.01897" lon="5.64368">
        <ele>225</ele>
        <time>2010-08-01T07:07:20Z</time>
      </trkpt>
      <trkpt lat="47.01891" lon="5.64388">
        <ele>225</ele>
        <time>2010-08-01T07:07:22Z</time>
      </trkpt>
      <trkpt lat="47.01885" lon="5.64408">
        <ele>225</ele>
        <time>2010-08-01T07:07:24Z</time>
      </trkpt>
      <trkpt lat="47.01879" lon="5.64427">
        <ele>225</ele>
        <time>2010-08-01T07:07:26Z</time>
      </trkpt>
      <trkpt lat="47.01873" lon="5.64448">
        <ele>225</ele>
        <time>2010-08-01T07:07:28Z</time>
      </trkpt>
      <trkpt lat="47.01867" lon="5.64471">
        <ele>225</ele>
        <time>2010-08-01T07:07:30Z</time>
      </trkpt>
      <trkpt lat="47.01863" lon="5.64493">
        <ele>225</ele>
        <time>2010-08-01T07:07:32Z</time>
      </trkpt>
      <trkpt lat="47.01863" lon="5.64518">
        <ele>225</ele>
        <time>2010-08-01T07:07:34Z</time>
      </trkpt>
      <trkpt lat="47.01865" lon="5.64542">
        <ele>225</ele>
        <time>2010-08-01T07:07:36Z</time>
      </trkpt>
      <trkpt lat="47.01866" lon="5.64565">
        <ele>225</ele>
        <time>2010-08-01T07:07:38Z</time>
      </trkpt>
      <trkpt lat="47.01868" lon="5.64589">
        <ele>225</ele>
        <time>2010-08-01T07:07:40Z</time>
      </trkpt>
      <trkpt lat="47.01868" lon="5.64613">
        <ele>225</ele>
        <time>2010-08-01T07:07:42Z</time>
      </trkpt>
      <trkpt lat="47.01865" lon="5.64636">
        <ele>225</ele>
        <time>2010-08-01T07:07:44Z</time>
      </trkpt>
      <trkpt lat="47.0186" lon="5.64659">
        <ele>225</ele>
        <time>2010-08-01T07:07:46Z</time>
      </trkpt>
      <trkpt lat="47.01855" lon="5.64682">
        <ele>225</ele>
        <time>2010-08-01T07:07:48Z</time>
      </trkpt>
      <trkpt lat="47.01852" lon="5.64704">
        <ele>225</ele>
        <time>2010-08-01T07:07:50Z</time>
      </trkpt>
      <trkpt lat="47.01852" lon="5.64727">
        <ele>225</ele>
        <time>2010-08-01T07:07:52Z</time>
      </trkpt>
      <trkpt lat="47.01854" lon="5.6475">
        <ele>225</ele>
        <time>2010-08-01T07:07:54Z</time>
      </trkpt>
      <trkpt lat="47.01857" lon="5.64772">
        <ele>225</ele>
        <time>2010-08-01T07:07:56Z</time>
      </trkpt>
      <trkpt lat="47.01863" lon="5.64793">
        <ele>225</ele>
        <time>2010-08-01T07:07:58Z</time>
      </trkpt>
      <trkpt lat="47.01869" lon="5.64813">
        <ele>225</ele>
        <time>2010-08-01T07:08:00Z</time>
      </trkpt>
      <trkpt lat="47.01877" lon="5.64832">
        <ele>225</ele>
        <time>2010-08-01T07:08:02Z</time>
      </trkpt>
      <trkpt lat="47.01887" lon="5.6485">
        <ele>225</ele>
        <time>2010-08-01T07:08:04Z</time>
      </trkpt>
      <trkpt lat="47.01897" lon="5.64866">
        <ele>225</ele>
        <time>2010-08-01T07:08:06Z</time>
      </trkpt>
      <trkpt lat="47.01909" lon="5.6488">
        <ele>225</ele>
        <time>2010-08-01T07:08:08Z</time>
      </trkpt>
      <trkpt lat="47.01922" lon="5.6489">
        <ele>225</ele>
        <time>2010-08-01T07:08:10Z</time>
      </trkpt>
      <trkpt lat="47.01935" lon="5.64901">
        <ele>225</ele>
        <time>2010-08-01T07:08:12Z</time>
      </trkpt>
      <trkpt lat="47.01947" lon="5.64913">
        <ele>225</ele>
        <time>2010-08-01T07:08:14Z</time>
      </trkpt>
      <trkpt lat="47.0196" lon="5.64926">
        <ele>225</ele>
        <time>2010-08-01T07:08:16Z</time>
      </trkpt>
      <trkpt lat="47.01972" lon="5.64942">
        <ele>225</ele>
        <time>2010-08-01T07:08:18Z</time>
      </trkpt>
      <trkpt lat="47.01983" lon="5.64959">
        <ele>225</ele>
        <time>2010-08-01T07:08:20Z</time>
      </trkpt>
      <trkpt lat="47.01992" lon="5.64977">
        <ele>225</ele>
        <time>2010-08-01T07:08:22Z</time>
      </trkpt>
      <trkpt lat="47.02001" lon="5.64998">
        <ele>225</ele>
        <time>2010-08-01T07:08:24Z</time>
      </trkpt>
      <trkpt lat="47.02007" lon="5.65019">
        <ele>225</ele>
        <time>2010-08-01T07:08:26Z</time>
      </trkpt>
      <trkpt lat="47.02013" lon="5.6504">
        <ele>225</ele>
        <time>2010-08-01T07:08:28Z</time>
      </trkpt>
      <trkpt lat="47.02019" lon="5.65062">
        <ele>225</ele>
        <time>2010-08-01T07:08:30Z</time>
      </trkpt>
      <trkpt lat="47.02023" lon="5.65084">
        <ele>225</ele>
        <time>2010-08-01T07:08:32Z</time>
      </trkpt>
      <trkpt lat="47.02027" lon="5.65107">
        <ele>225</ele>
        <time>2010-08-01T07:08:34Z</time>
      </trkpt>
      <trkpt lat="47.0203" lon="5.65131">
        <ele>225</ele>
        <time>2010-08-01T07:08:36Z</time>
      </trkpt>
      <trkpt lat="47.02032" lon="5.65154">
        <ele>225</ele>
        <time>2010-08-01T07:08:38Z</time>
      </trkpt>
      <trkpt lat="47.02034" lon="5.65179">
        <ele>225</ele>
        <time>2010-08-01T07:08:40Z</time>
      </trkpt>
      <trkpt lat="47.02034" lon="5.65203">
        <ele>225</ele>
        <time>2010-08-01T07:08:42Z</time>
      </trkpt>
      <trkpt lat="47.0203" lon="5.65226">
        <ele>225</ele>
        <time>2010-08-01T07:08:44Z</time>
      </trkpt>
      <trkpt lat="47.02027" lon="5.65251">
        <ele>225</ele>
        <time>2010-08-01T07:08:46Z</time>
      </trkpt>
      <trkpt lat="47.02022" lon="5.65275">
        <ele>225</ele>
        <time>2010-08-01T07:08:48Z</time>
      </trkpt>
      <trkpt lat="47.02019" lon="5.65297">
        <ele>225</ele>
        <time>2010-08-01T07:08:50Z</time>
      </trkpt>
      <trkpt lat="47.02017" lon="5.65322">
        <ele>225</ele>
        <time>2010-08-01T07:08:52Z</time>
      </trkpt>
      <trkpt lat="47.02017" lon="5.65345">
        <ele>225</ele>
        <time>2010-08-01T07:08:54Z</time>
      </trkpt>
      <trkpt lat="47.02018" lon="5.65366">
        <ele>225</ele>
        <time>2010-08-01T07:08:56Z</time>
      </trkpt>
      <trkpt lat="47.02022" lon="5.65388">
        <ele>225</ele>
        <time>2010-08-01T07:08:58Z</time>
      </trkpt>
      <trkpt lat="47.02027" lon="5.65409">
        <ele>225</ele>
        <time>2010-08-01T07:09:00Z</time>
      </trkpt>
      <trkpt lat="47.02033" lon="5.65429">
        <ele>225</ele>
        <time>2010-08-01T07:09:02Z</time>
      </trkpt>
      <trkpt lat="47.02039" lon="5.65452">
        <ele>225</ele>
        <time>2010-08-01T07:09:04Z</time>
      </trkpt>
      <trkpt lat="47.02044" lon="5.65474">
        <ele>225</ele>
        <time>2010-08-01T07:09:06Z</time>
      </trkpt>
      <trkpt lat="47.02049" lon="5.65498">
        <ele>225</ele>
        <time>2010-08-01T07:09:08Z</time>
      </trkpt>
      <trkpt lat="47.02053" lon="5.65522">
        <ele>225</ele>
        <time>2010-08-01T07:09:10Z</time>
      </trkpt>
      <trkpt lat="47.02057" lon="5.65545">
        <ele>225</ele>
        <time>2010-08-01T07:09:12Z</time>
      </trkpt>
      <trkpt lat="47.02061" lon="5.65569">
        <ele>225</ele>
        <time>2010-08-01T07:09:14Z</time>
      </trkpt>
      <trkpt lat="47.02064" lon="5.6559">
        <ele>225</ele>
        <time>2010-08-01T07:09:16Z</time>
      </trkpt>
      <trkpt lat="47.02067" lon="5.65613">
        <ele>225</ele>
        <time>2010-08-01T07:09:18Z</time>
      </trkpt>
      <trkpt lat="47.0207" lon="5.65634">
        <ele>225</ele>
        <time>2010-08-01T07:09:20Z</time>
      </trkpt>
      <trkpt lat="47.02072" lon="5.65656">
        <ele>225</ele>
        <time>2010-08-01T07:09:22Z</time>
      </trkpt>
      <trkpt lat="47.02076" lon="5.65676">
        <ele>225</ele>
        <time>2010-08-01T07:09:24Z</time>
      </trkpt>
      <trkpt lat="47.02081" lon="5.65697">
        <ele>225</ele>
        <time>2010-08-01T07:09:26Z</time>
      </trkpt>
      <trkpt lat="47.02087" lon="5.65716">
        <ele>225</ele>
        <time>2010-08-01T07:09:28Z</time>
      </trkpt>
      <trkpt lat="47.02095" lon="5.65734">
        <ele>225</ele>
        <time>2010-08-01T07:09:30Z</time>
      </trkpt>
      <trkpt lat="47.02103" lon="5.65751">
        <ele>225</ele>
        <time>2010-08-01T07:09:32Z</time>
      </trkpt>
      <trkpt lat="47.0211" lon="5.65771">
        <ele>225</ele>
        <time>2010-08-01T07:09:34Z</time>
      </trkpt>
      <trkpt lat="47.02114" lon="5.65792">
        <ele>225</ele>
        <time>2010-08-01T07:09:36Z</time>
      </trkpt>
      <trkpt lat="47.02118" lon="5.65817">
        <ele>225</ele>
        <time>2010-08-01T07:09:38Z</time>
      </trkpt>
      <trkpt lat="47.02118" lon="5.65841">
        <ele>225</ele>
        <time>2010-08-01T07:09:40Z</time>
      </trkpt>
      <trkpt lat="47.02116" lon="5.65866">
        <ele>225</ele>
        <time>2010-08-01T07:09:42Z</time>
      </trkpt>
      <trkpt lat="47.02114" lon="5.65891">
        <ele>225</ele>
        <time>2010-08-01T07:09:44Z</time>
      </trkpt>
      <trkpt lat="47.02113" lon="5.65916">
        <ele>225</ele>
        <time>2010-08-01T07:09:46Z</time>
      </trkpt>
      <trkpt lat="47.02112" lon="5.6594">
        <ele>225</ele>
        <time>2010-08-01T07:09:48Z</time>
      </trkpt>
      <trkpt lat="47.02112" lon="5.65966">
        <ele>225</ele>
        <time>2010-08-01T07:09:50Z</time>
      </trkpt>
      <trkpt lat="47.02116" lon="5.65991">
        <ele>225</ele>
        <time>2010-08-01T07:09:52Z</time>
      </trkpt>
      <trkpt lat="47.02122" lon="5.66014">
        <ele>225</ele>
        <time>2010-08-01T07:09:54Z</time>
      </trkpt>
      <trkpt lat="47.02128" lon="5.66037">
        <ele>225</ele>
        <time>2010-08-01T07:09:56Z</time>
      </trkpt>
      <trkpt lat="47.02134" lon="5.66061">
        <ele>225</ele>
        <time>2010-08-01T07:09:58Z</time>
      </trkpt>
      <trkpt lat="47.02141" lon="5.66082">
        <ele>225</ele>
        <time>2010-08-01T07:10:00Z</time>
      </trkpt>
      <trkpt lat="47.02148" lon="5.66104">
        <ele>225</ele>
        <time>2010-08-01T07:10:02Z</time>
      </trkpt>
      <trkpt lat="47.02156" lon="5.66126">
        <ele>225</ele>
        <time>2010-08-01T07:10:04Z</time>
      </trkpt>
      <trkpt lat="47.02164" lon="5.66146">
        <ele>225</ele>
        <time>2010-08-01T07:10:06Z</time>
      </trkpt>
      <trkpt lat="47.02171" lon="5.66167">
        <ele>225</ele>
        <time>2010-08-01T07:10:08Z</time>
      </trkpt>
      <trkpt lat="47.02179" lon="5.66185">
        <ele>225</ele>
        <time>2010-08-01T07:10:10Z</time>
      </trkpt>
      <trkpt lat="47.0219" lon="5.662">
        <ele>225</ele>
        <time>2010-08-01T07:10:12Z</time>
      </trkpt>
      <trkpt lat="47.02204" lon="5.66205">
        <ele>225</ele>
        <time>2010-08-01T07:10:14Z</time>
      </trkpt>
      <trkpt lat="47.02217" lon="5.66198">
        <ele>225</ele>
        <time>2010-08-01T07:10:16Z</time>
      </trkpt>
      <trkpt lat="47.0223" lon="5.66188">
        <ele>225</ele>
        <time>2010-08-01T07:10:18Z</time>
      </trkpt>
      <trkpt lat="47.02243" lon="5.66178">
        <ele>225</ele>
        <time>2010-08-01T07:10:20Z</time>
      </trkpt>
      <trkpt lat="47.02255" lon="5.6617">
        <ele>225</ele>
        <time>2010-08-01T07:10:22Z</time>
      </trkpt>
      <trkpt lat="47.02268" lon="5.66164">
        <ele>225</ele>
        <time>2010-08-01T07:10:24Z</time>
      </trkpt>
      <trkpt lat="47.0228" lon="5.66163">
        <ele>225</ele>
        <time>2010-08-01T07:10:26Z</time>
      </trkpt>
      <trkpt lat="47.02293" lon="5.66164">
        <ele>225</ele>
        <time>2010-08-01T07:10:28Z</time>
      </trkpt>
      <trkpt lat="47.02304" lon="5.66164">
        <ele>230</ele>
        <time>2010-08-01T07:10:30Z</time>
      </trkpt>
      <trkpt lat="47.02316" lon="5.66165">
        <ele>230</ele>
        <time>2010-08-01T07:10:32Z</time>
      </trkpt>
      <trkpt lat="47.02327" lon="5.66164">
        <ele>230</ele>
        <time>2010-08-01T07:10:34Z</time>
      </trkpt>
      <trkpt lat="47.02337" lon="5.66165">
        <ele>230</ele>
        <time>2010-08-01T07:10:36Z</time>
      </trkpt>
      <trkpt lat="47.02346" lon="5.66169">
        <ele>236</ele>
        <time>2010-08-01T07:10:38Z</time>
      </trkpt>
      <trkpt lat="47.02356" lon="5.66179">
        <ele>236</ele>
        <time>2010-08-01T07:10:41Z</time>
      </trkpt>
      <trkpt lat="47.02361" lon="5.6619">
        <ele>236</ele>
        <time>2010-08-01T07:10:43Z</time>
      </trkpt>
      <trkpt lat="47.02363" lon="5.66204">
        <ele>236</ele>
        <time>2010-08-01T07:10:45Z</time>
      </trkpt>
      <trkpt lat="47.02366" lon="5.66217">
        <ele>236</ele>
        <time>2010-08-01T07:10:47Z</time>
      </trkpt>
      <trkpt lat="47.02369" lon="5.66232">
        <ele>236</ele>
        <time>2010-08-01T07:10:49Z</time>
      </trkpt>
      <trkpt lat="47.02371" lon="5.66246">
        <ele>236</ele>
        <time>2010-08-01T07:10:51Z</time>
      </trkpt>
      <trkpt lat="47.02371" lon="5.66261">
        <ele>236</ele>
        <time>2010-08-01T07:10:53Z</time>
      </trkpt>
      <trkpt lat="47.0237" lon="5.66276">
        <ele>236</ele>
        <time>2010-08-01T07:10:55Z</time>
      </trkpt>
      <trkpt lat="47.02368" lon="5.66293">
        <ele>236</ele>
        <time>2010-08-01T07:10:57Z</time>
      </trkpt>
      <trkpt lat="47.02368" lon="5.6631">
        <ele>236</ele>
        <time>2010-08-01T07:10:59Z</time>
      </trkpt>
      <trkpt lat="47.02371" lon="5.66326">
        <ele>236</ele>
        <time>2010-08-01T07:11:01Z</time>
      </trkpt>
      <trkpt lat="47.02378" lon="5.6634">
        <ele>236</ele>
        <time>2010-08-01T07:11:03Z</time>
      </trkpt>
      <trkpt lat="47.02386" lon="5.66352">
        <ele>236</ele>
        <time>2010-08-01T07:11:05Z</time>
      </trkpt>
      <trkpt lat="47.02393" lon="5.66363">
        <ele>236</ele>
        <time>2010-08-01T07:11:07Z</time>
      </trkpt>
      <trkpt lat="47.02401" lon="5.66374">
        <ele>236</ele>
        <time>2010-08-01T07:11:09Z</time>
      </trkpt>
      <trkpt lat="47.02408" lon="5.66387">
        <ele>241</ele>
        <time>2010-08-01T07:11:11Z</time>
      </trkpt>
      <trkpt lat="47.02414" lon="5.664">
        <ele>241</ele>
        <time>2010-08-01T07:11:13Z</time>
      </trkpt>
      <trkpt lat="47.02421" lon="5.66414">
        <ele>241</ele>
        <time>2010-08-01T07:11:15Z</time>
      </trkpt>
      <trkpt lat="47.02427" lon="5.66426">
        <ele>241</ele>
        <time>2010-08-01T07:11:17Z</time>
      </trkpt>
      <trkpt lat="47.02435" lon="5.66439">
        <ele>241</ele>
        <time>2010-08-01T07:11:19Z</time>
      </trkpt>
      <trkpt lat="47.02442" lon="5.66452">
        <ele>241</ele>
        <time>2010-08-01T07:11:21Z</time>
      </trkpt>
      <trkpt lat="47.02451" lon="5.66464">
        <ele>241</ele>
        <time>2010-08-01T07:11:23Z</time>
      </trkpt>
      <trkpt lat="47.02459" lon="5.66477">
        <ele>241</ele>
        <time>2010-08-01T07:11:25Z</time>
      </trkpt>
      <trkpt lat="47.02467" lon="5.6649">
        <ele>241</ele>
        <time>2010-08-01T07:11:27Z</time>
      </trkpt>
      <trkpt lat="47.02475" lon="5.66502">
        <ele>241</ele>
        <time>2010-08-01T07:11:29Z</time>
      </trkpt>
      <trkpt lat="47.02483" lon="5.66514">
        <ele>241</ele>
        <time>2010-08-01T07:11:31Z</time>
      </trkpt>
      <trkpt lat="47.02491" lon="5.66524">
        <ele>246</ele>
        <time>2010-08-01T07:11:33Z</time>
      </trkpt>
      <trkpt lat="47.02499" lon="5.66536">
        <ele>246</ele>
        <time>2010-08-01T07:11:35Z</time>
      </trkpt>
      <trkpt lat="47.02508" lon="5.66547">
        <ele>246</ele>
        <time>2010-08-01T07:11:37Z</time>
      </trkpt>
      <trkpt lat="47.02516" lon="5.66559">
        <ele>246</ele>
        <time>2010-08-01T07:11:39Z</time>
      </trkpt>
      <trkpt lat="47.02524" lon="5.6657">
        <ele>246</ele>
        <time>2010-08-01T07:11:41Z</time>
      </trkpt>
      <trkpt lat="47.02532" lon="5.66584">
        <ele>246</ele>
        <time>2010-08-01T07:11:43Z</time>
      </trkpt>
      <trkpt lat="47.02539" lon="5.66599">
        <ele>246</ele>
        <time>2010-08-01T07:11:45Z</time>
      </trkpt>
      <trkpt lat="47.02546" lon="5.66616">
        <ele>246</ele>
        <time>2010-08-01T07:11:47Z</time>
      </trkpt>
      <trkpt lat="47.02552" lon="5.66634">
        <ele>246</ele>
        <time>2010-08-01T07:11:49Z</time>
      </trkpt>
      <trkpt lat="47.02558" lon="5.66654">
        <ele>246</ele>
        <time>2010-08-01T07:11:51Z</time>
      </trkpt>
      <trkpt lat="47.02562" lon="5.66674">
        <ele>246</ele>
        <time>2010-08-01T07:11:53Z</time>
      </trkpt>
      <trkpt lat="47.02565" lon="5.66696">
        <ele>246</ele>
        <time>2010-08-01T07:11:55Z</time>
      </trkpt>
      <trkpt lat="47.02569" lon="5.66718">
        <ele>246</ele>
        <time>2010-08-01T07:11:57Z</time>
      </trkpt>
      <trkpt lat="47.02572" lon="5.66741">
        <ele>246</ele>
        <time>2010-08-01T07:11:59Z</time>
      </trkpt>
      <trkpt lat="47.02575" lon="5.66762">
        <ele>246</ele>
        <time>2010-08-01T07:12:01Z</time>
      </trkpt>
      <trkpt lat="47.02578" lon="5.66782">
        <ele>246</ele>
        <time>2010-08-01T07:12:03Z</time>
      </trkpt>
      <trkpt lat="47.02581" lon="5.66803">
        <ele>246</ele>
        <time>2010-08-01T07:12:05Z</time>
      </trkpt>
      <trkpt lat="47.02583" lon="5.66824">
        <ele>246</ele>
        <time>2010-08-01T07:12:07Z</time>
      </trkpt>
      <trkpt lat="47.02585" lon="5.66844">
        <ele>246</ele>
        <time>2010-08-01T07:12:09Z</time>
      </trkpt>
      <trkpt lat="47.02588" lon="5.66866">
        <ele>246</ele>
        <time>2010-08-01T07:12:11Z</time>
      </trkpt>
      <trkpt lat="47.02591" lon="5.66888">
        <ele>246</ele>
        <time>2010-08-01T07:12:13Z</time>
      </trkpt>
      <trkpt lat="47.02593" lon="5.66911">
        <ele>246</ele>
        <time>2010-08-01T07:12:15Z</time>
      </trkpt>
      <trkpt lat="47.02596" lon="5.66933">
        <ele>246</ele>
        <time>2010-08-01T07:12:17Z</time>
      </trkpt>
      <trkpt lat="47.02599" lon="5.66956">
        <ele>246</ele>
        <time>2010-08-01T07:12:19Z</time>
      </trkpt>
      <trkpt lat="47.02602" lon="5.6698">
        <ele>246</ele>
        <time>2010-08-01T07:12:21Z</time>
      </trkpt>
      <trkpt lat="47.02604" lon="5.67003">
        <ele>246</ele>
        <time>2010-08-01T07:12:23Z</time>
      </trkpt>
      <trkpt lat="47.02607" lon="5.67027">
        <ele>241</ele>
        <time>2010-08-01T07:12:25Z</time>
      </trkpt>
      <trkpt lat="47.02611" lon="5.67053">
        <ele>241</ele>
        <time>2010-08-01T07:12:27Z</time>
      </trkpt>
      <trkpt lat="47.02614" lon="5.67079">
        <ele>241</ele>
        <time>2010-08-01T07:12:29Z</time>
      </trkpt>
      <trkpt lat="47.02618" lon="5.67104">
        <ele>241</ele>
        <time>2010-08-01T07:12:31Z</time>
      </trkpt>
      <trkpt lat="47.0262" lon="5.67117">
        <ele>241</ele>
        <time>2010-08-01T07:12:32Z</time>
      </trkpt>
      <trkpt lat="47.02621" lon="5.67131">
        <ele>241</ele>
        <time>2010-08-01T07:12:33Z</time>
      </trkpt>
      <trkpt lat="47.02624" lon="5.67157">
        <ele>241</ele>
        <time>2010-08-01T07:12:35Z</time>
      </trkpt>
      <trkpt lat="47.02626" lon="5.6717">
        <ele>241</ele>
        <time>2010-08-01T07:12:36Z</time>
      </trkpt>
      <trkpt lat="47.0263" lon="5.67196">
        <ele>241</ele>
        <time>2010-08-01T07:12:38Z</time>
      </trkpt>
      <trkpt lat="47.02634" lon="5.67221">
        <ele>241</ele>
        <time>2010-08-01T07:12:40Z</time>
      </trkpt>
      <trkpt lat="47.02636" lon="5.67247">
        <ele>241</ele>
        <time>2010-08-01T07:12:42Z</time>
      </trkpt>
      <trkpt lat="47.02639" lon="5.67271">
        <ele>241</ele>
        <time>2010-08-01T07:12:44Z</time>
      </trkpt>
      <trkpt lat="47.02642" lon="5.67293">
        <ele>241</ele>
        <time>2010-08-01T07:12:46Z</time>
      </trkpt>
      <trkpt lat="47.02644" lon="5.67315">
        <ele>241</ele>
        <time>2010-08-01T07:12:48Z</time>
      </trkpt>
      <trkpt lat="47.02647" lon="5.67335">
        <ele>241</ele>
        <time>2010-08-01T07:12:50Z</time>
      </trkpt>
      <trkpt lat="47.02648" lon="5.67354">
        <ele>241</ele>
        <time>2010-08-01T07:12:52Z</time>
      </trkpt>
      <trkpt lat="47.0265" lon="5.67372">
        <ele>241</ele>
        <time>2010-08-01T07:12:54Z</time>
      </trkpt>
      <trkpt lat="47.02653" lon="5.6739">
        <ele>241</ele>
        <time>2010-08-01T07:12:56Z</time>
      </trkpt>
      <trkpt lat="47.02655" lon="5.67409">
        <ele>241</ele>
        <time>2010-08-01T07:12:58Z</time>
      </trkpt>
      <trkpt lat="47.02656" lon="5.67427">
        <ele>241</ele>
        <time>2010-08-01T07:13:00Z</time>
      </trkpt>
      <trkpt lat="47.02658" lon="5.67446">
        <ele>241</ele>
        <time>2010-08-01T07:13:02Z</time>
      </trkpt>
      <trkpt lat="47.02661" lon="5.67464">
        <ele>241</ele>
        <time>2010-08-01T07:13:04Z</time>
      </trkpt>
      <trkpt lat="47.02663" lon="5.67484">
        <ele>241</ele>
        <time>2010-08-01T07:13:06Z</time>
      </trkpt>
      <trkpt lat="47.02665" lon="5.67503">
        <ele>241</ele>
        <time>2010-08-01T07:13:08Z</time>
      </trkpt>
      <trkpt lat="47.02667" lon="5.67522">
        <ele>241</ele>
        <time>2010-08-01T07:13:10Z</time>
      </trkpt>
      <trkpt lat="47.0267" lon="5.67544">
        <ele>241</ele>
        <time>2010-08-01T07:13:12Z</time>
      </trkpt>
      <trkpt lat="47.02673" lon="5.67566">
        <ele>241</ele>
        <time>2010-08-01T07:13:14Z</time>
      </trkpt>
      <trkpt lat="47.02677" lon="5.6759">
        <ele>241</ele>
        <time>2010-08-01T07:13:16Z</time>
      </trkpt>
      <trkpt lat="47.02681" lon="5.67615">
        <ele>241</ele>
        <time>2010-08-01T07:13:18Z</time>
      </trkpt>
      <trkpt lat="47.02685" lon="5.6764">
        <ele>241</ele>
        <time>2010-08-01T07:13:20Z</time>
      </trkpt>
      <trkpt lat="47.02689" lon="5.67665">
        <ele>241</ele>
        <time>2010-08-01T07:13:22Z</time>
      </trkpt>
      <trkpt lat="47.02693" lon="5.6769">
        <ele>241</ele>
        <time>2010-08-01T07:13:24Z</time>
      </trkpt>
      <trkpt lat="47.02698" lon="5.67716">
        <ele>241</ele>
        <time>2010-08-01T07:13:26Z</time>
      </trkpt>
      <trkpt lat="47.02701" lon="5.67742">
        <ele>241</ele>
        <time>2010-08-01T07:13:28Z</time>
      </trkpt>
      <trkpt lat="47.02704" lon="5.67768">
        <ele>241</ele>
        <time>2010-08-01T07:13:30Z</time>
      </trkpt>
      <trkpt lat="47.02706" lon="5.67793">
        <ele>241</ele>
        <time>2010-08-01T07:13:32Z</time>
      </trkpt>
      <trkpt lat="47.02706" lon="5.67818">
        <ele>241</ele>
        <time>2010-08-01T07:13:34Z</time>
      </trkpt>
      <trkpt lat="47.02706" lon="5.67842">
        <ele>241</ele>
        <time>2010-08-01T07:13:36Z</time>
      </trkpt>
      <trkpt lat="47.02706" lon="5.67865">
        <ele>241</ele>
        <time>2010-08-01T07:13:38Z</time>
      </trkpt>
      <trkpt lat="47.02706" lon="5.67887">
        <ele>241</ele>
        <time>2010-08-01T07:13:40Z</time>
      </trkpt>
      <trkpt lat="47.02706" lon="5.67909">
        <ele>241</ele>
        <time>2010-08-01T07:13:42Z</time>
      </trkpt>
      <trkpt lat="47.02706" lon="5.6793">
        <ele>241</ele>
        <time>2010-08-01T07:13:44Z</time>
      </trkpt>
      <trkpt lat="47.02706" lon="5.67953">
        <ele>241</ele>
        <time>2010-08-01T07:13:46Z</time>
      </trkpt>
      <trkpt lat="47.02706" lon="5.67975">
        <ele>241</ele>
        <time>2010-08-01T07:13:48Z</time>
      </trkpt>
      <trkpt lat="47.02706" lon="5.67998">
        <ele>241</ele>
        <time>2010-08-01T07:13:50Z</time>
      </trkpt>
      <trkpt lat="47.02706" lon="5.68021">
        <ele>241</ele>
        <time>2010-08-01T07:13:52Z</time>
      </trkpt>
      <trkpt lat="47.02706" lon="5.68044">
        <ele>241</ele>
        <time>2010-08-01T07:13:54Z</time>
      </trkpt>
      <trkpt lat="47.02706" lon="5.68068">
        <ele>241</ele>
        <time>2010-08-01T07:13:56Z</time>
      </trkpt>
      <trkpt lat="47.02706" lon="5.6809">
        <ele>241</ele>
        <time>2010-08-01T07:13:58Z</time>
      </trkpt>
      <trkpt lat="47.02706" lon="5.68114">
        <ele>241</ele>
        <time>2010-08-01T07:14:00Z</time>
      </trkpt>
      <trkpt lat="47.02706" lon="5.68136">
        <ele>241</ele>
        <time>2010-08-01T07:14:02Z</time>
      </trkpt>
      <trkpt lat="47.02706" lon="5.68158">
        <ele>241</ele>
        <time>2010-08-01T07:14:04Z</time>
      </trkpt>
      <trkpt lat="47.02707" lon="5.68182">
        <ele>241</ele>
        <time>2010-08-01T07:14:06Z</time>
      </trkpt>
      <trkpt lat="47.02707" lon="5.68205">
        <ele>241</ele>
        <time>2010-08-01T07:14:08Z</time>
      </trkpt>
      <trkpt lat="47.02707" lon="5.68228">
        <ele>241</ele>
        <time>2010-08-01T07:14:10Z</time>
      </trkpt>
      <trkpt lat="47.02708" lon="5.68251">
        <ele>241</ele>
        <time>2010-08-01T07:14:12Z</time>
      </trkpt>
      <trkpt lat="47.0271" lon="5.68273">
        <ele>241</ele>
        <time>2010-08-01T07:14:14Z</time>
      </trkpt>
      <trkpt lat="47.02713" lon="5.68297">
        <ele>241</ele>
        <time>2010-08-01T07:14:16Z</time>
      </trkpt>
      <trkpt lat="47.02717" lon="5.68318">
        <ele>241</ele>
        <time>2010-08-01T07:14:18Z</time>
      </trkpt>
      <trkpt lat="47.02721" lon="5.68341">
        <ele>241</ele>
        <time>2010-08-01T07:14:20Z</time>
      </trkpt>
      <trkpt lat="47.02725" lon="5.68362">
        <ele>241</ele>
        <time>2010-08-01T07:14:22Z</time>
      </trkpt>
      <trkpt lat="47.0273" lon="5.68384">
        <ele>241</ele>
        <time>2010-08-01T07:14:24Z</time>
      </trkpt>
      <trkpt lat="47.02733" lon="5.68406">
        <ele>241</ele>
        <time>2010-08-01T07:14:26Z</time>
      </trkpt>
      <trkpt lat="47.02737" lon="5.68428">
        <ele>241</ele>
        <time>2010-08-01T07:14:28Z</time>
      </trkpt>
      <trkpt lat="47.02742" lon="5.68449">
        <ele>241</ele>
        <time>2010-08-01T07:14:30Z</time>
      </trkpt>
      <trkpt lat="47.02748" lon="5.68469">
        <ele>241</ele>
        <time>2010-08-01T07:14:32Z</time>
      </trkpt>
      <trkpt lat="47.02755" lon="5.68489">
        <ele>241</ele>
        <time>2010-08-01T07:14:34Z</time>
      </trkpt>
      <trkpt lat="47.02762" lon="5.68508">
        <ele>241</ele>
        <time>2010-08-01T07:14:36Z</time>
      </trkpt>
      <trkpt lat="47.02769" lon="5.68526">
        <ele>241</ele>
        <time>2010-08-01T07:14:38Z</time>
      </trkpt>
      <trkpt lat="47.02777" lon="5.68543">
        <ele>241</ele>
        <time>2010-08-01T07:14:40Z</time>
      </trkpt>
      <trkpt lat="47.02783" lon="5.68561">
        <ele>241</ele>
        <time>2010-08-01T07:14:42Z</time>
      </trkpt>
      <trkpt lat="47.02785" lon="5.68582">
        <ele>241</ele>
        <time>2010-08-01T07:14:44Z</time>
      </trkpt>
      <trkpt lat="47.0278" lon="5.68601">
        <ele>241</ele>
        <time>2010-08-01T07:14:46Z</time>
      </trkpt>
      <trkpt lat="47.02766" lon="5.68614">
        <ele>241</ele>
        <time>2010-08-01T07:14:48Z</time>
      </trkpt>
      <trkpt lat="47.02758" lon="5.68619">
        <ele>241</ele>
        <time>2010-08-01T07:14:49Z</time>
      </trkpt>
      <trkpt lat="47.02749" lon="5.68624">
        <ele>241</ele>
        <time>2010-08-01T07:14:50Z</time>
      </trkpt>
      <trkpt lat="47.0274" lon="5.68628">
        <ele>241</ele>
        <time>2010-08-01T07:14:51Z</time>
      </trkpt>
      <trkpt lat="47.02731" lon="5.68633">
        <ele>241</ele>
        <time>2010-08-01T07:14:52Z</time>
      </trkpt>
      <trkpt lat="47.02722" lon="5.68636">
        <ele>241</ele>
        <time>2010-08-01T07:14:53Z</time>
      </trkpt>
      <trkpt lat="47.02712" lon="5.68641">
        <ele>241</ele>
        <time>2010-08-01T07:14:54Z</time>
      </trkpt>
      <trkpt lat="47.02704" lon="5.68646">
        <ele>241</ele>
        <time>2010-08-01T07:14:55Z</time>
      </trkpt>
      <trkpt lat="47.0269" lon="5.68663">
        <ele>241</ele>
        <time>2010-08-01T07:14:57Z</time>
      </trkpt>
      <trkpt lat="47.02686" lon="5.68688">
        <ele>241</ele>
        <time>2010-08-01T07:14:59Z</time>
      </trkpt>
      <trkpt lat="47.02688" lon="5.68703">
        <ele>241</ele>
        <time>2010-08-01T07:15:00Z</time>
      </trkpt>
      <trkpt lat="47.02691" lon="5.68716">
        <ele>241</ele>
        <time>2010-08-01T07:15:01Z</time>
      </trkpt>
      <trkpt lat="47.02695" lon="5.68731">
        <ele>241</ele>
        <time>2010-08-01T07:15:02Z</time>
      </trkpt>
      <trkpt lat="47.027" lon="5.68744">
        <ele>241</ele>
        <time>2010-08-01T07:15:03Z</time>
      </trkpt>
      <trkpt lat="47.02702" lon="5.68758">
        <ele>241</ele>
        <time>2010-08-01T07:15:04Z</time>
      </trkpt>
      <trkpt lat="47.02704" lon="5.68774">
        <ele>241</ele>
        <time>2010-08-01T07:15:05Z</time>
      </trkpt>
      <trkpt lat="47.02701" lon="5.68787">
        <ele>241</ele>
        <time>2010-08-01T07:15:06Z</time>
      </trkpt>
      <trkpt lat="47.02696" lon="5.68798">
        <ele>241</ele>
        <time>2010-08-01T07:15:07Z</time>
      </trkpt>
      <trkpt lat="47.02687" lon="5.68805">
        <ele>241</ele>
        <time>2010-08-01T07:15:08Z</time>
      </trkpt>
      <trkpt lat="47.02676" lon="5.68804">
        <ele>241</ele>
        <time>2010-08-01T07:15:09Z</time>
      </trkpt>
      <trkpt lat="47.02663" lon="5.68802">
        <ele>241</ele>
        <time>2010-08-01T07:15:10Z</time>
      </trkpt>
      <trkpt lat="47.02651" lon="5.68799">
        <ele>241</ele>
        <time>2010-08-01T07:15:11Z</time>
      </trkpt>
      <trkpt lat="47.02641" lon="5.68797">
        <ele>241</ele>
        <time>2010-08-01T07:15:12Z</time>
      </trkpt>
      <trkpt lat="47.02632" lon="5.68794">
        <ele>241</ele>
        <time>2010-08-01T07:15:13Z</time>
      </trkpt>
      <trkpt lat="47.02621" lon="5.68794">
        <ele>241</ele>
        <time>2010-08-01T07:15:14Z</time>
      </trkpt>
      <trkpt lat="47.02612" lon="5.68793">
        <ele>235</ele>
        <time>2010-08-01T07:15:15Z</time>
      </trkpt>
      <trkpt lat="47.02602" lon="5.6879">
        <ele>235</ele>
        <time>2010-08-01T07:15:16Z</time>
      </trkpt>
      <trkpt lat="47.02593" lon="5.68789">
        <ele>235</ele>
        <time>2010-08-01T07:15:17Z</time>
      </trkpt>
      <trkpt lat="47.02575" lon="5.68789">
        <ele>235</ele>
        <time>2010-08-01T07:15:19Z</time>
      </trkpt>
      <trkpt lat="47.02566" lon="5.68791">
        <ele>235</ele>
        <time>2010-08-01T07:15:20Z</time>
      </trkpt>
      <trkpt lat="47.02557" lon="5.68793">
        <ele>235</ele>
        <time>2010-08-01T07:15:21Z</time>
      </trkpt>
      <trkpt lat="47.02539" lon="5.68797">
        <ele>235</ele>
        <time>2010-08-01T07:15:23Z</time>
      </trkpt>
      <trkpt lat="47.0253" lon="5.68801">
        <ele>235</ele>
        <time>2010-08-01T07:15:24Z</time>
      </trkpt>
      <trkpt lat="47.02515" lon="5.6881">
        <ele>235</ele>
        <time>2010-08-01T07:15:26Z</time>
      </trkpt>
      <trkpt lat="47.025" lon="5.6882">
        <ele>230</ele>
        <time>2010-08-01T07:15:28Z</time>
      </trkpt>
      <trkpt lat="47.02487" lon="5.68836">
        <ele>230</ele>
        <time>2010-08-01T07:15:30Z</time>
      </trkpt>
      <trkpt lat="47.02477" lon="5.68856">
        <ele>230</ele>
        <time>2010-08-01T07:15:32Z</time>
      </trkpt>
      <trkpt lat="47.02474" lon="5.68868">
        <ele>230</ele>
        <time>2010-08-01T07:15:33Z</time>
      </trkpt>
      <trkpt lat="47.02472" lon="5.68893">
        <ele>230</ele>
        <time>2010-08-01T07:15:35Z</time>
      </trkpt>
      <trkpt lat="47.02473" lon="5.68917">
        <ele>230</ele>
        <time>2010-08-01T07:15:37Z</time>
      </trkpt>
      <trkpt lat="47.02475" lon="5.68942">
        <ele>230</ele>
        <time>2010-08-01T07:15:39Z</time>
      </trkpt>
      <trkpt lat="47.02476" lon="5.68965">
        <ele>230</ele>
        <time>2010-08-01T07:15:41Z</time>
      </trkpt>
      <trkpt lat="47.02476" lon="5.68988">
        <ele>230</ele>
        <time>2010-08-01T07:15:43Z</time>
      </trkpt>
      <trkpt lat="47.02478" lon="5.69012">
        <ele>230</ele>
        <time>2010-08-01T07:15:45Z</time>
      </trkpt>
      <trkpt lat="47.02478" lon="5.69036">
        <ele>230</ele>
        <time>2010-08-01T07:15:47Z</time>
      </trkpt>
      <trkpt lat="47.02479" lon="5.69059">
        <ele>230</ele>
        <time>2010-08-01T07:15:49Z</time>
      </trkpt>
      <trkpt lat="47.0248" lon="5.69082">
        <ele>230</ele>
        <time>2010-08-01T07:15:51Z</time>
      </trkpt>
      <trkpt lat="47.02482" lon="5.69104">
        <ele>230</ele>
        <time>2010-08-01T07:15:53Z</time>
      </trkpt>
      <trkpt lat="47.02482" lon="5.69126">
        <ele>230</ele>
        <time>2010-08-01T07:15:55Z</time>
      </trkpt>
      <trkpt lat="47.02481" lon="5.69147">
        <ele>230</ele>
        <time>2010-08-01T07:15:57Z</time>
      </trkpt>
      <trkpt lat="47.02481" lon="5.69169">
        <ele>230</ele>
        <time>2010-08-01T07:15:59Z</time>
      </trkpt>
      <trkpt lat="47.0248" lon="5.69191">
        <ele>230</ele>
        <time>2010-08-01T07:16:01Z</time>
      </trkpt>
      <trkpt lat="47.02479" lon="5.69213">
        <ele>230</ele>
        <time>2010-08-01T07:16:03Z</time>
      </trkpt>
      <trkpt lat="47.02478" lon="5.69235">
        <ele>230</ele>
        <time>2010-08-01T07:16:05Z</time>
      </trkpt>
      <trkpt lat="47.02475" lon="5.69258">
        <ele>230</ele>
        <time>2010-08-01T07:16:07Z</time>
      </trkpt>
      <trkpt lat="47.02473" lon="5.6928">
        <ele>230</ele>
        <time>2010-08-01T07:16:09Z</time>
      </trkpt>
      <trkpt lat="47.0247" lon="5.69303">
        <ele>230</ele>
        <time>2010-08-01T07:16:11Z</time>
      </trkpt>
      <trkpt lat="47.02465" lon="5.69325">
        <ele>230</ele>
        <time>2010-08-01T07:16:13Z</time>
      </trkpt>
      <trkpt lat="47.0246" lon="5.69348">
        <ele>230</ele>
        <time>2010-08-01T07:16:15Z</time>
      </trkpt>
      <trkpt lat="47.02455" lon="5.69369">
        <ele>230</ele>
        <time>2010-08-01T07:16:17Z</time>
      </trkpt>
      <trkpt lat="47.0245" lon="5.69392">
        <ele>230</ele>
        <time>2010-08-01T07:16:19Z</time>
      </trkpt>
      <trkpt lat="47.02444" lon="5.69414">
        <ele>230</ele>
        <time>2010-08-01T07:16:21Z</time>
      </trkpt>
      <trkpt lat="47.02439" lon="5.69436">
        <ele>230</ele>
        <time>2010-08-01T07:16:23Z</time>
      </trkpt>
      <trkpt lat="47.02433" lon="5.69458">
        <ele>230</ele>
        <time>2010-08-01T07:16:25Z</time>
      </trkpt>
      <trkpt lat="47.02428" lon="5.6948">
        <ele>230</ele>
        <time>2010-08-01T07:16:27Z</time>
      </trkpt>
      <trkpt lat="47.02422" lon="5.69502">
        <ele>230</ele>
        <time>2010-08-01T07:16:29Z</time>
      </trkpt>
      <trkpt lat="47.02416" lon="5.69525">
        <ele>230</ele>
        <time>2010-08-01T07:16:31Z</time>
      </trkpt>
      <trkpt lat="47.02409" lon="5.69546">
        <ele>230</ele>
        <time>2010-08-01T07:16:33Z</time>
      </trkpt>
      <trkpt lat="47.02401" lon="5.69566">
        <ele>230</ele>
        <time>2010-08-01T07:16:35Z</time>
      </trkpt>
      <trkpt lat="47.02393" lon="5.69586">
        <ele>230</ele>
        <time>2010-08-01T07:16:37Z</time>
      </trkpt>
      <trkpt lat="47.02386" lon="5.69606">
        <ele>230</ele>
        <time>2010-08-01T07:16:39Z</time>
      </trkpt>
      <trkpt lat="47.02379" lon="5.69626">
        <ele>230</ele>
        <time>2010-08-01T07:16:41Z</time>
      </trkpt>
      <trkpt lat="47.02372" lon="5.69648">
        <ele>230</ele>
        <time>2010-08-01T07:16:43Z</time>
      </trkpt>
      <trkpt lat="47.02366" lon="5.69669">
        <ele>230</ele>
        <time>2010-08-01T07:16:45Z</time>
      </trkpt>
      <trkpt lat="47.02361" lon="5.69693">
        <ele>230</ele>
        <time>2010-08-01T07:16:47Z</time>
      </trkpt>
      <trkpt lat="47.02358" lon="5.69715">
        <ele>230</ele>
        <time>2010-08-01T07:16:49Z</time>
      </trkpt>
      <trkpt lat="47.02356" lon="5.69738">
        <ele>230</ele>
        <time>2010-08-01T07:16:51Z</time>
      </trkpt>
      <trkpt lat="47.02354" lon="5.69759">
        <ele>230</ele>
        <time>2010-08-01T07:16:53Z</time>
      </trkpt>
      <trkpt lat="47.02352" lon="5.69782">
        <ele>230</ele>
        <time>2010-08-01T07:16:55Z</time>
      </trkpt>
      <trkpt lat="47.02351" lon="5.69804">
        <ele>230</ele>
        <time>2010-08-01T07:16:57Z</time>
      </trkpt>
      <trkpt lat="47.02349" lon="5.69827">
        <ele>230</ele>
        <time>2010-08-01T07:16:59Z</time>
      </trkpt>
      <trkpt lat="47.02347" lon="5.69849">
        <ele>230</ele>
        <time>2010-08-01T07:17:01Z</time>
      </trkpt>
      <trkpt lat="47.02346" lon="5.69872">
        <ele>230</ele>
        <time>2010-08-01T07:17:03Z</time>
      </trkpt>
      <trkpt lat="47.02344" lon="5.69894">
        <ele>230</ele>
        <time>2010-08-01T07:17:05Z</time>
      </trkpt>
      <trkpt lat="47.02341" lon="5.69916">
        <ele>230</ele>
        <time>2010-08-01T07:17:07Z</time>
      </trkpt>
      <trkpt lat="47.02338" lon="5.69938">
        <ele>230</ele>
        <time>2010-08-01T07:17:09Z</time>
      </trkpt>
      <trkpt lat="47.02335" lon="5.6996">
        <ele>230</ele>
        <time>2010-08-01T07:17:11Z</time>
      </trkpt>
      <trkpt lat="47.0233" lon="5.69983">
        <ele>230</ele>
        <time>2010-08-01T07:17:13Z</time>
      </trkpt>
      <trkpt lat="47.02325" lon="5.70005">
        <ele>230</ele>
        <time>2010-08-01T07:17:15Z</time>
      </trkpt>
      <trkpt lat="47.0232" lon="5.70027">
        <ele>230</ele>
        <time>2010-08-01T07:17:17Z</time>
      </trkpt>
      <trkpt lat="47.02315" lon="5.70049">
        <ele>230</ele>
        <time>2010-08-01T07:17:19Z</time>
      </trkpt>
      <trkpt lat="47.0231" lon="5.70071">
        <ele>230</ele>
        <time>2010-08-01T07:17:21Z</time>
      </trkpt>
      <trkpt lat="47.02305" lon="5.70092">
        <ele>230</ele>
        <time>2010-08-01T07:17:23Z</time>
      </trkpt>
      <trkpt lat="47.023" lon="5.70115">
        <ele>230</ele>
        <time>2010-08-01T07:17:25Z</time>
      </trkpt>
      <trkpt lat="47.02295" lon="5.70137">
        <ele>230</ele>
        <time>2010-08-01T07:17:27Z</time>
      </trkpt>
      <trkpt lat="47.0229" lon="5.70158">
        <ele>230</ele>
        <time>2010-08-01T07:17:29Z</time>
      </trkpt>
      <trkpt lat="47.02286" lon="5.7018">
        <ele>230</ele>
        <time>2010-08-01T07:17:31Z</time>
      </trkpt>
      <trkpt lat="47.02282" lon="5.70201">
        <ele>230</ele>
        <time>2010-08-01T07:17:33Z</time>
      </trkpt>
      <trkpt lat="47.02277" lon="5.70224">
        <ele>230</ele>
        <time>2010-08-01T07:17:35Z</time>
      </trkpt>
      <trkpt lat="47.02272" lon="5.70245">
        <ele>230</ele>
        <time>2010-08-01T07:17:37Z</time>
      </trkpt>
      <trkpt lat="47.02269" lon="5.70267">
        <ele>230</ele>
        <time>2010-08-01T07:17:39Z</time>
      </trkpt>
      <trkpt lat="47.02265" lon="5.70289">
        <ele>230</ele>
        <time>2010-08-01T07:17:41Z</time>
      </trkpt>
      <trkpt lat="47.02261" lon="5.70311">
        <ele>230</ele>
        <time>2010-08-01T07:17:43Z</time>
      </trkpt>
      <trkpt lat="47.0226" lon="5.70333">
        <ele>230</ele>
        <time>2010-08-01T07:17:45Z</time>
      </trkpt>
      <trkpt lat="47.02258" lon="5.70355">
        <ele>230</ele>
        <time>2010-08-01T07:17:47Z</time>
      </trkpt>
      <trkpt lat="47.02257" lon="5.70377">
        <ele>230</ele>
        <time>2010-08-01T07:17:49Z</time>
      </trkpt>
      <trkpt lat="47.02256" lon="5.704">
        <ele>230</ele>
        <time>2010-08-01T07:17:51Z</time>
      </trkpt>
      <trkpt lat="47.02255" lon="5.70421">
        <ele>230</ele>
        <time>2010-08-01T07:17:53Z</time>
      </trkpt>
      <trkpt lat="47.02255" lon="5.70444">
        <ele>230</ele>
        <time>2010-08-01T07:17:55Z</time>
      </trkpt>
      <trkpt lat="47.02255" lon="5.70466">
        <ele>230</ele>
        <time>2010-08-01T07:17:57Z</time>
      </trkpt>
      <trkpt lat="47.02255" lon="5.70489">
        <ele>230</ele>
        <time>2010-08-01T07:17:59Z</time>
      </trkpt>
      <trkpt lat="47.02256" lon="5.7051">
        <ele>230</ele>
        <time>2010-08-01T07:18:01Z</time>
      </trkpt>
      <trkpt lat="47.02257" lon="5.70533">
        <ele>230</ele>
        <time>2010-08-01T07:18:03Z</time>
      </trkpt>
      <trkpt lat="47.02258" lon="5.70554">
        <ele>230</ele>
        <time>2010-08-01T07:18:05Z</time>
      </trkpt>
      <trkpt lat="47.02258" lon="5.70578">
        <ele>230</ele>
        <time>2010-08-01T07:18:07Z</time>
      </trkpt>
      <trkpt lat="47.02259" lon="5.70601">
        <ele>230</ele>
        <time>2010-08-01T07:18:09Z</time>
      </trkpt>
      <trkpt lat="47.02258" lon="5.70624">
        <ele>230</ele>
        <time>2010-08-01T07:18:11Z</time>
      </trkpt>
      <trkpt lat="47.02258" lon="5.70649">
        <ele>230</ele>
        <time>2010-08-01T07:18:13Z</time>
      </trkpt>
      <trkpt lat="47.02255" lon="5.70672">
        <ele>230</ele>
        <time>2010-08-01T07:18:15Z</time>
      </trkpt>
      <trkpt lat="47.02252" lon="5.70695">
        <ele>230</ele>
        <time>2010-08-01T07:18:17Z</time>
      </trkpt>
      <trkpt lat="47.02249" lon="5.70718">
        <ele>230</ele>
        <time>2010-08-01T07:18:19Z</time>
      </trkpt>
      <trkpt lat="47.02245" lon="5.7074">
        <ele>230</ele>
        <time>2010-08-01T07:18:21Z</time>
      </trkpt>
      <trkpt lat="47.02242" lon="5.70763">
        <ele>230</ele>
        <time>2010-08-01T07:18:23Z</time>
      </trkpt>
      <trkpt lat="47.02239" lon="5.70786">
        <ele>230</ele>
        <time>2010-08-01T07:18:25Z</time>
      </trkpt>
      <trkpt lat="47.02237" lon="5.70809">
        <ele>230</ele>
        <time>2010-08-01T07:18:27Z</time>
      </trkpt>
      <trkpt lat="47.02236" lon="5.70833">
        <ele>230</ele>
        <time>2010-08-01T07:18:29Z</time>
      </trkpt>
      <trkpt lat="47.02234" lon="5.70858">
        <ele>230</ele>
        <time>2010-08-01T07:18:31Z</time>
      </trkpt>
      <trkpt lat="47.02232" lon="5.70882">
        <ele>230</ele>
        <time>2010-08-01T07:18:33Z</time>
      </trkpt>
      <trkpt lat="47.02228" lon="5.70906">
        <ele>230</ele>
        <time>2010-08-01T07:18:35Z</time>
      </trkpt>
      <trkpt lat="47.02221" lon="5.70925">
        <ele>230</ele>
        <time>2010-08-01T07:18:37Z</time>
      </trkpt>
      <trkpt lat="47.02215" lon="5.70938">
        <ele>230</ele>
        <time>2010-08-01T07:18:39Z</time>
      </trkpt>
      <trkpt lat="47.02207" lon="5.70952">
        <ele>230</ele>
        <time>2010-08-01T07:18:42Z</time>
      </trkpt>
      <trkpt lat="47.02201" lon="5.70963">
        <ele>230</ele>
        <time>2010-08-01T07:18:44Z</time>
      </trkpt>
      <trkpt lat="47.02194" lon="5.70975">
        <ele>230</ele>
        <time>2010-08-01T07:18:46Z</time>
      </trkpt>
      <trkpt lat="47.02186" lon="5.70987">
        <ele>230</ele>
        <time>2010-08-01T07:18:48Z</time>
      </trkpt>
      <trkpt lat="47.02177" lon="5.71002">
        <ele>230</ele>
        <time>2010-08-01T07:18:50Z</time>
      </trkpt>
      <trkpt lat="47.02169" lon="5.71016">
        <ele>230</ele>
        <time>2010-08-01T07:18:52Z</time>
      </trkpt>
      <trkpt lat="47.02159" lon="5.71032">
        <ele>230</ele>
        <time>2010-08-01T07:18:54Z</time>
      </trkpt>
      <trkpt lat="47.0215" lon="5.71048">
        <ele>230</ele>
        <time>2010-08-01T07:18:56Z</time>
      </trkpt>
      <trkpt lat="47.02142" lon="5.71065">
        <ele>230</ele>
        <time>2010-08-01T07:18:58Z</time>
      </trkpt>
      <trkpt lat="47.02135" lon="5.71084">
        <ele>230</ele>
        <time>2010-08-01T07:19:00Z</time>
      </trkpt>
      <trkpt lat="47.02132" lon="5.71105">
        <ele>230</ele>
        <time>2010-08-01T07:19:02Z</time>
      </trkpt>
      <trkpt lat="47.02132" lon="5.71126">
        <ele>230</ele>
        <time>2010-08-01T07:19:04Z</time>
      </trkpt>
      <trkpt lat="47.02132" lon="5.71149">
        <ele>230</ele>
        <time>2010-08-01T07:19:06Z</time>
      </trkpt>
      <trkpt lat="47.02132" lon="5.71171">
        <ele>230</ele>
        <time>2010-08-01T07:19:08Z</time>
      </trkpt>
      <trkpt lat="47.02133" lon="5.71195">
        <ele>230</ele>
        <time>2010-08-01T07:19:10Z</time>
      </trkpt>
      <trkpt lat="47.02134" lon="5.71217">
        <ele>230</ele>
        <time>2010-08-01T07:19:12Z</time>
      </trkpt>
      <trkpt lat="47.02134" lon="5.71241">
        <ele>230</ele>
        <time>2010-08-01T07:19:14Z</time>
      </trkpt>
      <trkpt lat="47.02134" lon="5.71265">
        <ele>230</ele>
        <time>2010-08-01T07:19:16Z</time>
      </trkpt>
      <trkpt lat="47.02135" lon="5.71288">
        <ele>230</ele>
        <time>2010-08-01T07:19:18Z</time>
      </trkpt>
      <trkpt lat="47.02137" lon="5.7131">
        <ele>230</ele>
        <time>2010-08-01T07:19:20Z</time>
      </trkpt>
      <trkpt lat="47.02142" lon="5.71332">
        <ele>230</ele>
        <time>2010-08-01T07:19:22Z</time>
      </trkpt>
      <trkpt lat="47.02148" lon="5.71352">
        <ele>230</ele>
        <time>2010-08-01T07:19:24Z</time>
      </trkpt>
      <trkpt lat="47.02156" lon="5.71372">
        <ele>230</ele>
        <time>2010-08-01T07:19:26Z</time>
      </trkpt>
      <trkpt lat="47.02164" lon="5.71391">
        <ele>230</ele>
        <time>2010-08-01T07:19:28Z</time>
      </trkpt>
      <trkpt lat="47.02173" lon="5.7141">
        <ele>230</ele>
        <time>2010-08-01T07:19:30Z</time>
      </trkpt>
      <trkpt lat="47.02182" lon="5.71431">
        <ele>230</ele>
        <time>2010-08-01T07:19:32Z</time>
      </trkpt>
      <trkpt lat="47.02188" lon="5.71452">
        <ele>230</ele>
        <time>2010-08-01T07:19:34Z</time>
      </trkpt>
      <trkpt lat="47.02192" lon="5.71475">
        <ele>230</ele>
        <time>2010-08-01T07:19:36Z</time>
      </trkpt>
      <trkpt lat="47.02192" lon="5.71498">
        <ele>230</ele>
        <time>2010-08-01T07:19:38Z</time>
      </trkpt>
      <trkpt lat="47.02189" lon="5.7152">
        <ele>230</ele>
        <time>2010-08-01T07:19:40Z</time>
      </trkpt>
      <trkpt lat="47.02185" lon="5.71541">
        <ele>230</ele>
        <time>2010-08-01T07:19:42Z</time>
      </trkpt>
      <trkpt lat="47.0218" lon="5.71564">
        <ele>230</ele>
        <time>2010-08-01T07:19:44Z</time>
      </trkpt>
      <trkpt lat="47.02177" lon="5.71585">
        <ele>230</ele>
        <time>2010-08-01T07:19:46Z</time>
      </trkpt>
      <trkpt lat="47.02172" lon="5.71607">
        <ele>230</ele>
        <time>2010-08-01T07:19:48Z</time>
      </trkpt>
      <trkpt lat="47.02169" lon="5.7163">
        <ele>230</ele>
        <time>2010-08-01T07:19:50Z</time>
      </trkpt>
      <trkpt lat="47.02164" lon="5.71652">
        <ele>230</ele>
        <time>2010-08-01T07:19:52Z</time>
      </trkpt>
      <trkpt lat="47.02161" lon="5.71674">
        <ele>230</ele>
        <time>2010-08-01T07:19:54Z</time>
      </trkpt>
      <trkpt lat="47.02158" lon="5.71697">
        <ele>230</ele>
        <time>2010-08-01T07:19:56Z</time>
      </trkpt>
      <trkpt lat="47.02155" lon="5.71718">
        <ele>230</ele>
        <time>2010-08-01T07:19:58Z</time>
      </trkpt>
      <trkpt lat="47.02147" lon="5.71736">
        <ele>230</ele>
        <time>2010-08-01T07:20:00Z</time>
      </trkpt>
      <trkpt lat="47.02132" lon="5.71746">
        <ele>230</ele>
        <time>2010-08-01T07:20:02Z</time>
      </trkpt>
      <trkpt lat="47.02116" lon="5.71746">
        <ele>230</ele>
        <time>2010-08-01T07:20:04Z</time>
      </trkpt>
      <trkpt lat="47.02101" lon="5.71746">
        <ele>230</ele>
        <time>2010-08-01T07:20:06Z</time>
      </trkpt>
      <trkpt lat="47.02086" lon="5.71753">
        <ele>235</ele>
        <time>2010-08-01T07:20:08Z</time>
      </trkpt>
      <trkpt lat="47.02077" lon="5.71767">
        <ele>235</ele>
        <time>2010-08-01T07:20:10Z</time>
      </trkpt>
      <trkpt lat="47.02078" lon="5.71789">
        <ele>235</ele>
        <time>2010-08-01T07:20:12Z</time>
      </trkpt>
      <trkpt lat="47.02081" lon="5.7181">
        <ele>235</ele>
        <time>2010-08-01T07:20:14Z</time>
      </trkpt>
      <trkpt lat="47.02085" lon="5.71831">
        <ele>235</ele>
        <time>2010-08-01T07:20:16Z</time>
      </trkpt>
      <trkpt lat="47.02091" lon="5.71851">
        <ele>235</ele>
        <time>2010-08-01T07:20:18Z</time>
      </trkpt>
      <trkpt lat="47.02097" lon="5.71872">
        <ele>235</ele>
        <time>2010-08-01T07:20:20Z</time>
      </trkpt>
      <trkpt lat="47.02102" lon="5.71893">
        <ele>235</ele>
        <time>2010-08-01T07:20:22Z</time>
      </trkpt>
      <trkpt lat="47.02108" lon="5.71912">
        <ele>235</ele>
        <time>2010-08-01T07:20:24Z</time>
      </trkpt>
      <trkpt lat="47.02114" lon="5.71932">
        <ele>235</ele>
        <time>2010-08-01T07:20:26Z</time>
      </trkpt>
      <trkpt lat="47.0212" lon="5.71952">
        <ele>235</ele>
        <time>2010-08-01T07:20:28Z</time>
      </trkpt>
      <trkpt lat="47.02126" lon="5.71972">
        <ele>235</ele>
        <time>2010-08-01T07:20:30Z</time>
      </trkpt>
      <trkpt lat="47.02131" lon="5.71991">
        <ele>235</ele>
        <time>2010-08-01T07:20:32Z</time>
      </trkpt>
      <trkpt lat="47.02137" lon="5.7201">
        <ele>235</ele>
        <time>2010-08-01T07:20:34Z</time>
      </trkpt>
      <trkpt lat="47.02143" lon="5.7203">
        <ele>235</ele>
        <time>2010-08-01T07:20:36Z</time>
      </trkpt>
      <trkpt lat="47.0215" lon="5.72051">
        <ele>235</ele>
        <time>2010-08-01T07:20:38Z</time>
      </trkpt>
      <trkpt lat="47.02155" lon="5.72072">
        <ele>235</ele>
        <time>2010-08-01T07:20:40Z</time>
      </trkpt>
      <trkpt lat="47.02158" lon="5.72094">
        <ele>235</ele>
        <time>2010-08-01T07:20:42Z</time>
      </trkpt>
      <trkpt lat="47.02161" lon="5.72115">
        <ele>235</ele>
        <time>2010-08-01T07:20:44Z</time>
      </trkpt>
      <trkpt lat="47.02163" lon="5.72137">
        <ele>235</ele>
        <time>2010-08-01T07:20:46Z</time>
      </trkpt>
      <trkpt lat="47.02166" lon="5.7216">
        <ele>235</ele>
        <time>2010-08-01T07:20:48Z</time>
      </trkpt>
      <trkpt lat="47.02171" lon="5.72181">
        <ele>235</ele>
        <time>2010-08-01T07:20:50Z</time>
      </trkpt>
      <trkpt lat="47.02177" lon="5.72203">
        <ele>235</ele>
        <time>2010-08-01T07:20:52Z</time>
      </trkpt>
      <trkpt lat="47.02183" lon="5.72224">
        <ele>235</ele>
        <time>2010-08-01T07:20:54Z</time>
      </trkpt>
      <trkpt lat="47.02192" lon="5.72245">
        <ele>235</ele>
        <time>2010-08-01T07:20:56Z</time>
      </trkpt>
      <trkpt lat="47.02201" lon="5.72266">
        <ele>235</ele>
        <time>2010-08-01T07:20:58Z</time>
      </trkpt>
      <trkpt lat="47.0221" lon="5.72286">
        <ele>235</ele>
        <time>2010-08-01T07:21:00Z</time>
      </trkpt>
      <trkpt lat="47.02218" lon="5.72306">
        <ele>235</ele>
        <time>2010-08-01T07:21:02Z</time>
      </trkpt>
      <trkpt lat="47.02228" lon="5.72327">
        <ele>235</ele>
        <time>2010-08-01T07:21:04Z</time>
      </trkpt>
      <trkpt lat="47.02236" lon="5.72347">
        <ele>235</ele>
        <time>2010-08-01T07:21:06Z</time>
      </trkpt>
      <trkpt lat="47.02244" lon="5.72368">
        <ele>235</ele>
        <time>2010-08-01T07:21:08Z</time>
      </trkpt>
      <trkpt lat="47.02253" lon="5.72389">
        <ele>235</ele>
        <time>2010-08-01T07:21:10Z</time>
      </trkpt>
      <trkpt lat="47.02261" lon="5.72408">
        <ele>235</ele>
        <time>2010-08-01T07:21:12Z</time>
      </trkpt>
      <trkpt lat="47.0227" lon="5.72428">
        <ele>235</ele>
        <time>2010-08-01T07:21:14Z</time>
      </trkpt>
      <trkpt lat="47.02278" lon="5.72449">
        <ele>235</ele>
        <time>2010-08-01T07:21:16Z</time>
      </trkpt>
      <trkpt lat="47.02287" lon="5.72469">
        <ele>235</ele>
        <time>2010-08-01T07:21:18Z</time>
      </trkpt>
      <trkpt lat="47.02296" lon="5.72488">
        <ele>235</ele>
        <time>2010-08-01T07:21:20Z</time>
      </trkpt>
      <trkpt lat="47.02306" lon="5.72507">
        <ele>235</ele>
        <time>2010-08-01T07:21:22Z</time>
      </trkpt>
      <trkpt lat="47.02315" lon="5.72526">
        <ele>235</ele>
        <time>2010-08-01T07:21:24Z</time>
      </trkpt>
      <trkpt lat="47.02323" lon="5.72544">
        <ele>235</ele>
        <time>2010-08-01T07:21:26Z</time>
      </trkpt>
      <trkpt lat="47.02332" lon="5.72562">
        <ele>235</ele>
        <time>2010-08-01T07:21:28Z</time>
      </trkpt>
      <trkpt lat="47.02341" lon="5.72581">
        <ele>235</ele>
        <time>2010-08-01T07:21:30Z</time>
      </trkpt>
      <trkpt lat="47.0235" lon="5.72599">
        <ele>235</ele>
        <time>2010-08-01T07:21:32Z</time>
      </trkpt>
      <trkpt lat="47.02359" lon="5.72617">
        <ele>235</ele>
        <time>2010-08-01T07:21:34Z</time>
      </trkpt>
      <trkpt lat="47.02368" lon="5.72636">
        <ele>235</ele>
        <time>2010-08-01T07:21:36Z</time>
      </trkpt>
      <trkpt lat="47.02377" lon="5.72655">
        <ele>235</ele>
        <time>2010-08-01T07:21:38Z</time>
      </trkpt>
      <trkpt lat="47.02386" lon="5.72675">
        <ele>235</ele>
        <time>2010-08-01T07:21:40Z</time>
      </trkpt>
      <trkpt lat="47.02393" lon="5.72697">
        <ele>235</ele>
        <time>2010-08-01T07:21:42Z</time>
      </trkpt>
      <trkpt lat="47.024" lon="5.72718">
        <ele>235</ele>
        <time>2010-08-01T07:21:44Z</time>
      </trkpt>
      <trkpt lat="47.02406" lon="5.72741">
        <ele>235</ele>
        <time>2010-08-01T07:21:46Z</time>
      </trkpt>
      <trkpt lat="47.02412" lon="5.72763">
        <ele>235</ele>
        <time>2010-08-01T07:21:48Z</time>
      </trkpt>
      <trkpt lat="47.02418" lon="5.72786">
        <ele>235</ele>
        <time>2010-08-01T07:21:50Z</time>
      </trkpt>
      <trkpt lat="47.02424" lon="5.72807">
        <ele>235</ele>
        <time>2010-08-01T07:21:52Z</time>
      </trkpt>
      <trkpt lat="47.02431" lon="5.72829">
        <ele>235</ele>
        <time>2010-08-01T07:21:54Z</time>
      </trkpt>
      <trkpt lat="47.02438" lon="5.7285">
        <ele>235</ele>
        <time>2010-08-01T07:21:56Z</time>
      </trkpt>
      <trkpt lat="47.02448" lon="5.7287">
        <ele>235</ele>
        <time>2010-08-01T07:21:58Z</time>
      </trkpt>
      <trkpt lat="47.02457" lon="5.72889">
        <ele>235</ele>
        <time>2010-08-01T07:22:00Z</time>
      </trkpt>
      <trkpt lat="47.02468" lon="5.72908">
        <ele>235</ele>
        <time>2010-08-01T07:22:02Z</time>
      </trkpt>
      <trkpt lat="47.02478" lon="5.72927">
        <ele>235</ele>
        <time>2010-08-01T07:22:04Z</time>
      </trkpt>
      <trkpt lat="47.02488" lon="5.72946">
        <ele>235</ele>
        <time>2010-08-01T07:22:06Z</time>
      </trkpt>
      <trkpt lat="47.02498" lon="5.72964">
        <ele>235</ele>
        <time>2010-08-01T07:22:08Z</time>
      </trkpt>
      <trkpt lat="47.02508" lon="5.72984">
        <ele>235</ele>
        <time>2010-08-01T07:22:10Z</time>
      </trkpt>
      <trkpt lat="47.02517" lon="5.73004">
        <ele>235</ele>
        <time>2010-08-01T07:22:12Z</time>
      </trkpt>
      <trkpt lat="47.02526" lon="5.73025">
        <ele>235</ele>
        <time>2010-08-01T07:22:14Z</time>
      </trkpt>
      <trkpt lat="47.02534" lon="5.73044">
        <ele>235</ele>
        <time>2010-08-01T07:22:16Z</time>
      </trkpt>
      <trkpt lat="47.02542" lon="5.73065">
        <ele>235</ele>
        <time>2010-08-01T07:22:18Z</time>
      </trkpt>
      <trkpt lat="47.0255" lon="5.73085">
        <ele>235</ele>
        <time>2010-08-01T07:22:20Z</time>
      </trkpt>
      <trkpt lat="47.02558" lon="5.73105">
        <ele>235</ele>
        <time>2010-08-01T07:22:22Z</time>
      </trkpt>
      <trkpt lat="47.02564" lon="5.73126">
        <ele>235</ele>
        <time>2010-08-01T07:22:24Z</time>
      </trkpt>
      <trkpt lat="47.02571" lon="5.73148">
        <ele>235</ele>
        <time>2010-08-01T07:22:26Z</time>
      </trkpt>
      <trkpt lat="47.02578" lon="5.73168">
        <ele>235</ele>
        <time>2010-08-01T07:22:28Z</time>
      </trkpt>
      <trkpt lat="47.02584" lon="5.7319">
        <ele>235</ele>
        <time>2010-08-01T07:22:30Z</time>
      </trkpt>
      <trkpt lat="47.0259" lon="5.73211">
        <ele>235</ele>
        <time>2010-08-01T07:22:32Z</time>
      </trkpt>
      <trkpt lat="47.02596" lon="5.73232">
        <ele>235</ele>
        <time>2010-08-01T07:22:34Z</time>
      </trkpt>
      <trkpt lat="47.02601" lon="5.73254">
        <ele>235</ele>
        <time>2010-08-01T07:22:36Z</time>
      </trkpt>
      <trkpt lat="47.02605" lon="5.73277">
        <ele>235</ele>
        <time>2010-08-01T07:22:38Z</time>
      </trkpt>
      <trkpt lat="47.02611" lon="5.733">
        <ele>235</ele>
        <time>2010-08-01T07:22:40Z</time>
      </trkpt>
      <trkpt lat="47.02615" lon="5.73323">
        <ele>235</ele>
        <time>2010-08-01T07:22:42Z</time>
      </trkpt>
      <trkpt lat="47.0262" lon="5.73345">
        <ele>235</ele>
        <time>2010-08-01T07:22:44Z</time>
      </trkpt>
      <trkpt lat="47.02625" lon="5.73368">
        <ele>235</ele>
        <time>2010-08-01T07:22:46Z</time>
      </trkpt>
      <trkpt lat="47.0263" lon="5.7339">
        <ele>235</ele>
        <time>2010-08-01T07:22:48Z</time>
      </trkpt>
      <trkpt lat="47.02635" lon="5.73413">
        <ele>235</ele>
        <time>2010-08-01T07:22:50Z</time>
      </trkpt>
      <trkpt lat="47.0264" lon="5.73435">
        <ele>235</ele>
        <time>2010-08-01T07:22:52Z</time>
      </trkpt>
      <trkpt lat="47.02644" lon="5.73458">
        <ele>235</ele>
        <time>2010-08-01T07:22:54Z</time>
      </trkpt>
      <trkpt lat="47.02649" lon="5.7348">
        <ele>235</ele>
        <time>2010-08-01T07:22:56Z</time>
      </trkpt>
      <trkpt lat="47.02653" lon="5.73502">
        <ele>235</ele>
        <time>2010-08-01T07:22:58Z</time>
      </trkpt>
      <trkpt lat="47.02658" lon="5.73525">
        <ele>235</ele>
        <time>2010-08-01T07:23:00Z</time>
      </trkpt>
      <trkpt lat="47.02662" lon="5.73547">
        <ele>235</ele>
        <time>2010-08-01T07:23:02Z</time>
      </trkpt>
      <trkpt lat="47.02666" lon="5.7357">
        <ele>235</ele>
        <time>2010-08-01T07:23:04Z</time>
      </trkpt>
      <trkpt lat="47.0267" lon="5.73592">
        <ele>235</ele>
        <time>2010-08-01T07:23:06Z</time>
      </trkpt>
      <trkpt lat="47.02673" lon="5.73615">
        <ele>235</ele>
        <time>2010-08-01T07:23:08Z</time>
      </trkpt>
      <trkpt lat="47.02677" lon="5.73637">
        <ele>235</ele>
        <time>2010-08-01T07:23:10Z</time>
      </trkpt>
      <trkpt lat="47.02679" lon="5.7366">
        <ele>235</ele>
        <time>2010-08-01T07:23:12Z</time>
      </trkpt>
      <trkpt lat="47.02682" lon="5.73681">
        <ele>235</ele>
        <time>2010-08-01T07:23:14Z</time>
      </trkpt>
      <trkpt lat="47.02685" lon="5.73704">
        <ele>235</ele>
        <time>2010-08-01T07:23:16Z</time>
      </trkpt>
      <trkpt lat="47.02688" lon="5.73725">
        <ele>235</ele>
        <time>2010-08-01T07:23:18Z</time>
      </trkpt>
      <trkpt lat="47.02691" lon="5.73748">
        <ele>235</ele>
        <time>2010-08-01T07:23:20Z</time>
      </trkpt>
      <trkpt lat="47.02693" lon="5.73769">
        <ele>235</ele>
        <time>2010-08-01T07:23:22Z</time>
      </trkpt>
      <trkpt lat="47.02696" lon="5.73791">
        <ele>235</ele>
        <time>2010-08-01T07:23:24Z</time>
      </trkpt>
      <trkpt lat="47.02699" lon="5.73813">
        <ele>235</ele>
        <time>2010-08-01T07:23:26Z</time>
      </trkpt>
      <trkpt lat="47.02702" lon="5.73835">
        <ele>235</ele>
        <time>2010-08-01T07:23:28Z</time>
      </trkpt>
      <trkpt lat="47.02706" lon="5.73856">
        <ele>235</ele>
        <time>2010-08-01T07:23:30Z</time>
      </trkpt>
      <trkpt lat="47.02712" lon="5.73877">
        <ele>235</ele>
        <time>2010-08-01T07:23:32Z</time>
      </trkpt>
      <trkpt lat="47.02718" lon="5.73897">
        <ele>235</ele>
        <time>2010-08-01T07:23:34Z</time>
      </trkpt>
      <trkpt lat="47.02725" lon="5.73917">
        <ele>235</ele>
        <time>2010-08-01T07:23:36Z</time>
      </trkpt>
      <trkpt lat="47.02733" lon="5.73935">
        <ele>235</ele>
        <time>2010-08-01T07:23:38Z</time>
      </trkpt>
      <trkpt lat="47.02741" lon="5.73955">
        <ele>235</ele>
        <time>2010-08-01T07:23:40Z</time>
      </trkpt>
      <trkpt lat="47.02747" lon="5.73976">
        <ele>235</ele>
        <time>2010-08-01T07:23:42Z</time>
      </trkpt>
      <trkpt lat="47.02752" lon="5.73997">
        <ele>235</ele>
        <time>2010-08-01T07:23:44Z</time>
      </trkpt>
      <trkpt lat="47.02757" lon="5.7402">
        <ele>235</ele>
        <time>2010-08-01T07:23:46Z</time>
      </trkpt>
      <trkpt lat="47.02759" lon="5.74041">
        <ele>235</ele>
        <time>2010-08-01T07:23:48Z</time>
      </trkpt>
      <trkpt lat="47.02761" lon="5.74064">
        <ele>235</ele>
        <time>2010-08-01T07:23:50Z</time>
      </trkpt>
      <trkpt lat="47.02762" lon="5.74086">
        <ele>235</ele>
        <time>2010-08-01T07:23:52Z</time>
      </trkpt>
      <trkpt lat="47.02763" lon="5.74109">
        <ele>235</ele>
        <time>2010-08-01T07:23:54Z</time>
      </trkpt>
      <trkpt lat="47.02765" lon="5.74132">
        <ele>235</ele>
        <time>2010-08-01T07:23:56Z</time>
      </trkpt>
      <trkpt lat="47.02765" lon="5.74155">
        <ele>235</ele>
        <time>2010-08-01T07:23:58Z</time>
      </trkpt>
      <trkpt lat="47.02766" lon="5.74177">
        <ele>235</ele>
        <time>2010-08-01T07:24:00Z</time>
      </trkpt>
      <trkpt lat="47.02766" lon="5.742">
        <ele>235</ele>
        <time>2010-08-01T07:24:02Z</time>
      </trkpt>
      <trkpt lat="47.02765" lon="5.74223">
        <ele>235</ele>
        <time>2010-08-01T07:24:04Z</time>
      </trkpt>
      <trkpt lat="47.02763" lon="5.74246">
        <ele>235</ele>
        <time>2010-08-01T07:24:06Z</time>
      </trkpt>
      <trkpt lat="47.02761" lon="5.74269">
        <ele>235</ele>
        <time>2010-08-01T07:24:08Z</time>
      </trkpt>
      <trkpt lat="47.02758" lon="5.74292">
        <ele>235</ele>
        <time>2010-08-01T07:24:10Z</time>
      </trkpt>
      <trkpt lat="47.02756" lon="5.74315">
        <ele>235</ele>
        <time>2010-08-01T07:24:12Z</time>
      </trkpt>
      <trkpt lat="47.02753" lon="5.74338">
        <ele>235</ele>
        <time>2010-08-01T07:24:14Z</time>
      </trkpt>
      <trkpt lat="47.02751" lon="5.7436">
        <ele>235</ele>
        <time>2010-08-01T07:24:16Z</time>
      </trkpt>
      <trkpt lat="47.02749" lon="5.74383">
        <ele>235</ele>
        <time>2010-08-01T07:24:18Z</time>
      </trkpt>
      <trkpt lat="47.02747" lon="5.74405">
        <ele>235</ele>
        <time>2010-08-01T07:24:20Z</time>
      </trkpt>
      <trkpt lat="47.02746" lon="5.74428">
        <ele>235</ele>
        <time>2010-08-01T07:24:22Z</time>
      </trkpt>
      <trkpt lat="47.02745" lon="5.74452">
        <ele>235</ele>
        <time>2010-08-01T07:24:24Z</time>
      </trkpt>
      <trkpt lat="47.02743" lon="5.74475">
        <ele>235</ele>
        <time>2010-08-01T07:24:26Z</time>
      </trkpt>
      <trkpt lat="47.02741" lon="5.745">
        <ele>235</ele>
        <time>2010-08-01T07:24:28Z</time>
      </trkpt>
      <trkpt lat="47.0274" lon="5.74523">
        <ele>235</ele>
        <time>2010-08-01T07:24:30Z</time>
      </trkpt>
      <trkpt lat="47.02739" lon="5.74547">
        <ele>240</ele>
        <time>2010-08-01T07:24:32Z</time>
      </trkpt>
      <trkpt lat="47.02741" lon="5.74571">
        <ele>240</ele>
        <time>2010-08-01T07:24:34Z</time>
      </trkpt>
      <trkpt lat="47.02744" lon="5.74594">
        <ele>240</ele>
        <time>2010-08-01T07:24:36Z</time>
      </trkpt>
      <trkpt lat="47.02747" lon="5.74617">
        <ele>240</ele>
        <time>2010-08-01T07:24:38Z</time>
      </trkpt>
      <trkpt lat="47.02753" lon="5.74639">
        <ele>240</ele>
        <time>2010-08-01T07:24:40Z</time>
      </trkpt>
      <trkpt lat="47.02758" lon="5.7466">
        <ele>240</ele>
        <time>2010-08-01T07:24:42Z</time>
      </trkpt>
      <trkpt lat="47.02765" lon="5.74683">
        <ele>240</ele>
        <time>2010-08-01T07:24:44Z</time>
      </trkpt>
      <trkpt lat="47.02769" lon="5.74704">
        <ele>240</ele>
        <time>2010-08-01T07:24:46Z</time>
      </trkpt>
      <trkpt lat="47.02774" lon="5.74727">
        <ele>240</ele>
        <time>2010-08-01T07:24:48Z</time>
      </trkpt>
      <trkpt lat="47.02779" lon="5.74749">
        <ele>240</ele>
        <time>2010-08-01T07:24:50Z</time>
      </trkpt>
      <trkpt lat="47.02782" lon="5.74773">
        <ele>240</ele>
        <time>2010-08-01T07:24:52Z</time>
      </trkpt>
      <trkpt lat="47.02785" lon="5.74795">
        <ele>240</ele>
        <time>2010-08-01T07:24:54Z</time>
      </trkpt>
      <trkpt lat="47.02787" lon="5.74819">
        <ele>240</ele>
        <time>2010-08-01T07:24:56Z</time>
      </trkpt>
      <trkpt lat="47.0279" lon="5.74842">
        <ele>240</ele>
        <time>2010-08-01T07:24:58Z</time>
      </trkpt>
      <trkpt lat="47.02792" lon="5.74865">
        <ele>240</ele>
        <time>2010-08-01T07:25:00Z</time>
      </trkpt>
      <trkpt lat="47.02793" lon="5.74888">
        <ele>240</ele>
        <time>2010-08-01T07:25:02Z</time>
      </trkpt>
      <trkpt lat="47.02795" lon="5.74911">
        <ele>240</ele>
        <time>2010-08-01T07:25:04Z</time>
      </trkpt>
      <trkpt lat="47.02796" lon="5.74934">
        <ele>240</ele>
        <time>2010-08-01T07:25:06Z</time>
      </trkpt>
      <trkpt lat="47.02798" lon="5.74958">
        <ele>240</ele>
        <time>2010-08-01T07:25:08Z</time>
      </trkpt>
      <trkpt lat="47.02798" lon="5.74981">
        <ele>240</ele>
        <time>2010-08-01T07:25:10Z</time>
      </trkpt>
      <trkpt lat="47.02799" lon="5.75004">
        <ele>240</ele>
        <time>2010-08-01T07:25:12Z</time>
      </trkpt>
      <trkpt lat="47.028" lon="5.75027">
        <ele>240</ele>
        <time>2010-08-01T07:25:14Z</time>
      </trkpt>
      <trkpt lat="47.02801" lon="5.7505">
        <ele>240</ele>
        <time>2010-08-01T07:25:16Z</time>
      </trkpt>
      <trkpt lat="47.02801" lon="5.75075">
        <ele>240</ele>
        <time>2010-08-01T07:25:18Z</time>
      </trkpt>
      <trkpt lat="47.02803" lon="5.75099">
        <ele>240</ele>
        <time>2010-08-01T07:25:20Z</time>
      </trkpt>
      <trkpt lat="47.02804" lon="5.75123">
        <ele>240</ele>
        <time>2010-08-01T07:25:22Z</time>
      </trkpt>
      <trkpt lat="47.02806" lon="5.75146">
        <ele>240</ele>
        <time>2010-08-01T07:25:24Z</time>
      </trkpt>
      <trkpt lat="47.02808" lon="5.75171">
        <ele>240</ele>
        <time>2010-08-01T07:25:26Z</time>
      </trkpt>
      <trkpt lat="47.0281" lon="5.75194">
        <ele>240</ele>
        <time>2010-08-01T07:25:28Z</time>
      </trkpt>
      <trkpt lat="47.02812" lon="5.75219">
        <ele>240</ele>
        <time>2010-08-01T07:25:30Z</time>
      </trkpt>
      <trkpt lat="47.02814" lon="5.75243">
        <ele>240</ele>
        <time>2010-08-01T07:25:32Z</time>
      </trkpt>
      <trkpt lat="47.02816" lon="5.75268">
        <ele>240</ele>
        <time>2010-08-01T07:25:34Z</time>
      </trkpt>
      <trkpt lat="47.02818" lon="5.75292">
        <ele>240</ele>
        <time>2010-08-01T07:25:36Z</time>
      </trkpt>
      <trkpt lat="47.0282" lon="5.75315">
        <ele>240</ele>
        <time>2010-08-01T07:25:38Z</time>
      </trkpt>
      <trkpt lat="47.02822" lon="5.7534">
        <ele>240</ele>
        <time>2010-08-01T07:25:40Z</time>
      </trkpt>
      <trkpt lat="47.02823" lon="5.75363">
        <ele>240</ele>
        <time>2010-08-01T07:25:42Z</time>
      </trkpt>
      <trkpt lat="47.02825" lon="5.75386">
        <ele>240</ele>
        <time>2010-08-01T07:25:44Z</time>
      </trkpt>
      <trkpt lat="47.02827" lon="5.7541">
        <ele>240</ele>
        <time>2010-08-01T07:25:46Z</time>
      </trkpt>
      <trkpt lat="47.02829" lon="5.75433">
        <ele>240</ele>
        <time>2010-08-01T07:25:48Z</time>
      </trkpt>
      <trkpt lat="47.02831" lon="5.75455">
        <ele>240</ele>
        <time>2010-08-01T07:25:50Z</time>
      </trkpt>
      <trkpt lat="47.02833" lon="5.75478">
        <ele>240</ele>
        <time>2010-08-01T07:25:52Z</time>
      </trkpt>
      <trkpt lat="47.02835" lon="5.755">
        <ele>240</ele>
        <time>2010-08-01T07:25:54Z</time>
      </trkpt>
      <trkpt lat="47.02837" lon="5.75523">
        <ele>240</ele>
        <time>2010-08-01T07:25:56Z</time>
      </trkpt>
      <trkpt lat="47.02839" lon="5.75544">
        <ele>240</ele>
        <time>2010-08-01T07:25:58Z</time>
      </trkpt>
      <trkpt lat="47.02841" lon="5.75567">
        <ele>240</ele>
        <time>2010-08-01T07:26:00Z</time>
      </trkpt>
      <trkpt lat="47.02843" lon="5.75588">
        <ele>240</ele>
        <time>2010-08-01T07:26:02Z</time>
      </trkpt>
      <trkpt lat="47.02845" lon="5.75611">
        <ele>240</ele>
        <time>2010-08-01T07:26:04Z</time>
      </trkpt>
      <trkpt lat="47.02847" lon="5.75633">
        <ele>240</ele>
        <time>2010-08-01T07:26:06Z</time>
      </trkpt>
      <trkpt lat="47.02849" lon="5.75655">
        <ele>240</ele>
        <time>2010-08-01T07:26:08Z</time>
      </trkpt>
      <trkpt lat="47.02851" lon="5.75677">
        <ele>240</ele>
        <time>2010-08-01T07:26:10Z</time>
      </trkpt>
      <trkpt lat="47.02854" lon="5.757">
        <ele>240</ele>
        <time>2010-08-01T07:26:12Z</time>
      </trkpt>
      <trkpt lat="47.02855" lon="5.75722">
        <ele>240</ele>
        <time>2010-08-01T07:26:14Z</time>
      </trkpt>
      <trkpt lat="47.02858" lon="5.75744">
        <ele>240</ele>
        <time>2010-08-01T07:26:16Z</time>
      </trkpt>
      <trkpt lat="47.0286" lon="5.75766">
        <ele>240</ele>
        <time>2010-08-01T07:26:18Z</time>
      </trkpt>
      <trkpt lat="47.02862" lon="5.75788">
        <ele>240</ele>
        <time>2010-08-01T07:26:20Z</time>
      </trkpt>
      <trkpt lat="47.02864" lon="5.7581">
        <ele>240</ele>
        <time>2010-08-01T07:26:22Z</time>
      </trkpt>
      <trkpt lat="47.02866" lon="5.75833">
        <ele>240</ele>
        <time>2010-08-01T07:26:24Z</time>
      </trkpt>
      <trkpt lat="47.02868" lon="5.75854">
        <ele>240</ele>
        <time>2010-08-01T07:26:26Z</time>
      </trkpt>
      <trkpt lat="47.0287" lon="5.75877">
        <ele>240</ele>
        <time>2010-08-01T07:26:28Z</time>
      </trkpt>
      <trkpt lat="47.02872" lon="5.75899">
        <ele>240</ele>
        <time>2010-08-01T07:26:30Z</time>
      </trkpt>
      <trkpt lat="47.02874" lon="5.75923">
        <ele>240</ele>
        <time>2010-08-01T07:26:32Z</time>
      </trkpt>
      <trkpt lat="47.02876" lon="5.75945">
        <ele>240</ele>
        <time>2010-08-01T07:26:34Z</time>
      </trkpt>
      <trkpt lat="47.02878" lon="5.75967">
        <ele>240</ele>
        <time>2010-08-01T07:26:36Z</time>
      </trkpt>
      <trkpt lat="47.02879" lon="5.75988">
        <ele>240</ele>
        <time>2010-08-01T07:26:38Z</time>
      </trkpt>
      <trkpt lat="47.02881" lon="5.76011">
        <ele>240</ele>
        <time>2010-08-01T07:26:40Z</time>
      </trkpt>
      <trkpt lat="47.02882" lon="5.76034">
        <ele>240</ele>
        <time>2010-08-01T07:26:42Z</time>
      </trkpt>
      <trkpt lat="47.02883" lon="5.76059">
        <ele>240</ele>
        <time>2010-08-01T07:26:44Z</time>
      </trkpt>
      <trkpt lat="47.02884" lon="5.76084">
        <ele>240</ele>
        <time>2010-08-01T07:26:46Z</time>
      </trkpt>
      <trkpt lat="47.02883" lon="5.76109">
        <ele>240</ele>
        <time>2010-08-01T07:26:48Z</time>
      </trkpt>
      <trkpt lat="47.02882" lon="5.76135">
        <ele>240</ele>
        <time>2010-08-01T07:26:50Z</time>
      </trkpt>
      <trkpt lat="47.02882" lon="5.7616">
        <ele>240</ele>
        <time>2010-08-01T07:26:52Z</time>
      </trkpt>
      <trkpt lat="47.02884" lon="5.76185">
        <ele>240</ele>
        <time>2010-08-01T07:26:54Z</time>
      </trkpt>
      <trkpt lat="47.02886" lon="5.76209">
        <ele>240</ele>
        <time>2010-08-01T07:26:56Z</time>
      </trkpt>
      <trkpt lat="47.02889" lon="5.76233">
        <ele>240</ele>
        <time>2010-08-01T07:26:58Z</time>
      </trkpt>
      <trkpt lat="47.02894" lon="5.76255">
        <ele>240</ele>
        <time>2010-08-01T07:27:00Z</time>
      </trkpt>
      <trkpt lat="47.02898" lon="5.76276">
        <ele>240</ele>
        <time>2010-08-01T07:27:02Z</time>
      </trkpt>
      <trkpt lat="47.02904" lon="5.76296">
        <ele>240</ele>
        <time>2010-08-01T07:27:04Z</time>
      </trkpt>
      <trkpt lat="47.02909" lon="5.76317">
        <ele>240</ele>
        <time>2010-08-01T07:27:06Z</time>
      </trkpt>
      <trkpt lat="47.02914" lon="5.76338">
        <ele>240</ele>
        <time>2010-08-01T07:27:08Z</time>
      </trkpt>
      <trkpt lat="47.02919" lon="5.76359">
        <ele>240</ele>
        <time>2010-08-01T07:27:10Z</time>
      </trkpt>
      <trkpt lat="47.02923" lon="5.76381">
        <ele>240</ele>
        <time>2010-08-01T07:27:12Z</time>
      </trkpt>
      <trkpt lat="47.02925" lon="5.76402">
        <ele>240</ele>
        <time>2010-08-01T07:27:14Z</time>
      </trkpt>
      <trkpt lat="47.02928" lon="5.76423">
        <ele>240</ele>
        <time>2010-08-01T07:27:16Z</time>
      </trkpt>
      <trkpt lat="47.0293" lon="5.76444">
        <ele>240</ele>
        <time>2010-08-01T07:27:18Z</time>
      </trkpt>
      <trkpt lat="47.02932" lon="5.76465">
        <ele>240</ele>
        <time>2010-08-01T07:27:20Z</time>
      </trkpt>
      <trkpt lat="47.02933" lon="5.76487">
        <ele>240</ele>
        <time>2010-08-01T07:27:22Z</time>
      </trkpt>
      <trkpt lat="47.02934" lon="5.76507">
        <ele>240</ele>
        <time>2010-08-01T07:27:24Z</time>
      </trkpt>
      <trkpt lat="47.02934" lon="5.76529">
        <ele>240</ele>
        <time>2010-08-01T07:27:26Z</time>
      </trkpt>
      <trkpt lat="47.02933" lon="5.7655">
        <ele>240</ele>
        <time>2010-08-01T07:27:28Z</time>
      </trkpt>
      <trkpt lat="47.02934" lon="5.76572">
        <ele>240</ele>
        <time>2010-08-01T07:27:30Z</time>
      </trkpt>
      <trkpt lat="47.02935" lon="5.76593">
        <ele>240</ele>
        <time>2010-08-01T07:27:32Z</time>
      </trkpt>
      <trkpt lat="47.02935" lon="5.76613">
        <ele>240</ele>
        <time>2010-08-01T07:27:34Z</time>
      </trkpt>
      <trkpt lat="47.02936" lon="5.76634">
        <ele>240</ele>
        <time>2010-08-01T07:27:36Z</time>
      </trkpt>
      <trkpt lat="47.02937" lon="5.76655">
        <ele>240</ele>
        <time>2010-08-01T07:27:38Z</time>
      </trkpt>
      <trkpt lat="47.0294" lon="5.76675">
        <ele>240</ele>
        <time>2010-08-01T07:27:40Z</time>
      </trkpt>
      <trkpt lat="47.02943" lon="5.76696">
        <ele>240</ele>
        <time>2010-08-01T07:27:42Z</time>
      </trkpt>
      <trkpt lat="47.02949" lon="5.76716">
        <ele>240</ele>
        <time>2010-08-01T07:27:44Z</time>
      </trkpt>
      <trkpt lat="47.02956" lon="5.76736">
        <ele>240</ele>
        <time>2010-08-01T07:27:46Z</time>
      </trkpt>
      <trkpt lat="47.02963" lon="5.76755">
        <ele>240</ele>
        <time>2010-08-01T07:27:48Z</time>
      </trkpt>
      <trkpt lat="47.0297" lon="5.76775">
        <ele>240</ele>
        <time>2010-08-01T07:27:50Z</time>
      </trkpt>
      <trkpt lat="47.02976" lon="5.76795">
        <ele>240</ele>
        <time>2010-08-01T07:27:52Z</time>
      </trkpt>
      <trkpt lat="47.02983" lon="5.76814">
        <ele>240</ele>
        <time>2010-08-01T07:27:54Z</time>
      </trkpt>
      <trkpt lat="47.02989" lon="5.76832">
        <ele>240</ele>
        <time>2010-08-01T07:27:56Z</time>
      </trkpt>
      <trkpt lat="47.02995" lon="5.7685">
        <ele>240</ele>
        <time>2010-08-01T07:27:58Z</time>
      </trkpt>
      <trkpt lat="47.03001" lon="5.76866">
        <ele>240</ele>
        <time>2010-08-01T07:28:00Z</time>
      </trkpt>
      <trkpt lat="47.03008" lon="5.7688">
        <ele>240</ele>
        <time>2010-08-01T07:28:02Z</time>
      </trkpt>
      <trkpt lat="47.03016" lon="5.76894">
        <ele>240</ele>
        <time>2010-08-01T07:28:04Z</time>
      </trkpt>
      <trkpt lat="47.03025" lon="5.76907">
        <ele>240</ele>
        <time>2010-08-01T07:28:06Z</time>
      </trkpt>
      <trkpt lat="47.03033" lon="5.76919">
        <ele>240</ele>
        <time>2010-08-01T07:28:08Z</time>
      </trkpt>
      <trkpt lat="47.03042" lon="5.7693">
        <ele>240</ele>
        <time>2010-08-01T07:28:10Z</time>
      </trkpt>
      <trkpt lat="47.0305" lon="5.76946">
        <ele>246</ele>
        <time>2010-08-01T07:28:12Z</time>
      </trkpt>
      <trkpt lat="47.03058" lon="5.76962">
        <ele>246</ele>
        <time>2010-08-01T07:28:14Z</time>
      </trkpt>
      <trkpt lat="47.03064" lon="5.7698">
        <ele>246</ele>
        <time>2010-08-01T07:28:16Z</time>
      </trkpt>
      <trkpt lat="47.03072" lon="5.76998">
        <ele>246</ele>
        <time>2010-08-01T07:28:18Z</time>
      </trkpt>
      <trkpt lat="47.03079" lon="5.77017">
        <ele>246</ele>
        <time>2010-08-01T07:28:20Z</time>
      </trkpt>
      <trkpt lat="47.03084" lon="5.77036">
        <ele>246</ele>
        <time>2010-08-01T07:28:22Z</time>
      </trkpt>
      <trkpt lat="47.03087" lon="5.77057">
        <ele>246</ele>
        <time>2010-08-01T07:28:24Z</time>
      </trkpt>
      <trkpt lat="47.03088" lon="5.77079">
        <ele>246</ele>
        <time>2010-08-01T07:28:26Z</time>
      </trkpt>
      <trkpt lat="47.03085" lon="5.771">
        <ele>246</ele>
        <time>2010-08-01T07:28:28Z</time>
      </trkpt>
      <trkpt lat="47.03079" lon="5.77122">
        <ele>246</ele>
        <time>2010-08-01T07:28:30Z</time>
      </trkpt>
      <trkpt lat="47.0307" lon="5.7714">
        <ele>246</ele>
        <time>2010-08-01T07:28:32Z</time>
      </trkpt>
      <trkpt lat="47.03059" lon="5.77156">
        <ele>246</ele>
        <time>2010-08-01T07:28:34Z</time>
      </trkpt>
      <trkpt lat="47.03047" lon="5.77171">
        <ele>246</ele>
        <time>2010-08-01T07:28:36Z</time>
      </trkpt>
      <trkpt lat="47.03035" lon="5.77186">
        <ele>246</ele>
        <time>2010-08-01T07:28:38Z</time>
      </trkpt>
      <trkpt lat="47.03024" lon="5.77199">
        <ele>246</ele>
        <time>2010-08-01T07:28:40Z</time>
      </trkpt>
      <trkpt lat="47.03013" lon="5.77213">
        <ele>246</ele>
        <time>2010-08-01T07:28:42Z</time>
      </trkpt>
      <trkpt lat="47.03003" lon="5.77228">
        <ele>246</ele>
        <time>2010-08-01T07:28:44Z</time>
      </trkpt>
      <trkpt lat="47.02994" lon="5.77244">
        <ele>246</ele>
        <time>2010-08-01T07:28:46Z</time>
      </trkpt>
      <trkpt lat="47.02986" lon="5.77262">
        <ele>246</ele>
        <time>2010-08-01T07:28:48Z</time>
      </trkpt>
      <trkpt lat="47.0298" lon="5.7728">
        <ele>246</ele>
        <time>2010-08-01T07:28:50Z</time>
      </trkpt>
      <trkpt lat="47.02975" lon="5.773">
        <ele>246</ele>
        <time>2010-08-01T07:28:52Z</time>
      </trkpt>
      <trkpt lat="47.02976" lon="5.77319">
        <ele>246</ele>
        <time>2010-08-01T07:28:54Z</time>
      </trkpt>
      <trkpt lat="47.02981" lon="5.77339">
        <ele>246</ele>
        <time>2010-08-01T07:28:56Z</time>
      </trkpt>
      <trkpt lat="47.02988" lon="5.77358">
        <ele>246</ele>
        <time>2010-08-01T07:28:58Z</time>
      </trkpt>
      <trkpt lat="47.02995" lon="5.77376">
        <ele>246</ele>
        <time>2010-08-01T07:29:00Z</time>
      </trkpt>
      <trkpt lat="47.03001" lon="5.77394">
        <ele>246</ele>
        <time>2010-08-01T07:29:02Z</time>
      </trkpt>
      <trkpt lat="47.03007" lon="5.77413">
        <ele>246</ele>
        <time>2010-08-01T07:29:04Z</time>
      </trkpt>
      <trkpt lat="47.03014" lon="5.77431">
        <ele>246</ele>
        <time>2010-08-01T07:29:06Z</time>
      </trkpt>
      <trkpt lat="47.03021" lon="5.7745">
        <ele>246</ele>
        <time>2010-08-01T07:29:08Z</time>
      </trkpt>
      <trkpt lat="47.03027" lon="5.77468">
        <ele>246</ele>
        <time>2010-08-01T07:29:10Z</time>
      </trkpt>
      <trkpt lat="47.03033" lon="5.77487">
        <ele>246</ele>
        <time>2010-08-01T07:29:12Z</time>
      </trkpt>
      <trkpt lat="47.0304" lon="5.77505">
        <ele>246</ele>
        <time>2010-08-01T07:29:14Z</time>
      </trkpt>
      <trkpt lat="47.03046" lon="5.77524">
        <ele>246</ele>
        <time>2010-08-01T07:29:16Z</time>
      </trkpt>
      <trkpt lat="47.03053" lon="5.77542">
        <ele>246</ele>
        <time>2010-08-01T07:29:18Z</time>
      </trkpt>
      <trkpt lat="47.0306" lon="5.77562">
        <ele>246</ele>
        <time>2010-08-01T07:29:20Z</time>
      </trkpt>
      <trkpt lat="47.03066" lon="5.7758">
        <ele>246</ele>
        <time>2010-08-01T07:29:22Z</time>
      </trkpt>
      <trkpt lat="47.03072" lon="5.77599">
        <ele>246</ele>
        <time>2010-08-01T07:29:24Z</time>
      </trkpt>
      <trkpt lat="47.03078" lon="5.77617">
        <ele>246</ele>
        <time>2010-08-01T07:29:26Z</time>
      </trkpt>
      <trkpt lat="47.03085" lon="5.77634">
        <ele>246</ele>
        <time>2010-08-01T07:29:28Z</time>
      </trkpt>
      <trkpt lat="47.0309" lon="5.77652">
        <ele>246</ele>
        <time>2010-08-01T07:29:30Z</time>
      </trkpt>
      <trkpt lat="47.03096" lon="5.77671">
        <ele>246</ele>
        <time>2010-08-01T07:29:32Z</time>
      </trkpt>
      <trkpt lat="47.03102" lon="5.7769">
        <ele>246</ele>
        <time>2010-08-01T07:29:34Z</time>
      </trkpt>
      <trkpt lat="47.03108" lon="5.77708">
        <ele>246</ele>
        <time>2010-08-01T07:29:36Z</time>
      </trkpt>
      <trkpt lat="47.03115" lon="5.77726">
        <ele>246</ele>
        <time>2010-08-01T07:29:38Z</time>
      </trkpt>
      <trkpt lat="47.03121" lon="5.77745">
        <ele>246</ele>
        <time>2010-08-01T07:29:40Z</time>
      </trkpt>
      <trkpt lat="47.03128" lon="5.77763">
        <ele>246</ele>
        <time>2010-08-01T07:29:42Z</time>
      </trkpt>
      <trkpt lat="47.03135" lon="5.77781">
        <ele>246</ele>
        <time>2010-08-01T07:29:44Z</time>
      </trkpt>
      <trkpt lat="47.03142" lon="5.77799">
        <ele>246</ele>
        <time>2010-08-01T07:29:46Z</time>
      </trkpt>
      <trkpt lat="47.0315" lon="5.77816">
        <ele>246</ele>
        <time>2010-08-01T07:29:48Z</time>
      </trkpt>
      <trkpt lat="47.03157" lon="5.77834">
        <ele>246</ele>
        <time>2010-08-01T07:29:50Z</time>
      </trkpt>
      <trkpt lat="47.03164" lon="5.77852">
        <ele>246</ele>
        <time>2010-08-01T07:29:52Z</time>
      </trkpt>
      <trkpt lat="47.03171" lon="5.77869">
        <ele>246</ele>
        <time>2010-08-01T07:29:54Z</time>
      </trkpt>
      <trkpt lat="47.03179" lon="5.77888">
        <ele>246</ele>
        <time>2010-08-01T07:29:56Z</time>
      </trkpt>
      <trkpt lat="47.03185" lon="5.77908">
        <ele>246</ele>
        <time>2010-08-01T07:29:58Z</time>
      </trkpt>
      <trkpt lat="47.03192" lon="5.77928">
        <ele>246</ele>
        <time>2010-08-01T07:30:00Z</time>
      </trkpt>
      <trkpt lat="47.03199" lon="5.77947">
        <ele>246</ele>
        <time>2010-08-01T07:30:02Z</time>
      </trkpt>
      <trkpt lat="47.03207" lon="5.77967">
        <ele>246</ele>
        <time>2010-08-01T07:30:04Z</time>
      </trkpt>
      <trkpt lat="47.03214" lon="5.77986">
        <ele>246</ele>
        <time>2010-08-01T07:30:06Z</time>
      </trkpt>
      <trkpt lat="47.03221" lon="5.78005">
        <ele>246</ele>
        <time>2010-08-01T07:30:08Z</time>
      </trkpt>
      <trkpt lat="47.03229" lon="5.78024">
        <ele>246</ele>
        <time>2010-08-01T07:30:10Z</time>
      </trkpt>
      <trkpt lat="47.03237" lon="5.78043">
        <ele>246</ele>
        <time>2010-08-01T07:30:12Z</time>
      </trkpt>
      <trkpt lat="47.03244" lon="5.78061">
        <ele>246</ele>
        <time>2010-08-01T07:30:14Z</time>
      </trkpt>
      <trkpt lat="47.03252" lon="5.7808">
        <ele>246</ele>
        <time>2010-08-01T07:30:16Z</time>
      </trkpt>
      <trkpt lat="47.03259" lon="5.781">
        <ele>246</ele>
        <time>2010-08-01T07:30:18Z</time>
      </trkpt>
      <trkpt lat="47.03266" lon="5.78121">
        <ele>246</ele>
        <time>2010-08-01T07:30:20Z</time>
      </trkpt>
      <trkpt lat="47.03274" lon="5.78142">
        <ele>246</ele>
        <time>2010-08-01T07:30:22Z</time>
      </trkpt>
      <trkpt lat="47.03282" lon="5.78164">
        <ele>246</ele>
        <time>2010-08-01T07:30:24Z</time>
      </trkpt>
      <trkpt lat="47.0329" lon="5.78185">
        <ele>246</ele>
        <time>2010-08-01T07:30:26Z</time>
      </trkpt>
      <trkpt lat="47.03298" lon="5.78205">
        <ele>246</ele>
        <time>2010-08-01T07:30:28Z</time>
      </trkpt>
      <trkpt lat="47.03306" lon="5.78227">
        <ele>246</ele>
        <time>2010-08-01T07:30:30Z</time>
      </trkpt>
      <trkpt lat="47.03313" lon="5.78247">
        <ele>246</ele>
        <time>2010-08-01T07:30:32Z</time>
      </trkpt>
      <trkpt lat="47.0332" lon="5.78268">
        <ele>246</ele>
        <time>2010-08-01T07:30:34Z</time>
      </trkpt>
      <trkpt lat="47.03327" lon="5.78288">
        <ele>246</ele>
        <time>2010-08-01T07:30:36Z</time>
      </trkpt>
      <trkpt lat="47.03332" lon="5.78309">
        <ele>246</ele>
        <time>2010-08-01T07:30:38Z</time>
      </trkpt>
      <trkpt lat="47.03337" lon="5.7833">
        <ele>246</ele>
        <time>2010-08-01T07:30:40Z</time>
      </trkpt>
      <trkpt lat="47.03342" lon="5.78352">
        <ele>246</ele>
        <time>2010-08-01T07:30:42Z</time>
      </trkpt>
      <trkpt lat="47.03347" lon="5.78374">
        <ele>246</ele>
        <time>2010-08-01T07:30:44Z</time>
      </trkpt>
      <trkpt lat="47.03352" lon="5.78396">
        <ele>246</ele>
        <time>2010-08-01T07:30:46Z</time>
      </trkpt>
      <trkpt lat="47.03357" lon="5.78416">
        <ele>246</ele>
        <time>2010-08-01T07:30:48Z</time>
      </trkpt>
      <trkpt lat="47.03361" lon="5.78437">
        <ele>246</ele>
        <time>2010-08-01T07:30:50Z</time>
      </trkpt>
      <trkpt lat="47.03366" lon="5.78457">
        <ele>246</ele>
        <time>2010-08-01T07:30:52Z</time>
      </trkpt>
      <trkpt lat="47.03373" lon="5.78474">
        <ele>246</ele>
        <time>2010-08-01T07:30:54Z</time>
      </trkpt>
      <trkpt lat="47.03382" lon="5.78489">
        <ele>246</ele>
        <time>2010-08-01T07:30:56Z</time>
      </trkpt>
      <trkpt lat="47.03392" lon="5.78503">
        <ele>246</ele>
        <time>2010-08-01T07:30:58Z</time>
      </trkpt>
      <trkpt lat="47.03402" lon="5.78516">
        <ele>246</ele>
        <time>2010-08-01T07:31:00Z</time>
      </trkpt>
      <trkpt lat="47.03413" lon="5.78529">
        <ele>246</ele>
        <time>2010-08-01T07:31:02Z</time>
      </trkpt>
      <trkpt lat="47.03424" lon="5.78542">
        <ele>246</ele>
        <time>2010-08-01T07:31:04Z</time>
      </trkpt>
      <trkpt lat="47.03434" lon="5.78555">
        <ele>246</ele>
        <time>2010-08-01T07:31:06Z</time>
      </trkpt>
      <trkpt lat="47.03445" lon="5.78567">
        <ele>246</ele>
        <time>2010-08-01T07:31:08Z</time>
      </trkpt>
      <trkpt lat="47.03456" lon="5.7858">
        <ele>246</ele>
        <time>2010-08-01T07:31:10Z</time>
      </trkpt>
      <trkpt lat="47.03467" lon="5.78592">
        <ele>246</ele>
        <time>2010-08-01T07:31:12Z</time>
      </trkpt>
      <trkpt lat="47.03477" lon="5.78606">
        <ele>246</ele>
        <time>2010-08-01T07:31:14Z</time>
      </trkpt>
      <trkpt lat="47.03487" lon="5.78618">
        <ele>246</ele>
        <time>2010-08-01T07:31:16Z</time>
      </trkpt>
      <trkpt lat="47.03498" lon="5.78631">
        <ele>246</ele>
        <time>2010-08-01T07:31:18Z</time>
      </trkpt>
      <trkpt lat="47.03508" lon="5.78644">
        <ele>246</ele>
        <time>2010-08-01T07:31:20Z</time>
      </trkpt>
      <trkpt lat="47.03516" lon="5.78657">
        <ele>251</ele>
        <time>2010-08-01T07:31:22Z</time>
      </trkpt>
      <trkpt lat="47.03525" lon="5.7867">
        <ele>251</ele>
        <time>2010-08-01T07:31:24Z</time>
      </trkpt>
      <trkpt lat="47.03532" lon="5.78682">
        <ele>251</ele>
        <time>2010-08-01T07:31:26Z</time>
      </trkpt>
      <trkpt lat="47.03539" lon="5.78695">
        <ele>251</ele>
        <time>2010-08-01T07:31:28Z</time>
      </trkpt>
      <trkpt lat="47.03546" lon="5.78707">
        <ele>251</ele>
        <time>2010-08-01T07:31:30Z</time>
      </trkpt>
      <trkpt lat="47.03553" lon="5.78719">
        <ele>251</ele>
        <time>2010-08-01T07:31:32Z</time>
      </trkpt>
      <trkpt lat="47.03559" lon="5.7873">
        <ele>257</ele>
        <time>2010-08-01T07:31:34Z</time>
      </trkpt>
      <trkpt lat="47.03565" lon="5.78741">
        <ele>257</ele>
        <time>2010-08-01T07:31:36Z</time>
      </trkpt>
      <trkpt lat="47.03572" lon="5.78753">
        <ele>257</ele>
        <time>2010-08-01T07:31:38Z</time>
      </trkpt>
      <trkpt lat="47.03579" lon="5.78764">
        <ele>257</ele>
        <time>2010-08-01T07:31:40Z</time>
      </trkpt>
      <trkpt lat="47.03585" lon="5.78776">
        <ele>257</ele>
        <time>2010-08-01T07:31:42Z</time>
      </trkpt>
      <trkpt lat="47.03592" lon="5.78785">
        <ele>257</ele>
        <time>2010-08-01T07:31:44Z</time>
      </trkpt>
      <trkpt lat="47.03599" lon="5.78795">
        <ele>263</ele>
        <time>2010-08-01T07:31:46Z</time>
      </trkpt>
      <trkpt lat="47.03606" lon="5.78804">
        <ele>263</ele>
        <time>2010-08-01T07:31:48Z</time>
      </trkpt>
      <trkpt lat="47.03614" lon="5.78812">
        <ele>263</ele>
        <time>2010-08-01T07:31:50Z</time>
      </trkpt>
      <trkpt lat="47.03623" lon="5.7882">
        <ele>263</ele>
        <time>2010-08-01T07:31:52Z</time>
      </trkpt>
      <trkpt lat="47.03631" lon="5.78826">
        <ele>263</ele>
        <time>2010-08-01T07:31:54Z</time>
      </trkpt>
      <trkpt lat="47.0364" lon="5.78832">
        <ele>263</ele>
        <time>2010-08-01T07:31:56Z</time>
      </trkpt>
      <trkpt lat="47.03649" lon="5.78838">
        <ele>263</ele>
        <time>2010-08-01T07:31:58Z</time>
      </trkpt>
      <trkpt lat="47.03658" lon="5.78845">
        <ele>263</ele>
        <time>2010-08-01T07:32:00Z</time>
      </trkpt>
      <trkpt lat="47.03667" lon="5.78851">
        <ele>263</ele>
        <time>2010-08-01T07:32:02Z</time>
      </trkpt>
      <trkpt lat="47.03675" lon="5.78859">
        <ele>269</ele>
        <time>2010-08-01T07:32:04Z</time>
      </trkpt>
      <trkpt lat="47.03684" lon="5.78869">
        <ele>269</ele>
        <time>2010-08-01T07:32:06Z</time>
      </trkpt>
      <trkpt lat="47.03691" lon="5.78883">
        <ele>269</ele>
        <time>2010-08-01T07:32:08Z</time>
      </trkpt>
      <trkpt lat="47.03696" lon="5.78896">
        <ele>269</ele>
        <time>2010-08-01T07:32:10Z</time>
      </trkpt>
      <trkpt lat="47.03701" lon="5.78909">
        <ele>269</ele>
        <time>2010-08-01T07:32:12Z</time>
      </trkpt>
      <trkpt lat="47.03709" lon="5.78924">
        <ele>269</ele>
        <time>2010-08-01T07:32:14Z</time>
      </trkpt>
      <trkpt lat="47.03718" lon="5.78936">
        <ele>269</ele>
        <time>2010-08-01T07:32:16Z</time>
      </trkpt>
      <trkpt lat="47.03732" lon="5.78946">
        <ele>269</ele>
        <time>2010-08-01T07:32:18Z</time>
      </trkpt>
      <trkpt lat="47.03748" lon="5.78951">
        <ele>263</ele>
        <time>2010-08-01T07:32:20Z</time>
      </trkpt>
      <trkpt lat="47.03764" lon="5.78951">
        <ele>263</ele>
        <time>2010-08-01T07:32:22Z</time>
      </trkpt>
      <trkpt lat="47.03781" lon="5.78947">
        <ele>263</ele>
        <time>2010-08-01T07:32:24Z</time>
      </trkpt>
      <trkpt lat="47.03798" lon="5.78943">
        <ele>263</ele>
        <time>2010-08-01T07:32:26Z</time>
      </trkpt>
      <trkpt lat="47.03815" lon="5.78938">
        <ele>263</ele>
        <time>2010-08-01T07:32:28Z</time>
      </trkpt>
      <trkpt lat="47.03833" lon="5.78935">
        <ele>263</ele>
        <time>2010-08-01T07:32:30Z</time>
      </trkpt>
      <trkpt lat="47.0385" lon="5.78934">
        <ele>263</ele>
        <time>2010-08-01T07:32:32Z</time>
      </trkpt>
      <trkpt lat="47.03866" lon="5.78933">
        <ele>263</ele>
        <time>2010-08-01T07:32:34Z</time>
      </trkpt>
      <trkpt lat="47.03879" lon="5.78932">
        <ele>263</ele>
        <time>2010-08-01T07:32:36Z</time>
      </trkpt>
      <trkpt lat="47.03892" lon="5.78931">
        <ele>263</ele>
        <time>2010-08-01T07:32:38Z</time>
      </trkpt>
      <trkpt lat="47.03904" lon="5.78933">
        <ele>263</ele>
        <time>2010-08-01T07:32:40Z</time>
      </trkpt>
      <trkpt lat="47.03917" lon="5.78936">
        <ele>263</ele>
        <time>2010-08-01T07:32:42Z</time>
      </trkpt>
      <trkpt lat="47.03929" lon="5.78942">
        <ele>263</ele>
        <time>2010-08-01T07:32:44Z</time>
      </trkpt>
      <trkpt lat="47.0394" lon="5.78947">
        <ele>263</ele>
        <time>2010-08-01T07:32:46Z</time>
      </trkpt>
      <trkpt lat="47.03951" lon="5.78953">
        <ele>263</ele>
        <time>2010-08-01T07:32:48Z</time>
      </trkpt>
      <trkpt lat="47.03963" lon="5.78962">
        <ele>263</ele>
        <time>2010-08-01T07:32:50Z</time>
      </trkpt>
      <trkpt lat="47.03974" lon="5.78971">
        <ele>263</ele>
        <time>2010-08-01T07:32:52Z</time>
      </trkpt>
      <trkpt lat="47.03986" lon="5.78982">
        <ele>263</ele>
        <time>2010-08-01T07:32:54Z</time>
      </trkpt>
      <trkpt lat="47.03997" lon="5.78996">
        <ele>263</ele>
        <time>2010-08-01T07:32:56Z</time>
      </trkpt>
      <trkpt lat="47.04011" lon="5.79009">
        <ele>263</ele>
        <time>2010-08-01T07:32:58Z</time>
      </trkpt>
      <trkpt lat="47.04026" lon="5.79022">
        <ele>263</ele>
        <time>2010-08-01T07:33:00Z</time>
      </trkpt>
      <trkpt lat="47.04034" lon="5.79028">
        <ele>263</ele>
        <time>2010-08-01T07:33:01Z</time>
      </trkpt>
      <trkpt lat="47.04043" lon="5.79033">
        <ele>263</ele>
        <time>2010-08-01T07:33:02Z</time>
      </trkpt>
      <trkpt lat="47.04052" lon="5.79038">
        <ele>263</ele>
        <time>2010-08-01T07:33:03Z</time>
      </trkpt>
      <trkpt lat="47.0406" lon="5.79042">
        <ele>263</ele>
        <time>2010-08-01T07:33:04Z</time>
      </trkpt>
      <trkpt lat="47.0407" lon="5.79045">
        <ele>263</ele>
        <time>2010-08-01T07:33:05Z</time>
      </trkpt>
      <trkpt lat="47.04079" lon="5.79049">
        <ele>263</ele>
        <time>2010-08-01T07:33:06Z</time>
      </trkpt>
      <trkpt lat="47.04088" lon="5.79052">
        <ele>263</ele>
        <time>2010-08-01T07:33:07Z</time>
      </trkpt>
      <trkpt lat="47.04097" lon="5.79056">
        <ele>263</ele>
        <time>2010-08-01T07:33:08Z</time>
      </trkpt>
      <trkpt lat="47.04106" lon="5.7906">
        <ele>263</ele>
        <time>2010-08-01T07:33:09Z</time>
      </trkpt>
      <trkpt lat="47.04123" lon="5.79071">
        <ele>258</ele>
        <time>2010-08-01T07:33:11Z</time>
      </trkpt>
      <trkpt lat="47.04139" lon="5.79083">
        <ele>258</ele>
        <time>2010-08-01T07:33:13Z</time>
      </trkpt>
      <trkpt lat="47.04154" lon="5.79096">
        <ele>258</ele>
        <time>2010-08-01T07:33:15Z</time>
      </trkpt>
      <trkpt lat="47.04168" lon="5.79112">
        <ele>258</ele>
        <time>2010-08-01T07:33:17Z</time>
      </trkpt>
      <trkpt lat="47.04181" lon="5.79127">
        <ele>258</ele>
        <time>2010-08-01T07:33:19Z</time>
      </trkpt>
      <trkpt lat="47.04194" lon="5.79143">
        <ele>258</ele>
        <time>2010-08-01T07:33:21Z</time>
      </trkpt>
      <trkpt lat="47.04205" lon="5.79157">
        <ele>258</ele>
        <time>2010-08-01T07:33:23Z</time>
      </trkpt>
      <trkpt lat="47.04216" lon="5.79173">
        <ele>258</ele>
        <time>2010-08-01T07:33:25Z</time>
      </trkpt>
      <trkpt lat="47.04226" lon="5.79188">
        <ele>258</ele>
        <time>2010-08-01T07:33:27Z</time>
      </trkpt>
      <trkpt lat="47.04237" lon="5.79202">
        <ele>258</ele>
        <time>2010-08-01T07:33:29Z</time>
      </trkpt>
      <trkpt lat="47.04247" lon="5.79218">
        <ele>258</ele>
        <time>2010-08-01T07:33:31Z</time>
      </trkpt>
      <trkpt lat="47.04258" lon="5.79233">
        <ele>258</ele>
        <time>2010-08-01T07:33:33Z</time>
      </trkpt>
      <trkpt lat="47.04269" lon="5.79249">
        <ele>258</ele>
        <time>2010-08-01T07:33:35Z</time>
      </trkpt>
      <trkpt lat="47.0428" lon="5.79264">
        <ele>258</ele>
        <time>2010-08-01T07:33:37Z</time>
      </trkpt>
      <trkpt lat="47.0429" lon="5.7928">
        <ele>258</ele>
        <time>2010-08-01T07:33:39Z</time>
      </trkpt>
      <trkpt lat="47.04301" lon="5.79297">
        <ele>258</ele>
        <time>2010-08-01T07:33:41Z</time>
      </trkpt>
      <trkpt lat="47.04312" lon="5.79312">
        <ele>258</ele>
        <time>2010-08-01T07:33:43Z</time>
      </trkpt>
      <trkpt lat="47.04323" lon="5.79327">
        <ele>258</ele>
        <time>2010-08-01T07:33:45Z</time>
      </trkpt>
      <trkpt lat="47.04333" lon="5.79342">
        <ele>258</ele>
        <time>2010-08-01T07:33:47Z</time>
      </trkpt>
      <trkpt lat="47.04344" lon="5.79357">
        <ele>258</ele>
        <time>2010-08-01T07:33:49Z</time>
      </trkpt>
      <trkpt lat="47.04355" lon="5.79372">
        <ele>258</ele>
        <time>2010-08-01T07:33:51Z</time>
      </trkpt>
      <trkpt lat="47.04366" lon="5.79388">
        <ele>258</ele>
        <time>2010-08-01T07:33:53Z</time>
      </trkpt>
      <trkpt lat="47.04377" lon="5.79406">
        <ele>258</ele>
        <time>2010-08-01T07:33:55Z</time>
      </trkpt>
      <trkpt lat="47.04384" lon="5.79415">
        <ele>258</ele>
        <time>2010-08-01T07:33:56Z</time>
      </trkpt>
      <trkpt lat="47.04396" lon="5.79433">
        <ele>258</ele>
        <time>2010-08-01T07:33:58Z</time>
      </trkpt>
      <trkpt lat="47.04409" lon="5.79451">
        <ele>258</ele>
        <time>2010-08-01T07:34:00Z</time>
      </trkpt>
      <trkpt lat="47.04415" lon="5.79461">
        <ele>258</ele>
        <time>2010-08-01T07:34:01Z</time>
      </trkpt>
      <trkpt lat="47.04428" lon="5.79479">
        <ele>258</ele>
        <time>2010-08-01T07:34:03Z</time>
      </trkpt>
      <trkpt lat="47.04434" lon="5.79489">
        <ele>258</ele>
        <time>2010-08-01T07:34:04Z</time>
      </trkpt>
      <trkpt lat="47.04441" lon="5.79498">
        <ele>258</ele>
        <time>2010-08-01T07:34:05Z</time>
      </trkpt>
      <trkpt lat="47.04447" lon="5.79508">
        <ele>258</ele>
        <time>2010-08-01T07:34:06Z</time>
      </trkpt>
      <trkpt lat="47.04454" lon="5.79518">
        <ele>258</ele>
        <time>2010-08-01T07:34:07Z</time>
      </trkpt>
      <trkpt lat="47.04461" lon="5.79527">
        <ele>258</ele>
        <time>2010-08-01T07:34:08Z</time>
      </trkpt>
      <trkpt lat="47.04474" lon="5.79545">
        <ele>258</ele>
        <time>2010-08-01T07:34:10Z</time>
      </trkpt>
      <trkpt lat="47.0448" lon="5.79555">
        <ele>258</ele>
        <time>2010-08-01T07:34:11Z</time>
      </trkpt>
      <trkpt lat="47.04487" lon="5.79565">
        <ele>258</ele>
        <time>2010-08-01T07:34:12Z</time>
      </trkpt>
      <trkpt lat="47.04494" lon="5.79574">
        <ele>258</ele>
        <time>2010-08-01T07:34:13Z</time>
      </trkpt>
      <trkpt lat="47.045" lon="5.79584">
        <ele>258</ele>
        <time>2010-08-01T07:34:14Z</time>
      </trkpt>
      <trkpt lat="47.04507" lon="5.79593">
        <ele>258</ele>
        <time>2010-08-01T07:34:15Z</time>
      </trkpt>
      <trkpt lat="47.04514" lon="5.79603">
        <ele>258</ele>
        <time>2010-08-01T07:34:16Z</time>
      </trkpt>
      <trkpt lat="47.04527" lon="5.79621">
        <ele>258</ele>
        <time>2010-08-01T07:34:18Z</time>
      </trkpt>
      <trkpt lat="47.04533" lon="5.79631">
        <ele>258</ele>
        <time>2010-08-01T07:34:19Z</time>
      </trkpt>
      <trkpt lat="47.04546" lon="5.79649">
        <ele>258</ele>
        <time>2010-08-01T07:34:21Z</time>
      </trkpt>
      <trkpt lat="47.04552" lon="5.79658">
        <ele>258</ele>
        <time>2010-08-01T07:34:22Z</time>
      </trkpt>
      <trkpt lat="47.04565" lon="5.79676">
        <ele>258</ele>
        <time>2010-08-01T07:34:24Z</time>
      </trkpt>
      <trkpt lat="47.04577" lon="5.79693">
        <ele>258</ele>
        <time>2010-08-01T07:34:26Z</time>
      </trkpt>
      <trkpt lat="47.0459" lon="5.7971">
        <ele>258</ele>
        <time>2010-08-01T07:34:28Z</time>
      </trkpt>
      <trkpt lat="47.04602" lon="5.79727">
        <ele>258</ele>
        <time>2010-08-01T07:34:30Z</time>
      </trkpt>
      <trkpt lat="47.04613" lon="5.79743">
        <ele>258</ele>
        <time>2010-08-01T07:34:32Z</time>
      </trkpt>
      <trkpt lat="47.04625" lon="5.79758">
        <ele>258</ele>
        <time>2010-08-01T07:34:34Z</time>
      </trkpt>
      <trkpt lat="47.04636" lon="5.79774">
        <ele>258</ele>
        <time>2010-08-01T07:34:36Z</time>
      </trkpt>
      <trkpt lat="47.04647" lon="5.79788">
        <ele>258</ele>
        <time>2010-08-01T07:34:38Z</time>
      </trkpt>
      <trkpt lat="47.04657" lon="5.79803">
        <ele>258</ele>
        <time>2010-08-01T07:34:40Z</time>
      </trkpt>
      <trkpt lat="47.04668" lon="5.79818">
        <ele>258</ele>
        <time>2010-08-01T07:34:42Z</time>
      </trkpt>
      <trkpt lat="47.04678" lon="5.79832">
        <ele>258</ele>
        <time>2010-08-01T07:34:44Z</time>
      </trkpt>
      <trkpt lat="47.04688" lon="5.79847">
        <ele>258</ele>
        <time>2010-08-01T07:34:46Z</time>
      </trkpt>
      <trkpt lat="47.04698" lon="5.79862">
        <ele>258</ele>
        <time>2010-08-01T07:34:48Z</time>
      </trkpt>
      <trkpt lat="47.04707" lon="5.79876">
        <ele>258</ele>
        <time>2010-08-01T07:34:50Z</time>
      </trkpt>
      <trkpt lat="47.04716" lon="5.7989">
        <ele>258</ele>
        <time>2010-08-01T07:34:52Z</time>
      </trkpt>
      <trkpt lat="47.04725" lon="5.79905">
        <ele>258</ele>
        <time>2010-08-01T07:34:54Z</time>
      </trkpt>
      <trkpt lat="47.04734" lon="5.79916">
        <ele>258</ele>
        <time>2010-08-01T07:34:56Z</time>
      </trkpt>
      <trkpt lat="47.04744" lon="5.79928">
        <ele>258</ele>
        <time>2010-08-01T07:34:58Z</time>
      </trkpt>
      <trkpt lat="47.04755" lon="5.7994">
        <ele>258</ele>
        <time>2010-08-01T07:35:00Z</time>
      </trkpt>
      <trkpt lat="47.04767" lon="5.79952">
        <ele>258</ele>
        <time>2010-08-01T07:35:02Z</time>
      </trkpt>
      <trkpt lat="47.04778" lon="5.79965">
        <ele>258</ele>
        <time>2010-08-01T07:35:04Z</time>
      </trkpt>
      <trkpt lat="47.04791" lon="5.79978">
        <ele>258</ele>
        <time>2010-08-01T07:35:06Z</time>
      </trkpt>
      <trkpt lat="47.04804" lon="5.79994">
        <ele>258</ele>
        <time>2010-08-01T07:35:08Z</time>
      </trkpt>
      <trkpt lat="47.04818" lon="5.80009">
        <ele>258</ele>
        <time>2010-08-01T07:35:10Z</time>
      </trkpt>
      <trkpt lat="47.04831" lon="5.80024">
        <ele>258</ele>
        <time>2010-08-01T07:35:12Z</time>
      </trkpt>
      <trkpt lat="47.04845" lon="5.80039">
        <ele>258</ele>
        <time>2010-08-01T07:35:14Z</time>
      </trkpt>
      <trkpt lat="47.04857" lon="5.80053">
        <ele>258</ele>
        <time>2010-08-01T07:35:16Z</time>
      </trkpt>
      <trkpt lat="47.0487" lon="5.80066">
        <ele>258</ele>
        <time>2010-08-01T07:35:18Z</time>
      </trkpt>
      <trkpt lat="47.04883" lon="5.8008">
        <ele>258</ele>
        <time>2010-08-01T07:35:20Z</time>
      </trkpt>
      <trkpt lat="47.04896" lon="5.80095">
        <ele>258</ele>
        <time>2010-08-01T07:35:22Z</time>
      </trkpt>
      <trkpt lat="47.04908" lon="5.80109">
        <ele>258</ele>
        <time>2010-08-01T07:35:24Z</time>
      </trkpt>
      <trkpt lat="47.04921" lon="5.80122">
        <ele>258</ele>
        <time>2010-08-01T07:35:26Z</time>
      </trkpt>
      <trkpt lat="47.04934" lon="5.80133">
        <ele>258</ele>
        <time>2010-08-01T07:35:28Z</time>
      </trkpt>
      <trkpt lat="47.04946" lon="5.80142">
        <ele>258</ele>
        <time>2010-08-01T07:35:30Z</time>
      </trkpt>
      <trkpt lat="47.04958" lon="5.80152">
        <ele>258</ele>
        <time>2010-08-01T07:35:32Z</time>
      </trkpt>
      <trkpt lat="47.04969" lon="5.80166">
        <ele>258</ele>
        <time>2010-08-01T07:35:34Z</time>
      </trkpt>
      <trkpt lat="47.0498" lon="5.80181">
        <ele>258</ele>
        <time>2010-08-01T07:35:36Z</time>
      </trkpt>
      <trkpt lat="47.04988" lon="5.80193">
        <ele>258</ele>
        <time>2010-08-01T07:35:38Z</time>
      </trkpt>
      <trkpt lat="47.04988" lon="5.8018">
        <ele>258</ele>
        <time>2010-08-01T07:36:02Z</time>
      </trkpt>
      <trkpt lat="47.0498" lon="5.80168">
        <ele>258</ele>
        <time>2010-08-01T07:36:05Z</time>
      </trkpt>
      <trkpt lat="47.0497" lon="5.80156">
        <ele>258</ele>
        <time>2010-08-01T07:36:08Z</time>
      </trkpt>
      <trkpt lat="47.04961" lon="5.80152">
        <ele>258</ele>
        <time>2010-08-01T07:36:10Z</time>
      </trkpt>
      <trkpt lat="47.04951" lon="5.80146">
        <ele>258</ele>
        <time>2010-08-01T07:36:13Z</time>
      </trkpt>
      <trkpt lat="47.04961" lon="5.80157">
        <ele>258</ele>
        <time>2010-08-01T07:36:28Z</time>
      </trkpt>
      <trkpt lat="47.04968" lon="5.80165">
        <ele>258</ele>
        <time>2010-08-01T07:36:30Z</time>
      </trkpt>
      <trkpt lat="47.04975" lon="5.80176">
        <ele>258</ele>
        <time>2010-08-01T07:36:32Z</time>
      </trkpt>
      <trkpt lat="47.04983" lon="5.80186">
        <ele>258</ele>
        <time>2010-08-01T07:36:34Z</time>
      </trkpt>
      <trkpt lat="47.04991" lon="5.80195">
        <ele>258</ele>
        <time>2010-08-01T07:36:36Z</time>
      </trkpt>
      <trkpt lat="47.04999" lon="5.80202">
        <ele>249</ele>
        <time>2010-08-01T07:39:07Z</time>
      </trkpt>
      <trkpt lat="47.05006" lon="5.80211">
        <ele>249</ele>
        <time>2010-08-01T07:40:16Z</time>
      </trkpt>
      <trkpt lat="47.05013" lon="5.80221">
        <ele>249</ele>
        <time>2010-08-01T07:40:19Z</time>
      </trkpt>
      <trkpt lat="47.05023" lon="5.80233">
        <ele>249</ele>
        <time>2010-08-01T07:40:22Z</time>
      </trkpt>
      <trkpt lat="47.05033" lon="5.80245">
        <ele>249</ele>
        <time>2010-08-01T07:40:25Z</time>
      </trkpt>
      <trkpt lat="47.05043" lon="5.80257">
        <ele>249</ele>
        <time>2010-08-01T07:40:28Z</time>
      </trkpt>
      <trkpt lat="47.05052" lon="5.80269">
        <ele>249</ele>
        <time>2010-08-01T07:40:31Z</time>
      </trkpt>
      <trkpt lat="47.05059" lon="5.80278">
        <ele>249</ele>
        <time>2010-08-01T07:40:33Z</time>
      </trkpt>
      <trkpt lat="47.05068" lon="5.8029">
        <ele>249</ele>
        <time>2010-08-01T07:40:35Z</time>
      </trkpt>
      <trkpt lat="47.05077" lon="5.80303">
        <ele>249</ele>
        <time>2010-08-01T07:40:37Z</time>
      </trkpt>
      <trkpt lat="47.05086" lon="5.80316">
        <ele>249</ele>
        <time>2010-08-01T07:40:39Z</time>
      </trkpt>
      <trkpt lat="47.05097" lon="5.80329">
        <ele>249</ele>
        <time>2010-08-01T07:40:41Z</time>
      </trkpt>
      <trkpt lat="47.05107" lon="5.80342">
        <ele>254</ele>
        <time>2010-08-01T07:40:43Z</time>
      </trkpt>
      <trkpt lat="47.05117" lon="5.80354">
        <ele>254</ele>
        <time>2010-08-01T07:40:45Z</time>
      </trkpt>
      <trkpt lat="47.05128" lon="5.80367">
        <ele>254</ele>
        <time>2010-08-01T07:40:47Z</time>
      </trkpt>
      <trkpt lat="47.05137" lon="5.80378">
        <ele>254</ele>
        <time>2010-08-01T07:40:49Z</time>
      </trkpt>
      <trkpt lat="47.05148" lon="5.8039">
        <ele>254</ele>
        <time>2010-08-01T07:40:51Z</time>
      </trkpt>
      <trkpt lat="47.05159" lon="5.804">
        <ele>254</ele>
        <time>2010-08-01T07:40:53Z</time>
      </trkpt>
      <trkpt lat="47.0517" lon="5.8041">
        <ele>254</ele>
        <time>2010-08-01T07:40:55Z</time>
      </trkpt>
      <trkpt lat="47.05181" lon="5.8042">
        <ele>254</ele>
        <time>2010-08-01T07:40:57Z</time>
      </trkpt>
      <trkpt lat="47.05193" lon="5.80429">
        <ele>254</ele>
        <time>2010-08-01T07:40:59Z</time>
      </trkpt>
      <trkpt lat="47.05204" lon="5.80438">
        <ele>254</ele>
        <time>2010-08-01T07:41:01Z</time>
      </trkpt>
      <trkpt lat="47.05215" lon="5.80447">
        <ele>254</ele>
        <time>2010-08-01T07:41:03Z</time>
      </trkpt>
      <trkpt lat="47.05226" lon="5.80457">
        <ele>254</ele>
        <time>2010-08-01T07:41:05Z</time>
      </trkpt>
      <trkpt lat="47.05236" lon="5.80467">
        <ele>254</ele>
        <time>2010-08-01T07:41:07Z</time>
      </trkpt>
      <trkpt lat="47.05246" lon="5.80478">
        <ele>259</ele>
        <time>2010-08-01T07:41:09Z</time>
      </trkpt>
      <trkpt lat="47.05255" lon="5.80489">
        <ele>259</ele>
        <time>2010-08-01T07:41:11Z</time>
      </trkpt>
      <trkpt lat="47.05265" lon="5.80499">
        <ele>259</ele>
        <time>2010-08-01T07:41:13Z</time>
      </trkpt>
      <trkpt lat="47.05275" lon="5.80511">
        <ele>259</ele>
        <time>2010-08-01T07:41:15Z</time>
      </trkpt>
      <trkpt lat="47.05285" lon="5.80522">
        <ele>259</ele>
        <time>2010-08-01T07:41:17Z</time>
      </trkpt>
      <trkpt lat="47.05295" lon="5.80533">
        <ele>259</ele>
        <time>2010-08-01T07:41:19Z</time>
      </trkpt>
      <trkpt lat="47.05305" lon="5.80543">
        <ele>259</ele>
        <time>2010-08-01T07:41:21Z</time>
      </trkpt>
      <trkpt lat="47.05315" lon="5.80552">
        <ele>259</ele>
        <time>2010-08-01T07:41:23Z</time>
      </trkpt>
      <trkpt lat="47.05326" lon="5.80561">
        <ele>259</ele>
        <time>2010-08-01T07:41:25Z</time>
      </trkpt>
      <trkpt lat="47.05337" lon="5.8057">
        <ele>259</ele>
        <time>2010-08-01T07:41:27Z</time>
      </trkpt>
      <trkpt lat="47.05347" lon="5.80579">
        <ele>259</ele>
        <time>2010-08-01T07:41:29Z</time>
      </trkpt>
      <trkpt lat="47.05358" lon="5.80587">
        <ele>264</ele>
        <time>2010-08-01T07:41:31Z</time>
      </trkpt>
      <trkpt lat="47.0537" lon="5.80596">
        <ele>264</ele>
        <time>2010-08-01T07:41:33Z</time>
      </trkpt>
      <trkpt lat="47.05381" lon="5.80605">
        <ele>264</ele>
        <time>2010-08-01T07:41:35Z</time>
      </trkpt>
      <trkpt lat="47.05393" lon="5.80616">
        <ele>264</ele>
        <time>2010-08-01T07:41:37Z</time>
      </trkpt>
      <trkpt lat="47.05405" lon="5.80629">
        <ele>264</ele>
        <time>2010-08-01T07:41:39Z</time>
      </trkpt>
      <trkpt lat="47.05417" lon="5.80643">
        <ele>264</ele>
        <time>2010-08-01T07:41:41Z</time>
      </trkpt>
      <trkpt lat="47.05428" lon="5.80658">
        <ele>264</ele>
        <time>2010-08-01T07:41:43Z</time>
      </trkpt>
      <trkpt lat="47.0544" lon="5.80675">
        <ele>264</ele>
        <time>2010-08-01T07:41:45Z</time>
      </trkpt>
      <trkpt lat="47.05452" lon="5.80691">
        <ele>264</ele>
        <time>2010-08-01T07:41:47Z</time>
      </trkpt>
      <trkpt lat="47.05463" lon="5.80707">
        <ele>264</ele>
        <time>2010-08-01T07:41:49Z</time>
      </trkpt>
      <trkpt lat="47.05475" lon="5.80722">
        <ele>264</ele>
        <time>2010-08-01T07:41:51Z</time>
      </trkpt>
      <trkpt lat="47.05486" lon="5.80738">
        <ele>264</ele>
        <time>2010-08-01T07:41:53Z</time>
      </trkpt>
      <trkpt lat="47.05498" lon="5.80752">
        <ele>264</ele>
        <time>2010-08-01T07:41:55Z</time>
      </trkpt>
      <trkpt lat="47.0551" lon="5.80766">
        <ele>264</ele>
        <time>2010-08-01T07:41:57Z</time>
      </trkpt>
      <trkpt lat="47.05522" lon="5.80781">
        <ele>264</ele>
        <time>2010-08-01T07:41:59Z</time>
      </trkpt>
      <trkpt lat="47.05534" lon="5.80794">
        <ele>264</ele>
        <time>2010-08-01T07:42:01Z</time>
      </trkpt>
      <trkpt lat="47.05546" lon="5.80808">
        <ele>264</ele>
        <time>2010-08-01T07:42:03Z</time>
      </trkpt>
      <trkpt lat="47.05557" lon="5.80822">
        <ele>264</ele>
        <time>2010-08-01T07:42:05Z</time>
      </trkpt>
      <trkpt lat="47.0557" lon="5.80835">
        <ele>264</ele>
        <time>2010-08-01T07:42:07Z</time>
      </trkpt>
      <trkpt lat="47.05581" lon="5.80849">
        <ele>264</ele>
        <time>2010-08-01T07:42:09Z</time>
      </trkpt>
      <trkpt lat="47.05592" lon="5.80862">
        <ele>264</ele>
        <time>2010-08-01T07:42:11Z</time>
      </trkpt>
      <trkpt lat="47.05604" lon="5.80876">
        <ele>264</ele>
        <time>2010-08-01T07:42:13Z</time>
      </trkpt>
      <trkpt lat="47.05615" lon="5.80889">
        <ele>264</ele>
        <time>2010-08-01T07:42:15Z</time>
      </trkpt>
      <trkpt lat="47.05626" lon="5.80901">
        <ele>264</ele>
        <time>2010-08-01T07:42:17Z</time>
      </trkpt>
      <trkpt lat="47.05638" lon="5.80912">
        <ele>264</ele>
        <time>2010-08-01T07:42:19Z</time>
      </trkpt>
      <trkpt lat="47.05651" lon="5.80921">
        <ele>264</ele>
        <time>2010-08-01T07:42:21Z</time>
      </trkpt>
      <trkpt lat="47.05665" lon="5.80931">
        <ele>264</ele>
        <time>2010-08-01T07:42:23Z</time>
      </trkpt>
      <trkpt lat="47.05681" lon="5.8094">
        <ele>264</ele>
        <time>2010-08-01T07:42:25Z</time>
      </trkpt>
      <trkpt lat="47.05696" lon="5.80949">
        <ele>264</ele>
        <time>2010-08-01T07:42:27Z</time>
      </trkpt>
      <trkpt lat="47.05711" lon="5.80958">
        <ele>264</ele>
        <time>2010-08-01T07:42:29Z</time>
      </trkpt>
      <trkpt lat="47.05727" lon="5.80967">
        <ele>264</ele>
        <time>2010-08-01T07:42:31Z</time>
      </trkpt>
      <trkpt lat="47.05742" lon="5.80976">
        <ele>264</ele>
        <time>2010-08-01T07:42:33Z</time>
      </trkpt>
      <trkpt lat="47.05756" lon="5.80982">
        <ele>264</ele>
        <time>2010-08-01T07:42:35Z</time>
      </trkpt>
      <trkpt lat="47.0577" lon="5.8099">
        <ele>264</ele>
        <time>2010-08-01T07:42:37Z</time>
      </trkpt>
      <trkpt lat="47.05784" lon="5.80999">
        <ele>264</ele>
        <time>2010-08-01T07:42:39Z</time>
      </trkpt>
      <trkpt lat="47.05797" lon="5.81008">
        <ele>264</ele>
        <time>2010-08-01T07:42:41Z</time>
      </trkpt>
      <trkpt lat="47.0581" lon="5.81019">
        <ele>264</ele>
        <time>2010-08-01T07:42:43Z</time>
      </trkpt>
      <trkpt lat="47.05821" lon="5.8103">
        <ele>264</ele>
        <time>2010-08-01T07:42:45Z</time>
      </trkpt>
      <trkpt lat="47.05833" lon="5.81044">
        <ele>264</ele>
        <time>2010-08-01T07:42:47Z</time>
      </trkpt>
      <trkpt lat="47.05844" lon="5.81059">
        <ele>264</ele>
        <time>2010-08-01T07:42:49Z</time>
      </trkpt>
      <trkpt lat="47.05856" lon="5.81076">
        <ele>264</ele>
        <time>2010-08-01T07:42:51Z</time>
      </trkpt>
      <trkpt lat="47.05867" lon="5.81093">
        <ele>264</ele>
        <time>2010-08-01T07:42:53Z</time>
      </trkpt>
      <trkpt lat="47.05874" lon="5.81102">
        <ele>264</ele>
        <time>2010-08-01T07:42:54Z</time>
      </trkpt>
      <trkpt lat="47.05886" lon="5.81119">
        <ele>264</ele>
        <time>2010-08-01T07:42:56Z</time>
      </trkpt>
      <trkpt lat="47.05899" lon="5.81137">
        <ele>264</ele>
        <time>2010-08-01T07:42:58Z</time>
      </trkpt>
      <trkpt lat="47.05905" lon="5.81147">
        <ele>264</ele>
        <time>2010-08-01T07:42:59Z</time>
      </trkpt>
      <trkpt lat="47.05918" lon="5.81166">
        <ele>264</ele>
        <time>2010-08-01T07:43:01Z</time>
      </trkpt>
      <trkpt lat="47.05928" lon="5.81187">
        <ele>264</ele>
        <time>2010-08-01T07:43:03Z</time>
      </trkpt>
      <trkpt lat="47.05937" lon="5.81209">
        <ele>264</ele>
        <time>2010-08-01T07:43:05Z</time>
      </trkpt>
      <trkpt lat="47.05942" lon="5.81221">
        <ele>264</ele>
        <time>2010-08-01T07:43:06Z</time>
      </trkpt>
      <trkpt lat="47.0595" lon="5.81242">
        <ele>264</ele>
        <time>2010-08-01T07:43:08Z</time>
      </trkpt>
      <trkpt lat="47.05959" lon="5.81264">
        <ele>264</ele>
        <time>2010-08-01T07:43:10Z</time>
      </trkpt>
      <trkpt lat="47.05968" lon="5.81285">
        <ele>264</ele>
        <time>2010-08-01T07:43:12Z</time>
      </trkpt>
      <trkpt lat="47.05977" lon="5.81305">
        <ele>264</ele>
        <time>2010-08-01T07:43:14Z</time>
      </trkpt>
      <trkpt lat="47.05987" lon="5.81324">
        <ele>264</ele>
        <time>2010-08-01T07:43:16Z</time>
      </trkpt>
      <trkpt lat="47.05995" lon="5.81344">
        <ele>264</ele>
        <time>2010-08-01T07:43:18Z</time>
      </trkpt>
      <trkpt lat="47.06003" lon="5.81364">
        <ele>264</ele>
        <time>2010-08-01T07:43:20Z</time>
      </trkpt>
      <trkpt lat="47.06012" lon="5.81383">
        <ele>264</ele>
        <time>2010-08-01T07:43:22Z</time>
      </trkpt>
      <trkpt lat="47.06021" lon="5.81405">
        <ele>264</ele>
        <time>2010-08-01T07:43:24Z</time>
      </trkpt>
      <trkpt lat="47.06029" lon="5.81427">
        <ele>264</ele>
        <time>2010-08-01T07:43:26Z</time>
      </trkpt>
      <trkpt lat="47.06039" lon="5.81448">
        <ele>264</ele>
        <time>2010-08-01T07:43:28Z</time>
      </trkpt>
      <trkpt lat="47.0605" lon="5.81467">
        <ele>264</ele>
        <time>2010-08-01T07:43:30Z</time>
      </trkpt>
      <trkpt lat="47.06056" lon="5.81477">
        <ele>264</ele>
        <time>2010-08-01T07:43:31Z</time>
      </trkpt>
      <trkpt lat="47.06069" lon="5.81496">
        <ele>264</ele>
        <time>2010-08-01T07:43:33Z</time>
      </trkpt>
      <trkpt lat="47.06075" lon="5.81506">
        <ele>264</ele>
        <time>2010-08-01T07:43:34Z</time>
      </trkpt>
      <trkpt lat="47.06087" lon="5.81524">
        <ele>264</ele>
        <time>2010-08-01T07:43:36Z</time>
      </trkpt>
      <trkpt lat="47.06098" lon="5.81539">
        <ele>264</ele>
        <time>2010-08-01T07:43:38Z</time>
      </trkpt>
      <trkpt lat="47.0611" lon="5.81551">
        <ele>264</ele>
        <time>2010-08-01T07:43:40Z</time>
      </trkpt>
      <trkpt lat="47.06122" lon="5.81559">
        <ele>264</ele>
        <time>2010-08-01T07:43:42Z</time>
      </trkpt>
      <trkpt lat="47.06136" lon="5.81565">
        <ele>264</ele>
        <time>2010-08-01T07:43:44Z</time>
      </trkpt>
      <trkpt lat="47.06149" lon="5.81571">
        <ele>264</ele>
        <time>2010-08-01T07:43:46Z</time>
      </trkpt>
      <trkpt lat="47.06161" lon="5.81578">
        <ele>264</ele>
        <time>2010-08-01T07:43:48Z</time>
      </trkpt>
      <trkpt lat="47.06172" lon="5.81586">
        <ele>264</ele>
        <time>2010-08-01T07:43:50Z</time>
      </trkpt>
      <trkpt lat="47.06183" lon="5.81594">
        <ele>264</ele>
        <time>2010-08-01T07:43:52Z</time>
      </trkpt>
      <trkpt lat="47.06195" lon="5.816">
        <ele>270</ele>
        <time>2010-08-01T07:43:54Z</time>
      </trkpt>
      <trkpt lat="47.06206" lon="5.81606">
        <ele>270</ele>
        <time>2010-08-01T07:43:56Z</time>
      </trkpt>
      <trkpt lat="47.06219" lon="5.8161">
        <ele>270</ele>
        <time>2010-08-01T07:43:58Z</time>
      </trkpt>
      <trkpt lat="47.0623" lon="5.81612">
        <ele>270</ele>
        <time>2010-08-01T07:44:00Z</time>
      </trkpt>
      <trkpt lat="47.06241" lon="5.81614">
        <ele>270</ele>
        <time>2010-08-01T07:44:02Z</time>
      </trkpt>
      <trkpt lat="47.06254" lon="5.81616">
        <ele>270</ele>
        <time>2010-08-01T07:44:04Z</time>
      </trkpt>
      <trkpt lat="47.06267" lon="5.81618">
        <ele>270</ele>
        <time>2010-08-01T07:44:06Z</time>
      </trkpt>
      <trkpt lat="47.0628" lon="5.8162">
        <ele>270</ele>
        <time>2010-08-01T07:44:08Z</time>
      </trkpt>
      <trkpt lat="47.06293" lon="5.81623">
        <ele>270</ele>
        <time>2010-08-01T07:44:10Z</time>
      </trkpt>
      <trkpt lat="47.06306" lon="5.81629">
        <ele>270</ele>
        <time>2010-08-01T07:44:12Z</time>
      </trkpt>
      <trkpt lat="47.06318" lon="5.81636">
        <ele>270</ele>
        <time>2010-08-01T07:44:14Z</time>
      </trkpt>
      <trkpt lat="47.0633" lon="5.81644">
        <ele>270</ele>
        <time>2010-08-01T07:44:16Z</time>
      </trkpt>
      <trkpt lat="47.06344" lon="5.8165">
        <ele>270</ele>
        <time>2010-08-01T07:44:18Z</time>
      </trkpt>
      <trkpt lat="47.06359" lon="5.81655">
        <ele>270</ele>
        <time>2010-08-01T07:44:20Z</time>
      </trkpt>
      <trkpt lat="47.06376" lon="5.81657">
        <ele>270</ele>
        <time>2010-08-01T07:44:22Z</time>
      </trkpt>
      <trkpt lat="47.06392" lon="5.81657">
        <ele>270</ele>
        <time>2010-08-01T07:44:24Z</time>
      </trkpt>
      <trkpt lat="47.06409" lon="5.81656">
        <ele>264</ele>
        <time>2010-08-01T07:44:26Z</time>
      </trkpt>
      <trkpt lat="47.06427" lon="5.81653">
        <ele>264</ele>
        <time>2010-08-01T07:44:28Z</time>
      </trkpt>
      <trkpt lat="47.06444" lon="5.8165">
        <ele>264</ele>
        <time>2010-08-01T07:44:30Z</time>
      </trkpt>
      <trkpt lat="47.06461" lon="5.81649">
        <ele>264</ele>
        <time>2010-08-01T07:44:32Z</time>
      </trkpt>
      <trkpt lat="47.0647" lon="5.81649">
        <ele>264</ele>
        <time>2010-08-01T07:44:33Z</time>
      </trkpt>
      <trkpt lat="47.06479" lon="5.8165">
        <ele>264</ele>
        <time>2010-08-01T07:44:34Z</time>
      </trkpt>
      <trkpt lat="47.06497" lon="5.81655">
        <ele>264</ele>
        <time>2010-08-01T07:44:36Z</time>
      </trkpt>
      <trkpt lat="47.06506" lon="5.81658">
        <ele>264</ele>
        <time>2010-08-01T07:44:37Z</time>
      </trkpt>
      <trkpt lat="47.06514" lon="5.81663">
        <ele>264</ele>
        <time>2010-08-01T07:44:38Z</time>
      </trkpt>
      <trkpt lat="47.06523" lon="5.81667">
        <ele>264</ele>
        <time>2010-08-01T07:44:39Z</time>
      </trkpt>
      <trkpt lat="47.06532" lon="5.81673">
        <ele>264</ele>
        <time>2010-08-01T07:44:40Z</time>
      </trkpt>
      <trkpt lat="47.06547" lon="5.81686">
        <ele>264</ele>
        <time>2010-08-01T07:44:42Z</time>
      </trkpt>
      <trkpt lat="47.06562" lon="5.81701">
        <ele>264</ele>
        <time>2010-08-01T07:44:44Z</time>
      </trkpt>
      <trkpt lat="47.06576" lon="5.81716">
        <ele>264</ele>
        <time>2010-08-01T07:44:46Z</time>
      </trkpt>
      <trkpt lat="47.0659" lon="5.8173">
        <ele>264</ele>
        <time>2010-08-01T07:44:48Z</time>
      </trkpt>
      <trkpt lat="47.06604" lon="5.81745">
        <ele>264</ele>
        <time>2010-08-01T07:44:50Z</time>
      </trkpt>
      <trkpt lat="47.06618" lon="5.8176">
        <ele>264</ele>
        <time>2010-08-01T07:44:52Z</time>
      </trkpt>
      <trkpt lat="47.06631" lon="5.81774">
        <ele>264</ele>
        <time>2010-08-01T07:44:54Z</time>
      </trkpt>
      <trkpt lat="47.06644" lon="5.81789">
        <ele>264</ele>
        <time>2010-08-01T07:44:56Z</time>
      </trkpt>
      <trkpt lat="47.06657" lon="5.81805">
        <ele>264</ele>
        <time>2010-08-01T07:44:58Z</time>
      </trkpt>
      <trkpt lat="47.0667" lon="5.81822">
        <ele>264</ele>
        <time>2010-08-01T07:45:00Z</time>
      </trkpt>
      <trkpt lat="47.06682" lon="5.81838">
        <ele>264</ele>
        <time>2010-08-01T07:45:02Z</time>
      </trkpt>
      <trkpt lat="47.06695" lon="5.81854">
        <ele>264</ele>
        <time>2010-08-01T07:45:04Z</time>
      </trkpt>
      <trkpt lat="47.06708" lon="5.81869">
        <ele>264</ele>
        <time>2010-08-01T07:45:06Z</time>
      </trkpt>
      <trkpt lat="47.06722" lon="5.81883">
        <ele>264</ele>
        <time>2010-08-01T07:45:08Z</time>
      </trkpt>
      <trkpt lat="47.06735" lon="5.81895">
        <ele>264</ele>
        <time>2010-08-01T07:45:10Z</time>
      </trkpt>
      <trkpt lat="47.06748" lon="5.81906">
        <ele>264</ele>
        <time>2010-08-01T07:45:12Z</time>
      </trkpt>
      <trkpt lat="47.06761" lon="5.81917">
        <ele>264</ele>
        <time>2010-08-01T07:45:14Z</time>
      </trkpt>
      <trkpt lat="47.06773" lon="5.81928">
        <ele>264</ele>
        <time>2010-08-01T07:45:16Z</time>
      </trkpt>
      <trkpt lat="47.06786" lon="5.81939">
        <ele>264</ele>
        <time>2010-08-01T07:45:18Z</time>
      </trkpt>
      <trkpt lat="47.06798" lon="5.8195">
        <ele>264</ele>
        <time>2010-08-01T07:45:20Z</time>
      </trkpt>
      <trkpt lat="47.0681" lon="5.81961">
        <ele>264</ele>
        <time>2010-08-01T07:45:22Z</time>
      </trkpt>
      <trkpt lat="47.06822" lon="5.81972">
        <ele>264</ele>
        <time>2010-08-01T07:45:24Z</time>
      </trkpt>
      <trkpt lat="47.06835" lon="5.81982">
        <ele>264</ele>
        <time>2010-08-01T07:45:26Z</time>
      </trkpt>
      <trkpt lat="47.06847" lon="5.81991">
        <ele>264</ele>
        <time>2010-08-01T07:45:28Z</time>
      </trkpt>
      <trkpt lat="47.06861" lon="5.81999">
        <ele>264</ele>
        <time>2010-08-01T07:45:30Z</time>
      </trkpt>
      <trkpt lat="47.06875" lon="5.82006">
        <ele>264</ele>
        <time>2010-08-01T07:45:32Z</time>
      </trkpt>
      <trkpt lat="47.06889" lon="5.82013">
        <ele>264</ele>
        <time>2010-08-01T07:45:34Z</time>
      </trkpt>
      <trkpt lat="47.06905" lon="5.82019">
        <ele>264</ele>
        <time>2010-08-01T07:45:36Z</time>
      </trkpt>
      <trkpt lat="47.0692" lon="5.82024">
        <ele>264</ele>
        <time>2010-08-01T07:45:38Z</time>
      </trkpt>
      <trkpt lat="47.06935" lon="5.82028">
        <ele>264</ele>
        <time>2010-08-01T07:45:40Z</time>
      </trkpt>
      <trkpt lat="47.0695" lon="5.82032">
        <ele>264</ele>
        <time>2010-08-01T07:45:42Z</time>
      </trkpt>
      <trkpt lat="47.06966" lon="5.82036">
        <ele>264</ele>
        <time>2010-08-01T07:45:44Z</time>
      </trkpt>
      <trkpt lat="47.06982" lon="5.8204">
        <ele>264</ele>
        <time>2010-08-01T07:45:46Z</time>
      </trkpt>
      <trkpt lat="47.06997" lon="5.82045">
        <ele>264</ele>
        <time>2010-08-01T07:45:48Z</time>
      </trkpt>
      <trkpt lat="47.07012" lon="5.82051">
        <ele>264</ele>
        <time>2010-08-01T07:45:50Z</time>
      </trkpt>
      <trkpt lat="47.07027" lon="5.82056">
        <ele>264</ele>
        <time>2010-08-01T07:45:52Z</time>
      </trkpt>
      <trkpt lat="47.07042" lon="5.82063">
        <ele>264</ele>
        <time>2010-08-01T07:45:54Z</time>
      </trkpt>
      <trkpt lat="47.07056" lon="5.82069">
        <ele>264</ele>
        <time>2010-08-01T07:45:56Z</time>
      </trkpt>
      <trkpt lat="47.0707" lon="5.82074">
        <ele>264</ele>
        <time>2010-08-01T07:45:58Z</time>
      </trkpt>
      <trkpt lat="47.07083" lon="5.8208">
        <ele>264</ele>
        <time>2010-08-01T07:46:00Z</time>
      </trkpt>
      <trkpt lat="47.07096" lon="5.82084">
        <ele>264</ele>
        <time>2010-08-01T07:46:02Z</time>
      </trkpt>
      <trkpt lat="47.07108" lon="5.82089">
        <ele>264</ele>
        <time>2010-08-01T07:46:04Z</time>
      </trkpt>
      <trkpt lat="47.07119" lon="5.82095">
        <ele>264</ele>
        <time>2010-08-01T07:46:06Z</time>
      </trkpt>
      <trkpt lat="47.07129" lon="5.82101">
        <ele>264</ele>
        <time>2010-08-01T07:46:08Z</time>
      </trkpt>
      <trkpt lat="47.0714" lon="5.82108">
        <ele>264</ele>
        <time>2010-08-01T07:46:10Z</time>
      </trkpt>
      <trkpt lat="47.07151" lon="5.82116">
        <ele>264</ele>
        <time>2010-08-01T07:46:12Z</time>
      </trkpt>
      <trkpt lat="47.07161" lon="5.82125">
        <ele>264</ele>
        <time>2010-08-01T07:46:14Z</time>
      </trkpt>
      <trkpt lat="47.07172" lon="5.82134">
        <ele>264</ele>
        <time>2010-08-01T07:46:16Z</time>
      </trkpt>
      <trkpt lat="47.07183" lon="5.82144">
        <ele>269</ele>
        <time>2010-08-01T07:46:18Z</time>
      </trkpt>
      <trkpt lat="47.07193" lon="5.82152">
        <ele>269</ele>
        <time>2010-08-01T07:46:20Z</time>
      </trkpt>
      <trkpt lat="47.07204" lon="5.82161">
        <ele>269</ele>
        <time>2010-08-01T07:46:22Z</time>
      </trkpt>
      <trkpt lat="47.07214" lon="5.8217">
        <ele>269</ele>
        <time>2010-08-01T07:46:24Z</time>
      </trkpt>
      <trkpt lat="47.07225" lon="5.82179">
        <ele>269</ele>
        <time>2010-08-01T07:46:26Z</time>
      </trkpt>
      <trkpt lat="47.07236" lon="5.82187">
        <ele>269</ele>
        <time>2010-08-01T07:46:28Z</time>
      </trkpt>
      <trkpt lat="47.07246" lon="5.82195">
        <ele>269</ele>
        <time>2010-08-01T07:46:30Z</time>
      </trkpt>
      <trkpt lat="47.07256" lon="5.82203">
        <ele>269</ele>
        <time>2010-08-01T07:46:32Z</time>
      </trkpt>
      <trkpt lat="47.07266" lon="5.8221">
        <ele>269</ele>
        <time>2010-08-01T07:46:34Z</time>
      </trkpt>
      <trkpt lat="47.07277" lon="5.82218">
        <ele>269</ele>
        <time>2010-08-01T07:46:36Z</time>
      </trkpt>
      <trkpt lat="47.07287" lon="5.82225">
        <ele>269</ele>
        <time>2010-08-01T07:46:38Z</time>
      </trkpt>
      <trkpt lat="47.07297" lon="5.82233">
        <ele>269</ele>
        <time>2010-08-01T07:46:40Z</time>
      </trkpt>
      <trkpt lat="47.07307" lon="5.8224">
        <ele>275</ele>
        <time>2010-08-01T07:46:42Z</time>
      </trkpt>
      <trkpt lat="47.07317" lon="5.82248">
        <ele>275</ele>
        <time>2010-08-01T07:46:44Z</time>
      </trkpt>
      <trkpt lat="47.07328" lon="5.82256">
        <ele>275</ele>
        <time>2010-08-01T07:46:46Z</time>
      </trkpt>
      <trkpt lat="47.07338" lon="5.82264">
        <ele>275</ele>
        <time>2010-08-01T07:46:48Z</time>
      </trkpt>
      <trkpt lat="47.07349" lon="5.82272">
        <ele>275</ele>
        <time>2010-08-01T07:46:50Z</time>
      </trkpt>
      <trkpt lat="47.07359" lon="5.82278">
        <ele>275</ele>
        <time>2010-08-01T07:46:52Z</time>
      </trkpt>
      <trkpt lat="47.0737" lon="5.82284">
        <ele>275</ele>
        <time>2010-08-01T07:46:54Z</time>
      </trkpt>
      <trkpt lat="47.07383" lon="5.82286">
        <ele>275</ele>
        <time>2010-08-01T07:46:56Z</time>
      </trkpt>
      <trkpt lat="47.07398" lon="5.82287">
        <ele>275</ele>
        <time>2010-08-01T07:46:58Z</time>
      </trkpt>
      <trkpt lat="47.07414" lon="5.82287">
        <ele>275</ele>
        <time>2010-08-01T07:47:00Z</time>
      </trkpt>
      <trkpt lat="47.07431" lon="5.82287">
        <ele>275</ele>
        <time>2010-08-01T07:47:02Z</time>
      </trkpt>
      <trkpt lat="47.0744" lon="5.82289">
        <ele>275</ele>
        <time>2010-08-01T07:47:03Z</time>
      </trkpt>
      <trkpt lat="47.07449" lon="5.82292">
        <ele>275</ele>
        <time>2010-08-01T07:47:04Z</time>
      </trkpt>
      <trkpt lat="47.07458" lon="5.82296">
        <ele>275</ele>
        <time>2010-08-01T07:47:05Z</time>
      </trkpt>
      <trkpt lat="47.07467" lon="5.82301">
        <ele>275</ele>
        <time>2010-08-01T07:47:06Z</time>
      </trkpt>
      <trkpt lat="47.07476" lon="5.82307">
        <ele>275</ele>
        <time>2010-08-01T07:47:07Z</time>
      </trkpt>
      <trkpt lat="47.07484" lon="5.82313">
        <ele>275</ele>
        <time>2010-08-01T07:47:08Z</time>
      </trkpt>
      <trkpt lat="47.07492" lon="5.82319">
        <ele>275</ele>
        <time>2010-08-01T07:47:09Z</time>
      </trkpt>
      <trkpt lat="47.07501" lon="5.82326">
        <ele>275</ele>
        <time>2010-08-01T07:47:10Z</time>
      </trkpt>
      <trkpt lat="47.07516" lon="5.82339">
        <ele>275</ele>
        <time>2010-08-01T07:47:12Z</time>
      </trkpt>
      <trkpt lat="47.07531" lon="5.82353">
        <ele>275</ele>
        <time>2010-08-01T07:47:14Z</time>
      </trkpt>
      <trkpt lat="47.07545" lon="5.82366">
        <ele>275</ele>
        <time>2010-08-01T07:47:16Z</time>
      </trkpt>
      <trkpt lat="47.07558" lon="5.8238">
        <ele>275</ele>
        <time>2010-08-01T07:47:18Z</time>
      </trkpt>
      <trkpt lat="47.07571" lon="5.82391">
        <ele>275</ele>
        <time>2010-08-01T07:47:20Z</time>
      </trkpt>
      <trkpt lat="47.07582" lon="5.82402">
        <ele>275</ele>
        <time>2010-08-01T07:47:22Z</time>
      </trkpt>
      <trkpt lat="47.07593" lon="5.82411">
        <ele>275</ele>
        <time>2010-08-01T07:47:24Z</time>
      </trkpt>
      <trkpt lat="47.07604" lon="5.82418">
        <ele>275</ele>
        <time>2010-08-01T07:47:26Z</time>
      </trkpt>
      <trkpt lat="47.07614" lon="5.82424">
        <ele>275</ele>
        <time>2010-08-01T07:47:28Z</time>
      </trkpt>
      <trkpt lat="47.07624" lon="5.82428">
        <ele>275</ele>
        <time>2010-08-01T07:47:30Z</time>
      </trkpt>
      <trkpt lat="47.07635" lon="5.82432">
        <ele>275</ele>
        <time>2010-08-01T07:47:32Z</time>
      </trkpt>
      <trkpt lat="47.07644" lon="5.82434">
        <ele>275</ele>
        <time>2010-08-01T07:47:34Z</time>
      </trkpt>
      <trkpt lat="47.07655" lon="5.82436">
        <ele>275</ele>
        <time>2010-08-01T07:47:36Z</time>
      </trkpt>
      <trkpt lat="47.07665" lon="5.82437">
        <ele>275</ele>
        <time>2010-08-01T07:47:38Z</time>
      </trkpt>
      <trkpt lat="47.07676" lon="5.82437">
        <ele>275</ele>
        <time>2010-08-01T07:47:40Z</time>
      </trkpt>
      <trkpt lat="47.07686" lon="5.82437">
        <ele>275</ele>
        <time>2010-08-01T07:47:42Z</time>
      </trkpt>
      <trkpt lat="47.07696" lon="5.82437">
        <ele>280</ele>
        <time>2010-08-01T07:47:44Z</time>
      </trkpt>
      <trkpt lat="47.07706" lon="5.82435">
        <ele>280</ele>
        <time>2010-08-01T07:47:46Z</time>
      </trkpt>
      <trkpt lat="47.07716" lon="5.82434">
        <ele>280</ele>
        <time>2010-08-01T07:47:48Z</time>
      </trkpt>
      <trkpt lat="47.07725" lon="5.82434">
        <ele>280</ele>
        <time>2010-08-01T07:47:50Z</time>
      </trkpt>
      <trkpt lat="47.07735" lon="5.82433">
        <ele>280</ele>
        <time>2010-08-01T07:47:52Z</time>
      </trkpt>
      <trkpt lat="47.07748" lon="5.82432">
        <ele>280</ele>
        <time>2010-08-01T07:47:55Z</time>
      </trkpt>
      <trkpt lat="47.07757" lon="5.82431">
        <ele>280</ele>
        <time>2010-08-01T07:47:57Z</time>
      </trkpt>
      <trkpt lat="47.07768" lon="5.82429">
        <ele>280</ele>
        <time>2010-08-01T07:47:59Z</time>
      </trkpt>
      <trkpt lat="47.07777" lon="5.82427">
        <ele>280</ele>
        <time>2010-08-01T07:48:01Z</time>
      </trkpt>
      <trkpt lat="47.07787" lon="5.82426">
        <ele>280</ele>
        <time>2010-08-01T07:48:03Z</time>
      </trkpt>
      <trkpt lat="47.07797" lon="5.82425">
        <ele>280</ele>
        <time>2010-08-01T07:48:05Z</time>
      </trkpt>
      <trkpt lat="47.07808" lon="5.82425">
        <ele>285</ele>
        <time>2010-08-01T07:48:07Z</time>
      </trkpt>
      <trkpt lat="47.07817" lon="5.82424">
        <ele>285</ele>
        <time>2010-08-01T07:48:09Z</time>
      </trkpt>
      <trkpt lat="47.07827" lon="5.82424">
        <ele>285</ele>
        <time>2010-08-01T07:48:11Z</time>
      </trkpt>
      <trkpt lat="47.07837" lon="5.82425">
        <ele>285</ele>
        <time>2010-08-01T07:48:13Z</time>
      </trkpt>
      <trkpt lat="47.07847" lon="5.82427">
        <ele>285</ele>
        <time>2010-08-01T07:48:15Z</time>
      </trkpt>
      <trkpt lat="47.07855" lon="5.82432">
        <ele>285</ele>
        <time>2010-08-01T07:48:17Z</time>
      </trkpt>
      <trkpt lat="47.07865" lon="5.82436">
        <ele>285</ele>
        <time>2010-08-01T07:48:19Z</time>
      </trkpt>
      <trkpt lat="47.07874" lon="5.82443">
        <ele>285</ele>
        <time>2010-08-01T07:48:21Z</time>
      </trkpt>
      <trkpt lat="47.07884" lon="5.82449">
        <ele>285</ele>
        <time>2010-08-01T07:48:23Z</time>
      </trkpt>
      <trkpt lat="47.07895" lon="5.82456">
        <ele>285</ele>
        <time>2010-08-01T07:48:25Z</time>
      </trkpt>
      <trkpt lat="47.07907" lon="5.82464">
        <ele>285</ele>
        <time>2010-08-01T07:48:27Z</time>
      </trkpt>
      <trkpt lat="47.07919" lon="5.82472">
        <ele>285</ele>
        <time>2010-08-01T07:48:29Z</time>
      </trkpt>
      <trkpt lat="47.07932" lon="5.8248">
        <ele>285</ele>
        <time>2010-08-01T07:48:31Z</time>
      </trkpt>
      <trkpt lat="47.07946" lon="5.82489">
        <ele>285</ele>
        <time>2010-08-01T07:48:33Z</time>
      </trkpt>
      <trkpt lat="47.0796" lon="5.82497">
        <ele>285</ele>
        <time>2010-08-01T07:48:35Z</time>
      </trkpt>
      <trkpt lat="47.07974" lon="5.82507">
        <ele>285</ele>
        <time>2010-08-01T07:48:37Z</time>
      </trkpt>
      <trkpt lat="47.07989" lon="5.82516">
        <ele>285</ele>
        <time>2010-08-01T07:48:39Z</time>
      </trkpt>
      <trkpt lat="47.08001" lon="5.82525">
        <ele>285</ele>
        <time>2010-08-01T07:48:41Z</time>
      </trkpt>
      <trkpt lat="47.08013" lon="5.82532">
        <ele>285</ele>
        <time>2010-08-01T07:48:43Z</time>
      </trkpt>
      <trkpt lat="47.08025" lon="5.82539">
        <ele>285</ele>
        <time>2010-08-01T07:48:45Z</time>
      </trkpt>
      <trkpt lat="47.08038" lon="5.82546">
        <ele>285</ele>
        <time>2010-08-01T07:48:47Z</time>
      </trkpt>
      <trkpt lat="47.08048" lon="5.82554">
        <ele>285</ele>
        <time>2010-08-01T07:48:49Z</time>
      </trkpt>
      <trkpt lat="47.08058" lon="5.82562">
        <ele>291</ele>
        <time>2010-08-01T07:48:51Z</time>
      </trkpt>
      <trkpt lat="47.08068" lon="5.8257">
        <ele>291</ele>
        <time>2010-08-01T07:48:53Z</time>
      </trkpt>
      <trkpt lat="47.08079" lon="5.82575">
        <ele>297</ele>
        <time>2010-08-01T07:48:55Z</time>
      </trkpt>
      <trkpt lat="47.08089" lon="5.82583">
        <ele>297</ele>
        <time>2010-08-01T07:48:57Z</time>
      </trkpt>
      <trkpt lat="47.08099" lon="5.82589">
        <ele>297</ele>
        <time>2010-08-01T07:48:59Z</time>
      </trkpt>
      <trkpt lat="47.0811" lon="5.82597">
        <ele>297</ele>
        <time>2010-08-01T07:49:01Z</time>
      </trkpt>
      <trkpt lat="47.08122" lon="5.82604">
        <ele>297</ele>
        <time>2010-08-01T07:49:03Z</time>
      </trkpt>
      <trkpt lat="47.08133" lon="5.82611">
        <ele>297</ele>
        <time>2010-08-01T07:49:05Z</time>
      </trkpt>
      <trkpt lat="47.08145" lon="5.82619">
        <ele>297</ele>
        <time>2010-08-01T07:49:07Z</time>
      </trkpt>
      <trkpt lat="47.08157" lon="5.82626">
        <ele>297</ele>
        <time>2010-08-01T07:49:09Z</time>
      </trkpt>
      <trkpt lat="47.08169" lon="5.82631">
        <ele>297</ele>
        <time>2010-08-01T07:49:11Z</time>
      </trkpt>
      <trkpt lat="47.08181" lon="5.82633">
        <ele>297</ele>
        <time>2010-08-01T07:49:13Z</time>
      </trkpt>
      <trkpt lat="47.08194" lon="5.82633">
        <ele>297</ele>
        <time>2010-08-01T07:49:15Z</time>
      </trkpt>
      <trkpt lat="47.08206" lon="5.8263">
        <ele>297</ele>
        <time>2010-08-01T07:49:17Z</time>
      </trkpt>
      <trkpt lat="47.08218" lon="5.82627">
        <ele>297</ele>
        <time>2010-08-01T07:49:19Z</time>
      </trkpt>
      <trkpt lat="47.08232" lon="5.82622">
        <ele>302</ele>
        <time>2010-08-01T07:49:21Z</time>
      </trkpt>
      <trkpt lat="47.08246" lon="5.82618">
        <ele>302</ele>
        <time>2010-08-01T07:49:23Z</time>
      </trkpt>
      <trkpt lat="47.08261" lon="5.82612">
        <ele>302</ele>
        <time>2010-08-01T07:49:25Z</time>
      </trkpt>
      <trkpt lat="47.08278" lon="5.82607">
        <ele>302</ele>
        <time>2010-08-01T07:49:27Z</time>
      </trkpt>
      <trkpt lat="47.08296" lon="5.82601">
        <ele>302</ele>
        <time>2010-08-01T07:49:29Z</time>
      </trkpt>
      <trkpt lat="47.08314" lon="5.82593">
        <ele>297</ele>
        <time>2010-08-01T07:49:31Z</time>
      </trkpt>
      <trkpt lat="47.08323" lon="5.82591">
        <ele>297</ele>
        <time>2010-08-01T07:49:32Z</time>
      </trkpt>
      <trkpt lat="47.0834" lon="5.82584">
        <ele>297</ele>
        <time>2010-08-01T07:49:34Z</time>
      </trkpt>
      <trkpt lat="47.08356" lon="5.82576">
        <ele>297</ele>
        <time>2010-08-01T07:49:36Z</time>
      </trkpt>
      <trkpt lat="47.0837" lon="5.82569">
        <ele>297</ele>
        <time>2010-08-01T07:49:38Z</time>
      </trkpt>
      <trkpt lat="47.08385" lon="5.82562">
        <ele>297</ele>
        <time>2010-08-01T07:49:40Z</time>
      </trkpt>
      <trkpt lat="47.08398" lon="5.82556">
        <ele>297</ele>
        <time>2010-08-01T07:49:42Z</time>
      </trkpt>
      <trkpt lat="47.08411" lon="5.82548">
        <ele>297</ele>
        <time>2010-08-01T07:49:44Z</time>
      </trkpt>
      <trkpt lat="47.08423" lon="5.82542">
        <ele>297</ele>
        <time>2010-08-01T07:49:46Z</time>
      </trkpt>
      <trkpt lat="47.08435" lon="5.82535">
        <ele>297</ele>
        <time>2010-08-01T07:49:48Z</time>
      </trkpt>
      <trkpt lat="47.08448" lon="5.82528">
        <ele>297</ele>
        <time>2010-08-01T07:49:50Z</time>
      </trkpt>
      <trkpt lat="47.08459" lon="5.8252">
        <ele>297</ele>
        <time>2010-08-01T07:49:52Z</time>
      </trkpt>
      <trkpt lat="47.08471" lon="5.82513">
        <ele>297</ele>
        <time>2010-08-01T07:49:54Z</time>
      </trkpt>
      <trkpt lat="47.08482" lon="5.82506">
        <ele>297</ele>
        <time>2010-08-01T07:49:56Z</time>
      </trkpt>
      <trkpt lat="47.08493" lon="5.82502">
        <ele>297</ele>
        <time>2010-08-01T07:49:58Z</time>
      </trkpt>
      <trkpt lat="47.08503" lon="5.82496">
        <ele>297</ele>
        <time>2010-08-01T07:50:00Z</time>
      </trkpt>
      <trkpt lat="47.08514" lon="5.8249">
        <ele>297</ele>
        <time>2010-08-01T07:50:02Z</time>
      </trkpt>
      <trkpt lat="47.08524" lon="5.82484">
        <ele>297</ele>
        <time>2010-08-01T07:50:04Z</time>
      </trkpt>
      <trkpt lat="47.08535" lon="5.82477">
        <ele>297</ele>
        <time>2010-08-01T07:50:06Z</time>
      </trkpt>
      <trkpt lat="47.08546" lon="5.8247">
        <ele>297</ele>
        <time>2010-08-01T07:50:08Z</time>
      </trkpt>
      <trkpt lat="47.08557" lon="5.82464">
        <ele>297</ele>
        <time>2010-08-01T07:50:10Z</time>
      </trkpt>
      <trkpt lat="47.08568" lon="5.82457">
        <ele>303</ele>
        <time>2010-08-01T07:50:12Z</time>
      </trkpt>
      <trkpt lat="47.08577" lon="5.8245">
        <ele>303</ele>
        <time>2010-08-01T07:50:14Z</time>
      </trkpt>
      <trkpt lat="47.08588" lon="5.82443">
        <ele>303</ele>
        <time>2010-08-01T07:50:16Z</time>
      </trkpt>
      <trkpt lat="47.08599" lon="5.82437">
        <ele>303</ele>
        <time>2010-08-01T07:50:18Z</time>
      </trkpt>
      <trkpt lat="47.08608" lon="5.82433">
        <ele>308</ele>
        <time>2010-08-01T07:50:20Z</time>
      </trkpt>
      <trkpt lat="47.08618" lon="5.82428">
        <ele>308</ele>
        <time>2010-08-01T07:50:22Z</time>
      </trkpt>
      <trkpt lat="47.08627" lon="5.82423">
        <ele>308</ele>
        <time>2010-08-01T07:50:24Z</time>
      </trkpt>
      <trkpt lat="47.08637" lon="5.82418">
        <ele>308</ele>
        <time>2010-08-01T07:50:26Z</time>
      </trkpt>
      <trkpt lat="47.08646" lon="5.82412">
        <ele>308</ele>
        <time>2010-08-01T07:50:28Z</time>
      </trkpt>
      <trkpt lat="47.08655" lon="5.82406">
        <ele>308</ele>
        <time>2010-08-01T07:50:30Z</time>
      </trkpt>
      <trkpt lat="47.08664" lon="5.824">
        <ele>308</ele>
        <time>2010-08-01T07:50:32Z</time>
      </trkpt>
      <trkpt lat="47.08672" lon="5.82392">
        <ele>308</ele>
        <time>2010-08-01T07:50:34Z</time>
      </trkpt>
      <trkpt lat="47.08681" lon="5.82388">
        <ele>308</ele>
        <time>2010-08-01T07:50:36Z</time>
      </trkpt>
      <trkpt lat="47.08691" lon="5.82385">
        <ele>308</ele>
        <time>2010-08-01T07:50:38Z</time>
      </trkpt>
      <trkpt lat="47.087" lon="5.82384">
        <ele>308</ele>
        <time>2010-08-01T07:50:40Z</time>
      </trkpt>
      <trkpt lat="47.0871" lon="5.82384">
        <ele>315</ele>
        <time>2010-08-01T07:50:42Z</time>
      </trkpt>
      <trkpt lat="47.08719" lon="5.82383">
        <ele>315</ele>
        <time>2010-08-01T07:50:44Z</time>
      </trkpt>
      <trkpt lat="47.08731" lon="5.82383">
        <ele>315</ele>
        <time>2010-08-01T07:50:47Z</time>
      </trkpt>
      <trkpt lat="47.08742" lon="5.82387">
        <ele>320</ele>
        <time>2010-08-01T07:50:50Z</time>
      </trkpt>
      <trkpt lat="47.08751" lon="5.82392">
        <ele>320</ele>
        <time>2010-08-01T07:50:52Z</time>
      </trkpt>
      <trkpt lat="47.08764" lon="5.824">
        <ele>320</ele>
        <time>2010-08-01T07:50:55Z</time>
      </trkpt>
      <trkpt lat="47.08776" lon="5.82409">
        <ele>320</ele>
        <time>2010-08-01T07:50:58Z</time>
      </trkpt>
      <trkpt lat="47.08786" lon="5.82418">
        <ele>320</ele>
        <time>2010-08-01T07:51:01Z</time>
      </trkpt>
      <trkpt lat="47.08796" lon="5.82428">
        <ele>320</ele>
        <time>2010-08-01T07:51:04Z</time>
      </trkpt>
      <trkpt lat="47.08805" lon="5.8244">
        <ele>320</ele>
        <time>2010-08-01T07:51:07Z</time>
      </trkpt>
      <trkpt lat="47.08816" lon="5.82452">
        <ele>320</ele>
        <time>2010-08-01T07:51:10Z</time>
      </trkpt>
      <trkpt lat="47.08825" lon="5.82463">
        <ele>320</ele>
        <time>2010-08-01T07:51:13Z</time>
      </trkpt>
      <trkpt lat="47.08834" lon="5.82477">
        <ele>320</ele>
        <time>2010-08-01T07:51:16Z</time>
      </trkpt>
      <trkpt lat="47.08843" lon="5.82488">
        <ele>320</ele>
        <time>2010-08-01T07:51:19Z</time>
      </trkpt>
      <trkpt lat="47.08853" lon="5.825">
        <ele>320</ele>
        <time>2010-08-01T07:51:22Z</time>
      </trkpt>
      <trkpt lat="47.08861" lon="5.82509">
        <ele>320</ele>
        <time>2010-08-01T07:51:25Z</time>
      </trkpt>
      <trkpt lat="47.08869" lon="5.82518">
        <ele>320</ele>
        <time>2010-08-01T07:51:28Z</time>
      </trkpt>
      <trkpt lat="47.08879" lon="5.8253">
        <ele>320</ele>
        <time>2010-08-01T07:51:31Z</time>
      </trkpt>
      <trkpt lat="47.08889" lon="5.82538">
        <ele>320</ele>
        <time>2010-08-01T07:51:34Z</time>
      </trkpt>
      <trkpt lat="47.089" lon="5.82545">
        <ele>320</ele>
        <time>2010-08-01T07:51:37Z</time>
      </trkpt>
      <trkpt lat="47.08911" lon="5.82555">
        <ele>320</ele>
        <time>2010-08-01T07:51:40Z</time>
      </trkpt>
      <trkpt lat="47.08919" lon="5.82566">
        <ele>320</ele>
        <time>2010-08-01T07:51:43Z</time>
      </trkpt>
      <trkpt lat="47.08926" lon="5.8258">
        <ele>320</ele>
        <time>2010-08-01T07:51:46Z</time>
      </trkpt>
      <trkpt lat="47.08933" lon="5.82593">
        <ele>320</ele>
        <time>2010-08-01T07:51:49Z</time>
      </trkpt>
      <trkpt lat="47.0894" lon="5.82607">
        <ele>320</ele>
        <time>2010-08-01T07:51:52Z</time>
      </trkpt>
      <trkpt lat="47.08947" lon="5.82621">
        <ele>320</ele>
        <time>2010-08-01T07:51:55Z</time>
      </trkpt>
      <trkpt lat="47.08954" lon="5.82635">
        <ele>320</ele>
        <time>2010-08-01T07:51:58Z</time>
      </trkpt>
      <trkpt lat="47.08962" lon="5.82646">
        <ele>320</ele>
        <time>2010-08-01T07:52:01Z</time>
      </trkpt>
      <trkpt lat="47.08971" lon="5.82658">
        <ele>320</ele>
        <time>2010-08-01T07:52:04Z</time>
      </trkpt>
      <trkpt lat="47.08978" lon="5.82669">
        <ele>320</ele>
        <time>2010-08-01T07:52:07Z</time>
      </trkpt>
      <trkpt lat="47.08987" lon="5.82679">
        <ele>320</ele>
        <time>2010-08-01T07:52:10Z</time>
      </trkpt>
      <trkpt lat="47.08999" lon="5.82688">
        <ele>320</ele>
        <time>2010-08-01T07:52:13Z</time>
      </trkpt>
      <trkpt lat="47.09011" lon="5.82686">
        <ele>320</ele>
        <time>2010-08-01T07:52:16Z</time>
      </trkpt>
      <trkpt lat="47.09022" lon="5.82685">
        <ele>320</ele>
        <time>2010-08-01T07:52:19Z</time>
      </trkpt>
      <trkpt lat="47.09033" lon="5.82687">
        <ele>326</ele>
        <time>2010-08-01T07:52:22Z</time>
      </trkpt>
      <trkpt lat="47.09043" lon="5.82688">
        <ele>326</ele>
        <time>2010-08-01T07:52:25Z</time>
      </trkpt>
      <trkpt lat="47.09054" lon="5.82684">
        <ele>326</ele>
        <time>2010-08-01T07:52:28Z</time>
      </trkpt>
      <trkpt lat="47.09064" lon="5.8268">
        <ele>333</ele>
        <time>2010-08-01T07:52:31Z</time>
      </trkpt>
      <trkpt lat="47.09072" lon="5.82672">
        <ele>333</ele>
        <time>2010-08-01T07:52:34Z</time>
      </trkpt>
      <trkpt lat="47.09081" lon="5.82664">
        <ele>338</ele>
        <time>2010-08-01T07:52:37Z</time>
      </trkpt>
      <trkpt lat="47.09089" lon="5.82655">
        <ele>338</ele>
        <time>2010-08-01T07:52:40Z</time>
      </trkpt>
      <trkpt lat="47.09098" lon="5.82646">
        <ele>338</ele>
        <time>2010-08-01T07:52:43Z</time>
      </trkpt>
      <trkpt lat="47.09106" lon="5.82637">
        <ele>344</ele>
        <time>2010-08-01T07:52:46Z</time>
      </trkpt>
      <trkpt lat="47.09113" lon="5.82626">
        <ele>344</ele>
        <time>2010-08-01T07:52:49Z</time>
      </trkpt>
      <trkpt lat="47.09121" lon="5.82614">
        <ele>344</ele>
        <time>2010-08-01T07:52:52Z</time>
      </trkpt>
      <trkpt lat="47.09127" lon="5.82595">
        <ele>350</ele>
        <time>2010-08-01T07:52:55Z</time>
      </trkpt>
      <trkpt lat="47.0913" lon="5.82579">
        <ele>350</ele>
        <time>2010-08-01T07:52:57Z</time>
      </trkpt>
      <trkpt lat="47.0913" lon="5.82563">
        <ele>350</ele>
        <time>2010-08-01T07:52:59Z</time>
      </trkpt>
      <trkpt lat="47.09128" lon="5.82547">
        <ele>350</ele>
        <time>2010-08-01T07:53:01Z</time>
      </trkpt>
      <trkpt lat="47.09124" lon="5.8253">
        <ele>350</ele>
        <time>2010-08-01T07:53:03Z</time>
      </trkpt>
      <trkpt lat="47.09121" lon="5.8251">
        <ele>350</ele>
        <time>2010-08-01T07:53:05Z</time>
      </trkpt>
      <trkpt lat="47.09118" lon="5.8249">
        <ele>350</ele>
        <time>2010-08-01T07:53:07Z</time>
      </trkpt>
      <trkpt lat="47.09116" lon="5.82469">
        <ele>350</ele>
        <time>2010-08-01T07:53:09Z</time>
      </trkpt>
      <trkpt lat="47.09118" lon="5.8245">
        <ele>350</ele>
        <time>2010-08-01T07:53:11Z</time>
      </trkpt>
      <trkpt lat="47.0912" lon="5.82432">
        <ele>350</ele>
        <time>2010-08-01T07:53:13Z</time>
      </trkpt>
      <trkpt lat="47.09124" lon="5.82414">
        <ele>350</ele>
        <time>2010-08-01T07:53:15Z</time>
      </trkpt>
      <trkpt lat="47.09127" lon="5.8239">
        <ele>350</ele>
        <time>2010-08-01T07:53:17Z</time>
      </trkpt>
      <trkpt lat="47.09128" lon="5.82375">
        <ele>350</ele>
        <time>2010-08-01T07:53:18Z</time>
      </trkpt>
      <trkpt lat="47.09129" lon="5.82361">
        <ele>350</ele>
        <time>2010-08-01T07:53:19Z</time>
      </trkpt>
      <trkpt lat="47.0913" lon="5.82346">
        <ele>350</ele>
        <time>2010-08-01T07:53:20Z</time>
      </trkpt>
      <trkpt lat="47.09134" lon="5.82332">
        <ele>350</ele>
        <time>2010-08-01T07:53:21Z</time>
      </trkpt>
      <trkpt lat="47.09141" lon="5.82319">
        <ele>350</ele>
        <time>2010-08-01T07:53:22Z</time>
      </trkpt>
      <trkpt lat="47.09148" lon="5.82305">
        <ele>350</ele>
        <time>2010-08-01T07:53:23Z</time>
      </trkpt>
      <trkpt lat="47.09154" lon="5.82291">
        <ele>350</ele>
        <time>2010-08-01T07:53:24Z</time>
      </trkpt>
      <trkpt lat="47.0916" lon="5.82277">
        <ele>350</ele>
        <time>2010-08-01T07:53:25Z</time>
      </trkpt>
      <trkpt lat="47.09165" lon="5.82263">
        <ele>350</ele>
        <time>2010-08-01T07:53:26Z</time>
      </trkpt>
      <trkpt lat="47.09171" lon="5.82249">
        <ele>350</ele>
        <time>2010-08-01T07:53:27Z</time>
      </trkpt>
      <trkpt lat="47.09176" lon="5.82234">
        <ele>350</ele>
        <time>2010-08-01T07:53:28Z</time>
      </trkpt>
      <trkpt lat="47.09183" lon="5.82221">
        <ele>350</ele>
        <time>2010-08-01T07:53:29Z</time>
      </trkpt>
      <trkpt lat="47.09188" lon="5.82205">
        <ele>350</ele>
        <time>2010-08-01T07:53:30Z</time>
      </trkpt>
      <trkpt lat="47.09195" lon="5.8219">
        <ele>350</ele>
        <time>2010-08-01T07:53:31Z</time>
      </trkpt>
      <trkpt lat="47.09201" lon="5.82176">
        <ele>350</ele>
        <time>2010-08-01T07:53:32Z</time>
      </trkpt>
      <trkpt lat="47.09208" lon="5.82161">
        <ele>350</ele>
        <time>2010-08-01T07:53:33Z</time>
      </trkpt>
      <trkpt lat="47.09214" lon="5.82147">
        <ele>350</ele>
        <time>2010-08-01T07:53:34Z</time>
      </trkpt>
      <trkpt lat="47.09219" lon="5.82133">
        <ele>350</ele>
        <time>2010-08-01T07:53:35Z</time>
      </trkpt>
      <trkpt lat="47.09224" lon="5.82117">
        <ele>350</ele>
        <time>2010-08-01T07:53:36Z</time>
      </trkpt>
      <trkpt lat="47.09229" lon="5.82101">
        <ele>350</ele>
        <time>2010-08-01T07:53:37Z</time>
      </trkpt>
      <trkpt lat="47.09232" lon="5.82085">
        <ele>350</ele>
        <time>2010-08-01T07:53:38Z</time>
      </trkpt>
      <trkpt lat="47.09235" lon="5.82068">
        <ele>350</ele>
        <time>2010-08-01T07:53:39Z</time>
      </trkpt>
      <trkpt lat="47.09237" lon="5.82051">
        <ele>350</ele>
        <time>2010-08-01T07:53:40Z</time>
      </trkpt>
      <trkpt lat="47.0924" lon="5.82034">
        <ele>350</ele>
        <time>2010-08-01T07:53:41Z</time>
      </trkpt>
      <trkpt lat="47.09244" lon="5.82016">
        <ele>350</ele>
        <time>2010-08-01T07:53:42Z</time>
      </trkpt>
      <trkpt lat="47.09249" lon="5.81999">
        <ele>350</ele>
        <time>2010-08-01T07:53:43Z</time>
      </trkpt>
      <trkpt lat="47.09254" lon="5.81983">
        <ele>350</ele>
        <time>2010-08-01T07:53:44Z</time>
      </trkpt>
      <trkpt lat="47.0926" lon="5.81966">
        <ele>345</ele>
        <time>2010-08-01T07:53:45Z</time>
      </trkpt>
      <trkpt lat="47.09266" lon="5.81951">
        <ele>345</ele>
        <time>2010-08-01T07:53:46Z</time>
      </trkpt>
      <trkpt lat="47.09272" lon="5.81935">
        <ele>345</ele>
        <time>2010-08-01T07:53:47Z</time>
      </trkpt>
      <trkpt lat="47.09279" lon="5.8192">
        <ele>331</ele>
        <time>2010-08-01T07:53:48Z</time>
      </trkpt>
      <trkpt lat="47.09285" lon="5.81904">
        <ele>331</ele>
        <time>2010-08-01T07:53:49Z</time>
      </trkpt>
      <trkpt lat="47.09291" lon="5.81889">
        <ele>331</ele>
        <time>2010-08-01T07:53:50Z</time>
      </trkpt>
      <trkpt lat="47.09297" lon="5.81873">
        <ele>331</ele>
        <time>2010-08-01T07:53:51Z</time>
      </trkpt>
      <trkpt lat="47.09301" lon="5.81857">
        <ele>331</ele>
        <time>2010-08-01T07:53:52Z</time>
      </trkpt>
      <trkpt lat="47.09303" lon="5.81839">
        <ele>331</ele>
        <time>2010-08-01T07:53:53Z</time>
      </trkpt>
      <trkpt lat="47.09305" lon="5.81822">
        <ele>331</ele>
        <time>2010-08-01T07:53:54Z</time>
      </trkpt>
      <trkpt lat="47.09303" lon="5.81804">
        <ele>324</ele>
        <time>2010-08-01T07:53:55Z</time>
      </trkpt>
      <trkpt lat="47.09302" lon="5.81787">
        <ele>318</ele>
        <time>2010-08-01T07:53:56Z</time>
      </trkpt>
      <trkpt lat="47.093" lon="5.81769">
        <ele>318</ele>
        <time>2010-08-01T07:53:57Z</time>
      </trkpt>
      <trkpt lat="47.09299" lon="5.81751">
        <ele>318</ele>
        <time>2010-08-01T07:53:58Z</time>
      </trkpt>
      <trkpt lat="47.09296" lon="5.81734">
        <ele>318</ele>
        <time>2010-08-01T07:53:59Z</time>
      </trkpt>
      <trkpt lat="47.09295" lon="5.81717">
        <ele>318</ele>
        <time>2010-08-01T07:54:00Z</time>
      </trkpt>
      <trkpt lat="47.09294" lon="5.817">
        <ele>318</ele>
        <time>2010-08-01T07:54:01Z</time>
      </trkpt>
      <trkpt lat="47.09292" lon="5.81682">
        <ele>313</ele>
        <time>2010-08-01T07:54:02Z</time>
      </trkpt>
      <trkpt lat="47.09291" lon="5.81665">
        <ele>313</ele>
        <time>2010-08-01T07:54:03Z</time>
      </trkpt>
      <trkpt lat="47.09291" lon="5.81648">
        <ele>313</ele>
        <time>2010-08-01T07:54:04Z</time>
      </trkpt>
      <trkpt lat="47.09291" lon="5.81631">
        <ele>313</ele>
        <time>2010-08-01T07:54:05Z</time>
      </trkpt>
      <trkpt lat="47.09292" lon="5.81615">
        <ele>313</ele>
        <time>2010-08-01T07:54:06Z</time>
      </trkpt>
      <trkpt lat="47.09294" lon="5.816">
        <ele>313</ele>
        <time>2010-08-01T07:54:07Z</time>
      </trkpt>
      <trkpt lat="47.09297" lon="5.81585">
        <ele>313</ele>
        <time>2010-08-01T07:54:08Z</time>
      </trkpt>
      <trkpt lat="47.093" lon="5.8157">
        <ele>313</ele>
        <time>2010-08-01T07:54:09Z</time>
      </trkpt>
      <trkpt lat="47.09303" lon="5.81557">
        <ele>313</ele>
        <time>2010-08-01T07:54:10Z</time>
      </trkpt>
      <trkpt lat="47.09308" lon="5.81545">
        <ele>313</ele>
        <time>2010-08-01T07:54:11Z</time>
      </trkpt>
      <trkpt lat="47.09314" lon="5.81534">
        <ele>313</ele>
        <time>2010-08-01T07:54:12Z</time>
      </trkpt>
      <trkpt lat="47.0932" lon="5.81524">
        <ele>313</ele>
        <time>2010-08-01T07:54:13Z</time>
      </trkpt>
      <trkpt lat="47.09327" lon="5.81515">
        <ele>313</ele>
        <time>2010-08-01T07:54:14Z</time>
      </trkpt>
      <trkpt lat="47.0934" lon="5.81497">
        <ele>307</ele>
        <time>2010-08-01T07:54:16Z</time>
      </trkpt>
      <trkpt lat="47.09354" lon="5.81482">
        <ele>307</ele>
        <time>2010-08-01T07:54:18Z</time>
      </trkpt>
      <trkpt lat="47.09367" lon="5.81467">
        <ele>307</ele>
        <time>2010-08-01T07:54:20Z</time>
      </trkpt>
      <trkpt lat="47.0938" lon="5.81454">
        <ele>307</ele>
        <time>2010-08-01T07:54:22Z</time>
      </trkpt>
      <trkpt lat="47.09394" lon="5.81441">
        <ele>307</ele>
        <time>2010-08-01T07:54:24Z</time>
      </trkpt>
      <trkpt lat="47.09411" lon="5.81429">
        <ele>300</ele>
        <time>2010-08-01T07:54:26Z</time>
      </trkpt>
      <trkpt lat="47.09419" lon="5.81424">
        <ele>300</ele>
        <time>2010-08-01T07:54:27Z</time>
      </trkpt>
      <trkpt lat="47.09429" lon="5.81419">
        <ele>300</ele>
        <time>2010-08-01T07:54:28Z</time>
      </trkpt>
      <trkpt lat="47.09438" lon="5.81414">
        <ele>300</ele>
        <time>2010-08-01T07:54:29Z</time>
      </trkpt>
      <trkpt lat="47.09448" lon="5.81409">
        <ele>300</ele>
        <time>2010-08-01T07:54:30Z</time>
      </trkpt>
      <trkpt lat="47.09459" lon="5.81406">
        <ele>300</ele>
        <time>2010-08-01T07:54:31Z</time>
      </trkpt>
      <trkpt lat="47.0947" lon="5.81404">
        <ele>294</ele>
        <time>2010-08-01T07:54:32Z</time>
      </trkpt>
      <trkpt lat="47.09481" lon="5.81404">
        <ele>294</ele>
        <time>2010-08-01T07:54:33Z</time>
      </trkpt>
      <trkpt lat="47.09492" lon="5.81405">
        <ele>294</ele>
        <time>2010-08-01T07:54:34Z</time>
      </trkpt>
      <trkpt lat="47.09503" lon="5.81406">
        <ele>294</ele>
        <time>2010-08-01T07:54:35Z</time>
      </trkpt>
      <trkpt lat="47.09515" lon="5.81409">
        <ele>294</ele>
        <time>2010-08-01T07:54:36Z</time>
      </trkpt>
      <trkpt lat="47.09526" lon="5.81412">
        <ele>294</ele>
        <time>2010-08-01T07:54:37Z</time>
      </trkpt>
      <trkpt lat="47.09536" lon="5.81416">
        <ele>294</ele>
        <time>2010-08-01T07:54:38Z</time>
      </trkpt>
      <trkpt lat="47.09546" lon="5.81421">
        <ele>294</ele>
        <time>2010-08-01T07:54:39Z</time>
      </trkpt>
      <trkpt lat="47.09557" lon="5.81426">
        <ele>294</ele>
        <time>2010-08-01T07:54:40Z</time>
      </trkpt>
      <trkpt lat="47.09567" lon="5.8143">
        <ele>294</ele>
        <time>2010-08-01T07:54:41Z</time>
      </trkpt>
      <trkpt lat="47.09577" lon="5.81434">
        <ele>294</ele>
        <time>2010-08-01T07:54:42Z</time>
      </trkpt>
      <trkpt lat="47.09587" lon="5.81436">
        <ele>294</ele>
        <time>2010-08-01T07:54:43Z</time>
      </trkpt>
      <trkpt lat="47.09597" lon="5.81436">
        <ele>294</ele>
        <time>2010-08-01T07:54:44Z</time>
      </trkpt>
      <trkpt lat="47.09607" lon="5.81435">
        <ele>294</ele>
        <time>2010-08-01T07:54:45Z</time>
      </trkpt>
      <trkpt lat="47.09616" lon="5.81432">
        <ele>294</ele>
        <time>2010-08-01T07:54:46Z</time>
      </trkpt>
      <trkpt lat="47.09626" lon="5.81429">
        <ele>294</ele>
        <time>2010-08-01T07:54:47Z</time>
      </trkpt>
      <trkpt lat="47.09642" lon="5.81424">
        <ele>294</ele>
        <time>2010-08-01T07:54:49Z</time>
      </trkpt>
      <trkpt lat="47.09657" lon="5.8142">
        <ele>294</ele>
        <time>2010-08-01T07:54:51Z</time>
      </trkpt>
      <trkpt lat="47.09671" lon="5.81414">
        <ele>294</ele>
        <time>2010-08-01T07:54:53Z</time>
      </trkpt>
      <trkpt lat="47.09684" lon="5.81404">
        <ele>294</ele>
        <time>2010-08-01T07:54:55Z</time>
      </trkpt>
      <trkpt lat="47.09699" lon="5.81392">
        <ele>294</ele>
        <time>2010-08-01T07:54:57Z</time>
      </trkpt>
      <trkpt lat="47.09714" lon="5.81381">
        <ele>294</ele>
        <time>2010-08-01T07:54:59Z</time>
      </trkpt>
      <trkpt lat="47.09722" lon="5.81374">
        <ele>294</ele>
        <time>2010-08-01T07:55:00Z</time>
      </trkpt>
      <trkpt lat="47.0973" lon="5.81368">
        <ele>294</ele>
        <time>2010-08-01T07:55:01Z</time>
      </trkpt>
      <trkpt lat="47.09738" lon="5.8136">
        <ele>294</ele>
        <time>2010-08-01T07:55:02Z</time>
      </trkpt>
      <trkpt lat="47.09746" lon="5.81351">
        <ele>294</ele>
        <time>2010-08-01T07:55:03Z</time>
      </trkpt>
      <trkpt lat="47.09754" lon="5.81341">
        <ele>294</ele>
        <time>2010-08-01T07:55:04Z</time>
      </trkpt>
      <trkpt lat="47.09763" lon="5.81332">
        <ele>294</ele>
        <time>2010-08-01T07:55:05Z</time>
      </trkpt>
      <trkpt lat="47.09773" lon="5.81326">
        <ele>294</ele>
        <time>2010-08-01T07:55:06Z</time>
      </trkpt>
      <trkpt lat="47.09783" lon="5.8132">
        <ele>294</ele>
        <time>2010-08-01T07:55:07Z</time>
      </trkpt>
      <trkpt lat="47.09795" lon="5.81316">
        <ele>294</ele>
        <time>2010-08-01T07:55:08Z</time>
      </trkpt>
      <trkpt lat="47.09805" lon="5.81312">
        <ele>294</ele>
        <time>2010-08-01T07:55:09Z</time>
      </trkpt>
      <trkpt lat="47.09816" lon="5.81307">
        <ele>294</ele>
        <time>2010-08-01T07:55:10Z</time>
      </trkpt>
      <trkpt lat="47.09825" lon="5.81303">
        <ele>294</ele>
        <time>2010-08-01T07:55:11Z</time>
      </trkpt>
      <trkpt lat="47.09834" lon="5.81297">
        <ele>294</ele>
        <time>2010-08-01T07:55:12Z</time>
      </trkpt>
      <trkpt lat="47.09847" lon="5.81279">
        <ele>294</ele>
        <time>2010-08-01T07:55:14Z</time>
      </trkpt>
      <trkpt lat="47.09853" lon="5.81266">
        <ele>294</ele>
        <time>2010-08-01T07:55:15Z</time>
      </trkpt>
      <trkpt lat="47.09857" lon="5.81252">
        <ele>289</ele>
        <time>2010-08-01T07:55:16Z</time>
      </trkpt>
      <trkpt lat="47.09862" lon="5.81237">
        <ele>289</ele>
        <time>2010-08-01T07:55:17Z</time>
      </trkpt>
      <trkpt lat="47.09866" lon="5.81222">
        <ele>289</ele>
        <time>2010-08-01T07:55:18Z</time>
      </trkpt>
      <trkpt lat="47.09871" lon="5.81206">
        <ele>289</ele>
        <time>2010-08-01T07:55:19Z</time>
      </trkpt>
      <trkpt lat="47.09875" lon="5.81189">
        <ele>289</ele>
        <time>2010-08-01T07:55:20Z</time>
      </trkpt>
      <trkpt lat="47.0988" lon="5.81173">
        <ele>289</ele>
        <time>2010-08-01T07:55:21Z</time>
      </trkpt>
      <trkpt lat="47.09884" lon="5.81157">
        <ele>289</ele>
        <time>2010-08-01T07:55:22Z</time>
      </trkpt>
      <trkpt lat="47.09887" lon="5.81142">
        <ele>284</ele>
        <time>2010-08-01T07:55:23Z</time>
      </trkpt>
      <trkpt lat="47.09891" lon="5.81127">
        <ele>284</ele>
        <time>2010-08-01T07:55:24Z</time>
      </trkpt>
      <trkpt lat="47.09895" lon="5.81115">
        <ele>284</ele>
        <time>2010-08-01T07:55:25Z</time>
      </trkpt>
      <trkpt lat="47.099" lon="5.81094">
        <ele>284</ele>
        <time>2010-08-01T07:55:27Z</time>
      </trkpt>
      <trkpt lat="47.09906" lon="5.81082">
        <ele>284</ele>
        <time>2010-08-01T07:55:29Z</time>
      </trkpt>
      <trkpt lat="47.09919" lon="5.81086">
        <ele>284</ele>
        <time>2010-08-01T07:55:32Z</time>
      </trkpt>
      <trkpt lat="47.09928" lon="5.81091">
        <ele>284</ele>
        <time>2010-08-01T07:55:34Z</time>
      </trkpt>
      <trkpt lat="47.09938" lon="5.81095">
        <ele>284</ele>
        <time>2010-08-01T07:55:36Z</time>
      </trkpt>
      <trkpt lat="47.09948" lon="5.81099">
        <ele>284</ele>
        <time>2010-08-01T07:55:38Z</time>
      </trkpt>
      <trkpt lat="47.09959" lon="5.81102">
        <ele>284</ele>
        <time>2010-08-01T07:55:40Z</time>
      </trkpt>
      <trkpt lat="47.09969" lon="5.81108">
        <ele>284</ele>
        <time>2010-08-01T07:55:42Z</time>
      </trkpt>
      <trkpt lat="47.09981" lon="5.81115">
        <ele>284</ele>
        <time>2010-08-01T07:55:44Z</time>
      </trkpt>
      <trkpt lat="47.09993" lon="5.81121">
        <ele>284</ele>
        <time>2010-08-01T07:55:46Z</time>
      </trkpt>
      <trkpt lat="47.10005" lon="5.81125">
        <ele>284</ele>
        <time>2010-08-01T07:55:48Z</time>
      </trkpt>
      <trkpt lat="47.10017" lon="5.8113">
        <ele>284</ele>
        <time>2010-08-01T07:55:50Z</time>
      </trkpt>
      <trkpt lat="47.1003" lon="5.81135">
        <ele>284</ele>
        <time>2010-08-01T07:55:52Z</time>
      </trkpt>
      <trkpt lat="47.10044" lon="5.8114">
        <ele>284</ele>
        <time>2010-08-01T07:55:54Z</time>
      </trkpt>
      <trkpt lat="47.10058" lon="5.81146">
        <ele>284</ele>
        <time>2010-08-01T07:55:56Z</time>
      </trkpt>
      <trkpt lat="47.10073" lon="5.81152">
        <ele>284</ele>
        <time>2010-08-01T07:55:58Z</time>
      </trkpt>
      <trkpt lat="47.10087" lon="5.81156">
        <ele>284</ele>
        <time>2010-08-01T07:56:00Z</time>
      </trkpt>
      <trkpt lat="47.10102" lon="5.81154">
        <ele>284</ele>
        <time>2010-08-01T07:56:02Z</time>
      </trkpt>
      <trkpt lat="47.10116" lon="5.81147">
        <ele>284</ele>
        <time>2010-08-01T07:56:04Z</time>
      </trkpt>
      <trkpt lat="47.1013" lon="5.81139">
        <ele>284</ele>
        <time>2010-08-01T07:56:06Z</time>
      </trkpt>
      <trkpt lat="47.10145" lon="5.81131">
        <ele>284</ele>
        <time>2010-08-01T07:56:08Z</time>
      </trkpt>
      <trkpt lat="47.1016" lon="5.81125">
        <ele>284</ele>
        <time>2010-08-01T07:56:10Z</time>
      </trkpt>
      <trkpt lat="47.1017" lon="5.81121">
        <ele>284</ele>
        <time>2010-08-01T07:56:11Z</time>
      </trkpt>
      <trkpt lat="47.10179" lon="5.81119">
        <ele>284</ele>
        <time>2010-08-01T07:56:12Z</time>
      </trkpt>
      <trkpt lat="47.10189" lon="5.81118">
        <ele>284</ele>
        <time>2010-08-01T07:56:13Z</time>
      </trkpt>
      <trkpt lat="47.10198" lon="5.81118">
        <ele>284</ele>
        <time>2010-08-01T07:56:14Z</time>
      </trkpt>
      <trkpt lat="47.10208" lon="5.81117">
        <ele>284</ele>
        <time>2010-08-01T07:56:15Z</time>
      </trkpt>
      <trkpt lat="47.10218" lon="5.81115">
        <ele>284</ele>
        <time>2010-08-01T07:56:16Z</time>
      </trkpt>
      <trkpt lat="47.10228" lon="5.81113">
        <ele>284</ele>
        <time>2010-08-01T07:56:17Z</time>
      </trkpt>
      <trkpt lat="47.10238" lon="5.81111">
        <ele>284</ele>
        <time>2010-08-01T07:56:18Z</time>
      </trkpt>
      <trkpt lat="47.10248" lon="5.81109">
        <ele>284</ele>
        <time>2010-08-01T07:56:19Z</time>
      </trkpt>
      <trkpt lat="47.10257" lon="5.81107">
        <ele>284</ele>
        <time>2010-08-01T07:56:20Z</time>
      </trkpt>
      <trkpt lat="47.10266" lon="5.81103">
        <ele>284</ele>
        <time>2010-08-01T07:56:21Z</time>
      </trkpt>
      <trkpt lat="47.10275" lon="5.811">
        <ele>284</ele>
        <time>2010-08-01T07:56:22Z</time>
      </trkpt>
      <trkpt lat="47.10284" lon="5.81097">
        <ele>284</ele>
        <time>2010-08-01T07:56:23Z</time>
      </trkpt>
      <trkpt lat="47.10293" lon="5.81093">
        <ele>284</ele>
        <time>2010-08-01T07:56:24Z</time>
      </trkpt>
      <trkpt lat="47.10302" lon="5.81089">
        <ele>284</ele>
        <time>2010-08-01T07:56:25Z</time>
      </trkpt>
      <trkpt lat="47.1031" lon="5.81084">
        <ele>284</ele>
        <time>2010-08-01T07:56:26Z</time>
      </trkpt>
      <trkpt lat="47.10319" lon="5.8108">
        <ele>284</ele>
        <time>2010-08-01T07:56:27Z</time>
      </trkpt>
      <trkpt lat="47.10335" lon="5.81071">
        <ele>284</ele>
        <time>2010-08-01T07:56:29Z</time>
      </trkpt>
      <trkpt lat="47.10351" lon="5.81063">
        <ele>284</ele>
        <time>2010-08-01T07:56:31Z</time>
      </trkpt>
      <trkpt lat="47.10367" lon="5.81056">
        <ele>284</ele>
        <time>2010-08-01T07:56:33Z</time>
      </trkpt>
      <trkpt lat="47.10383" lon="5.8105">
        <ele>284</ele>
        <time>2010-08-01T07:56:35Z</time>
      </trkpt>
      <trkpt lat="47.10399" lon="5.81044">
        <ele>284</ele>
        <time>2010-08-01T07:56:37Z</time>
      </trkpt>
      <trkpt lat="47.10414" lon="5.81039">
        <ele>284</ele>
        <time>2010-08-01T07:56:39Z</time>
      </trkpt>
      <trkpt lat="47.1043" lon="5.81036">
        <ele>284</ele>
        <time>2010-08-01T07:56:41Z</time>
      </trkpt>
      <trkpt lat="47.10444" lon="5.81033">
        <ele>284</ele>
        <time>2010-08-01T07:56:43Z</time>
      </trkpt>
      <trkpt lat="47.10459" lon="5.81031">
        <ele>284</ele>
        <time>2010-08-01T07:56:45Z</time>
      </trkpt>
      <trkpt lat="47.10473" lon="5.81028">
        <ele>284</ele>
        <time>2010-08-01T07:56:47Z</time>
      </trkpt>
      <trkpt lat="47.10487" lon="5.81023">
        <ele>284</ele>
        <time>2010-08-01T07:56:49Z</time>
      </trkpt>
      <trkpt lat="47.105" lon="5.81017">
        <ele>284</ele>
        <time>2010-08-01T07:56:51Z</time>
      </trkpt>
      <trkpt lat="47.10514" lon="5.8101">
        <ele>284</ele>
        <time>2010-08-01T07:56:53Z</time>
      </trkpt>
      <trkpt lat="47.10527" lon="5.81003">
        <ele>284</ele>
        <time>2010-08-01T07:56:55Z</time>
      </trkpt>
      <trkpt lat="47.10539" lon="5.80994">
        <ele>284</ele>
        <time>2010-08-01T07:56:57Z</time>
      </trkpt>
      <trkpt lat="47.1055" lon="5.80988">
        <ele>284</ele>
        <time>2010-08-01T07:56:59Z</time>
      </trkpt>
      <trkpt lat="47.10561" lon="5.80981">
        <ele>284</ele>
        <time>2010-08-01T07:57:01Z</time>
      </trkpt>
      <trkpt lat="47.10572" lon="5.80975">
        <ele>284</ele>
        <time>2010-08-01T07:57:03Z</time>
      </trkpt>
      <trkpt lat="47.10582" lon="5.80969">
        <ele>284</ele>
        <time>2010-08-01T07:57:05Z</time>
      </trkpt>
      <trkpt lat="47.10592" lon="5.80965">
        <ele>284</ele>
        <time>2010-08-01T07:57:07Z</time>
      </trkpt>
      <trkpt lat="47.10603" lon="5.8096">
        <ele>284</ele>
        <time>2010-08-01T07:57:09Z</time>
      </trkpt>
      <trkpt lat="47.10613" lon="5.80955">
        <ele>284</ele>
        <time>2010-08-01T07:57:11Z</time>
      </trkpt>
      <trkpt lat="47.10622" lon="5.8095">
        <ele>284</ele>
        <time>2010-08-01T07:57:13Z</time>
      </trkpt>
      <trkpt lat="47.10633" lon="5.80946">
        <ele>284</ele>
        <time>2010-08-01T07:57:15Z</time>
      </trkpt>
      <trkpt lat="47.10643" lon="5.80941">
        <ele>284</ele>
        <time>2010-08-01T07:57:17Z</time>
      </trkpt>
      <trkpt lat="47.10654" lon="5.80936">
        <ele>284</ele>
        <time>2010-08-01T07:57:19Z</time>
      </trkpt>
      <trkpt lat="47.10665" lon="5.80932">
        <ele>284</ele>
        <time>2010-08-01T07:57:21Z</time>
      </trkpt>
      <trkpt lat="47.10676" lon="5.80927">
        <ele>284</ele>
        <time>2010-08-01T07:57:23Z</time>
      </trkpt>
      <trkpt lat="47.10689" lon="5.80923">
        <ele>284</ele>
        <time>2010-08-01T07:57:25Z</time>
      </trkpt>
      <trkpt lat="47.10703" lon="5.8092">
        <ele>284</ele>
        <time>2010-08-01T07:57:27Z</time>
      </trkpt>
      <trkpt lat="47.10716" lon="5.80917">
        <ele>284</ele>
        <time>2010-08-01T07:57:29Z</time>
      </trkpt>
      <trkpt lat="47.1073" lon="5.80915">
        <ele>284</ele>
        <time>2010-08-01T07:57:31Z</time>
      </trkpt>
      <trkpt lat="47.10743" lon="5.80914">
        <ele>284</ele>
        <time>2010-08-01T07:57:33Z</time>
      </trkpt>
      <trkpt lat="47.10755" lon="5.80913">
        <ele>284</ele>
        <time>2010-08-01T07:57:35Z</time>
      </trkpt>
      <trkpt lat="47.10768" lon="5.80912">
        <ele>284</ele>
        <time>2010-08-01T07:57:37Z</time>
      </trkpt>
      <trkpt lat="47.10778" lon="5.80909">
        <ele>284</ele>
        <time>2010-08-01T07:57:39Z</time>
      </trkpt>
      <trkpt lat="47.10789" lon="5.80908">
        <ele>289</ele>
        <time>2010-08-01T07:57:41Z</time>
      </trkpt>
      <trkpt lat="47.10799" lon="5.80907">
        <ele>289</ele>
        <time>2010-08-01T07:57:43Z</time>
      </trkpt>
      <trkpt lat="47.10809" lon="5.80906">
        <ele>289</ele>
        <time>2010-08-01T07:57:45Z</time>
      </trkpt>
      <trkpt lat="47.10819" lon="5.80905">
        <ele>289</ele>
        <time>2010-08-01T07:57:47Z</time>
      </trkpt>
      <trkpt lat="47.10829" lon="5.80904">
        <ele>289</ele>
        <time>2010-08-01T07:57:49Z</time>
      </trkpt>
      <trkpt lat="47.10839" lon="5.80903">
        <ele>289</ele>
        <time>2010-08-01T07:57:51Z</time>
      </trkpt>
      <trkpt lat="47.10849" lon="5.80902">
        <ele>289</ele>
        <time>2010-08-01T07:57:53Z</time>
      </trkpt>
      <trkpt lat="47.10858" lon="5.80903">
        <ele>289</ele>
        <time>2010-08-01T07:57:55Z</time>
      </trkpt>
      <trkpt lat="47.10868" lon="5.80903">
        <ele>289</ele>
        <time>2010-08-01T07:57:57Z</time>
      </trkpt>
      <trkpt lat="47.10879" lon="5.80903">
        <ele>289</ele>
        <time>2010-08-01T07:57:59Z</time>
      </trkpt>
      <trkpt lat="47.10888" lon="5.80904">
        <ele>289</ele>
        <time>2010-08-01T07:58:01Z</time>
      </trkpt>
      <trkpt lat="47.10898" lon="5.80904">
        <ele>289</ele>
        <time>2010-08-01T07:58:03Z</time>
      </trkpt>
      <trkpt lat="47.10908" lon="5.80905">
        <ele>294</ele>
        <time>2010-08-01T07:58:05Z</time>
      </trkpt>
      <trkpt lat="47.10917" lon="5.80906">
        <ele>294</ele>
        <time>2010-08-01T07:58:07Z</time>
      </trkpt>
      <trkpt lat="47.10926" lon="5.80906">
        <ele>294</ele>
        <time>2010-08-01T07:58:09Z</time>
      </trkpt>
      <trkpt lat="47.10935" lon="5.80906">
        <ele>294</ele>
        <time>2010-08-01T07:58:11Z</time>
      </trkpt>
      <trkpt lat="47.10944" lon="5.80906">
        <ele>294</ele>
        <time>2010-08-01T07:58:13Z</time>
      </trkpt>
      <trkpt lat="47.10954" lon="5.80906">
        <ele>294</ele>
        <time>2010-08-01T07:58:15Z</time>
      </trkpt>
      <trkpt lat="47.10963" lon="5.80903">
        <ele>294</ele>
        <time>2010-08-01T07:58:17Z</time>
      </trkpt>
      <trkpt lat="47.10974" lon="5.80894">
        <ele>294</ele>
        <time>2010-08-01T07:58:20Z</time>
      </trkpt>
      <trkpt lat="47.10981" lon="5.80884">
        <ele>294</ele>
        <time>2010-08-01T07:58:22Z</time>
      </trkpt>
      <trkpt lat="47.10987" lon="5.80873">
        <ele>294</ele>
        <time>2010-08-01T07:58:24Z</time>
      </trkpt>
      <trkpt lat="47.10993" lon="5.80861">
        <ele>294</ele>
        <time>2010-08-01T07:58:26Z</time>
      </trkpt>
      <trkpt lat="47.11" lon="5.80848">
        <ele>294</ele>
        <time>2010-08-01T07:58:28Z</time>
      </trkpt>
      <trkpt lat="47.11005" lon="5.80835">
        <ele>299</ele>
        <time>2010-08-01T07:58:30Z</time>
      </trkpt>
      <trkpt lat="47.11011" lon="5.80823">
        <ele>299</ele>
        <time>2010-08-01T07:58:32Z</time>
      </trkpt>
      <trkpt lat="47.11015" lon="5.8081">
        <ele>299</ele>
        <time>2010-08-01T07:58:34Z</time>
      </trkpt>
      <trkpt lat="47.11022" lon="5.80797">
        <ele>299</ele>
        <time>2010-08-01T07:58:36Z</time>
      </trkpt>
      <trkpt lat="47.11028" lon="5.80783">
        <ele>299</ele>
        <time>2010-08-01T07:58:38Z</time>
      </trkpt>
      <trkpt lat="47.11034" lon="5.80771">
        <ele>299</ele>
        <time>2010-08-01T07:58:40Z</time>
      </trkpt>
      <trkpt lat="47.11039" lon="5.80757">
        <ele>299</ele>
        <time>2010-08-01T07:58:42Z</time>
      </trkpt>
      <trkpt lat="47.11045" lon="5.80746">
        <ele>299</ele>
        <time>2010-08-01T07:58:44Z</time>
      </trkpt>
      <trkpt lat="47.11052" lon="5.80734">
        <ele>299</ele>
        <time>2010-08-01T07:58:46Z</time>
      </trkpt>
      <trkpt lat="47.1106" lon="5.80727">
        <ele>299</ele>
        <time>2010-08-01T07:58:48Z</time>
      </trkpt>
      <trkpt lat="47.11069" lon="5.80728">
        <ele>299</ele>
        <time>2010-08-01T07:58:50Z</time>
      </trkpt>
      <trkpt lat="47.11078" lon="5.80734">
        <ele>299</ele>
        <time>2010-08-01T07:58:52Z</time>
      </trkpt>
      <trkpt lat="47.11087" lon="5.80741">
        <ele>299</ele>
        <time>2010-08-01T07:58:54Z</time>
      </trkpt>
      <trkpt lat="47.11095" lon="5.80749">
        <ele>299</ele>
        <time>2010-08-01T07:58:56Z</time>
      </trkpt>
      <trkpt lat="47.11103" lon="5.80756">
        <ele>305</ele>
        <time>2010-08-01T07:58:58Z</time>
      </trkpt>
      <trkpt lat="47.11112" lon="5.80763">
        <ele>305</ele>
        <time>2010-08-01T07:59:00Z</time>
      </trkpt>
      <trkpt lat="47.1112" lon="5.8077">
        <ele>305</ele>
        <time>2010-08-01T07:59:02Z</time>
      </trkpt>
      <trkpt lat="47.1113" lon="5.80775">
        <ele>305</ele>
        <time>2010-08-01T07:59:04Z</time>
      </trkpt>
      <trkpt lat="47.1114" lon="5.80777">
        <ele>305</ele>
        <time>2010-08-01T07:59:06Z</time>
      </trkpt>
      <trkpt lat="47.11151" lon="5.80775">
        <ele>305</ele>
        <time>2010-08-01T07:59:08Z</time>
      </trkpt>
      <trkpt lat="47.11161" lon="5.80772">
        <ele>305</ele>
        <time>2010-08-01T07:59:10Z</time>
      </trkpt>
      <trkpt lat="47.11172" lon="5.80766">
        <ele>305</ele>
        <time>2010-08-01T07:59:12Z</time>
      </trkpt>
      <trkpt lat="47.11183" lon="5.8076">
        <ele>305</ele>
        <time>2010-08-01T07:59:14Z</time>
      </trkpt>
      <trkpt lat="47.11196" lon="5.80753">
        <ele>305</ele>
        <time>2010-08-01T07:59:16Z</time>
      </trkpt>
      <trkpt lat="47.1121" lon="5.80747">
        <ele>305</ele>
        <time>2010-08-01T07:59:18Z</time>
      </trkpt>
      <trkpt lat="47.11226" lon="5.80741">
        <ele>305</ele>
        <time>2010-08-01T07:59:20Z</time>
      </trkpt>
      <trkpt lat="47.11236" lon="5.80739">
        <ele>305</ele>
        <time>2010-08-01T07:59:21Z</time>
      </trkpt>
      <trkpt lat="47.11245" lon="5.80738">
        <ele>305</ele>
        <time>2010-08-01T07:59:22Z</time>
      </trkpt>
      <trkpt lat="47.11254" lon="5.80735">
        <ele>305</ele>
        <time>2010-08-01T07:59:23Z</time>
      </trkpt>
      <trkpt lat="47.11263" lon="5.80732">
        <ele>305</ele>
        <time>2010-08-01T07:59:24Z</time>
      </trkpt>
      <trkpt lat="47.11272" lon="5.80729">
        <ele>305</ele>
        <time>2010-08-01T07:59:25Z</time>
      </trkpt>
      <trkpt lat="47.11282" lon="5.80726">
        <ele>305</ele>
        <time>2010-08-01T07:59:26Z</time>
      </trkpt>
      <trkpt lat="47.1129" lon="5.80721">
        <ele>305</ele>
        <time>2010-08-01T07:59:27Z</time>
      </trkpt>
      <trkpt lat="47.11306" lon="5.80711">
        <ele>305</ele>
        <time>2010-08-01T07:59:29Z</time>
      </trkpt>
      <trkpt lat="47.11321" lon="5.80701">
        <ele>305</ele>
        <time>2010-08-01T07:59:31Z</time>
      </trkpt>
      <trkpt lat="47.11337" lon="5.80691">
        <ele>305</ele>
        <time>2010-08-01T07:59:33Z</time>
      </trkpt>
      <trkpt lat="47.11352" lon="5.8068">
        <ele>305</ele>
        <time>2010-08-01T07:59:35Z</time>
      </trkpt>
      <trkpt lat="47.11367" lon="5.8067">
        <ele>300</ele>
        <time>2010-08-01T07:59:37Z</time>
      </trkpt>
      <trkpt lat="47.11383" lon="5.8066">
        <ele>300</ele>
        <time>2010-08-01T07:59:39Z</time>
      </trkpt>
      <trkpt lat="47.114" lon="5.80649">
        <ele>300</ele>
        <time>2010-08-01T07:59:41Z</time>
      </trkpt>
      <trkpt lat="47.11409" lon="5.80645">
        <ele>300</ele>
        <time>2010-08-01T07:59:42Z</time>
      </trkpt>
      <trkpt lat="47.11418" lon="5.80641">
        <ele>300</ele>
        <time>2010-08-01T07:59:43Z</time>
      </trkpt>
      <trkpt lat="47.11428" lon="5.80636">
        <ele>300</ele>
        <time>2010-08-01T07:59:44Z</time>
      </trkpt>
      <trkpt lat="47.11437" lon="5.80632">
        <ele>300</ele>
        <time>2010-08-01T07:59:45Z</time>
      </trkpt>
      <trkpt lat="47.11447" lon="5.80628">
        <ele>300</ele>
        <time>2010-08-01T07:59:46Z</time>
      </trkpt>
      <trkpt lat="47.11457" lon="5.80623">
        <ele>300</ele>
        <time>2010-08-01T07:59:47Z</time>
      </trkpt>
      <trkpt lat="47.11467" lon="5.80616">
        <ele>294</ele>
        <time>2010-08-01T07:59:48Z</time>
      </trkpt>
      <trkpt lat="47.11476" lon="5.80607">
        <ele>294</ele>
        <time>2010-08-01T07:59:49Z</time>
      </trkpt>
      <trkpt lat="47.11485" lon="5.80596">
        <ele>294</ele>
        <time>2010-08-01T07:59:50Z</time>
      </trkpt>
      <trkpt lat="47.11493" lon="5.80584">
        <ele>294</ele>
        <time>2010-08-01T07:59:51Z</time>
      </trkpt>
      <trkpt lat="47.11499" lon="5.8057">
        <ele>294</ele>
        <time>2010-08-01T07:59:52Z</time>
      </trkpt>
      <trkpt lat="47.11505" lon="5.80556">
        <ele>294</ele>
        <time>2010-08-01T07:59:53Z</time>
      </trkpt>
      <trkpt lat="47.11511" lon="5.80541">
        <ele>294</ele>
        <time>2010-08-01T07:59:54Z</time>
      </trkpt>
      <trkpt lat="47.11516" lon="5.80526">
        <ele>294</ele>
        <time>2010-08-01T07:59:55Z</time>
      </trkpt>
      <trkpt lat="47.1152" lon="5.8051">
        <ele>288</ele>
        <time>2010-08-01T07:59:56Z</time>
      </trkpt>
      <trkpt lat="47.11524" lon="5.80496">
        <ele>288</ele>
        <time>2010-08-01T07:59:57Z</time>
      </trkpt>
      <trkpt lat="47.11526" lon="5.80482">
        <ele>288</ele>
        <time>2010-08-01T07:59:58Z</time>
      </trkpt>
      <trkpt lat="47.11531" lon="5.80458">
        <ele>288</ele>
        <time>2010-08-01T08:00:00Z</time>
      </trkpt>
      <trkpt lat="47.11534" lon="5.80437">
        <ele>288</ele>
        <time>2010-08-01T08:00:02Z</time>
      </trkpt>
      <trkpt lat="47.1154" lon="5.80419">
        <ele>288</ele>
        <time>2010-08-01T08:00:04Z</time>
      </trkpt>
      <trkpt lat="47.11547" lon="5.804">
        <ele>288</ele>
        <time>2010-08-01T08:00:06Z</time>
      </trkpt>
      <trkpt lat="47.11555" lon="5.80384">
        <ele>288</ele>
        <time>2010-08-01T08:00:08Z</time>
      </trkpt>
      <trkpt lat="47.11564" lon="5.80368">
        <ele>288</ele>
        <time>2010-08-01T08:00:10Z</time>
      </trkpt>
      <trkpt lat="47.11572" lon="5.80355">
        <ele>294</ele>
        <time>2010-08-01T08:00:12Z</time>
      </trkpt>
      <trkpt lat="47.11583" lon="5.80342">
        <ele>294</ele>
        <time>2010-08-01T08:00:14Z</time>
      </trkpt>
      <trkpt lat="47.11597" lon="5.80331">
        <ele>294</ele>
        <time>2010-08-01T08:00:16Z</time>
      </trkpt>
      <trkpt lat="47.11613" lon="5.80321">
        <ele>294</ele>
        <time>2010-08-01T08:00:18Z</time>
      </trkpt>
      <trkpt lat="47.1163" lon="5.80314">
        <ele>294</ele>
        <time>2010-08-01T08:00:20Z</time>
      </trkpt>
      <trkpt lat="47.11639" lon="5.80312">
        <ele>294</ele>
        <time>2010-08-01T08:00:21Z</time>
      </trkpt>
      <trkpt lat="47.11648" lon="5.8031">
        <ele>294</ele>
        <time>2010-08-01T08:00:22Z</time>
      </trkpt>
      <trkpt lat="47.11658" lon="5.80308">
        <ele>294</ele>
        <time>2010-08-01T08:00:23Z</time>
      </trkpt>
      <trkpt lat="47.11667" lon="5.80306">
        <ele>294</ele>
        <time>2010-08-01T08:00:24Z</time>
      </trkpt>
      <trkpt lat="47.11676" lon="5.80305">
        <ele>294</ele>
        <time>2010-08-01T08:00:25Z</time>
      </trkpt>
      <trkpt lat="47.11685" lon="5.80303">
        <ele>294</ele>
        <time>2010-08-01T08:00:26Z</time>
      </trkpt>
      <trkpt lat="47.11702" lon="5.80299">
        <ele>294</ele>
        <time>2010-08-01T08:00:28Z</time>
      </trkpt>
      <trkpt lat="47.11718" lon="5.80296">
        <ele>294</ele>
        <time>2010-08-01T08:00:30Z</time>
      </trkpt>
      <trkpt lat="47.11734" lon="5.80293">
        <ele>294</ele>
        <time>2010-08-01T08:00:32Z</time>
      </trkpt>
      <trkpt lat="47.11749" lon="5.80289">
        <ele>294</ele>
        <time>2010-08-01T08:00:34Z</time>
      </trkpt>
      <trkpt lat="47.11764" lon="5.80287">
        <ele>294</ele>
        <time>2010-08-01T08:00:36Z</time>
      </trkpt>
      <trkpt lat="47.1178" lon="5.80284">
        <ele>294</ele>
        <time>2010-08-01T08:00:38Z</time>
      </trkpt>
      <trkpt lat="47.11795" lon="5.80281">
        <ele>294</ele>
        <time>2010-08-01T08:00:40Z</time>
      </trkpt>
      <trkpt lat="47.11811" lon="5.80278">
        <ele>294</ele>
        <time>2010-08-01T08:00:42Z</time>
      </trkpt>
      <trkpt lat="47.11826" lon="5.80275">
        <ele>294</ele>
        <time>2010-08-01T08:00:44Z</time>
      </trkpt>
      <trkpt lat="47.11841" lon="5.80271">
        <ele>294</ele>
        <time>2010-08-01T08:00:46Z</time>
      </trkpt>
      <trkpt lat="47.11856" lon="5.80269">
        <ele>294</ele>
        <time>2010-08-01T08:00:48Z</time>
      </trkpt>
      <trkpt lat="47.11871" lon="5.80267">
        <ele>294</ele>
        <time>2010-08-01T08:00:50Z</time>
      </trkpt>
      <trkpt lat="47.11886" lon="5.80265">
        <ele>294</ele>
        <time>2010-08-01T08:00:52Z</time>
      </trkpt>
      <trkpt lat="47.11901" lon="5.80263">
        <ele>294</ele>
        <time>2010-08-01T08:00:54Z</time>
      </trkpt>
      <trkpt lat="47.11915" lon="5.80262">
        <ele>294</ele>
        <time>2010-08-01T08:00:56Z</time>
      </trkpt>
      <trkpt lat="47.11929" lon="5.80261">
        <ele>294</ele>
        <time>2010-08-01T08:00:58Z</time>
      </trkpt>
      <trkpt lat="47.11944" lon="5.8026">
        <ele>294</ele>
        <time>2010-08-01T08:01:00Z</time>
      </trkpt>
      <trkpt lat="47.11959" lon="5.80259">
        <ele>294</ele>
        <time>2010-08-01T08:01:02Z</time>
      </trkpt>
      <trkpt lat="47.11973" lon="5.80258">
        <ele>294</ele>
        <time>2010-08-01T08:01:04Z</time>
      </trkpt>
      <trkpt lat="47.11989" lon="5.80257">
        <ele>294</ele>
        <time>2010-08-01T08:01:06Z</time>
      </trkpt>
      <trkpt lat="47.12006" lon="5.80255">
        <ele>294</ele>
        <time>2010-08-01T08:01:08Z</time>
      </trkpt>
      <trkpt lat="47.12023" lon="5.80253">
        <ele>294</ele>
        <time>2010-08-01T08:01:10Z</time>
      </trkpt>
      <trkpt lat="47.12032" lon="5.80252">
        <ele>294</ele>
        <time>2010-08-01T08:01:11Z</time>
      </trkpt>
      <trkpt lat="47.1205" lon="5.80252">
        <ele>294</ele>
        <time>2010-08-01T08:01:13Z</time>
      </trkpt>
      <trkpt lat="47.12059" lon="5.80252">
        <ele>294</ele>
        <time>2010-08-01T08:01:14Z</time>
      </trkpt>
      <trkpt lat="47.12069" lon="5.80251">
        <ele>294</ele>
        <time>2010-08-01T08:01:15Z</time>
      </trkpt>
      <trkpt lat="47.12079" lon="5.80251">
        <ele>294</ele>
        <time>2010-08-01T08:01:16Z</time>
      </trkpt>
      <trkpt lat="47.12089" lon="5.80251">
        <ele>294</ele>
        <time>2010-08-01T08:01:17Z</time>
      </trkpt>
      <trkpt lat="47.12099" lon="5.80252">
        <ele>294</ele>
        <time>2010-08-01T08:01:18Z</time>
      </trkpt>
      <trkpt lat="47.12109" lon="5.80253">
        <ele>294</ele>
        <time>2010-08-01T08:01:19Z</time>
      </trkpt>
      <trkpt lat="47.1212" lon="5.80255">
        <ele>294</ele>
        <time>2010-08-01T08:01:20Z</time>
      </trkpt>
      <trkpt lat="47.1213" lon="5.80258">
        <ele>294</ele>
        <time>2010-08-01T08:01:21Z</time>
      </trkpt>
      <trkpt lat="47.12142" lon="5.8026">
        <ele>294</ele>
        <time>2010-08-01T08:01:22Z</time>
      </trkpt>
      <trkpt lat="47.12153" lon="5.80261">
        <ele>294</ele>
        <time>2010-08-01T08:01:23Z</time>
      </trkpt>
      <trkpt lat="47.12165" lon="5.80262">
        <ele>288</ele>
        <time>2010-08-01T08:01:24Z</time>
      </trkpt>
      <trkpt lat="47.12176" lon="5.80262">
        <ele>288</ele>
        <time>2010-08-01T08:01:25Z</time>
      </trkpt>
      <trkpt lat="47.12187" lon="5.80261">
        <ele>288</ele>
        <time>2010-08-01T08:01:26Z</time>
      </trkpt>
      <trkpt lat="47.12198" lon="5.80261">
        <ele>288</ele>
        <time>2010-08-01T08:01:27Z</time>
      </trkpt>
      <trkpt lat="47.12209" lon="5.80261">
        <ele>288</ele>
        <time>2010-08-01T08:01:28Z</time>
      </trkpt>
      <trkpt lat="47.1222" lon="5.80261">
        <ele>288</ele>
        <time>2010-08-01T08:01:29Z</time>
      </trkpt>
      <trkpt lat="47.12231" lon="5.8026">
        <ele>288</ele>
        <time>2010-08-01T08:01:30Z</time>
      </trkpt>
      <trkpt lat="47.12243" lon="5.80258">
        <ele>288</ele>
        <time>2010-08-01T08:01:31Z</time>
      </trkpt>
      <trkpt lat="47.12254" lon="5.80256">
        <ele>288</ele>
        <time>2010-08-01T08:01:32Z</time>
      </trkpt>
      <trkpt lat="47.12265" lon="5.80254">
        <ele>288</ele>
        <time>2010-08-01T08:01:33Z</time>
      </trkpt>
      <trkpt lat="47.12276" lon="5.80252">
        <ele>283</ele>
        <time>2010-08-01T08:01:34Z</time>
      </trkpt>
      <trkpt lat="47.12287" lon="5.80248">
        <ele>283</ele>
        <time>2010-08-01T08:01:35Z</time>
      </trkpt>
      <trkpt lat="47.12298" lon="5.80243">
        <ele>283</ele>
        <time>2010-08-01T08:01:36Z</time>
      </trkpt>
      <trkpt lat="47.12308" lon="5.80238">
        <ele>283</ele>
        <time>2010-08-01T08:01:37Z</time>
      </trkpt>
      <trkpt lat="47.12319" lon="5.80232">
        <ele>283</ele>
        <time>2010-08-01T08:01:38Z</time>
      </trkpt>
      <trkpt lat="47.1233" lon="5.80225">
        <ele>283</ele>
        <time>2010-08-01T08:01:39Z</time>
      </trkpt>
      <trkpt lat="47.12342" lon="5.80221">
        <ele>283</ele>
        <time>2010-08-01T08:01:40Z</time>
      </trkpt>
      <trkpt lat="47.12353" lon="5.80218">
        <ele>277</ele>
        <time>2010-08-01T08:01:41Z</time>
      </trkpt>
      <trkpt lat="47.12366" lon="5.80217">
        <ele>277</ele>
        <time>2010-08-01T08:01:42Z</time>
      </trkpt>
      <trkpt lat="47.12379" lon="5.80217">
        <ele>277</ele>
        <time>2010-08-01T08:01:43Z</time>
      </trkpt>
      <trkpt lat="47.12392" lon="5.80217">
        <ele>277</ele>
        <time>2010-08-01T08:01:44Z</time>
      </trkpt>
      <trkpt lat="47.12404" lon="5.80217">
        <ele>277</ele>
        <time>2010-08-01T08:01:45Z</time>
      </trkpt>
      <trkpt lat="47.12417" lon="5.80215">
        <ele>277</ele>
        <time>2010-08-01T08:01:46Z</time>
      </trkpt>
      <trkpt lat="47.1243" lon="5.80211">
        <ele>277</ele>
        <time>2010-08-01T08:01:47Z</time>
      </trkpt>
      <trkpt lat="47.12443" lon="5.80206">
        <ele>271</ele>
        <time>2010-08-01T08:01:48Z</time>
      </trkpt>
      <trkpt lat="47.12455" lon="5.80199">
        <ele>271</ele>
        <time>2010-08-01T08:01:49Z</time>
      </trkpt>
      <trkpt lat="47.12466" lon="5.80191">
        <ele>271</ele>
        <time>2010-08-01T08:01:50Z</time>
      </trkpt>
      <trkpt lat="47.12477" lon="5.80182">
        <ele>271</ele>
        <time>2010-08-01T08:01:51Z</time>
      </trkpt>
      <trkpt lat="47.12488" lon="5.80175">
        <ele>271</ele>
        <time>2010-08-01T08:01:52Z</time>
      </trkpt>
      <trkpt lat="47.12499" lon="5.80169">
        <ele>271</ele>
        <time>2010-08-01T08:01:53Z</time>
      </trkpt>
      <trkpt lat="47.1251" lon="5.80164">
        <ele>271</ele>
        <time>2010-08-01T08:01:54Z</time>
      </trkpt>
      <trkpt lat="47.12523" lon="5.80163">
        <ele>271</ele>
        <time>2010-08-01T08:01:55Z</time>
      </trkpt>
      <trkpt lat="47.12534" lon="5.80164">
        <ele>271</ele>
        <time>2010-08-01T08:01:56Z</time>
      </trkpt>
      <trkpt lat="47.12546" lon="5.80165">
        <ele>271</ele>
        <time>2010-08-01T08:01:57Z</time>
      </trkpt>
      <trkpt lat="47.12558" lon="5.80169">
        <ele>271</ele>
        <time>2010-08-01T08:01:58Z</time>
      </trkpt>
      <trkpt lat="47.12568" lon="5.80174">
        <ele>271</ele>
        <time>2010-08-01T08:01:59Z</time>
      </trkpt>
      <trkpt lat="47.12579" lon="5.80181">
        <ele>271</ele>
        <time>2010-08-01T08:02:00Z</time>
      </trkpt>
      <trkpt lat="47.12588" lon="5.80187">
        <ele>271</ele>
        <time>2010-08-01T08:02:01Z</time>
      </trkpt>
      <trkpt lat="47.12597" lon="5.80194">
        <ele>271</ele>
        <time>2010-08-01T08:02:02Z</time>
      </trkpt>
      <trkpt lat="47.12605" lon="5.80202">
        <ele>271</ele>
        <time>2010-08-01T08:02:03Z</time>
      </trkpt>
      <trkpt lat="47.12613" lon="5.80209">
        <ele>271</ele>
        <time>2010-08-01T08:02:04Z</time>
      </trkpt>
      <trkpt lat="47.12621" lon="5.80217">
        <ele>271</ele>
        <time>2010-08-01T08:02:05Z</time>
      </trkpt>
      <trkpt lat="47.12628" lon="5.80226">
        <ele>271</ele>
        <time>2010-08-01T08:02:06Z</time>
      </trkpt>
      <trkpt lat="47.12641" lon="5.80243">
        <ele>271</ele>
        <time>2010-08-01T08:02:08Z</time>
      </trkpt>
      <trkpt lat="47.12653" lon="5.80261">
        <ele>271</ele>
        <time>2010-08-01T08:02:10Z</time>
      </trkpt>
      <trkpt lat="47.12666" lon="5.80277">
        <ele>271</ele>
        <time>2010-08-01T08:02:12Z</time>
      </trkpt>
      <trkpt lat="47.12678" lon="5.80291">
        <ele>271</ele>
        <time>2010-08-01T08:02:14Z</time>
      </trkpt>
      <trkpt lat="47.12691" lon="5.80305">
        <ele>271</ele>
        <time>2010-08-01T08:02:16Z</time>
      </trkpt>
      <trkpt lat="47.12704" lon="5.80318">
        <ele>271</ele>
        <time>2010-08-01T08:02:18Z</time>
      </trkpt>
      <trkpt lat="47.12717" lon="5.8033">
        <ele>271</ele>
        <time>2010-08-01T08:02:20Z</time>
      </trkpt>
      <trkpt lat="47.12731" lon="5.80339">
        <ele>271</ele>
        <time>2010-08-01T08:02:22Z</time>
      </trkpt>
      <trkpt lat="47.12745" lon="5.8034">
        <ele>271</ele>
        <time>2010-08-01T08:02:24Z</time>
      </trkpt>
      <trkpt lat="47.12761" lon="5.80337">
        <ele>271</ele>
        <time>2010-08-01T08:02:26Z</time>
      </trkpt>
      <trkpt lat="47.12778" lon="5.80339">
        <ele>271</ele>
        <time>2010-08-01T08:02:28Z</time>
      </trkpt>
      <trkpt lat="47.12787" lon="5.80343">
        <ele>271</ele>
        <time>2010-08-01T08:02:29Z</time>
      </trkpt>
      <trkpt lat="47.12802" lon="5.80354">
        <ele>271</ele>
        <time>2010-08-01T08:02:31Z</time>
      </trkpt>
      <trkpt lat="47.12819" lon="5.80362">
        <ele>271</ele>
        <time>2010-08-01T08:02:33Z</time>
      </trkpt>
      <trkpt lat="47.12836" lon="5.80363">
        <ele>271</ele>
        <time>2010-08-01T08:02:35Z</time>
      </trkpt>
      <trkpt lat="47.12845" lon="5.80363">
        <ele>271</ele>
        <time>2010-08-01T08:02:36Z</time>
      </trkpt>
      <trkpt lat="47.12863" lon="5.80365">
        <ele>271</ele>
        <time>2010-08-01T08:02:38Z</time>
      </trkpt>
      <trkpt lat="47.12872" lon="5.80367">
        <ele>271</ele>
        <time>2010-08-01T08:02:39Z</time>
      </trkpt>
      <trkpt lat="47.12881" lon="5.80371">
        <ele>271</ele>
        <time>2010-08-01T08:02:40Z</time>
      </trkpt>
      <trkpt lat="47.12898" lon="5.80376">
        <ele>271</ele>
        <time>2010-08-01T08:02:42Z</time>
      </trkpt>
      <trkpt lat="47.12913" lon="5.8038">
        <ele>271</ele>
        <time>2010-08-01T08:02:44Z</time>
      </trkpt>
      <trkpt lat="47.12926" lon="5.80384">
        <ele>271</ele>
        <time>2010-08-01T08:02:46Z</time>
      </trkpt>
      <trkpt lat="47.12934" lon="5.80389">
        <ele>271</ele>
        <time>2010-08-01T08:02:48Z</time>
      </trkpt>
      <trkpt lat="47.12939" lon="5.80401">
        <ele>271</ele>
        <time>2010-08-01T08:03:00Z</time>
      </trkpt>
      <trkpt lat="47.1294" lon="5.80387">
        <ele>266</ele>
        <time>2010-08-01T08:05:23Z</time>
      </trkpt>
      <trkpt lat="47.12946" lon="5.80373">
        <ele>266</ele>
        <time>2010-08-01T08:05:26Z</time>
      </trkpt>
      <trkpt lat="47.12955" lon="5.80358">
        <ele>266</ele>
        <time>2010-08-01T08:05:29Z</time>
      </trkpt>
      <trkpt lat="47.12962" lon="5.80345">
        <ele>266</ele>
        <time>2010-08-01T08:05:31Z</time>
      </trkpt>
      <trkpt lat="47.12969" lon="5.80332">
        <ele>266</ele>
        <time>2010-08-01T08:05:33Z</time>
      </trkpt>
      <trkpt lat="47.12977" lon="5.8032">
        <ele>266</ele>
        <time>2010-08-01T08:05:35Z</time>
      </trkpt>
      <trkpt lat="47.12986" lon="5.8031">
        <ele>271</ele>
        <time>2010-08-01T08:05:37Z</time>
      </trkpt>
      <trkpt lat="47.12994" lon="5.803">
        <ele>271</ele>
        <time>2010-08-01T08:05:39Z</time>
      </trkpt>
      <trkpt lat="47.13004" lon="5.80292">
        <ele>271</ele>
        <time>2010-08-01T08:05:41Z</time>
      </trkpt>
      <trkpt lat="47.13014" lon="5.80287">
        <ele>271</ele>
        <time>2010-08-01T08:05:43Z</time>
      </trkpt>
      <trkpt lat="47.13024" lon="5.80284">
        <ele>271</ele>
        <time>2010-08-01T08:05:45Z</time>
      </trkpt>
      <trkpt lat="47.13034" lon="5.80281">
        <ele>271</ele>
        <time>2010-08-01T08:05:47Z</time>
      </trkpt>
      <trkpt lat="47.13044" lon="5.80278">
        <ele>271</ele>
        <time>2010-08-01T08:05:49Z</time>
      </trkpt>
      <trkpt lat="47.13057" lon="5.80273">
        <ele>277</ele>
        <time>2010-08-01T08:05:52Z</time>
      </trkpt>
      <trkpt lat="47.1307" lon="5.80269">
        <ele>277</ele>
        <time>2010-08-01T08:05:55Z</time>
      </trkpt>
      <trkpt lat="47.13083" lon="5.80265">
        <ele>283</ele>
        <time>2010-08-01T08:05:58Z</time>
      </trkpt>
      <trkpt lat="47.13092" lon="5.80261">
        <ele>283</ele>
        <time>2010-08-01T08:06:00Z</time>
      </trkpt>
      <trkpt lat="47.13104" lon="5.80252">
        <ele>283</ele>
        <time>2010-08-01T08:06:03Z</time>
      </trkpt>
      <trkpt lat="47.13112" lon="5.80245">
        <ele>283</ele>
        <time>2010-08-01T08:06:05Z</time>
      </trkpt>
      <trkpt lat="47.1312" lon="5.80238">
        <ele>283</ele>
        <time>2010-08-01T08:06:07Z</time>
      </trkpt>
      <trkpt lat="47.13131" lon="5.80227">
        <ele>283</ele>
        <time>2010-08-01T08:06:10Z</time>
      </trkpt>
      <trkpt lat="47.1314" lon="5.80215">
        <ele>283</ele>
        <time>2010-08-01T08:06:13Z</time>
      </trkpt>
      <trkpt lat="47.13149" lon="5.80203">
        <ele>283</ele>
        <time>2010-08-01T08:06:16Z</time>
      </trkpt>
      <trkpt lat="47.13159" lon="5.80192">
        <ele>283</ele>
        <time>2010-08-01T08:06:19Z</time>
      </trkpt>
      <trkpt lat="47.13169" lon="5.80181">
        <ele>283</ele>
        <time>2010-08-01T08:06:22Z</time>
      </trkpt>
      <trkpt lat="47.13178" lon="5.80171">
        <ele>288</ele>
        <time>2010-08-01T08:06:25Z</time>
      </trkpt>
      <trkpt lat="47.13187" lon="5.8016">
        <ele>288</ele>
        <time>2010-08-01T08:06:28Z</time>
      </trkpt>
      <trkpt lat="47.13195" lon="5.80148">
        <ele>288</ele>
        <time>2010-08-01T08:06:31Z</time>
      </trkpt>
      <trkpt lat="47.13204" lon="5.80137">
        <ele>288</ele>
        <time>2010-08-01T08:06:34Z</time>
      </trkpt>
      <trkpt lat="47.13212" lon="5.80125">
        <ele>294</ele>
        <time>2010-08-01T08:06:37Z</time>
      </trkpt>
      <trkpt lat="47.13219" lon="5.80112">
        <ele>294</ele>
        <time>2010-08-01T08:06:40Z</time>
      </trkpt>
      <trkpt lat="47.13227" lon="5.80099">
        <ele>294</ele>
        <time>2010-08-01T08:06:43Z</time>
      </trkpt>
      <trkpt lat="47.13233" lon="5.80088">
        <ele>294</ele>
        <time>2010-08-01T08:06:45Z</time>
      </trkpt>
      <trkpt lat="47.13239" lon="5.80074">
        <ele>294</ele>
        <time>2010-08-01T08:06:48Z</time>
      </trkpt>
      <trkpt lat="47.13247" lon="5.80058">
        <ele>300</ele>
        <time>2010-08-01T08:06:51Z</time>
      </trkpt>
      <trkpt lat="47.13252" lon="5.80048">
        <ele>300</ele>
        <time>2010-08-01T08:06:53Z</time>
      </trkpt>
      <trkpt lat="47.13258" lon="5.80036">
        <ele>300</ele>
        <time>2010-08-01T08:06:55Z</time>
      </trkpt>
      <trkpt lat="47.13265" lon="5.80022">
        <ele>300</ele>
        <time>2010-08-01T08:06:57Z</time>
      </trkpt>
      <trkpt lat="47.13271" lon="5.80008">
        <ele>300</ele>
        <time>2010-08-01T08:06:59Z</time>
      </trkpt>
      <trkpt lat="47.13277" lon="5.79993">
        <ele>300</ele>
        <time>2010-08-01T08:07:01Z</time>
      </trkpt>
      <trkpt lat="47.13285" lon="5.79977">
        <ele>300</ele>
        <time>2010-08-01T08:07:03Z</time>
      </trkpt>
      <trkpt lat="47.13293" lon="5.7996">
        <ele>300</ele>
        <time>2010-08-01T08:07:05Z</time>
      </trkpt>
      <trkpt lat="47.13302" lon="5.79943">
        <ele>300</ele>
        <time>2010-08-01T08:07:07Z</time>
      </trkpt>
      <trkpt lat="47.13311" lon="5.79925">
        <ele>300</ele>
        <time>2010-08-01T08:07:09Z</time>
      </trkpt>
      <trkpt lat="47.13319" lon="5.79907">
        <ele>300</ele>
        <time>2010-08-01T08:07:11Z</time>
      </trkpt>
      <trkpt lat="47.13329" lon="5.79889">
        <ele>300</ele>
        <time>2010-08-01T08:07:13Z</time>
      </trkpt>
      <trkpt lat="47.13337" lon="5.7987">
        <ele>300</ele>
        <time>2010-08-01T08:07:15Z</time>
      </trkpt>
      <trkpt lat="47.13347" lon="5.79852">
        <ele>300</ele>
        <time>2010-08-01T08:07:17Z</time>
      </trkpt>
      <trkpt lat="47.13356" lon="5.79832">
        <ele>295</ele>
        <time>2010-08-01T08:07:19Z</time>
      </trkpt>
      <trkpt lat="47.13365" lon="5.79813">
        <ele>295</ele>
        <time>2010-08-01T08:07:21Z</time>
      </trkpt>
      <trkpt lat="47.13374" lon="5.79793">
        <ele>295</ele>
        <time>2010-08-01T08:07:23Z</time>
      </trkpt>
      <trkpt lat="47.13382" lon="5.79774">
        <ele>295</ele>
        <time>2010-08-01T08:07:25Z</time>
      </trkpt>
      <trkpt lat="47.13389" lon="5.79755">
        <ele>295</ele>
        <time>2010-08-01T08:07:27Z</time>
      </trkpt>
      <trkpt lat="47.13398" lon="5.79737">
        <ele>295</ele>
        <time>2010-08-01T08:07:29Z</time>
      </trkpt>
      <trkpt lat="47.13407" lon="5.79718">
        <ele>295</ele>
        <time>2010-08-01T08:07:31Z</time>
      </trkpt>
      <trkpt lat="47.13417" lon="5.797">
        <ele>295</ele>
        <time>2010-08-01T08:07:33Z</time>
      </trkpt>
      <trkpt lat="47.13429" lon="5.79681">
        <ele>295</ele>
        <time>2010-08-01T08:07:35Z</time>
      </trkpt>
      <trkpt lat="47.13443" lon="5.79663">
        <ele>295</ele>
        <time>2010-08-01T08:07:37Z</time>
      </trkpt>
      <trkpt lat="47.1345" lon="5.79654">
        <ele>288</ele>
        <time>2010-08-01T08:07:38Z</time>
      </trkpt>
      <trkpt lat="47.13457" lon="5.79644">
        <ele>288</ele>
        <time>2010-08-01T08:07:39Z</time>
      </trkpt>
      <trkpt lat="47.13465" lon="5.79633">
        <ele>288</ele>
        <time>2010-08-01T08:07:40Z</time>
      </trkpt>
      <trkpt lat="47.13473" lon="5.79623">
        <ele>288</ele>
        <time>2010-08-01T08:07:41Z</time>
      </trkpt>
      <trkpt lat="47.13482" lon="5.79612">
        <ele>288</ele>
        <time>2010-08-01T08:07:42Z</time>
      </trkpt>
      <trkpt lat="47.1349" lon="5.79602">
        <ele>283</ele>
        <time>2010-08-01T08:07:43Z</time>
      </trkpt>
      <trkpt lat="47.13497" lon="5.79592">
        <ele>283</ele>
        <time>2010-08-01T08:07:44Z</time>
      </trkpt>
      <trkpt lat="47.13505" lon="5.79581">
        <ele>283</ele>
        <time>2010-08-01T08:07:45Z</time>
      </trkpt>
      <trkpt lat="47.13513" lon="5.79571">
        <ele>283</ele>
        <time>2010-08-01T08:07:46Z</time>
      </trkpt>
      <trkpt lat="47.13521" lon="5.79559">
        <ele>283</ele>
        <time>2010-08-01T08:07:47Z</time>
      </trkpt>
      <trkpt lat="47.1353" lon="5.79548">
        <ele>283</ele>
        <time>2010-08-01T08:07:48Z</time>
      </trkpt>
      <trkpt lat="47.13539" lon="5.79536">
        <ele>283</ele>
        <time>2010-08-01T08:07:49Z</time>
      </trkpt>
      <trkpt lat="47.13547" lon="5.79525">
        <ele>283</ele>
        <time>2010-08-01T08:07:50Z</time>
      </trkpt>
      <trkpt lat="47.13556" lon="5.79515">
        <ele>277</ele>
        <time>2010-08-01T08:07:51Z</time>
      </trkpt>
      <trkpt lat="47.13564" lon="5.79503">
        <ele>277</ele>
        <time>2010-08-01T08:07:52Z</time>
      </trkpt>
      <trkpt lat="47.13573" lon="5.79492">
        <ele>277</ele>
        <time>2010-08-01T08:07:53Z</time>
      </trkpt>
      <trkpt lat="47.13581" lon="5.79481">
        <ele>277</ele>
        <time>2010-08-01T08:07:54Z</time>
      </trkpt>
      <trkpt lat="47.13588" lon="5.79469">
        <ele>277</ele>
        <time>2010-08-01T08:07:55Z</time>
      </trkpt>
      <trkpt lat="47.13594" lon="5.79456">
        <ele>277</ele>
        <time>2010-08-01T08:07:56Z</time>
      </trkpt>
      <trkpt lat="47.13599" lon="5.79442">
        <ele>272</ele>
        <time>2010-08-01T08:07:57Z</time>
      </trkpt>
      <trkpt lat="47.13604" lon="5.79428">
        <ele>272</ele>
        <time>2010-08-01T08:07:58Z</time>
      </trkpt>
      <trkpt lat="47.13608" lon="5.79413">
        <ele>272</ele>
        <time>2010-08-01T08:07:59Z</time>
      </trkpt>
      <trkpt lat="47.13613" lon="5.79398">
        <ele>272</ele>
        <time>2010-08-01T08:08:00Z</time>
      </trkpt>
      <trkpt lat="47.13618" lon="5.79383">
        <ele>272</ele>
        <time>2010-08-01T08:08:01Z</time>
      </trkpt>
      <trkpt lat="47.13622" lon="5.79368">
        <ele>267</ele>
        <time>2010-08-01T08:08:02Z</time>
      </trkpt>
      <trkpt lat="47.13626" lon="5.79352">
        <ele>267</ele>
        <time>2010-08-01T08:08:03Z</time>
      </trkpt>
      <trkpt lat="47.13629" lon="5.79338">
        <ele>267</ele>
        <time>2010-08-01T08:08:04Z</time>
      </trkpt>
      <trkpt lat="47.13634" lon="5.79324">
        <ele>267</ele>
        <time>2010-08-01T08:08:05Z</time>
      </trkpt>
      <trkpt lat="47.13637" lon="5.79309">
        <ele>267</ele>
        <time>2010-08-01T08:08:06Z</time>
      </trkpt>
      <trkpt lat="47.13642" lon="5.79295">
        <ele>267</ele>
        <time>2010-08-01T08:08:07Z</time>
      </trkpt>
      <trkpt lat="47.13646" lon="5.7928">
        <ele>267</ele>
        <time>2010-08-01T08:08:08Z</time>
      </trkpt>
      <trkpt lat="47.1365" lon="5.79266">
        <ele>267</ele>
        <time>2010-08-01T08:08:09Z</time>
      </trkpt>
      <trkpt lat="47.13654" lon="5.79253">
        <ele>267</ele>
        <time>2010-08-01T08:08:10Z</time>
      </trkpt>
      <trkpt lat="47.13657" lon="5.79238">
        <ele>267</ele>
        <time>2010-08-01T08:08:11Z</time>
      </trkpt>
      <trkpt lat="47.13661" lon="5.79224">
        <ele>273</ele>
        <time>2010-08-01T08:08:12Z</time>
      </trkpt>
      <trkpt lat="47.13665" lon="5.79211">
        <ele>273</ele>
        <time>2010-08-01T08:08:13Z</time>
      </trkpt>
      <trkpt lat="47.1367" lon="5.79197">
        <ele>273</ele>
        <time>2010-08-01T08:08:14Z</time>
      </trkpt>
      <trkpt lat="47.13675" lon="5.79183">
        <ele>273</ele>
        <time>2010-08-01T08:08:15Z</time>
      </trkpt>
      <trkpt lat="47.13679" lon="5.79171">
        <ele>273</ele>
        <time>2010-08-01T08:08:16Z</time>
      </trkpt>
      <trkpt lat="47.13684" lon="5.79158">
        <ele>273</ele>
        <time>2010-08-01T08:08:17Z</time>
      </trkpt>
      <trkpt lat="47.13689" lon="5.79145">
        <ele>273</ele>
        <time>2010-08-01T08:08:18Z</time>
      </trkpt>
      <trkpt lat="47.13694" lon="5.79131">
        <ele>273</ele>
        <time>2010-08-01T08:08:19Z</time>
      </trkpt>
      <trkpt lat="47.137" lon="5.79121">
        <ele>273</ele>
        <time>2010-08-01T08:08:20Z</time>
      </trkpt>
      <trkpt lat="47.13706" lon="5.79109">
        <ele>273</ele>
        <time>2010-08-01T08:08:21Z</time>
      </trkpt>
      <trkpt lat="47.13711" lon="5.79096">
        <ele>273</ele>
        <time>2010-08-01T08:08:22Z</time>
      </trkpt>
      <trkpt lat="47.13716" lon="5.79084">
        <ele>273</ele>
        <time>2010-08-01T08:08:23Z</time>
      </trkpt>
      <trkpt lat="47.13721" lon="5.79071">
        <ele>273</ele>
        <time>2010-08-01T08:08:24Z</time>
      </trkpt>
      <trkpt lat="47.13727" lon="5.79059">
        <ele>273</ele>
        <time>2010-08-01T08:08:25Z</time>
      </trkpt>
      <trkpt lat="47.13732" lon="5.79047">
        <ele>273</ele>
        <time>2010-08-01T08:08:26Z</time>
      </trkpt>
      <trkpt lat="47.13738" lon="5.79034">
        <ele>273</ele>
        <time>2010-08-01T08:08:27Z</time>
      </trkpt>
      <trkpt lat="47.13744" lon="5.79021">
        <ele>273</ele>
        <time>2010-08-01T08:08:28Z</time>
      </trkpt>
      <trkpt lat="47.13749" lon="5.79008">
        <ele>273</ele>
        <time>2010-08-01T08:08:29Z</time>
      </trkpt>
      <trkpt lat="47.13755" lon="5.78996">
        <ele>273</ele>
        <time>2010-08-01T08:08:30Z</time>
      </trkpt>
      <trkpt lat="47.1376" lon="5.78982">
        <ele>273</ele>
        <time>2010-08-01T08:08:31Z</time>
      </trkpt>
      <trkpt lat="47.13766" lon="5.78971">
        <ele>267</ele>
        <time>2010-08-01T08:08:32Z</time>
      </trkpt>
      <trkpt lat="47.13771" lon="5.78959">
        <ele>267</ele>
        <time>2010-08-01T08:08:33Z</time>
      </trkpt>
      <trkpt lat="47.13777" lon="5.78946">
        <ele>267</ele>
        <time>2010-08-01T08:08:34Z</time>
      </trkpt>
      <trkpt lat="47.13783" lon="5.78934">
        <ele>267</ele>
        <time>2010-08-01T08:08:35Z</time>
      </trkpt>
      <trkpt lat="47.13787" lon="5.78921">
        <ele>260</ele>
        <time>2010-08-01T08:08:36Z</time>
      </trkpt>
      <trkpt lat="47.13792" lon="5.78909">
        <ele>260</ele>
        <time>2010-08-01T08:08:37Z</time>
      </trkpt>
      <trkpt lat="47.13797" lon="5.78897">
        <ele>260</ele>
        <time>2010-08-01T08:08:38Z</time>
      </trkpt>
      <trkpt lat="47.13802" lon="5.78885">
        <ele>260</ele>
        <time>2010-08-01T08:08:39Z</time>
      </trkpt>
      <trkpt lat="47.13806" lon="5.78874">
        <ele>260</ele>
        <time>2010-08-01T08:08:40Z</time>
      </trkpt>
      <trkpt lat="47.13811" lon="5.78861">
        <ele>260</ele>
        <time>2010-08-01T08:08:41Z</time>
      </trkpt>
      <trkpt lat="47.13816" lon="5.78849">
        <ele>260</ele>
        <time>2010-08-01T08:08:42Z</time>
      </trkpt>
      <trkpt lat="47.13821" lon="5.78838">
        <ele>268</ele>
        <time>2010-08-01T08:08:43Z</time>
      </trkpt>
      <trkpt lat="47.13825" lon="5.78826">
        <ele>268</ele>
        <time>2010-08-01T08:08:44Z</time>
      </trkpt>
      <trkpt lat="47.13834" lon="5.78803">
        <ele>268</ele>
        <time>2010-08-01T08:08:46Z</time>
      </trkpt>
      <trkpt lat="47.13844" lon="5.78781">
        <ele>268</ele>
        <time>2010-08-01T08:08:48Z</time>
      </trkpt>
      <trkpt lat="47.13856" lon="5.7876">
        <ele>273</ele>
        <time>2010-08-01T08:08:50Z</time>
      </trkpt>
      <trkpt lat="47.13869" lon="5.78744">
        <ele>273</ele>
        <time>2010-08-01T08:08:52Z</time>
      </trkpt>
      <trkpt lat="47.13883" lon="5.78732">
        <ele>273</ele>
        <time>2010-08-01T08:08:54Z</time>
      </trkpt>
      <trkpt lat="47.13898" lon="5.78722">
        <ele>273</ele>
        <time>2010-08-01T08:08:56Z</time>
      </trkpt>
      <trkpt lat="47.13914" lon="5.78712">
        <ele>273</ele>
        <time>2010-08-01T08:08:58Z</time>
      </trkpt>
      <trkpt lat="47.13923" lon="5.78707">
        <ele>273</ele>
        <time>2010-08-01T08:08:59Z</time>
      </trkpt>
      <trkpt lat="47.13939" lon="5.78698">
        <ele>273</ele>
        <time>2010-08-01T08:09:01Z</time>
      </trkpt>
      <trkpt lat="47.13955" lon="5.78689">
        <ele>273</ele>
        <time>2010-08-01T08:09:03Z</time>
      </trkpt>
      <trkpt lat="47.13971" lon="5.78681">
        <ele>273</ele>
        <time>2010-08-01T08:09:05Z</time>
      </trkpt>
      <trkpt lat="47.13987" lon="5.78672">
        <ele>273</ele>
        <time>2010-08-01T08:09:07Z</time>
      </trkpt>
      <trkpt lat="47.14003" lon="5.78663">
        <ele>273</ele>
        <time>2010-08-01T08:09:09Z</time>
      </trkpt>
      <trkpt lat="47.14018" lon="5.78654">
        <ele>273</ele>
        <time>2010-08-01T08:09:11Z</time>
      </trkpt>
      <trkpt lat="47.14031" lon="5.78641">
        <ele>273</ele>
        <time>2010-08-01T08:09:13Z</time>
      </trkpt>
      <trkpt lat="47.14044" lon="5.78624">
        <ele>267</ele>
        <time>2010-08-01T08:09:15Z</time>
      </trkpt>
      <trkpt lat="47.14053" lon="5.78604">
        <ele>267</ele>
        <time>2010-08-01T08:09:17Z</time>
      </trkpt>
      <trkpt lat="47.14061" lon="5.78582">
        <ele>267</ele>
        <time>2010-08-01T08:09:19Z</time>
      </trkpt>
      <trkpt lat="47.14066" lon="5.78559">
        <ele>267</ele>
        <time>2010-08-01T08:09:21Z</time>
      </trkpt>
      <trkpt lat="47.14072" lon="5.78536">
        <ele>267</ele>
        <time>2010-08-01T08:09:23Z</time>
      </trkpt>
      <trkpt lat="47.14077" lon="5.78513">
        <ele>267</ele>
        <time>2010-08-01T08:09:25Z</time>
      </trkpt>
      <trkpt lat="47.14082" lon="5.78489">
        <ele>267</ele>
        <time>2010-08-01T08:09:27Z</time>
      </trkpt>
      <trkpt lat="47.14088" lon="5.78466">
        <ele>267</ele>
        <time>2010-08-01T08:09:29Z</time>
      </trkpt>
      <trkpt lat="47.14093" lon="5.78442">
        <ele>267</ele>
        <time>2010-08-01T08:09:31Z</time>
      </trkpt>
      <trkpt lat="47.14098" lon="5.78419">
        <ele>262</ele>
        <time>2010-08-01T08:09:33Z</time>
      </trkpt>
      <trkpt lat="47.14104" lon="5.78396">
        <ele>262</ele>
        <time>2010-08-01T08:09:35Z</time>
      </trkpt>
      <trkpt lat="47.14109" lon="5.78372">
        <ele>262</ele>
        <time>2010-08-01T08:09:37Z</time>
      </trkpt>
      <trkpt lat="47.14114" lon="5.7835">
        <ele>262</ele>
        <time>2010-08-01T08:09:39Z</time>
      </trkpt>
      <trkpt lat="47.14117" lon="5.78337">
        <ele>262</ele>
        <time>2010-08-01T08:09:40Z</time>
      </trkpt>
      <trkpt lat="47.14122" lon="5.78314">
        <ele>262</ele>
        <time>2010-08-01T08:09:42Z</time>
      </trkpt>
      <trkpt lat="47.14128" lon="5.78291">
        <ele>262</ele>
        <time>2010-08-01T08:09:44Z</time>
      </trkpt>
      <trkpt lat="47.14131" lon="5.78278">
        <ele>262</ele>
        <time>2010-08-01T08:09:45Z</time>
      </trkpt>
      <trkpt lat="47.14137" lon="5.78255">
        <ele>262</ele>
        <time>2010-08-01T08:09:47Z</time>
      </trkpt>
      <trkpt lat="47.14143" lon="5.78232">
        <ele>262</ele>
        <time>2010-08-01T08:09:49Z</time>
      </trkpt>
      <trkpt lat="47.14148" lon="5.7821">
        <ele>268</ele>
        <time>2010-08-01T08:09:51Z</time>
      </trkpt>
      <trkpt lat="47.14154" lon="5.78187">
        <ele>268</ele>
        <time>2010-08-01T08:09:53Z</time>
      </trkpt>
      <trkpt lat="47.14159" lon="5.78164">
        <ele>273</ele>
        <time>2010-08-01T08:09:55Z</time>
      </trkpt>
      <trkpt lat="47.14164" lon="5.78141">
        <ele>273</ele>
        <time>2010-08-01T08:09:57Z</time>
      </trkpt>
      <trkpt lat="47.14169" lon="5.78119">
        <ele>273</ele>
        <time>2010-08-01T08:09:59Z</time>
      </trkpt>
      <trkpt lat="47.14174" lon="5.78096">
        <ele>273</ele>
        <time>2010-08-01T08:10:01Z</time>
      </trkpt>
      <trkpt lat="47.14178" lon="5.78075">
        <ele>273</ele>
        <time>2010-08-01T08:10:03Z</time>
      </trkpt>
      <trkpt lat="47.14183" lon="5.78052">
        <ele>273</ele>
        <time>2010-08-01T08:10:05Z</time>
      </trkpt>
      <trkpt lat="47.14188" lon="5.7803">
        <ele>273</ele>
        <time>2010-08-01T08:10:07Z</time>
      </trkpt>
      <trkpt lat="47.14193" lon="5.78008">
        <ele>273</ele>
        <time>2010-08-01T08:10:09Z</time>
      </trkpt>
      <trkpt lat="47.14199" lon="5.77984">
        <ele>273</ele>
        <time>2010-08-01T08:10:11Z</time>
      </trkpt>
      <trkpt lat="47.14205" lon="5.77961">
        <ele>268</ele>
        <time>2010-08-01T08:10:13Z</time>
      </trkpt>
      <trkpt lat="47.1421" lon="5.77939">
        <ele>268</ele>
        <time>2010-08-01T08:10:15Z</time>
      </trkpt>
      <trkpt lat="47.14213" lon="5.77927">
        <ele>268</ele>
        <time>2010-08-01T08:10:16Z</time>
      </trkpt>
      <trkpt lat="47.14215" lon="5.77914">
        <ele>268</ele>
        <time>2010-08-01T08:10:17Z</time>
      </trkpt>
      <trkpt lat="47.1422" lon="5.77891">
        <ele>268</ele>
        <time>2010-08-01T08:10:19Z</time>
      </trkpt>
      <trkpt lat="47.14225" lon="5.77868">
        <ele>268</ele>
        <time>2010-08-01T08:10:21Z</time>
      </trkpt>
      <trkpt lat="47.14228" lon="5.77856">
        <ele>268</ele>
        <time>2010-08-01T08:10:22Z</time>
      </trkpt>
      <trkpt lat="47.14229" lon="5.77831">
        <ele>268</ele>
        <time>2010-08-01T08:10:24Z</time>
      </trkpt>
      <trkpt lat="47.14226" lon="5.77808">
        <ele>268</ele>
        <time>2010-08-01T08:10:26Z</time>
      </trkpt>
      <trkpt lat="47.14225" lon="5.77794">
        <ele>268</ele>
        <time>2010-08-01T08:10:27Z</time>
      </trkpt>
      <trkpt lat="47.14221" lon="5.77768">
        <ele>261</ele>
        <time>2010-08-01T08:10:29Z</time>
      </trkpt>
      <trkpt lat="47.1422" lon="5.77754">
        <ele>261</ele>
        <time>2010-08-01T08:10:30Z</time>
      </trkpt>
      <trkpt lat="47.14217" lon="5.7774">
        <ele>261</ele>
        <time>2010-08-01T08:10:31Z</time>
      </trkpt>
      <trkpt lat="47.14215" lon="5.77726">
        <ele>255</ele>
        <time>2010-08-01T08:10:32Z</time>
      </trkpt>
      <trkpt lat="47.14212" lon="5.77713">
        <ele>255</ele>
        <time>2010-08-01T08:10:33Z</time>
      </trkpt>
      <trkpt lat="47.1421" lon="5.777">
        <ele>255</ele>
        <time>2010-08-01T08:10:34Z</time>
      </trkpt>
      <trkpt lat="47.14207" lon="5.77688">
        <ele>255</ele>
        <time>2010-08-01T08:10:35Z</time>
      </trkpt>
      <trkpt lat="47.14205" lon="5.77674">
        <ele>255</ele>
        <time>2010-08-01T08:10:36Z</time>
      </trkpt>
      <trkpt lat="47.14202" lon="5.77662">
        <ele>255</ele>
        <time>2010-08-01T08:10:37Z</time>
      </trkpt>
      <trkpt lat="47.14196" lon="5.77637">
        <ele>255</ele>
        <time>2010-08-01T08:10:39Z</time>
      </trkpt>
      <trkpt lat="47.14194" lon="5.77622">
        <ele>260</ele>
        <time>2010-08-01T08:10:40Z</time>
      </trkpt>
      <trkpt lat="47.14192" lon="5.77608">
        <ele>260</ele>
        <time>2010-08-01T08:10:41Z</time>
      </trkpt>
      <trkpt lat="47.14191" lon="5.77593">
        <ele>267</ele>
        <time>2010-08-01T08:10:42Z</time>
      </trkpt>
      <trkpt lat="47.1419" lon="5.77578">
        <ele>267</ele>
        <time>2010-08-01T08:10:43Z</time>
      </trkpt>
      <trkpt lat="47.1419" lon="5.77565">
        <ele>267</ele>
        <time>2010-08-01T08:10:44Z</time>
      </trkpt>
      <trkpt lat="47.14188" lon="5.77539">
        <ele>267</ele>
        <time>2010-08-01T08:10:46Z</time>
      </trkpt>
      <trkpt lat="47.14191" lon="5.77513">
        <ele>273</ele>
        <time>2010-08-01T08:10:48Z</time>
      </trkpt>
      <trkpt lat="47.14194" lon="5.77498">
        <ele>273</ele>
        <time>2010-08-01T08:10:49Z</time>
      </trkpt>
      <trkpt lat="47.14198" lon="5.77485">
        <ele>273</ele>
        <time>2010-08-01T08:10:50Z</time>
      </trkpt>
      <trkpt lat="47.14202" lon="5.77472">
        <ele>273</ele>
        <time>2010-08-01T08:10:51Z</time>
      </trkpt>
      <trkpt lat="47.14206" lon="5.77459">
        <ele>273</ele>
        <time>2010-08-01T08:10:52Z</time>
      </trkpt>
      <trkpt lat="47.14209" lon="5.77445">
        <ele>279</ele>
        <time>2010-08-01T08:10:53Z</time>
      </trkpt>
      <trkpt lat="47.14212" lon="5.77432">
        <ele>279</ele>
        <time>2010-08-01T08:10:54Z</time>
      </trkpt>
      <trkpt lat="47.14215" lon="5.77418">
        <ele>279</ele>
        <time>2010-08-01T08:10:55Z</time>
      </trkpt>
      <trkpt lat="47.14218" lon="5.77405">
        <ele>279</ele>
        <time>2010-08-01T08:10:56Z</time>
      </trkpt>
      <trkpt lat="47.14221" lon="5.77392">
        <ele>279</ele>
        <time>2010-08-01T08:10:57Z</time>
      </trkpt>
      <trkpt lat="47.14225" lon="5.77379">
        <ele>279</ele>
        <time>2010-08-01T08:10:58Z</time>
      </trkpt>
      <trkpt lat="47.14231" lon="5.77354">
        <ele>279</ele>
        <time>2010-08-01T08:11:00Z</time>
      </trkpt>
      <trkpt lat="47.14234" lon="5.77341">
        <ele>279</ele>
        <time>2010-08-01T08:11:01Z</time>
      </trkpt>
      <trkpt lat="47.14236" lon="5.77328">
        <ele>287</ele>
        <time>2010-08-01T08:11:02Z</time>
      </trkpt>
      <trkpt lat="47.14239" lon="5.77315">
        <ele>287</ele>
        <time>2010-08-01T08:11:03Z</time>
      </trkpt>
      <trkpt lat="47.14241" lon="5.77301">
        <ele>287</ele>
        <time>2010-08-01T08:11:04Z</time>
      </trkpt>
      <trkpt lat="47.14242" lon="5.77288">
        <ele>287</ele>
        <time>2010-08-01T08:11:05Z</time>
      </trkpt>
      <trkpt lat="47.14243" lon="5.77275">
        <ele>287</ele>
        <time>2010-08-01T08:11:06Z</time>
      </trkpt>
      <trkpt lat="47.14243" lon="5.77261">
        <ele>287</ele>
        <time>2010-08-01T08:11:07Z</time>
      </trkpt>
      <trkpt lat="47.14242" lon="5.77236">
        <ele>295</ele>
        <time>2010-08-01T08:11:09Z</time>
      </trkpt>
      <trkpt lat="47.1424" lon="5.77212">
        <ele>289</ele>
        <time>2010-08-01T08:11:11Z</time>
      </trkpt>
      <trkpt lat="47.14239" lon="5.77198">
        <ele>289</ele>
        <time>2010-08-01T08:11:12Z</time>
      </trkpt>
      <trkpt lat="47.14237" lon="5.77186">
        <ele>289</ele>
        <time>2010-08-01T08:11:13Z</time>
      </trkpt>
      <trkpt lat="47.14234" lon="5.7716">
        <ele>289</ele>
        <time>2010-08-01T08:11:15Z</time>
      </trkpt>
      <trkpt lat="47.14234" lon="5.7713">
        <ele>279</ele>
        <time>2010-08-01T08:11:17Z</time>
      </trkpt>
      <trkpt lat="47.14232" lon="5.77116">
        <ele>279</ele>
        <time>2010-08-01T08:11:18Z</time>
      </trkpt>
      <trkpt lat="47.14229" lon="5.77102">
        <ele>279</ele>
        <time>2010-08-01T08:11:19Z</time>
      </trkpt>
      <trkpt lat="47.14226" lon="5.77089">
        <ele>273</ele>
        <time>2010-08-01T08:11:20Z</time>
      </trkpt>
      <trkpt lat="47.14224" lon="5.77075">
        <ele>273</ele>
        <time>2010-08-01T08:11:21Z</time>
      </trkpt>
      <trkpt lat="47.14221" lon="5.77063">
        <ele>273</ele>
        <time>2010-08-01T08:11:22Z</time>
      </trkpt>
      <trkpt lat="47.14218" lon="5.77049">
        <ele>273</ele>
        <time>2010-08-01T08:11:23Z</time>
      </trkpt>
      <trkpt lat="47.14215" lon="5.77036">
        <ele>273</ele>
        <time>2010-08-01T08:11:24Z</time>
      </trkpt>
      <trkpt lat="47.14213" lon="5.77023">
        <ele>267</ele>
        <time>2010-08-01T08:11:25Z</time>
      </trkpt>
      <trkpt lat="47.14211" lon="5.77007">
        <ele>267</ele>
        <time>2010-08-01T08:11:26Z</time>
      </trkpt>
      <trkpt lat="47.1421" lon="5.76992">
        <ele>258</ele>
        <time>2010-08-01T08:11:27Z</time>
      </trkpt>
      <trkpt lat="47.14207" lon="5.76978">
        <ele>258</ele>
        <time>2010-08-01T08:11:28Z</time>
      </trkpt>
      <trkpt lat="47.14205" lon="5.76965">
        <ele>258</ele>
        <time>2010-08-01T08:11:29Z</time>
      </trkpt>
      <trkpt lat="47.14202" lon="5.76953">
        <ele>258</ele>
        <time>2010-08-01T08:11:30Z</time>
      </trkpt>
      <trkpt lat="47.142" lon="5.7694">
        <ele>251</ele>
        <time>2010-08-01T08:11:31Z</time>
      </trkpt>
      <trkpt lat="47.14198" lon="5.76927">
        <ele>251</ele>
        <time>2010-08-01T08:11:32Z</time>
      </trkpt>
      <trkpt lat="47.14193" lon="5.76903">
        <ele>245</ele>
        <time>2010-08-01T08:11:34Z</time>
      </trkpt>
      <trkpt lat="47.14191" lon="5.76888">
        <ele>245</ele>
        <time>2010-08-01T08:11:35Z</time>
      </trkpt>
      <trkpt lat="47.14189" lon="5.76875">
        <ele>238</ele>
        <time>2010-08-01T08:11:36Z</time>
      </trkpt>
      <trkpt lat="47.14188" lon="5.76861">
        <ele>238</ele>
        <time>2010-08-01T08:11:37Z</time>
      </trkpt>
      <trkpt lat="47.14187" lon="5.76848">
        <ele>233</ele>
        <time>2010-08-01T08:11:38Z</time>
      </trkpt>
      <trkpt lat="47.14186" lon="5.76834">
        <ele>233</ele>
        <time>2010-08-01T08:11:39Z</time>
      </trkpt>
      <trkpt lat="47.14186" lon="5.76819">
        <ele>233</ele>
        <time>2010-08-01T08:11:40Z</time>
      </trkpt>
      <trkpt lat="47.14187" lon="5.76795">
        <ele>233</ele>
        <time>2010-08-01T08:11:42Z</time>
      </trkpt>
      <trkpt lat="47.14189" lon="5.76781">
        <ele>233</ele>
        <time>2010-08-01T08:11:43Z</time>
      </trkpt>
      <trkpt lat="47.14192" lon="5.76757">
        <ele>233</ele>
        <time>2010-08-01T08:11:45Z</time>
      </trkpt>
      <trkpt lat="47.14194" lon="5.76745">
        <ele>233</ele>
        <time>2010-08-01T08:11:46Z</time>
      </trkpt>
      <trkpt lat="47.14197" lon="5.76731">
        <ele>238</ele>
        <time>2010-08-01T08:11:47Z</time>
      </trkpt>
      <trkpt lat="47.14199" lon="5.76717">
        <ele>238</ele>
        <time>2010-08-01T08:11:48Z</time>
      </trkpt>
      <trkpt lat="47.14201" lon="5.76693">
        <ele>238</ele>
        <time>2010-08-01T08:11:50Z</time>
      </trkpt>
      <trkpt lat="47.14204" lon="5.76681">
        <ele>238</ele>
        <time>2010-08-01T08:11:51Z</time>
      </trkpt>
      <trkpt lat="47.14207" lon="5.76656">
        <ele>238</ele>
        <time>2010-08-01T08:11:53Z</time>
      </trkpt>
      <trkpt lat="47.14209" lon="5.76642">
        <ele>238</ele>
        <time>2010-08-01T08:11:54Z</time>
      </trkpt>
      <trkpt lat="47.14212" lon="5.7663">
        <ele>238</ele>
        <time>2010-08-01T08:11:55Z</time>
      </trkpt>
      <trkpt lat="47.14214" lon="5.76616">
        <ele>238</ele>
        <time>2010-08-01T08:11:56Z</time>
      </trkpt>
      <trkpt lat="47.14216" lon="5.76603">
        <ele>238</ele>
        <time>2010-08-01T08:11:57Z</time>
      </trkpt>
      <trkpt lat="47.14221" lon="5.76581">
        <ele>247</ele>
        <time>2010-08-01T08:11:59Z</time>
      </trkpt>
      <trkpt lat="47.14229" lon="5.76557">
        <ele>247</ele>
        <time>2010-08-01T08:12:01Z</time>
      </trkpt>
      <trkpt lat="47.14233" lon="5.76544">
        <ele>247</ele>
        <time>2010-08-01T08:12:02Z</time>
      </trkpt>
      <trkpt lat="47.14242" lon="5.76522">
        <ele>247</ele>
        <time>2010-08-01T08:12:04Z</time>
      </trkpt>
      <trkpt lat="47.14251" lon="5.76498">
        <ele>247</ele>
        <time>2010-08-01T08:12:06Z</time>
      </trkpt>
      <trkpt lat="47.14255" lon="5.76487">
        <ele>247</ele>
        <time>2010-08-01T08:12:07Z</time>
      </trkpt>
      <trkpt lat="47.14259" lon="5.76475">
        <ele>247</ele>
        <time>2010-08-01T08:12:08Z</time>
      </trkpt>
      <trkpt lat="47.14265" lon="5.76462">
        <ele>247</ele>
        <time>2010-08-01T08:12:09Z</time>
      </trkpt>
      <trkpt lat="47.14273" lon="5.7644">
        <ele>247</ele>
        <time>2010-08-01T08:12:11Z</time>
      </trkpt>
      <trkpt lat="47.14278" lon="5.76428">
        <ele>247</ele>
        <time>2010-08-01T08:12:12Z</time>
      </trkpt>
      <trkpt lat="47.14283" lon="5.76416">
        <ele>247</ele>
        <time>2010-08-01T08:12:13Z</time>
      </trkpt>
      <trkpt lat="47.14287" lon="5.76404">
        <ele>247</ele>
        <time>2010-08-01T08:12:14Z</time>
      </trkpt>
      <trkpt lat="47.14292" lon="5.76392">
        <ele>247</ele>
        <time>2010-08-01T08:12:15Z</time>
      </trkpt>
      <trkpt lat="47.143" lon="5.7637">
        <ele>247</ele>
        <time>2010-08-01T08:12:17Z</time>
      </trkpt>
      <trkpt lat="47.14305" lon="5.76358">
        <ele>247</ele>
        <time>2010-08-01T08:12:18Z</time>
      </trkpt>
      <trkpt lat="47.1431" lon="5.76347">
        <ele>247</ele>
        <time>2010-08-01T08:12:19Z</time>
      </trkpt>
      <trkpt lat="47.14314" lon="5.76335">
        <ele>247</ele>
        <time>2010-08-01T08:12:20Z</time>
      </trkpt>
      <trkpt lat="47.14323" lon="5.76314">
        <ele>247</ele>
        <time>2010-08-01T08:12:22Z</time>
      </trkpt>
      <trkpt lat="47.14328" lon="5.76302">
        <ele>247</ele>
        <time>2010-08-01T08:12:23Z</time>
      </trkpt>
      <trkpt lat="47.14333" lon="5.76287">
        <ele>247</ele>
        <time>2010-08-01T08:12:24Z</time>
      </trkpt>
      <trkpt lat="47.14338" lon="5.76276">
        <ele>247</ele>
        <time>2010-08-01T08:12:25Z</time>
      </trkpt>
      <trkpt lat="47.14345" lon="5.76266">
        <ele>247</ele>
        <time>2010-08-01T08:12:26Z</time>
      </trkpt>
      <trkpt lat="47.14351" lon="5.76255">
        <ele>247</ele>
        <time>2010-08-01T08:12:27Z</time>
      </trkpt>
      <trkpt lat="47.14358" lon="5.76243">
        <ele>247</ele>
        <time>2010-08-01T08:12:28Z</time>
      </trkpt>
      <trkpt lat="47.14365" lon="5.76233">
        <ele>247</ele>
        <time>2010-08-01T08:12:29Z</time>
      </trkpt>
      <trkpt lat="47.14374" lon="5.76223">
        <ele>240</ele>
        <time>2010-08-01T08:12:30Z</time>
      </trkpt>
      <trkpt lat="47.14382" lon="5.76215">
        <ele>240</ele>
        <time>2010-08-01T08:12:31Z</time>
      </trkpt>
      <trkpt lat="47.14397" lon="5.76199">
        <ele>240</ele>
        <time>2010-08-01T08:12:33Z</time>
      </trkpt>
      <trkpt lat="47.14404" lon="5.76191">
        <ele>240</ele>
        <time>2010-08-01T08:12:34Z</time>
      </trkpt>
      <trkpt lat="47.14419" lon="5.76176">
        <ele>240</ele>
        <time>2010-08-01T08:12:36Z</time>
      </trkpt>
      <trkpt lat="47.14426" lon="5.76167">
        <ele>240</ele>
        <time>2010-08-01T08:12:37Z</time>
      </trkpt>
      <trkpt lat="47.14433" lon="5.76159">
        <ele>240</ele>
        <time>2010-08-01T08:12:38Z</time>
      </trkpt>
      <trkpt lat="47.14448" lon="5.76144">
        <ele>240</ele>
        <time>2010-08-01T08:12:40Z</time>
      </trkpt>
      <trkpt lat="47.14456" lon="5.76136">
        <ele>240</ele>
        <time>2010-08-01T08:12:41Z</time>
      </trkpt>
      <trkpt lat="47.14463" lon="5.76128">
        <ele>240</ele>
        <time>2010-08-01T08:12:42Z</time>
      </trkpt>
      <trkpt lat="47.1447" lon="5.76119">
        <ele>240</ele>
        <time>2010-08-01T08:12:43Z</time>
      </trkpt>
      <trkpt lat="47.14478" lon="5.76111">
        <ele>240</ele>
        <time>2010-08-01T08:12:44Z</time>
      </trkpt>
      <trkpt lat="47.14486" lon="5.76103">
        <ele>240</ele>
        <time>2010-08-01T08:12:45Z</time>
      </trkpt>
      <trkpt lat="47.14494" lon="5.76096">
        <ele>240</ele>
        <time>2010-08-01T08:12:46Z</time>
      </trkpt>
      <trkpt lat="47.14502" lon="5.76089">
        <ele>240</ele>
        <time>2010-08-01T08:12:47Z</time>
      </trkpt>
      <trkpt lat="47.14511" lon="5.76083">
        <ele>240</ele>
        <time>2010-08-01T08:12:48Z</time>
      </trkpt>
      <trkpt lat="47.1452" lon="5.76079">
        <ele>240</ele>
        <time>2010-08-01T08:12:49Z</time>
      </trkpt>
      <trkpt lat="47.14529" lon="5.76078">
        <ele>240</ele>
        <time>2010-08-01T08:12:50Z</time>
      </trkpt>
      <trkpt lat="47.14538" lon="5.76079">
        <ele>240</ele>
        <time>2010-08-01T08:12:51Z</time>
      </trkpt>
      <trkpt lat="47.14547" lon="5.76084">
        <ele>240</ele>
        <time>2010-08-01T08:12:52Z</time>
      </trkpt>
      <trkpt lat="47.14559" lon="5.76095">
        <ele>240</ele>
        <time>2010-08-01T08:12:54Z</time>
      </trkpt>
      <trkpt lat="47.14571" lon="5.76107">
        <ele>250</ele>
        <time>2010-08-01T08:12:56Z</time>
      </trkpt>
      <trkpt lat="47.14583" lon="5.76118">
        <ele>250</ele>
        <time>2010-08-01T08:12:58Z</time>
      </trkpt>
      <trkpt lat="47.14598" lon="5.76131">
        <ele>256</ele>
        <time>2010-08-01T08:13:00Z</time>
      </trkpt>
      <trkpt lat="47.14606" lon="5.76136">
        <ele>256</ele>
        <time>2010-08-01T08:13:01Z</time>
      </trkpt>
      <trkpt lat="47.14615" lon="5.76141">
        <ele>256</ele>
        <time>2010-08-01T08:13:02Z</time>
      </trkpt>
      <trkpt lat="47.14625" lon="5.76146">
        <ele>256</ele>
        <time>2010-08-01T08:13:03Z</time>
      </trkpt>
      <trkpt lat="47.14636" lon="5.76152">
        <ele>248</ele>
        <time>2010-08-01T08:13:04Z</time>
      </trkpt>
      <trkpt lat="47.14646" lon="5.76154">
        <ele>248</ele>
        <time>2010-08-01T08:13:05Z</time>
      </trkpt>
      <trkpt lat="47.14656" lon="5.76156">
        <ele>248</ele>
        <time>2010-08-01T08:13:06Z</time>
      </trkpt>
      <trkpt lat="47.14666" lon="5.76157">
        <ele>248</ele>
        <time>2010-08-01T08:13:07Z</time>
      </trkpt>
      <trkpt lat="47.14675" lon="5.76159">
        <ele>243</ele>
        <time>2010-08-01T08:13:08Z</time>
      </trkpt>
      <trkpt lat="47.14685" lon="5.7616">
        <ele>243</ele>
        <time>2010-08-01T08:13:09Z</time>
      </trkpt>
      <trkpt lat="47.14703" lon="5.76163">
        <ele>243</ele>
        <time>2010-08-01T08:13:11Z</time>
      </trkpt>
      <trkpt lat="47.14712" lon="5.76166">
        <ele>243</ele>
        <time>2010-08-01T08:13:12Z</time>
      </trkpt>
      <trkpt lat="47.14729" lon="5.7617">
        <ele>243</ele>
        <time>2010-08-01T08:13:14Z</time>
      </trkpt>
      <trkpt lat="47.14739" lon="5.76172">
        <ele>243</ele>
        <time>2010-08-01T08:13:15Z</time>
      </trkpt>
      <trkpt lat="47.14756" lon="5.76176">
        <ele>243</ele>
        <time>2010-08-01T08:13:17Z</time>
      </trkpt>
      <trkpt lat="47.14766" lon="5.76178">
        <ele>243</ele>
        <time>2010-08-01T08:13:18Z</time>
      </trkpt>
      <trkpt lat="47.14783" lon="5.7618">
        <ele>237</ele>
        <time>2010-08-01T08:13:20Z</time>
      </trkpt>
      <trkpt lat="47.14801" lon="5.76184">
        <ele>237</ele>
        <time>2010-08-01T08:13:22Z</time>
      </trkpt>
      <trkpt lat="47.14811" lon="5.76187">
        <ele>237</ele>
        <time>2010-08-01T08:13:23Z</time>
      </trkpt>
      <trkpt lat="47.14829" lon="5.76191">
        <ele>237</ele>
        <time>2010-08-01T08:13:25Z</time>
      </trkpt>
      <trkpt lat="47.14845" lon="5.76193">
        <ele>237</ele>
        <time>2010-08-01T08:13:27Z</time>
      </trkpt>
      <trkpt lat="47.14861" lon="5.76195">
        <ele>237</ele>
        <time>2010-08-01T08:13:29Z</time>
      </trkpt>
      <trkpt lat="47.14875" lon="5.76194">
        <ele>237</ele>
        <time>2010-08-01T08:13:31Z</time>
      </trkpt>
      <trkpt lat="47.14889" lon="5.76192">
        <ele>232</ele>
        <time>2010-08-01T08:13:33Z</time>
      </trkpt>
      <trkpt lat="47.14902" lon="5.76191">
        <ele>232</ele>
        <time>2010-08-01T08:13:35Z</time>
      </trkpt>
      <trkpt lat="47.14914" lon="5.7619">
        <ele>232</ele>
        <time>2010-08-01T08:13:37Z</time>
      </trkpt>
      <trkpt lat="47.14923" lon="5.76187">
        <ele>232</ele>
        <time>2010-08-01T08:13:39Z</time>
      </trkpt>
      <trkpt lat="47.1493" lon="5.76172">
        <ele>232</ele>
        <time>2010-08-01T08:13:42Z</time>
      </trkpt>
      <trkpt lat="47.14928" lon="5.76159">
        <ele>232</ele>
        <time>2010-08-01T08:13:44Z</time>
      </trkpt>
      <trkpt lat="47.14924" lon="5.76147">
        <ele>232</ele>
        <time>2010-08-01T08:13:46Z</time>
      </trkpt>
      <trkpt lat="47.14918" lon="5.76128">
        <ele>232</ele>
        <time>2010-08-01T08:13:49Z</time>
      </trkpt>
      <trkpt lat="47.14916" lon="5.76112">
        <ele>232</ele>
        <time>2010-08-01T08:13:51Z</time>
      </trkpt>
      <trkpt lat="47.14913" lon="5.76095">
        <ele>232</ele>
        <time>2010-08-01T08:13:53Z</time>
      </trkpt>
      <trkpt lat="47.14907" lon="5.76078">
        <ele>232</ele>
        <time>2010-08-01T08:13:55Z</time>
      </trkpt>
      <trkpt lat="47.149" lon="5.76062">
        <ele>232</ele>
        <time>2010-08-01T08:13:57Z</time>
      </trkpt>
      <trkpt lat="47.14891" lon="5.76046">
        <ele>232</ele>
        <time>2010-08-01T08:13:59Z</time>
      </trkpt>
      <trkpt lat="47.14883" lon="5.76031">
        <ele>232</ele>
        <time>2010-08-01T08:14:01Z</time>
      </trkpt>
      <trkpt lat="47.14874" lon="5.76017">
        <ele>232</ele>
        <time>2010-08-01T08:14:03Z</time>
      </trkpt>
      <trkpt lat="47.14863" lon="5.76003">
        <ele>226</ele>
        <time>2010-08-01T08:14:05Z</time>
      </trkpt>
      <trkpt lat="47.14855" lon="5.75992">
        <ele>226</ele>
        <time>2010-08-01T08:14:07Z</time>
      </trkpt>
      <trkpt lat="47.14846" lon="5.75977">
        <ele>226</ele>
        <time>2010-08-01T08:14:09Z</time>
      </trkpt>
      <trkpt lat="47.14837" lon="5.75962">
        <ele>226</ele>
        <time>2010-08-01T08:14:11Z</time>
      </trkpt>
      <trkpt lat="47.14829" lon="5.75947">
        <ele>226</ele>
        <time>2010-08-01T08:14:13Z</time>
      </trkpt>
      <trkpt lat="47.14823" lon="5.7593">
        <ele>226</ele>
        <time>2010-08-01T08:14:15Z</time>
      </trkpt>
      <trkpt lat="47.14817" lon="5.75913">
        <ele>226</ele>
        <time>2010-08-01T08:14:17Z</time>
      </trkpt>
      <trkpt lat="47.14809" lon="5.75897">
        <ele>226</ele>
        <time>2010-08-01T08:14:19Z</time>
      </trkpt>
      <trkpt lat="47.148" lon="5.75884">
        <ele>226</ele>
        <time>2010-08-01T08:14:21Z</time>
      </trkpt>
      <trkpt lat="47.1479" lon="5.75872">
        <ele>226</ele>
        <time>2010-08-01T08:14:23Z</time>
      </trkpt>
      <trkpt lat="47.14779" lon="5.75864">
        <ele>226</ele>
        <time>2010-08-01T08:14:25Z</time>
      </trkpt>
      <trkpt lat="47.14769" lon="5.75856">
        <ele>226</ele>
        <time>2010-08-01T08:14:27Z</time>
      </trkpt>
      <trkpt lat="47.1476" lon="5.7585">
        <ele>226</ele>
        <time>2010-08-01T08:14:29Z</time>
      </trkpt>
      <trkpt lat="47.14751" lon="5.75843">
        <ele>226</ele>
        <time>2010-08-01T08:14:31Z</time>
      </trkpt>
      <trkpt lat="47.14743" lon="5.75835">
        <ele>231</ele>
        <time>2010-08-01T08:14:33Z</time>
      </trkpt>
      <trkpt lat="47.14734" lon="5.75826">
        <ele>231</ele>
        <time>2010-08-01T08:14:35Z</time>
      </trkpt>
      <trkpt lat="47.14725" lon="5.75817">
        <ele>231</ele>
        <time>2010-08-01T08:14:37Z</time>
      </trkpt>
      <trkpt lat="47.14717" lon="5.75806">
        <ele>231</ele>
        <time>2010-08-01T08:14:39Z</time>
      </trkpt>
      <trkpt lat="47.1471" lon="5.75792">
        <ele>231</ele>
        <time>2010-08-01T08:14:41Z</time>
      </trkpt>
      <trkpt lat="47.14706" lon="5.75777">
        <ele>231</ele>
        <time>2010-08-01T08:14:43Z</time>
      </trkpt>
      <trkpt lat="47.14701" lon="5.75761">
        <ele>231</ele>
        <time>2010-08-01T08:14:45Z</time>
      </trkpt>
      <trkpt lat="47.14696" lon="5.75744">
        <ele>231</ele>
        <time>2010-08-01T08:14:47Z</time>
      </trkpt>
      <trkpt lat="47.14692" lon="5.75726">
        <ele>231</ele>
        <time>2010-08-01T08:14:49Z</time>
      </trkpt>
      <trkpt lat="47.14688" lon="5.75708">
        <ele>231</ele>
        <time>2010-08-01T08:14:51Z</time>
      </trkpt>
      <trkpt lat="47.14684" lon="5.7569">
        <ele>231</ele>
        <time>2010-08-01T08:14:53Z</time>
      </trkpt>
      <trkpt lat="47.14679" lon="5.75671">
        <ele>231</ele>
        <time>2010-08-01T08:14:55Z</time>
      </trkpt>
      <trkpt lat="47.14676" lon="5.75652">
        <ele>231</ele>
        <time>2010-08-01T08:14:57Z</time>
      </trkpt>
      <trkpt lat="47.14672" lon="5.75633">
        <ele>231</ele>
        <time>2010-08-01T08:14:59Z</time>
      </trkpt>
      <trkpt lat="47.14668" lon="5.75615">
        <ele>231</ele>
        <time>2010-08-01T08:15:01Z</time>
      </trkpt>
      <trkpt lat="47.14663" lon="5.75596">
        <ele>231</ele>
        <time>2010-08-01T08:15:03Z</time>
      </trkpt>
      <trkpt lat="47.1466" lon="5.75579">
        <ele>231</ele>
        <time>2010-08-01T08:15:05Z</time>
      </trkpt>
      <trkpt lat="47.14655" lon="5.7556">
        <ele>231</ele>
        <time>2010-08-01T08:15:07Z</time>
      </trkpt>
      <trkpt lat="47.14652" lon="5.75539">
        <ele>231</ele>
        <time>2010-08-01T08:15:09Z</time>
      </trkpt>
      <trkpt lat="47.14647" lon="5.7552">
        <ele>231</ele>
        <time>2010-08-01T08:15:11Z</time>
      </trkpt>
      <trkpt lat="47.14641" lon="5.755">
        <ele>231</ele>
        <time>2010-08-01T08:15:13Z</time>
      </trkpt>
      <trkpt lat="47.14636" lon="5.75479">
        <ele>231</ele>
        <time>2010-08-01T08:15:15Z</time>
      </trkpt>
      <trkpt lat="47.14631" lon="5.75455">
        <ele>231</ele>
        <time>2010-08-01T08:15:17Z</time>
      </trkpt>
      <trkpt lat="47.14626" lon="5.75431">
        <ele>226</ele>
        <time>2010-08-01T08:15:19Z</time>
      </trkpt>
      <trkpt lat="47.1462" lon="5.75408">
        <ele>226</ele>
        <time>2010-08-01T08:15:21Z</time>
      </trkpt>
      <trkpt lat="47.14617" lon="5.75395">
        <ele>226</ele>
        <time>2010-08-01T08:15:22Z</time>
      </trkpt>
      <trkpt lat="47.14612" lon="5.75371">
        <ele>226</ele>
        <time>2010-08-01T08:15:24Z</time>
      </trkpt>
      <trkpt lat="47.14611" lon="5.75345">
        <ele>226</ele>
        <time>2010-08-01T08:15:26Z</time>
      </trkpt>
      <trkpt lat="47.14612" lon="5.7532">
        <ele>226</ele>
        <time>2010-08-01T08:15:28Z</time>
      </trkpt>
      <trkpt lat="47.14617" lon="5.75296">
        <ele>226</ele>
        <time>2010-08-01T08:15:30Z</time>
      </trkpt>
      <trkpt lat="47.14625" lon="5.75273">
        <ele>226</ele>
        <time>2010-08-01T08:15:32Z</time>
      </trkpt>
      <trkpt lat="47.14633" lon="5.75252">
        <ele>226</ele>
        <time>2010-08-01T08:15:34Z</time>
      </trkpt>
      <trkpt lat="47.14642" lon="5.7523">
        <ele>226</ele>
        <time>2010-08-01T08:15:36Z</time>
      </trkpt>
      <trkpt lat="47.1465" lon="5.75209">
        <ele>226</ele>
        <time>2010-08-01T08:15:38Z</time>
      </trkpt>
      <trkpt lat="47.14657" lon="5.7519">
        <ele>226</ele>
        <time>2010-08-01T08:15:40Z</time>
      </trkpt>
      <trkpt lat="47.14665" lon="5.75168">
        <ele>226</ele>
        <time>2010-08-01T08:15:42Z</time>
      </trkpt>
      <trkpt lat="47.14673" lon="5.75146">
        <ele>231</ele>
        <time>2010-08-01T08:15:44Z</time>
      </trkpt>
      <trkpt lat="47.1468" lon="5.75124">
        <ele>231</ele>
        <time>2010-08-01T08:15:46Z</time>
      </trkpt>
      <trkpt lat="47.14688" lon="5.75102">
        <ele>231</ele>
        <time>2010-08-01T08:15:48Z</time>
      </trkpt>
      <trkpt lat="47.14696" lon="5.75081">
        <ele>231</ele>
        <time>2010-08-01T08:15:50Z</time>
      </trkpt>
      <trkpt lat="47.14704" lon="5.75059">
        <ele>231</ele>
        <time>2010-08-01T08:15:52Z</time>
      </trkpt>
      <trkpt lat="47.14712" lon="5.75037">
        <ele>231</ele>
        <time>2010-08-01T08:15:54Z</time>
      </trkpt>
      <trkpt lat="47.14721" lon="5.75014">
        <ele>231</ele>
        <time>2010-08-01T08:15:56Z</time>
      </trkpt>
      <trkpt lat="47.1473" lon="5.74993">
        <ele>231</ele>
        <time>2010-08-01T08:15:58Z</time>
      </trkpt>
      <trkpt lat="47.14739" lon="5.74971">
        <ele>231</ele>
        <time>2010-08-01T08:16:00Z</time>
      </trkpt>
      <trkpt lat="47.14747" lon="5.74951">
        <ele>231</ele>
        <time>2010-08-01T08:16:02Z</time>
      </trkpt>
      <trkpt lat="47.14756" lon="5.7493">
        <ele>231</ele>
        <time>2010-08-01T08:16:04Z</time>
      </trkpt>
      <trkpt lat="47.14764" lon="5.74908">
        <ele>231</ele>
        <time>2010-08-01T08:16:06Z</time>
      </trkpt>
      <trkpt lat="47.14771" lon="5.74887">
        <ele>231</ele>
        <time>2010-08-01T08:16:08Z</time>
      </trkpt>
      <trkpt lat="47.14775" lon="5.74862">
        <ele>231</ele>
        <time>2010-08-01T08:16:10Z</time>
      </trkpt>
      <trkpt lat="47.14776" lon="5.74848">
        <ele>231</ele>
        <time>2010-08-01T08:16:11Z</time>
      </trkpt>
      <trkpt lat="47.14779" lon="5.74823">
        <ele>231</ele>
        <time>2010-08-01T08:16:13Z</time>
      </trkpt>
      <trkpt lat="47.14782" lon="5.74799">
        <ele>231</ele>
        <time>2010-08-01T08:16:15Z</time>
      </trkpt>
      <trkpt lat="47.14785" lon="5.74775">
        <ele>231</ele>
        <time>2010-08-01T08:16:17Z</time>
      </trkpt>
      <trkpt lat="47.14789" lon="5.74752">
        <ele>231</ele>
        <time>2010-08-01T08:16:19Z</time>
      </trkpt>
      <trkpt lat="47.14793" lon="5.74729">
        <ele>231</ele>
        <time>2010-08-01T08:16:21Z</time>
      </trkpt>
      <trkpt lat="47.14796" lon="5.74705">
        <ele>231</ele>
        <time>2010-08-01T08:16:23Z</time>
      </trkpt>
      <trkpt lat="47.14801" lon="5.74683">
        <ele>231</ele>
        <time>2010-08-01T08:16:25Z</time>
      </trkpt>
      <trkpt lat="47.14805" lon="5.74661">
        <ele>231</ele>
        <time>2010-08-01T08:16:27Z</time>
      </trkpt>
      <trkpt lat="47.14811" lon="5.7464">
        <ele>231</ele>
        <time>2010-08-01T08:16:29Z</time>
      </trkpt>
      <trkpt lat="47.14817" lon="5.74618">
        <ele>231</ele>
        <time>2010-08-01T08:16:31Z</time>
      </trkpt>
      <trkpt lat="47.14823" lon="5.74597">
        <ele>231</ele>
        <time>2010-08-01T08:16:33Z</time>
      </trkpt>
      <trkpt lat="47.14831" lon="5.74578">
        <ele>231</ele>
        <time>2010-08-01T08:16:35Z</time>
      </trkpt>
      <trkpt lat="47.14839" lon="5.74558">
        <ele>231</ele>
        <time>2010-08-01T08:16:37Z</time>
      </trkpt>
      <trkpt lat="47.14846" lon="5.74538">
        <ele>231</ele>
        <time>2010-08-01T08:16:39Z</time>
      </trkpt>
      <trkpt lat="47.14855" lon="5.74518">
        <ele>236</ele>
        <time>2010-08-01T08:16:41Z</time>
      </trkpt>
      <trkpt lat="47.14862" lon="5.74498">
        <ele>236</ele>
        <time>2010-08-01T08:16:43Z</time>
      </trkpt>
      <trkpt lat="47.1487" lon="5.74478">
        <ele>236</ele>
        <time>2010-08-01T08:16:45Z</time>
      </trkpt>
      <trkpt lat="47.14878" lon="5.74458">
        <ele>236</ele>
        <time>2010-08-01T08:16:47Z</time>
      </trkpt>
      <trkpt lat="47.14885" lon="5.74438">
        <ele>236</ele>
        <time>2010-08-01T08:16:49Z</time>
      </trkpt>
      <trkpt lat="47.1489" lon="5.74417">
        <ele>236</ele>
        <time>2010-08-01T08:16:51Z</time>
      </trkpt>
      <trkpt lat="47.14894" lon="5.74395">
        <ele>236</ele>
        <time>2010-08-01T08:16:53Z</time>
      </trkpt>
      <trkpt lat="47.14896" lon="5.74374">
        <ele>236</ele>
        <time>2010-08-01T08:16:55Z</time>
      </trkpt>
      <trkpt lat="47.14896" lon="5.74352">
        <ele>236</ele>
        <time>2010-08-01T08:16:57Z</time>
      </trkpt>
      <trkpt lat="47.14896" lon="5.74331">
        <ele>236</ele>
        <time>2010-08-01T08:16:59Z</time>
      </trkpt>
      <trkpt lat="47.14894" lon="5.74308">
        <ele>236</ele>
        <time>2010-08-01T08:17:01Z</time>
      </trkpt>
      <trkpt lat="47.14892" lon="5.74286">
        <ele>236</ele>
        <time>2010-08-01T08:17:03Z</time>
      </trkpt>
      <trkpt lat="47.14891" lon="5.74264">
        <ele>236</ele>
        <time>2010-08-01T08:17:05Z</time>
      </trkpt>
      <trkpt lat="47.14889" lon="5.74243">
        <ele>236</ele>
        <time>2010-08-01T08:17:07Z</time>
      </trkpt>
      <trkpt lat="47.14888" lon="5.74221">
        <ele>236</ele>
        <time>2010-08-01T08:17:09Z</time>
      </trkpt>
      <trkpt lat="47.14886" lon="5.74199">
        <ele>236</ele>
        <time>2010-08-01T08:17:11Z</time>
      </trkpt>
      <trkpt lat="47.14884" lon="5.74176">
        <ele>236</ele>
        <time>2010-08-01T08:17:13Z</time>
      </trkpt>
      <trkpt lat="47.14882" lon="5.74155">
        <ele>236</ele>
        <time>2010-08-01T08:17:15Z</time>
      </trkpt>
      <trkpt lat="47.1488" lon="5.74132">
        <ele>236</ele>
        <time>2010-08-01T08:17:17Z</time>
      </trkpt>
      <trkpt lat="47.14879" lon="5.74111">
        <ele>236</ele>
        <time>2010-08-01T08:17:19Z</time>
      </trkpt>
      <trkpt lat="47.14877" lon="5.74088">
        <ele>236</ele>
        <time>2010-08-01T08:17:21Z</time>
      </trkpt>
      <trkpt lat="47.14875" lon="5.74066">
        <ele>236</ele>
        <time>2010-08-01T08:17:23Z</time>
      </trkpt>
      <trkpt lat="47.14872" lon="5.74043">
        <ele>231</ele>
        <time>2010-08-01T08:17:25Z</time>
      </trkpt>
      <trkpt lat="47.14868" lon="5.74022">
        <ele>231</ele>
        <time>2010-08-01T08:17:27Z</time>
      </trkpt>
      <trkpt lat="47.14863" lon="5.74001">
        <ele>231</ele>
        <time>2010-08-01T08:17:29Z</time>
      </trkpt>
      <trkpt lat="47.14858" lon="5.73979">
        <ele>231</ele>
        <time>2010-08-01T08:17:31Z</time>
      </trkpt>
      <trkpt lat="47.14852" lon="5.73957">
        <ele>231</ele>
        <time>2010-08-01T08:17:33Z</time>
      </trkpt>
      <trkpt lat="47.14848" lon="5.73934">
        <ele>231</ele>
        <time>2010-08-01T08:17:35Z</time>
      </trkpt>
      <trkpt lat="47.14847" lon="5.73909">
        <ele>231</ele>
        <time>2010-08-01T08:17:37Z</time>
      </trkpt>
      <trkpt lat="47.14847" lon="5.73886">
        <ele>231</ele>
        <time>2010-08-01T08:17:39Z</time>
      </trkpt>
      <trkpt lat="47.14847" lon="5.73863">
        <ele>231</ele>
        <time>2010-08-01T08:17:41Z</time>
      </trkpt>
      <trkpt lat="47.14846" lon="5.7384">
        <ele>231</ele>
        <time>2010-08-01T08:17:43Z</time>
      </trkpt>
      <trkpt lat="47.14843" lon="5.73819">
        <ele>231</ele>
        <time>2010-08-01T08:17:45Z</time>
      </trkpt>
      <trkpt lat="47.1484" lon="5.73799">
        <ele>231</ele>
        <time>2010-08-01T08:17:47Z</time>
      </trkpt>
      <trkpt lat="47.14836" lon="5.73777">
        <ele>231</ele>
        <time>2010-08-01T08:17:49Z</time>
      </trkpt>
      <trkpt lat="47.14832" lon="5.73756">
        <ele>231</ele>
        <time>2010-08-01T08:17:51Z</time>
      </trkpt>
      <trkpt lat="47.14828" lon="5.73734">
        <ele>231</ele>
        <time>2010-08-01T08:17:53Z</time>
      </trkpt>
      <trkpt lat="47.14823" lon="5.73711">
        <ele>231</ele>
        <time>2010-08-01T08:17:55Z</time>
      </trkpt>
      <trkpt lat="47.14817" lon="5.73688">
        <ele>231</ele>
        <time>2010-08-01T08:17:57Z</time>
      </trkpt>
      <trkpt lat="47.14812" lon="5.73664">
        <ele>231</ele>
        <time>2010-08-01T08:17:59Z</time>
      </trkpt>
      <trkpt lat="47.14806" lon="5.73642">
        <ele>231</ele>
        <time>2010-08-01T08:18:01Z</time>
      </trkpt>
      <trkpt lat="47.14801" lon="5.73618">
        <ele>225</ele>
        <time>2010-08-01T08:18:03Z</time>
      </trkpt>
      <trkpt lat="47.14796" lon="5.73596">
        <ele>225</ele>
        <time>2010-08-01T08:18:05Z</time>
      </trkpt>
      <trkpt lat="47.1479" lon="5.73573">
        <ele>225</ele>
        <time>2010-08-01T08:18:07Z</time>
      </trkpt>
      <trkpt lat="47.14785" lon="5.7355">
        <ele>225</ele>
        <time>2010-08-01T08:18:09Z</time>
      </trkpt>
      <trkpt lat="47.14779" lon="5.73528">
        <ele>225</ele>
        <time>2010-08-01T08:18:11Z</time>
      </trkpt>
      <trkpt lat="47.14774" lon="5.73505">
        <ele>225</ele>
        <time>2010-08-01T08:18:13Z</time>
      </trkpt>
      <trkpt lat="47.14768" lon="5.73482">
        <ele>225</ele>
        <time>2010-08-01T08:18:15Z</time>
      </trkpt>
      <trkpt lat="47.14763" lon="5.73459">
        <ele>225</ele>
        <time>2010-08-01T08:18:17Z</time>
      </trkpt>
      <trkpt lat="47.14758" lon="5.73437">
        <ele>225</ele>
        <time>2010-08-01T08:18:19Z</time>
      </trkpt>
      <trkpt lat="47.14752" lon="5.73414">
        <ele>225</ele>
        <time>2010-08-01T08:18:21Z</time>
      </trkpt>
      <trkpt lat="47.14747" lon="5.73392">
        <ele>225</ele>
        <time>2010-08-01T08:18:23Z</time>
      </trkpt>
      <trkpt lat="47.14742" lon="5.7337">
        <ele>225</ele>
        <time>2010-08-01T08:18:25Z</time>
      </trkpt>
      <trkpt lat="47.14736" lon="5.73348">
        <ele>225</ele>
        <time>2010-08-01T08:18:27Z</time>
      </trkpt>
      <trkpt lat="47.14731" lon="5.73326">
        <ele>225</ele>
        <time>2010-08-01T08:18:29Z</time>
      </trkpt>
      <trkpt lat="47.14726" lon="5.73305">
        <ele>225</ele>
        <time>2010-08-01T08:18:31Z</time>
      </trkpt>
      <trkpt lat="47.14721" lon="5.73283">
        <ele>225</ele>
        <time>2010-08-01T08:18:33Z</time>
      </trkpt>
      <trkpt lat="47.14715" lon="5.73262">
        <ele>225</ele>
        <time>2010-08-01T08:18:35Z</time>
      </trkpt>
      <trkpt lat="47.14709" lon="5.7324">
        <ele>225</ele>
        <time>2010-08-01T08:18:37Z</time>
      </trkpt>
      <trkpt lat="47.14703" lon="5.7322">
        <ele>220</ele>
        <time>2010-08-01T08:18:39Z</time>
      </trkpt>
      <trkpt lat="47.14698" lon="5.73198">
        <ele>220</ele>
        <time>2010-08-01T08:18:41Z</time>
      </trkpt>
      <trkpt lat="47.14691" lon="5.73176">
        <ele>220</ele>
        <time>2010-08-01T08:18:43Z</time>
      </trkpt>
      <trkpt lat="47.14685" lon="5.73155">
        <ele>220</ele>
        <time>2010-08-01T08:18:45Z</time>
      </trkpt>
      <trkpt lat="47.1468" lon="5.73133">
        <ele>220</ele>
        <time>2010-08-01T08:18:47Z</time>
      </trkpt>
      <trkpt lat="47.14674" lon="5.73112">
        <ele>220</ele>
        <time>2010-08-01T08:18:49Z</time>
      </trkpt>
      <trkpt lat="47.14669" lon="5.73089">
        <ele>220</ele>
        <time>2010-08-01T08:18:51Z</time>
      </trkpt>
      <trkpt lat="47.14665" lon="5.73067">
        <ele>220</ele>
        <time>2010-08-01T08:18:53Z</time>
      </trkpt>
      <trkpt lat="47.1466" lon="5.73043">
        <ele>220</ele>
        <time>2010-08-01T08:18:55Z</time>
      </trkpt>
      <trkpt lat="47.14655" lon="5.7302">
        <ele>220</ele>
        <time>2010-08-01T08:18:57Z</time>
      </trkpt>
      <trkpt lat="47.14651" lon="5.72997">
        <ele>220</ele>
        <time>2010-08-01T08:18:59Z</time>
      </trkpt>
      <trkpt lat="47.14647" lon="5.72973">
        <ele>220</ele>
        <time>2010-08-01T08:19:01Z</time>
      </trkpt>
      <trkpt lat="47.14642" lon="5.72953">
        <ele>220</ele>
        <time>2010-08-01T08:19:03Z</time>
      </trkpt>
      <trkpt lat="47.14638" lon="5.72931">
        <ele>220</ele>
        <time>2010-08-01T08:19:05Z</time>
      </trkpt>
      <trkpt lat="47.14633" lon="5.7291">
        <ele>220</ele>
        <time>2010-08-01T08:19:07Z</time>
      </trkpt>
      <trkpt lat="47.14628" lon="5.72888">
        <ele>220</ele>
        <time>2010-08-01T08:19:09Z</time>
      </trkpt>
      <trkpt lat="47.14623" lon="5.72867">
        <ele>220</ele>
        <time>2010-08-01T08:19:11Z</time>
      </trkpt>
      <trkpt lat="47.14618" lon="5.72846">
        <ele>220</ele>
        <time>2010-08-01T08:19:13Z</time>
      </trkpt>
      <trkpt lat="47.14612" lon="5.72825">
        <ele>220</ele>
        <time>2010-08-01T08:19:15Z</time>
      </trkpt>
      <trkpt lat="47.14605" lon="5.72806">
        <ele>220</ele>
        <time>2010-08-01T08:19:17Z</time>
      </trkpt>
      <trkpt lat="47.14597" lon="5.72788">
        <ele>220</ele>
        <time>2010-08-01T08:19:19Z</time>
      </trkpt>
      <trkpt lat="47.14589" lon="5.72771">
        <ele>220</ele>
        <time>2010-08-01T08:19:21Z</time>
      </trkpt>
      <trkpt lat="47.14578" lon="5.72756">
        <ele>220</ele>
        <time>2010-08-01T08:19:23Z</time>
      </trkpt>
      <trkpt lat="47.14567" lon="5.72741">
        <ele>220</ele>
        <time>2010-08-01T08:19:25Z</time>
      </trkpt>
      <trkpt lat="47.14556" lon="5.72725">
        <ele>220</ele>
        <time>2010-08-01T08:19:27Z</time>
      </trkpt>
      <trkpt lat="47.14544" lon="5.72711">
        <ele>220</ele>
        <time>2010-08-01T08:19:29Z</time>
      </trkpt>
      <trkpt lat="47.14533" lon="5.72698">
        <ele>220</ele>
        <time>2010-08-01T08:19:31Z</time>
      </trkpt>
      <trkpt lat="47.14523" lon="5.72685">
        <ele>220</ele>
        <time>2010-08-01T08:19:33Z</time>
      </trkpt>
      <trkpt lat="47.14515" lon="5.72672">
        <ele>220</ele>
        <time>2010-08-01T08:19:35Z</time>
      </trkpt>
      <trkpt lat="47.14517" lon="5.72657">
        <ele>220</ele>
        <time>2010-08-01T08:19:38Z</time>
      </trkpt>
      <trkpt lat="47.14527" lon="5.72647">
        <ele>220</ele>
        <time>2010-08-01T08:19:41Z</time>
      </trkpt>
      <trkpt lat="47.14517" lon="5.72654">
        <ele>220</ele>
        <time>2010-08-01T08:20:38Z</time>
      </trkpt>
      <trkpt lat="47.14509" lon="5.72659">
        <ele>220</ele>
        <time>2010-08-01T08:20:40Z</time>
      </trkpt>
      <trkpt lat="47.14498" lon="5.72655">
        <ele>220</ele>
        <time>2010-08-01T08:20:42Z</time>
      </trkpt>
      <trkpt lat="47.14487" lon="5.72644">
        <ele>220</ele>
        <time>2010-08-01T08:20:44Z</time>
      </trkpt>
      <trkpt lat="47.14476" lon="5.72632">
        <ele>220</ele>
        <time>2010-08-01T08:20:46Z</time>
      </trkpt>
      <trkpt lat="47.14466" lon="5.7262">
        <ele>220</ele>
        <time>2010-08-01T08:20:48Z</time>
      </trkpt>
      <trkpt lat="47.14455" lon="5.72612">
        <ele>220</ele>
        <time>2010-08-01T08:20:50Z</time>
      </trkpt>
      <trkpt lat="47.14444" lon="5.72608">
        <ele>220</ele>
        <time>2010-08-01T08:20:52Z</time>
      </trkpt>
      <trkpt lat="47.14435" lon="5.72602">
        <ele>220</ele>
        <time>2010-08-01T08:20:54Z</time>
      </trkpt>
      <trkpt lat="47.14425" lon="5.72596">
        <ele>220</ele>
        <time>2010-08-01T08:20:56Z</time>
      </trkpt>
      <trkpt lat="47.14416" lon="5.72586">
        <ele>220</ele>
        <time>2010-08-01T08:20:58Z</time>
      </trkpt>
      <trkpt lat="47.14407" lon="5.72574">
        <ele>220</ele>
        <time>2010-08-01T08:21:00Z</time>
      </trkpt>
      <trkpt lat="47.14399" lon="5.72559">
        <ele>220</ele>
        <time>2010-08-01T08:21:02Z</time>
      </trkpt>
      <trkpt lat="47.1439" lon="5.72543">
        <ele>220</ele>
        <time>2010-08-01T08:21:04Z</time>
      </trkpt>
      <trkpt lat="47.14381" lon="5.72526">
        <ele>220</ele>
        <time>2010-08-01T08:21:06Z</time>
      </trkpt>
      <trkpt lat="47.14372" lon="5.72508">
        <ele>220</ele>
        <time>2010-08-01T08:21:08Z</time>
      </trkpt>
      <trkpt lat="47.14362" lon="5.7249">
        <ele>220</ele>
        <time>2010-08-01T08:21:10Z</time>
      </trkpt>
      <trkpt lat="47.14353" lon="5.72472">
        <ele>220</ele>
        <time>2010-08-01T08:21:12Z</time>
      </trkpt>
      <trkpt lat="47.14344" lon="5.72453">
        <ele>220</ele>
        <time>2010-08-01T08:21:14Z</time>
      </trkpt>
      <trkpt lat="47.14335" lon="5.72435">
        <ele>220</ele>
        <time>2010-08-01T08:21:16Z</time>
      </trkpt>
      <trkpt lat="47.14325" lon="5.72417">
        <ele>220</ele>
        <time>2010-08-01T08:21:18Z</time>
      </trkpt>
      <trkpt lat="47.14316" lon="5.72399">
        <ele>220</ele>
        <time>2010-08-01T08:21:20Z</time>
      </trkpt>
      <trkpt lat="47.14306" lon="5.72381">
        <ele>220</ele>
        <time>2010-08-01T08:21:22Z</time>
      </trkpt>
      <trkpt lat="47.14296" lon="5.72364">
        <ele>220</ele>
        <time>2010-08-01T08:21:24Z</time>
      </trkpt>
      <trkpt lat="47.14286" lon="5.72346">
        <ele>220</ele>
        <time>2010-08-01T08:21:26Z</time>
      </trkpt>
      <trkpt lat="47.14277" lon="5.72327">
        <ele>220</ele>
        <time>2010-08-01T08:21:28Z</time>
      </trkpt>
      <trkpt lat="47.14267" lon="5.7231">
        <ele>220</ele>
        <time>2010-08-01T08:21:30Z</time>
      </trkpt>
      <trkpt lat="47.14257" lon="5.72292">
        <ele>220</ele>
        <time>2010-08-01T08:21:32Z</time>
      </trkpt>
      <trkpt lat="47.14246" lon="5.72276">
        <ele>220</ele>
        <time>2010-08-01T08:21:34Z</time>
      </trkpt>
      <trkpt lat="47.14234" lon="5.72261">
        <ele>220</ele>
        <time>2010-08-01T08:21:36Z</time>
      </trkpt>
      <trkpt lat="47.14223" lon="5.72246">
        <ele>220</ele>
        <time>2010-08-01T08:21:38Z</time>
      </trkpt>
      <trkpt lat="47.14211" lon="5.7223">
        <ele>220</ele>
        <time>2010-08-01T08:21:40Z</time>
      </trkpt>
      <trkpt lat="47.14199" lon="5.72215">
        <ele>220</ele>
        <time>2010-08-01T08:21:42Z</time>
      </trkpt>
      <trkpt lat="47.14188" lon="5.722">
        <ele>220</ele>
        <time>2010-08-01T08:21:44Z</time>
      </trkpt>
      <trkpt lat="47.14175" lon="5.72184">
        <ele>220</ele>
        <time>2010-08-01T08:21:46Z</time>
      </trkpt>
      <trkpt lat="47.14164" lon="5.72168">
        <ele>220</ele>
        <time>2010-08-01T08:21:48Z</time>
      </trkpt>
      <trkpt lat="47.14152" lon="5.72152">
        <ele>220</ele>
        <time>2010-08-01T08:21:50Z</time>
      </trkpt>
      <trkpt lat="47.14142" lon="5.72135">
        <ele>220</ele>
        <time>2010-08-01T08:21:52Z</time>
      </trkpt>
      <trkpt lat="47.14132" lon="5.72118">
        <ele>220</ele>
        <time>2010-08-01T08:21:54Z</time>
      </trkpt>
      <trkpt lat="47.14122" lon="5.721">
        <ele>220</ele>
        <time>2010-08-01T08:21:56Z</time>
      </trkpt>
      <trkpt lat="47.14114" lon="5.72081">
        <ele>220</ele>
        <time>2010-08-01T08:21:58Z</time>
      </trkpt>
      <trkpt lat="47.14104" lon="5.72063">
        <ele>220</ele>
        <time>2010-08-01T08:22:00Z</time>
      </trkpt>
      <trkpt lat="47.14096" lon="5.72045">
        <ele>220</ele>
        <time>2010-08-01T08:22:02Z</time>
      </trkpt>
      <trkpt lat="47.14088" lon="5.72027">
        <ele>220</ele>
        <time>2010-08-01T08:22:04Z</time>
      </trkpt>
      <trkpt lat="47.14079" lon="5.72008">
        <ele>220</ele>
        <time>2010-08-01T08:22:06Z</time>
      </trkpt>
      <trkpt lat="47.14071" lon="5.71988">
        <ele>220</ele>
        <time>2010-08-01T08:22:08Z</time>
      </trkpt>
      <trkpt lat="47.14064" lon="5.71966">
        <ele>220</ele>
        <time>2010-08-01T08:22:10Z</time>
      </trkpt>
      <trkpt lat="47.14059" lon="5.71945">
        <ele>220</ele>
        <time>2010-08-01T08:22:12Z</time>
      </trkpt>
      <trkpt lat="47.14054" lon="5.71923">
        <ele>220</ele>
        <time>2010-08-01T08:22:14Z</time>
      </trkpt>
      <trkpt lat="47.14047" lon="5.71903">
        <ele>220</ele>
        <time>2010-08-01T08:22:16Z</time>
      </trkpt>
      <trkpt lat="47.14039" lon="5.71883">
        <ele>220</ele>
        <time>2010-08-01T08:22:18Z</time>
      </trkpt>
      <trkpt lat="47.1403" lon="5.71864">
        <ele>220</ele>
        <time>2010-08-01T08:22:20Z</time>
      </trkpt>
      <trkpt lat="47.14021" lon="5.71844">
        <ele>220</ele>
        <time>2010-08-01T08:22:22Z</time>
      </trkpt>
      <trkpt lat="47.14011" lon="5.71825">
        <ele>220</ele>
        <time>2010-08-01T08:22:24Z</time>
      </trkpt>
      <trkpt lat="47.14001" lon="5.71807">
        <ele>220</ele>
        <time>2010-08-01T08:22:26Z</time>
      </trkpt>
      <trkpt lat="47.13991" lon="5.71788">
        <ele>220</ele>
        <time>2010-08-01T08:22:28Z</time>
      </trkpt>
      <trkpt lat="47.13982" lon="5.71768">
        <ele>220</ele>
        <time>2010-08-01T08:22:30Z</time>
      </trkpt>
      <trkpt lat="47.13973" lon="5.71748">
        <ele>220</ele>
        <time>2010-08-01T08:22:32Z</time>
      </trkpt>
      <trkpt lat="47.13965" lon="5.71727">
        <ele>220</ele>
        <time>2010-08-01T08:22:34Z</time>
      </trkpt>
      <trkpt lat="47.13957" lon="5.71706">
        <ele>220</ele>
        <time>2010-08-01T08:22:36Z</time>
      </trkpt>
      <trkpt lat="47.13949" lon="5.71685">
        <ele>220</ele>
        <time>2010-08-01T08:22:38Z</time>
      </trkpt>
      <trkpt lat="47.13942" lon="5.71664">
        <ele>220</ele>
        <time>2010-08-01T08:22:40Z</time>
      </trkpt>
      <trkpt lat="47.13935" lon="5.71641">
        <ele>220</ele>
        <time>2010-08-01T08:22:42Z</time>
      </trkpt>
      <trkpt lat="47.13928" lon="5.7162">
        <ele>220</ele>
        <time>2010-08-01T08:22:44Z</time>
      </trkpt>
      <trkpt lat="47.13922" lon="5.71597">
        <ele>220</ele>
        <time>2010-08-01T08:22:46Z</time>
      </trkpt>
      <trkpt lat="47.13916" lon="5.71576">
        <ele>220</ele>
        <time>2010-08-01T08:22:48Z</time>
      </trkpt>
      <trkpt lat="47.13909" lon="5.71554">
        <ele>220</ele>
        <time>2010-08-01T08:22:50Z</time>
      </trkpt>
      <trkpt lat="47.13904" lon="5.71532">
        <ele>220</ele>
        <time>2010-08-01T08:22:52Z</time>
      </trkpt>
      <trkpt lat="47.13898" lon="5.71511">
        <ele>220</ele>
        <time>2010-08-01T08:22:54Z</time>
      </trkpt>
      <trkpt lat="47.13893" lon="5.71489">
        <ele>220</ele>
        <time>2010-08-01T08:22:56Z</time>
      </trkpt>
      <trkpt lat="47.13889" lon="5.71468">
        <ele>220</ele>
        <time>2010-08-01T08:22:58Z</time>
      </trkpt>
      <trkpt lat="47.13885" lon="5.71444">
        <ele>220</ele>
        <time>2010-08-01T08:23:00Z</time>
      </trkpt>
      <trkpt lat="47.13882" lon="5.71422">
        <ele>225</ele>
        <time>2010-08-01T08:23:02Z</time>
      </trkpt>
      <trkpt lat="47.13879" lon="5.714">
        <ele>225</ele>
        <time>2010-08-01T08:23:04Z</time>
      </trkpt>
      <trkpt lat="47.13877" lon="5.71378">
        <ele>225</ele>
        <time>2010-08-01T08:23:06Z</time>
      </trkpt>
      <trkpt lat="47.13874" lon="5.71355">
        <ele>225</ele>
        <time>2010-08-01T08:23:08Z</time>
      </trkpt>
      <trkpt lat="47.13872" lon="5.7133">
        <ele>225</ele>
        <time>2010-08-01T08:23:10Z</time>
      </trkpt>
      <trkpt lat="47.1387" lon="5.71306">
        <ele>225</ele>
        <time>2010-08-01T08:23:12Z</time>
      </trkpt>
      <trkpt lat="47.13868" lon="5.71282">
        <ele>225</ele>
        <time>2010-08-01T08:23:14Z</time>
      </trkpt>
      <trkpt lat="47.13865" lon="5.71259">
        <ele>225</ele>
        <time>2010-08-01T08:23:16Z</time>
      </trkpt>
      <trkpt lat="47.13863" lon="5.71235">
        <ele>225</ele>
        <time>2010-08-01T08:23:18Z</time>
      </trkpt>
      <trkpt lat="47.13861" lon="5.71212">
        <ele>225</ele>
        <time>2010-08-01T08:23:20Z</time>
      </trkpt>
      <trkpt lat="47.13859" lon="5.71188">
        <ele>225</ele>
        <time>2010-08-01T08:23:22Z</time>
      </trkpt>
      <trkpt lat="47.13857" lon="5.71165">
        <ele>225</ele>
        <time>2010-08-01T08:23:24Z</time>
      </trkpt>
      <trkpt lat="47.13855" lon="5.71142">
        <ele>225</ele>
        <time>2010-08-01T08:23:26Z</time>
      </trkpt>
      <trkpt lat="47.13853" lon="5.71119">
        <ele>225</ele>
        <time>2010-08-01T08:23:28Z</time>
      </trkpt>
      <trkpt lat="47.13852" lon="5.71097">
        <ele>225</ele>
        <time>2010-08-01T08:23:30Z</time>
      </trkpt>
      <trkpt lat="47.13852" lon="5.71073">
        <ele>225</ele>
        <time>2010-08-01T08:23:32Z</time>
      </trkpt>
      <trkpt lat="47.13852" lon="5.71051">
        <ele>225</ele>
        <time>2010-08-01T08:23:34Z</time>
      </trkpt>
      <trkpt lat="47.13853" lon="5.71027">
        <ele>220</ele>
        <time>2010-08-01T08:23:36Z</time>
      </trkpt>
      <trkpt lat="47.13854" lon="5.71003">
        <ele>220</ele>
        <time>2010-08-01T08:23:38Z</time>
      </trkpt>
      <trkpt lat="47.13855" lon="5.70981">
        <ele>220</ele>
        <time>2010-08-01T08:23:40Z</time>
      </trkpt>
      <trkpt lat="47.13857" lon="5.70958">
        <ele>220</ele>
        <time>2010-08-01T08:23:42Z</time>
      </trkpt>
      <trkpt lat="47.13855" lon="5.70935">
        <ele>220</ele>
        <time>2010-08-01T08:23:44Z</time>
      </trkpt>
      <trkpt lat="47.13847" lon="5.70914">
        <ele>220</ele>
        <time>2010-08-01T08:23:46Z</time>
      </trkpt>
      <trkpt lat="47.13836" lon="5.70896">
        <ele>220</ele>
        <time>2010-08-01T08:23:48Z</time>
      </trkpt>
      <trkpt lat="47.13825" lon="5.70881">
        <ele>220</ele>
        <time>2010-08-01T08:23:50Z</time>
      </trkpt>
      <trkpt lat="47.13813" lon="5.70867">
        <ele>220</ele>
        <time>2010-08-01T08:23:52Z</time>
      </trkpt>
      <trkpt lat="47.13801" lon="5.70852">
        <ele>220</ele>
        <time>2010-08-01T08:23:54Z</time>
      </trkpt>
      <trkpt lat="47.13789" lon="5.70838">
        <ele>220</ele>
        <time>2010-08-01T08:23:56Z</time>
      </trkpt>
      <trkpt lat="47.13776" lon="5.70824">
        <ele>220</ele>
        <time>2010-08-01T08:23:58Z</time>
      </trkpt>
      <trkpt lat="47.13765" lon="5.70809">
        <ele>220</ele>
        <time>2010-08-01T08:24:00Z</time>
      </trkpt>
      <trkpt lat="47.13753" lon="5.70796">
        <ele>220</ele>
        <time>2010-08-01T08:24:02Z</time>
      </trkpt>
      <trkpt lat="47.13741" lon="5.70782">
        <ele>220</ele>
        <time>2010-08-01T08:24:04Z</time>
      </trkpt>
      <trkpt lat="47.13729" lon="5.70768">
        <ele>220</ele>
        <time>2010-08-01T08:24:06Z</time>
      </trkpt>
      <trkpt lat="47.13718" lon="5.70754">
        <ele>220</ele>
        <time>2010-08-01T08:24:08Z</time>
      </trkpt>
      <trkpt lat="47.13706" lon="5.70739">
        <ele>220</ele>
        <time>2010-08-01T08:24:10Z</time>
      </trkpt>
      <trkpt lat="47.13694" lon="5.70725">
        <ele>215</ele>
        <time>2010-08-01T08:24:12Z</time>
      </trkpt>
      <trkpt lat="47.13681" lon="5.70711">
        <ele>215</ele>
        <time>2010-08-01T08:24:14Z</time>
      </trkpt>
      <trkpt lat="47.1367" lon="5.70696">
        <ele>215</ele>
        <time>2010-08-01T08:24:16Z</time>
      </trkpt>
      <trkpt lat="47.13657" lon="5.70681">
        <ele>215</ele>
        <time>2010-08-01T08:24:18Z</time>
      </trkpt>
      <trkpt lat="47.13645" lon="5.70667">
        <ele>215</ele>
        <time>2010-08-01T08:24:20Z</time>
      </trkpt>
      <trkpt lat="47.13634" lon="5.70652">
        <ele>215</ele>
        <time>2010-08-01T08:24:22Z</time>
      </trkpt>
      <trkpt lat="47.13621" lon="5.70639">
        <ele>215</ele>
        <time>2010-08-01T08:24:24Z</time>
      </trkpt>
      <trkpt lat="47.1361" lon="5.70624">
        <ele>215</ele>
        <time>2010-08-01T08:24:26Z</time>
      </trkpt>
      <trkpt lat="47.13598" lon="5.70611">
        <ele>215</ele>
        <time>2010-08-01T08:24:28Z</time>
      </trkpt>
      <trkpt lat="47.13586" lon="5.70596">
        <ele>215</ele>
        <time>2010-08-01T08:24:30Z</time>
      </trkpt>
      <trkpt lat="47.13575" lon="5.70582">
        <ele>215</ele>
        <time>2010-08-01T08:24:32Z</time>
      </trkpt>
      <trkpt lat="47.13562" lon="5.70568">
        <ele>215</ele>
        <time>2010-08-01T08:24:34Z</time>
      </trkpt>
      <trkpt lat="47.13551" lon="5.70553">
        <ele>215</ele>
        <time>2010-08-01T08:24:36Z</time>
      </trkpt>
      <trkpt lat="47.13539" lon="5.70539">
        <ele>215</ele>
        <time>2010-08-01T08:24:38Z</time>
      </trkpt>
      <trkpt lat="47.13526" lon="5.70525">
        <ele>215</ele>
        <time>2010-08-01T08:24:40Z</time>
      </trkpt>
      <trkpt lat="47.13515" lon="5.70509">
        <ele>215</ele>
        <time>2010-08-01T08:24:42Z</time>
      </trkpt>
      <trkpt lat="47.13507" lon="5.7049">
        <ele>215</ele>
        <time>2010-08-01T08:24:44Z</time>
      </trkpt>
      <trkpt lat="47.13501" lon="5.70467">
        <ele>215</ele>
        <time>2010-08-01T08:24:46Z</time>
      </trkpt>
      <trkpt lat="47.13499" lon="5.70444">
        <ele>215</ele>
        <time>2010-08-01T08:24:48Z</time>
      </trkpt>
      <trkpt lat="47.13499" lon="5.7042">
        <ele>215</ele>
        <time>2010-08-01T08:24:50Z</time>
      </trkpt>
      <trkpt lat="47.13499" lon="5.70398">
        <ele>215</ele>
        <time>2010-08-01T08:24:52Z</time>
      </trkpt>
      <trkpt lat="47.13501" lon="5.70374">
        <ele>215</ele>
        <time>2010-08-01T08:24:54Z</time>
      </trkpt>
      <trkpt lat="47.135" lon="5.70351">
        <ele>215</ele>
        <time>2010-08-01T08:24:56Z</time>
      </trkpt>
      <trkpt lat="47.135" lon="5.7033">
        <ele>215</ele>
        <time>2010-08-01T08:24:58Z</time>
      </trkpt>
      <trkpt lat="47.13499" lon="5.70306">
        <ele>215</ele>
        <time>2010-08-01T08:25:00Z</time>
      </trkpt>
      <trkpt lat="47.13497" lon="5.70284">
        <ele>215</ele>
        <time>2010-08-01T08:25:02Z</time>
      </trkpt>
      <trkpt lat="47.13496" lon="5.70261">
        <ele>215</ele>
        <time>2010-08-01T08:25:04Z</time>
      </trkpt>
      <trkpt lat="47.13494" lon="5.70239">
        <ele>215</ele>
        <time>2010-08-01T08:25:06Z</time>
      </trkpt>
      <trkpt lat="47.13493" lon="5.70216">
        <ele>215</ele>
        <time>2010-08-01T08:25:08Z</time>
      </trkpt>
      <trkpt lat="47.13493" lon="5.70194">
        <ele>215</ele>
        <time>2010-08-01T08:25:10Z</time>
      </trkpt>
      <trkpt lat="47.13491" lon="5.70172">
        <ele>215</ele>
        <time>2010-08-01T08:25:12Z</time>
      </trkpt>
      <trkpt lat="47.13488" lon="5.70151">
        <ele>215</ele>
        <time>2010-08-01T08:25:14Z</time>
      </trkpt>
      <trkpt lat="47.13486" lon="5.70128">
        <ele>215</ele>
        <time>2010-08-01T08:25:16Z</time>
      </trkpt>
      <trkpt lat="47.13485" lon="5.70107">
        <ele>215</ele>
        <time>2010-08-01T08:25:18Z</time>
      </trkpt>
      <trkpt lat="47.1348" lon="5.70084">
        <ele>215</ele>
        <time>2010-08-01T08:25:20Z</time>
      </trkpt>
      <trkpt lat="47.13474" lon="5.70063">
        <ele>215</ele>
        <time>2010-08-01T08:25:22Z</time>
      </trkpt>
      <trkpt lat="47.13467" lon="5.70042">
        <ele>215</ele>
        <time>2010-08-01T08:25:24Z</time>
      </trkpt>
      <trkpt lat="47.13461" lon="5.70022">
        <ele>215</ele>
        <time>2010-08-01T08:25:26Z</time>
      </trkpt>
      <trkpt lat="47.13452" lon="5.70003">
        <ele>215</ele>
        <time>2010-08-01T08:25:28Z</time>
      </trkpt>
      <trkpt lat="47.13445" lon="5.69983">
        <ele>215</ele>
        <time>2010-08-01T08:25:30Z</time>
      </trkpt>
      <trkpt lat="47.13437" lon="5.69964">
        <ele>215</ele>
        <time>2010-08-01T08:25:32Z</time>
      </trkpt>
      <trkpt lat="47.1343" lon="5.69945">
        <ele>215</ele>
        <time>2010-08-01T08:25:34Z</time>
      </trkpt>
      <trkpt lat="47.13422" lon="5.69925">
        <ele>215</ele>
        <time>2010-08-01T08:25:36Z</time>
      </trkpt>
      <trkpt lat="47.13414" lon="5.69906">
        <ele>215</ele>
        <time>2010-08-01T08:25:38Z</time>
      </trkpt>
      <trkpt lat="47.13406" lon="5.69887">
        <ele>215</ele>
        <time>2010-08-01T08:25:40Z</time>
      </trkpt>
      <trkpt lat="47.13399" lon="5.69867">
        <ele>215</ele>
        <time>2010-08-01T08:25:42Z</time>
      </trkpt>
      <trkpt lat="47.13391" lon="5.69847">
        <ele>215</ele>
        <time>2010-08-01T08:25:44Z</time>
      </trkpt>
      <trkpt lat="47.13385" lon="5.69828">
        <ele>215</ele>
        <time>2010-08-01T08:25:46Z</time>
      </trkpt>
      <trkpt lat="47.13379" lon="5.69809">
        <ele>215</ele>
        <time>2010-08-01T08:25:48Z</time>
      </trkpt>
      <trkpt lat="47.1337" lon="5.6979">
        <ele>215</ele>
        <time>2010-08-01T08:25:50Z</time>
      </trkpt>
      <trkpt lat="47.13361" lon="5.6977">
        <ele>215</ele>
        <time>2010-08-01T08:25:52Z</time>
      </trkpt>
      <trkpt lat="47.13353" lon="5.6975">
        <ele>215</ele>
        <time>2010-08-01T08:25:54Z</time>
      </trkpt>
      <trkpt lat="47.13345" lon="5.6973">
        <ele>215</ele>
        <time>2010-08-01T08:25:56Z</time>
      </trkpt>
      <trkpt lat="47.13336" lon="5.69713">
        <ele>215</ele>
        <time>2010-08-01T08:25:58Z</time>
      </trkpt>
      <trkpt lat="47.1333" lon="5.69695">
        <ele>215</ele>
        <time>2010-08-01T08:26:00Z</time>
      </trkpt>
      <trkpt lat="47.13321" lon="5.69677">
        <ele>215</ele>
        <time>2010-08-01T08:26:02Z</time>
      </trkpt>
      <trkpt lat="47.13314" lon="5.69659">
        <ele>215</ele>
        <time>2010-08-01T08:26:04Z</time>
      </trkpt>
      <trkpt lat="47.13306" lon="5.69641">
        <ele>215</ele>
        <time>2010-08-01T08:26:06Z</time>
      </trkpt>
      <trkpt lat="47.13298" lon="5.69622">
        <ele>215</ele>
        <time>2010-08-01T08:26:08Z</time>
      </trkpt>
      <trkpt lat="47.1329" lon="5.69602">
        <ele>215</ele>
        <time>2010-08-01T08:26:10Z</time>
      </trkpt>
      <trkpt lat="47.13282" lon="5.69582">
        <ele>215</ele>
        <time>2010-08-01T08:26:12Z</time>
      </trkpt>
      <trkpt lat="47.13274" lon="5.69562">
        <ele>215</ele>
        <time>2010-08-01T08:26:14Z</time>
      </trkpt>
      <trkpt lat="47.13267" lon="5.69544">
        <ele>215</ele>
        <time>2010-08-01T08:26:16Z</time>
      </trkpt>
      <trkpt lat="47.13259" lon="5.69524">
        <ele>215</ele>
        <time>2010-08-01T08:26:18Z</time>
      </trkpt>
      <trkpt lat="47.13252" lon="5.69505">
        <ele>215</ele>
        <time>2010-08-01T08:26:20Z</time>
      </trkpt>
      <trkpt lat="47.13244" lon="5.69485">
        <ele>215</ele>
        <time>2010-08-01T08:26:22Z</time>
      </trkpt>
      <trkpt lat="47.13236" lon="5.69465">
        <ele>215</ele>
        <time>2010-08-01T08:26:24Z</time>
      </trkpt>
      <trkpt lat="47.13228" lon="5.69445">
        <ele>215</ele>
        <time>2010-08-01T08:26:26Z</time>
      </trkpt>
      <trkpt lat="47.13221" lon="5.69425">
        <ele>215</ele>
        <time>2010-08-01T08:26:28Z</time>
      </trkpt>
      <trkpt lat="47.13214" lon="5.69404">
        <ele>215</ele>
        <time>2010-08-01T08:26:30Z</time>
      </trkpt>
      <trkpt lat="47.13207" lon="5.69383">
        <ele>215</ele>
        <time>2010-08-01T08:26:32Z</time>
      </trkpt>
      <trkpt lat="47.13199" lon="5.69361">
        <ele>215</ele>
        <time>2010-08-01T08:26:34Z</time>
      </trkpt>
      <trkpt lat="47.13191" lon="5.69341">
        <ele>215</ele>
        <time>2010-08-01T08:26:36Z</time>
      </trkpt>
      <trkpt lat="47.13183" lon="5.6932">
        <ele>215</ele>
        <time>2010-08-01T08:26:38Z</time>
      </trkpt>
      <trkpt lat="47.13175" lon="5.69299">
        <ele>215</ele>
        <time>2010-08-01T08:26:40Z</time>
      </trkpt>
      <trkpt lat="47.13166" lon="5.69279">
        <ele>215</ele>
        <time>2010-08-01T08:26:42Z</time>
      </trkpt>
      <trkpt lat="47.13158" lon="5.69259">
        <ele>215</ele>
        <time>2010-08-01T08:26:44Z</time>
      </trkpt>
      <trkpt lat="47.13151" lon="5.69239">
        <ele>215</ele>
        <time>2010-08-01T08:26:46Z</time>
      </trkpt>
      <trkpt lat="47.13144" lon="5.69218">
        <ele>215</ele>
        <time>2010-08-01T08:26:48Z</time>
      </trkpt>
      <trkpt lat="47.13138" lon="5.69198">
        <ele>215</ele>
        <time>2010-08-01T08:26:50Z</time>
      </trkpt>
      <trkpt lat="47.13132" lon="5.69178">
        <ele>215</ele>
        <time>2010-08-01T08:26:52Z</time>
      </trkpt>
      <trkpt lat="47.13128" lon="5.69161">
        <ele>215</ele>
        <time>2010-08-01T08:26:54Z</time>
      </trkpt>
      <trkpt lat="47.13123" lon="5.69145">
        <ele>215</ele>
        <time>2010-08-01T08:26:56Z</time>
      </trkpt>
      <trkpt lat="47.13119" lon="5.69129">
        <ele>220</ele>
        <time>2010-08-01T08:26:58Z</time>
      </trkpt>
      <trkpt lat="47.13113" lon="5.69116">
        <ele>220</ele>
        <time>2010-08-01T08:27:00Z</time>
      </trkpt>
      <trkpt lat="47.13108" lon="5.69103">
        <ele>220</ele>
        <time>2010-08-01T08:27:02Z</time>
      </trkpt>
      <trkpt lat="47.13104" lon="5.6909">
        <ele>220</ele>
        <time>2010-08-01T08:27:04Z</time>
      </trkpt>
      <trkpt lat="47.13099" lon="5.69078">
        <ele>220</ele>
        <time>2010-08-01T08:27:06Z</time>
      </trkpt>
      <trkpt lat="47.13093" lon="5.69067">
        <ele>220</ele>
        <time>2010-08-01T08:27:08Z</time>
      </trkpt>
      <trkpt lat="47.13088" lon="5.69056">
        <ele>220</ele>
        <time>2010-08-01T08:27:10Z</time>
      </trkpt>
      <trkpt lat="47.13083" lon="5.69043">
        <ele>220</ele>
        <time>2010-08-01T08:27:12Z</time>
      </trkpt>
      <trkpt lat="47.13083" lon="5.69026">
        <ele>220</ele>
        <time>2010-08-01T08:27:14Z</time>
      </trkpt>
      <trkpt lat="47.13092" lon="5.69007">
        <ele>220</ele>
        <time>2010-08-01T08:27:16Z</time>
      </trkpt>
      <trkpt lat="47.13102" lon="5.68987">
        <ele>220</ele>
        <time>2010-08-01T08:27:18Z</time>
      </trkpt>
      <trkpt lat="47.13109" lon="5.68976">
        <ele>220</ele>
        <time>2010-08-01T08:27:19Z</time>
      </trkpt>
      <trkpt lat="47.13116" lon="5.68965">
        <ele>220</ele>
        <time>2010-08-01T08:27:20Z</time>
      </trkpt>
      <trkpt lat="47.13124" lon="5.68955">
        <ele>220</ele>
        <time>2010-08-01T08:27:21Z</time>
      </trkpt>
      <trkpt lat="47.13132" lon="5.68945">
        <ele>220</ele>
        <time>2010-08-01T08:27:22Z</time>
      </trkpt>
      <trkpt lat="47.13139" lon="5.68936">
        <ele>220</ele>
        <time>2010-08-01T08:27:23Z</time>
      </trkpt>
      <trkpt lat="47.13147" lon="5.68926">
        <ele>220</ele>
        <time>2010-08-01T08:27:24Z</time>
      </trkpt>
      <trkpt lat="47.13153" lon="5.68917">
        <ele>220</ele>
        <time>2010-08-01T08:27:25Z</time>
      </trkpt>
      <trkpt lat="47.13163" lon="5.68896">
        <ele>220</ele>
        <time>2010-08-01T08:27:27Z</time>
      </trkpt>
      <trkpt lat="47.13171" lon="5.68874">
        <ele>220</ele>
        <time>2010-08-01T08:27:29Z</time>
      </trkpt>
      <trkpt lat="47.13177" lon="5.68853">
        <ele>220</ele>
        <time>2010-08-01T08:27:31Z</time>
      </trkpt>
      <trkpt lat="47.13182" lon="5.68832">
        <ele>220</ele>
        <time>2010-08-01T08:27:33Z</time>
      </trkpt>
      <trkpt lat="47.13189" lon="5.68811">
        <ele>220</ele>
        <time>2010-08-01T08:27:35Z</time>
      </trkpt>
      <trkpt lat="47.13195" lon="5.68791">
        <ele>220</ele>
        <time>2010-08-01T08:27:37Z</time>
      </trkpt>
      <trkpt lat="47.132" lon="5.68769">
        <ele>220</ele>
        <time>2010-08-01T08:27:39Z</time>
      </trkpt>
      <trkpt lat="47.13206" lon="5.68749">
        <ele>220</ele>
        <time>2010-08-01T08:27:41Z</time>
      </trkpt>
      <trkpt lat="47.13212" lon="5.68728">
        <ele>220</ele>
        <time>2010-08-01T08:27:43Z</time>
      </trkpt>
      <trkpt lat="47.13219" lon="5.68708">
        <ele>220</ele>
        <time>2010-08-01T08:27:45Z</time>
      </trkpt>
      <trkpt lat="47.13224" lon="5.68688">
        <ele>220</ele>
        <time>2010-08-01T08:27:47Z</time>
      </trkpt>
      <trkpt lat="47.1323" lon="5.68667">
        <ele>220</ele>
        <time>2010-08-01T08:27:49Z</time>
      </trkpt>
      <trkpt lat="47.13234" lon="5.68646">
        <ele>220</ele>
        <time>2010-08-01T08:27:51Z</time>
      </trkpt>
      <trkpt lat="47.13237" lon="5.68625">
        <ele>220</ele>
        <time>2010-08-01T08:27:53Z</time>
      </trkpt>
      <trkpt lat="47.13238" lon="5.68602">
        <ele>220</ele>
        <time>2010-08-01T08:27:55Z</time>
      </trkpt>
      <trkpt lat="47.13238" lon="5.68581">
        <ele>220</ele>
        <time>2010-08-01T08:27:57Z</time>
      </trkpt>
      <trkpt lat="47.13237" lon="5.6856">
        <ele>220</ele>
        <time>2010-08-01T08:27:59Z</time>
      </trkpt>
      <trkpt lat="47.13236" lon="5.68539">
        <ele>220</ele>
        <time>2010-08-01T08:28:01Z</time>
      </trkpt>
      <trkpt lat="47.13235" lon="5.68519">
        <ele>220</ele>
        <time>2010-08-01T08:28:03Z</time>
      </trkpt>
      <trkpt lat="47.13234" lon="5.68497">
        <ele>220</ele>
        <time>2010-08-01T08:28:05Z</time>
      </trkpt>
      <trkpt lat="47.13233" lon="5.68476">
        <ele>220</ele>
        <time>2010-08-01T08:28:07Z</time>
      </trkpt>
      <trkpt lat="47.13233" lon="5.68456">
        <ele>220</ele>
        <time>2010-08-01T08:28:09Z</time>
      </trkpt>
      <trkpt lat="47.13233" lon="5.68434">
        <ele>220</ele>
        <time>2010-08-01T08:28:11Z</time>
      </trkpt>
      <trkpt lat="47.13233" lon="5.68414">
        <ele>220</ele>
        <time>2010-08-01T08:28:13Z</time>
      </trkpt>
      <trkpt lat="47.13235" lon="5.68392">
        <ele>220</ele>
        <time>2010-08-01T08:28:15Z</time>
      </trkpt>
      <trkpt lat="47.13236" lon="5.6837">
        <ele>220</ele>
        <time>2010-08-01T08:28:17Z</time>
      </trkpt>
      <trkpt lat="47.13237" lon="5.68349">
        <ele>220</ele>
        <time>2010-08-01T08:28:19Z</time>
      </trkpt>
      <trkpt lat="47.13238" lon="5.68327">
        <ele>220</ele>
        <time>2010-08-01T08:28:21Z</time>
      </trkpt>
      <trkpt lat="47.13238" lon="5.68304">
        <ele>220</ele>
        <time>2010-08-01T08:28:23Z</time>
      </trkpt>
      <trkpt lat="47.13236" lon="5.68282">
        <ele>220</ele>
        <time>2010-08-01T08:28:25Z</time>
      </trkpt>
      <trkpt lat="47.13235" lon="5.68261">
        <ele>220</ele>
        <time>2010-08-01T08:28:27Z</time>
      </trkpt>
      <trkpt lat="47.13233" lon="5.68239">
        <ele>220</ele>
        <time>2010-08-01T08:28:29Z</time>
      </trkpt>
      <trkpt lat="47.13232" lon="5.68218">
        <ele>220</ele>
        <time>2010-08-01T08:28:31Z</time>
      </trkpt>
      <trkpt lat="47.13231" lon="5.68195">
        <ele>220</ele>
        <time>2010-08-01T08:28:33Z</time>
      </trkpt>
      <trkpt lat="47.1323" lon="5.68174">
        <ele>220</ele>
        <time>2010-08-01T08:28:35Z</time>
      </trkpt>
      <trkpt lat="47.13228" lon="5.68152">
        <ele>220</ele>
        <time>2010-08-01T08:28:37Z</time>
      </trkpt>
      <trkpt lat="47.13227" lon="5.6813">
        <ele>220</ele>
        <time>2010-08-01T08:28:39Z</time>
      </trkpt>
      <trkpt lat="47.13226" lon="5.68108">
        <ele>220</ele>
        <time>2010-08-01T08:28:41Z</time>
      </trkpt>
      <trkpt lat="47.13225" lon="5.68086">
        <ele>220</ele>
        <time>2010-08-01T08:28:43Z</time>
      </trkpt>
      <trkpt lat="47.13223" lon="5.68064">
        <ele>220</ele>
        <time>2010-08-01T08:28:45Z</time>
      </trkpt>
      <trkpt lat="47.13222" lon="5.68043">
        <ele>220</ele>
        <time>2010-08-01T08:28:47Z</time>
      </trkpt>
      <trkpt lat="47.1322" lon="5.68022">
        <ele>220</ele>
        <time>2010-08-01T08:28:49Z</time>
      </trkpt>
      <trkpt lat="47.13219" lon="5.67999">
        <ele>220</ele>
        <time>2010-08-01T08:28:51Z</time>
      </trkpt>
      <trkpt lat="47.13218" lon="5.67979">
        <ele>220</ele>
        <time>2010-08-01T08:28:53Z</time>
      </trkpt>
      <trkpt lat="47.13217" lon="5.67957">
        <ele>220</ele>
        <time>2010-08-01T08:28:55Z</time>
      </trkpt>
      <trkpt lat="47.13216" lon="5.67936">
        <ele>220</ele>
        <time>2010-08-01T08:28:57Z</time>
      </trkpt>
      <trkpt lat="47.13214" lon="5.67913">
        <ele>220</ele>
        <time>2010-08-01T08:28:59Z</time>
      </trkpt>
      <trkpt lat="47.13214" lon="5.67892">
        <ele>220</ele>
        <time>2010-08-01T08:29:01Z</time>
      </trkpt>
      <trkpt lat="47.13214" lon="5.67869">
        <ele>220</ele>
        <time>2010-08-01T08:29:03Z</time>
      </trkpt>
      <trkpt lat="47.13215" lon="5.67848">
        <ele>220</ele>
        <time>2010-08-01T08:29:05Z</time>
      </trkpt>
      <trkpt lat="47.13221" lon="5.67827">
        <ele>220</ele>
        <time>2010-08-01T08:29:07Z</time>
      </trkpt>
      <trkpt lat="47.13229" lon="5.67808">
        <ele>220</ele>
        <time>2010-08-01T08:29:09Z</time>
      </trkpt>
      <trkpt lat="47.13239" lon="5.67792">
        <ele>220</ele>
        <time>2010-08-01T08:29:11Z</time>
      </trkpt>
      <trkpt lat="47.1325" lon="5.67776">
        <ele>220</ele>
        <time>2010-08-01T08:29:13Z</time>
      </trkpt>
      <trkpt lat="47.13262" lon="5.6776">
        <ele>220</ele>
        <time>2010-08-01T08:29:15Z</time>
      </trkpt>
      <trkpt lat="47.13274" lon="5.67743">
        <ele>220</ele>
        <time>2010-08-01T08:29:17Z</time>
      </trkpt>
      <trkpt lat="47.13286" lon="5.67728">
        <ele>220</ele>
        <time>2010-08-01T08:29:19Z</time>
      </trkpt>
      <trkpt lat="47.13298" lon="5.67711">
        <ele>220</ele>
        <time>2010-08-01T08:29:21Z</time>
      </trkpt>
      <trkpt lat="47.13311" lon="5.67694">
        <ele>220</ele>
        <time>2010-08-01T08:29:23Z</time>
      </trkpt>
      <trkpt lat="47.13323" lon="5.67678">
        <ele>220</ele>
        <time>2010-08-01T08:29:25Z</time>
      </trkpt>
      <trkpt lat="47.13336" lon="5.67661">
        <ele>220</ele>
        <time>2010-08-01T08:29:27Z</time>
      </trkpt>
      <trkpt lat="47.13347" lon="5.67644">
        <ele>220</ele>
        <time>2010-08-01T08:29:29Z</time>
      </trkpt>
      <trkpt lat="47.13359" lon="5.67627">
        <ele>220</ele>
        <time>2010-08-01T08:29:31Z</time>
      </trkpt>
      <trkpt lat="47.13371" lon="5.6761">
        <ele>220</ele>
        <time>2010-08-01T08:29:33Z</time>
      </trkpt>
      <trkpt lat="47.13383" lon="5.67594">
        <ele>220</ele>
        <time>2010-08-01T08:29:35Z</time>
      </trkpt>
      <trkpt lat="47.13394" lon="5.67578">
        <ele>220</ele>
        <time>2010-08-01T08:29:37Z</time>
      </trkpt>
      <trkpt lat="47.13407" lon="5.67561">
        <ele>220</ele>
        <time>2010-08-01T08:29:39Z</time>
      </trkpt>
      <trkpt lat="47.13418" lon="5.67545">
        <ele>220</ele>
        <time>2010-08-01T08:29:41Z</time>
      </trkpt>
      <trkpt lat="47.1343" lon="5.67528">
        <ele>220</ele>
        <time>2010-08-01T08:29:43Z</time>
      </trkpt>
      <trkpt lat="47.1344" lon="5.6751">
        <ele>220</ele>
        <time>2010-08-01T08:29:45Z</time>
      </trkpt>
      <trkpt lat="47.13447" lon="5.6749">
        <ele>220</ele>
        <time>2010-08-01T08:29:47Z</time>
      </trkpt>
      <trkpt lat="47.13454" lon="5.67469">
        <ele>220</ele>
        <time>2010-08-01T08:29:49Z</time>
      </trkpt>
      <trkpt lat="47.13459" lon="5.67448">
        <ele>220</ele>
        <time>2010-08-01T08:29:51Z</time>
      </trkpt>
      <trkpt lat="47.13464" lon="5.67425">
        <ele>220</ele>
        <time>2010-08-01T08:29:53Z</time>
      </trkpt>
      <trkpt lat="47.13469" lon="5.67402">
        <ele>220</ele>
        <time>2010-08-01T08:29:55Z</time>
      </trkpt>
      <trkpt lat="47.13476" lon="5.67378">
        <ele>220</ele>
        <time>2010-08-01T08:29:57Z</time>
      </trkpt>
      <trkpt lat="47.13483" lon="5.67354">
        <ele>220</ele>
        <time>2010-08-01T08:29:59Z</time>
      </trkpt>
      <trkpt lat="47.13486" lon="5.67341">
        <ele>220</ele>
        <time>2010-08-01T08:30:00Z</time>
      </trkpt>
      <trkpt lat="47.1349" lon="5.67328">
        <ele>220</ele>
        <time>2010-08-01T08:30:01Z</time>
      </trkpt>
      <trkpt lat="47.13493" lon="5.67316">
        <ele>220</ele>
        <time>2010-08-01T08:30:02Z</time>
      </trkpt>
      <trkpt lat="47.13496" lon="5.67303">
        <ele>220</ele>
        <time>2010-08-01T08:30:03Z</time>
      </trkpt>
      <trkpt lat="47.135" lon="5.67291">
        <ele>220</ele>
        <time>2010-08-01T08:30:04Z</time>
      </trkpt>
      <trkpt lat="47.13507" lon="5.67266">
        <ele>220</ele>
        <time>2010-08-01T08:30:06Z</time>
      </trkpt>
      <trkpt lat="47.1351" lon="5.67254">
        <ele>220</ele>
        <time>2010-08-01T08:30:07Z</time>
      </trkpt>
      <trkpt lat="47.13513" lon="5.67241">
        <ele>220</ele>
        <time>2010-08-01T08:30:08Z</time>
      </trkpt>
      <trkpt lat="47.13517" lon="5.67229">
        <ele>220</ele>
        <time>2010-08-01T08:30:09Z</time>
      </trkpt>
      <trkpt lat="47.13523" lon="5.67204">
        <ele>220</ele>
        <time>2010-08-01T08:30:11Z</time>
      </trkpt>
      <trkpt lat="47.13526" lon="5.67192">
        <ele>220</ele>
        <time>2010-08-01T08:30:12Z</time>
      </trkpt>
      <trkpt lat="47.13533" lon="5.67168">
        <ele>220</ele>
        <time>2010-08-01T08:30:14Z</time>
      </trkpt>
      <trkpt lat="47.13537" lon="5.67156">
        <ele>220</ele>
        <time>2010-08-01T08:30:15Z</time>
      </trkpt>
      <trkpt lat="47.13543" lon="5.67132">
        <ele>220</ele>
        <time>2010-08-01T08:30:17Z</time>
      </trkpt>
      <trkpt lat="47.13548" lon="5.67107">
        <ele>220</ele>
        <time>2010-08-01T08:30:19Z</time>
      </trkpt>
      <trkpt lat="47.13555" lon="5.67084">
        <ele>220</ele>
        <time>2010-08-01T08:30:21Z</time>
      </trkpt>
      <trkpt lat="47.13561" lon="5.67061">
        <ele>220</ele>
        <time>2010-08-01T08:30:23Z</time>
      </trkpt>
      <trkpt lat="47.13567" lon="5.67037">
        <ele>220</ele>
        <time>2010-08-01T08:30:25Z</time>
      </trkpt>
      <trkpt lat="47.13573" lon="5.67014">
        <ele>220</ele>
        <time>2010-08-01T08:30:27Z</time>
      </trkpt>
      <trkpt lat="47.13579" lon="5.66992">
        <ele>220</ele>
        <time>2010-08-01T08:30:29Z</time>
      </trkpt>
      <trkpt lat="47.13585" lon="5.66968">
        <ele>220</ele>
        <time>2010-08-01T08:30:31Z</time>
      </trkpt>
      <trkpt lat="47.13591" lon="5.66947">
        <ele>220</ele>
        <time>2010-08-01T08:30:33Z</time>
      </trkpt>
      <trkpt lat="47.13597" lon="5.66924">
        <ele>220</ele>
        <time>2010-08-01T08:30:35Z</time>
      </trkpt>
      <trkpt lat="47.13604" lon="5.66903">
        <ele>220</ele>
        <time>2010-08-01T08:30:37Z</time>
      </trkpt>
      <trkpt lat="47.1361" lon="5.6688">
        <ele>220</ele>
        <time>2010-08-01T08:30:39Z</time>
      </trkpt>
      <trkpt lat="47.13616" lon="5.66858">
        <ele>220</ele>
        <time>2010-08-01T08:30:41Z</time>
      </trkpt>
      <trkpt lat="47.13623" lon="5.66835">
        <ele>220</ele>
        <time>2010-08-01T08:30:43Z</time>
      </trkpt>
      <trkpt lat="47.13629" lon="5.66814">
        <ele>220</ele>
        <time>2010-08-01T08:30:45Z</time>
      </trkpt>
      <trkpt lat="47.13635" lon="5.66791">
        <ele>220</ele>
        <time>2010-08-01T08:30:47Z</time>
      </trkpt>
      <trkpt lat="47.13641" lon="5.6677">
        <ele>220</ele>
        <time>2010-08-01T08:30:49Z</time>
      </trkpt>
      <trkpt lat="47.13646" lon="5.66748">
        <ele>220</ele>
        <time>2010-08-01T08:30:51Z</time>
      </trkpt>
      <trkpt lat="47.13652" lon="5.66727">
        <ele>220</ele>
        <time>2010-08-01T08:30:53Z</time>
      </trkpt>
      <trkpt lat="47.13657" lon="5.66706">
        <ele>220</ele>
        <time>2010-08-01T08:30:55Z</time>
      </trkpt>
      <trkpt lat="47.13662" lon="5.66684">
        <ele>220</ele>
        <time>2010-08-01T08:30:57Z</time>
      </trkpt>
      <trkpt lat="47.13667" lon="5.66663">
        <ele>220</ele>
        <time>2010-08-01T08:30:59Z</time>
      </trkpt>
      <trkpt lat="47.13673" lon="5.66641">
        <ele>220</ele>
        <time>2010-08-01T08:31:01Z</time>
      </trkpt>
      <trkpt lat="47.13678" lon="5.6662">
        <ele>220</ele>
        <time>2010-08-01T08:31:03Z</time>
      </trkpt>
      <trkpt lat="47.13684" lon="5.66598">
        <ele>220</ele>
        <time>2010-08-01T08:31:05Z</time>
      </trkpt>
      <trkpt lat="47.1369" lon="5.66576">
        <ele>220</ele>
        <time>2010-08-01T08:31:07Z</time>
      </trkpt>
      <trkpt lat="47.13694" lon="5.66554">
        <ele>220</ele>
        <time>2010-08-01T08:31:09Z</time>
      </trkpt>
      <trkpt lat="47.13698" lon="5.66532">
        <ele>220</ele>
        <time>2010-08-01T08:31:11Z</time>
      </trkpt>
      <trkpt lat="47.13701" lon="5.66507">
        <ele>220</ele>
        <time>2010-08-01T08:31:13Z</time>
      </trkpt>
      <trkpt lat="47.13705" lon="5.66484">
        <ele>220</ele>
        <time>2010-08-01T08:31:15Z</time>
      </trkpt>
      <trkpt lat="47.13708" lon="5.6646">
        <ele>220</ele>
        <time>2010-08-01T08:31:17Z</time>
      </trkpt>
      <trkpt lat="47.1371" lon="5.66435">
        <ele>220</ele>
        <time>2010-08-01T08:31:19Z</time>
      </trkpt>
      <trkpt lat="47.13711" lon="5.66412">
        <ele>220</ele>
        <time>2010-08-01T08:31:21Z</time>
      </trkpt>
      <trkpt lat="47.13714" lon="5.66389">
        <ele>220</ele>
        <time>2010-08-01T08:31:23Z</time>
      </trkpt>
      <trkpt lat="47.13716" lon="5.66366">
        <ele>220</ele>
        <time>2010-08-01T08:31:25Z</time>
      </trkpt>
      <trkpt lat="47.13718" lon="5.66343">
        <ele>220</ele>
        <time>2010-08-01T08:31:27Z</time>
      </trkpt>
      <trkpt lat="47.13719" lon="5.6632">
        <ele>220</ele>
        <time>2010-08-01T08:31:29Z</time>
      </trkpt>
      <trkpt lat="47.13721" lon="5.66298">
        <ele>220</ele>
        <time>2010-08-01T08:31:31Z</time>
      </trkpt>
      <trkpt lat="47.13723" lon="5.66275">
        <ele>220</ele>
        <time>2010-08-01T08:31:33Z</time>
      </trkpt>
      <trkpt lat="47.13726" lon="5.66251">
        <ele>220</ele>
        <time>2010-08-01T08:31:35Z</time>
      </trkpt>
      <trkpt lat="47.13727" lon="5.66228">
        <ele>220</ele>
        <time>2010-08-01T08:31:37Z</time>
      </trkpt>
      <trkpt lat="47.1373" lon="5.66205">
        <ele>220</ele>
        <time>2010-08-01T08:31:39Z</time>
      </trkpt>
      <trkpt lat="47.13732" lon="5.66183">
        <ele>220</ele>
        <time>2010-08-01T08:31:41Z</time>
      </trkpt>
      <trkpt lat="47.13733" lon="5.6616">
        <ele>220</ele>
        <time>2010-08-01T08:31:43Z</time>
      </trkpt>
      <trkpt lat="47.13736" lon="5.66137">
        <ele>220</ele>
        <time>2010-08-01T08:31:45Z</time>
      </trkpt>
      <trkpt lat="47.13738" lon="5.66115">
        <ele>220</ele>
        <time>2010-08-01T08:31:47Z</time>
      </trkpt>
      <trkpt lat="47.1374" lon="5.66092">
        <ele>220</ele>
        <time>2010-08-01T08:31:49Z</time>
      </trkpt>
      <trkpt lat="47.13741" lon="5.6607">
        <ele>220</ele>
        <time>2010-08-01T08:31:51Z</time>
      </trkpt>
      <trkpt lat="47.13743" lon="5.66048">
        <ele>220</ele>
        <time>2010-08-01T08:31:53Z</time>
      </trkpt>
      <trkpt lat="47.13745" lon="5.66026">
        <ele>220</ele>
        <time>2010-08-01T08:31:55Z</time>
      </trkpt>
      <trkpt lat="47.13749" lon="5.66003">
        <ele>220</ele>
        <time>2010-08-01T08:31:57Z</time>
      </trkpt>
      <trkpt lat="47.13752" lon="5.6598">
        <ele>220</ele>
        <time>2010-08-01T08:31:59Z</time>
      </trkpt>
      <trkpt lat="47.13757" lon="5.65957">
        <ele>220</ele>
        <time>2010-08-01T08:32:01Z</time>
      </trkpt>
      <trkpt lat="47.1376" lon="5.65934">
        <ele>220</ele>
        <time>2010-08-01T08:32:03Z</time>
      </trkpt>
      <trkpt lat="47.13764" lon="5.6591">
        <ele>220</ele>
        <time>2010-08-01T08:32:05Z</time>
      </trkpt>
      <trkpt lat="47.13768" lon="5.65886">
        <ele>220</ele>
        <time>2010-08-01T08:32:07Z</time>
      </trkpt>
      <trkpt lat="47.13771" lon="5.65861">
        <ele>220</ele>
        <time>2010-08-01T08:32:09Z</time>
      </trkpt>
      <trkpt lat="47.13772" lon="5.65835">
        <ele>220</ele>
        <time>2010-08-01T08:32:11Z</time>
      </trkpt>
      <trkpt lat="47.13771" lon="5.6581">
        <ele>220</ele>
        <time>2010-08-01T08:32:13Z</time>
      </trkpt>
      <trkpt lat="47.13767" lon="5.65787">
        <ele>220</ele>
        <time>2010-08-01T08:32:15Z</time>
      </trkpt>
      <trkpt lat="47.13763" lon="5.65764">
        <ele>220</ele>
        <time>2010-08-01T08:32:17Z</time>
      </trkpt>
      <trkpt lat="47.1376" lon="5.65739">
        <ele>220</ele>
        <time>2010-08-01T08:32:19Z</time>
      </trkpt>
      <trkpt lat="47.13764" lon="5.65717">
        <ele>220</ele>
        <time>2010-08-01T08:32:21Z</time>
      </trkpt>
      <trkpt lat="47.13774" lon="5.65699">
        <ele>220</ele>
        <time>2010-08-01T08:32:23Z</time>
      </trkpt>
      <trkpt lat="47.13786" lon="5.65684">
        <ele>220</ele>
        <time>2010-08-01T08:32:25Z</time>
      </trkpt>
      <trkpt lat="47.13797" lon="5.65667">
        <ele>220</ele>
        <time>2010-08-01T08:32:27Z</time>
      </trkpt>
      <trkpt lat="47.13809" lon="5.65652">
        <ele>220</ele>
        <time>2010-08-01T08:32:29Z</time>
      </trkpt>
      <trkpt lat="47.13821" lon="5.65636">
        <ele>220</ele>
        <time>2010-08-01T08:32:31Z</time>
      </trkpt>
      <trkpt lat="47.13833" lon="5.65621">
        <ele>220</ele>
        <time>2010-08-01T08:32:33Z</time>
      </trkpt>
      <trkpt lat="47.13845" lon="5.65605">
        <ele>220</ele>
        <time>2010-08-01T08:32:35Z</time>
      </trkpt>
      <trkpt lat="47.13857" lon="5.65588">
        <ele>220</ele>
        <time>2010-08-01T08:32:37Z</time>
      </trkpt>
      <trkpt lat="47.13868" lon="5.65573">
        <ele>220</ele>
        <time>2010-08-01T08:32:39Z</time>
      </trkpt>
      <trkpt lat="47.1388" lon="5.65558">
        <ele>220</ele>
        <time>2010-08-01T08:32:41Z</time>
      </trkpt>
      <trkpt lat="47.13892" lon="5.65543">
        <ele>220</ele>
        <time>2010-08-01T08:32:43Z</time>
      </trkpt>
      <trkpt lat="47.13905" lon="5.6553">
        <ele>220</ele>
        <time>2010-08-01T08:32:45Z</time>
      </trkpt>
      <trkpt lat="47.1392" lon="5.65521">
        <ele>220</ele>
        <time>2010-08-01T08:32:47Z</time>
      </trkpt>
      <trkpt lat="47.13935" lon="5.65516">
        <ele>220</ele>
        <time>2010-08-01T08:32:49Z</time>
      </trkpt>
      <trkpt lat="47.13951" lon="5.65515">
        <ele>220</ele>
        <time>2010-08-01T08:32:51Z</time>
      </trkpt>
      <trkpt lat="47.13967" lon="5.65513">
        <ele>220</ele>
        <time>2010-08-01T08:32:53Z</time>
      </trkpt>
      <trkpt lat="47.13982" lon="5.65512">
        <ele>220</ele>
        <time>2010-08-01T08:32:55Z</time>
      </trkpt>
      <trkpt lat="47.13998" lon="5.6551">
        <ele>220</ele>
        <time>2010-08-01T08:32:57Z</time>
      </trkpt>
      <trkpt lat="47.14014" lon="5.65509">
        <ele>220</ele>
        <time>2010-08-01T08:32:59Z</time>
      </trkpt>
      <trkpt lat="47.14029" lon="5.6551">
        <ele>220</ele>
        <time>2010-08-01T08:33:01Z</time>
      </trkpt>
      <trkpt lat="47.14045" lon="5.65513">
        <ele>220</ele>
        <time>2010-08-01T08:33:03Z</time>
      </trkpt>
      <trkpt lat="47.1406" lon="5.65516">
        <ele>220</ele>
        <time>2010-08-01T08:33:05Z</time>
      </trkpt>
      <trkpt lat="47.14075" lon="5.65521">
        <ele>220</ele>
        <time>2010-08-01T08:33:07Z</time>
      </trkpt>
      <trkpt lat="47.14087" lon="5.65517">
        <ele>220</ele>
        <time>2010-08-01T08:33:09Z</time>
      </trkpt>
      <trkpt lat="47.14091" lon="5.65503">
        <ele>220</ele>
        <time>2010-08-01T08:33:11Z</time>
      </trkpt>
      <trkpt lat="47.14085" lon="5.65487">
        <ele>220</ele>
        <time>2010-08-01T08:33:13Z</time>
      </trkpt>
      <trkpt lat="47.14076" lon="5.65474">
        <ele>220</ele>
        <time>2010-08-01T08:33:15Z</time>
      </trkpt>
      <trkpt lat="47.14064" lon="5.6546">
        <ele>220</ele>
        <time>2010-08-01T08:33:17Z</time>
      </trkpt>
      <trkpt lat="47.14054" lon="5.65446">
        <ele>220</ele>
        <time>2010-08-01T08:33:19Z</time>
      </trkpt>
      <trkpt lat="47.14044" lon="5.65432">
        <ele>220</ele>
        <time>2010-08-01T08:33:21Z</time>
      </trkpt>
      <trkpt lat="47.14033" lon="5.65419">
        <ele>220</ele>
        <time>2010-08-01T08:33:23Z</time>
      </trkpt>
      <trkpt lat="47.14022" lon="5.65404">
        <ele>220</ele>
        <time>2010-08-01T08:33:25Z</time>
      </trkpt>
      <trkpt lat="47.14011" lon="5.6539">
        <ele>220</ele>
        <time>2010-08-01T08:33:27Z</time>
      </trkpt>
      <trkpt lat="47.14" lon="5.65375">
        <ele>220</ele>
        <time>2010-08-01T08:33:29Z</time>
      </trkpt>
      <trkpt lat="47.13989" lon="5.6536">
        <ele>220</ele>
        <time>2010-08-01T08:33:31Z</time>
      </trkpt>
      <trkpt lat="47.13978" lon="5.65346">
        <ele>220</ele>
        <time>2010-08-01T08:33:33Z</time>
      </trkpt>
      <trkpt lat="47.13966" lon="5.65331">
        <ele>220</ele>
        <time>2010-08-01T08:33:35Z</time>
      </trkpt>
      <trkpt lat="47.13956" lon="5.65317">
        <ele>220</ele>
        <time>2010-08-01T08:33:37Z</time>
      </trkpt>
      <trkpt lat="47.13945" lon="5.65304">
        <ele>220</ele>
        <time>2010-08-01T08:33:39Z</time>
      </trkpt>
      <trkpt lat="47.13933" lon="5.65289">
        <ele>220</ele>
        <time>2010-08-01T08:33:41Z</time>
      </trkpt>
      <trkpt lat="47.13922" lon="5.65274">
        <ele>220</ele>
        <time>2010-08-01T08:33:43Z</time>
      </trkpt>
      <trkpt lat="47.13909" lon="5.65259">
        <ele>220</ele>
        <time>2010-08-01T08:33:45Z</time>
      </trkpt>
      <trkpt lat="47.13897" lon="5.65243">
        <ele>220</ele>
        <time>2010-08-01T08:33:47Z</time>
      </trkpt>
      <trkpt lat="47.13886" lon="5.65227">
        <ele>215</ele>
        <time>2010-08-01T08:33:49Z</time>
      </trkpt>
      <trkpt lat="47.13873" lon="5.65212">
        <ele>215</ele>
        <time>2010-08-01T08:33:51Z</time>
      </trkpt>
      <trkpt lat="47.13861" lon="5.65196">
        <ele>215</ele>
        <time>2010-08-01T08:33:53Z</time>
      </trkpt>
      <trkpt lat="47.13848" lon="5.65181">
        <ele>215</ele>
        <time>2010-08-01T08:33:55Z</time>
      </trkpt>
      <trkpt lat="47.13836" lon="5.65165">
        <ele>215</ele>
        <time>2010-08-01T08:33:57Z</time>
      </trkpt>
      <trkpt lat="47.13824" lon="5.6515">
        <ele>215</ele>
        <time>2010-08-01T08:33:59Z</time>
      </trkpt>
      <trkpt lat="47.13811" lon="5.65136">
        <ele>215</ele>
        <time>2010-08-01T08:34:01Z</time>
      </trkpt>
      <trkpt lat="47.13797" lon="5.65125">
        <ele>215</ele>
        <time>2010-08-01T08:34:03Z</time>
      </trkpt>
      <trkpt lat="47.13782" lon="5.65115">
        <ele>215</ele>
        <time>2010-08-01T08:34:05Z</time>
      </trkpt>
      <trkpt lat="47.13767" lon="5.65106">
        <ele>215</ele>
        <time>2010-08-01T08:34:07Z</time>
      </trkpt>
      <trkpt lat="47.13751" lon="5.65099">
        <ele>215</ele>
        <time>2010-08-01T08:34:09Z</time>
      </trkpt>
      <trkpt lat="47.13736" lon="5.65092">
        <ele>215</ele>
        <time>2010-08-01T08:34:11Z</time>
      </trkpt>
      <trkpt lat="47.13721" lon="5.65087">
        <ele>215</ele>
        <time>2010-08-01T08:34:13Z</time>
      </trkpt>
      <trkpt lat="47.13706" lon="5.6508">
        <ele>215</ele>
        <time>2010-08-01T08:34:15Z</time>
      </trkpt>
      <trkpt lat="47.13691" lon="5.65074">
        <ele>215</ele>
        <time>2010-08-01T08:34:17Z</time>
      </trkpt>
      <trkpt lat="47.13676" lon="5.65067">
        <ele>215</ele>
        <time>2010-08-01T08:34:19Z</time>
      </trkpt>
      <trkpt lat="47.13662" lon="5.65061">
        <ele>215</ele>
        <time>2010-08-01T08:34:21Z</time>
      </trkpt>
      <trkpt lat="47.13647" lon="5.65055">
        <ele>215</ele>
        <time>2010-08-01T08:34:23Z</time>
      </trkpt>
      <trkpt lat="47.13632" lon="5.65048">
        <ele>215</ele>
        <time>2010-08-01T08:34:25Z</time>
      </trkpt>
      <trkpt lat="47.13618" lon="5.65042">
        <ele>215</ele>
        <time>2010-08-01T08:34:27Z</time>
      </trkpt>
      <trkpt lat="47.13604" lon="5.65036">
        <ele>215</ele>
        <time>2010-08-01T08:34:29Z</time>
      </trkpt>
      <trkpt lat="47.1359" lon="5.65031">
        <ele>215</ele>
        <time>2010-08-01T08:34:31Z</time>
      </trkpt>
      <trkpt lat="47.13577" lon="5.65027">
        <ele>215</ele>
        <time>2010-08-01T08:34:33Z</time>
      </trkpt>
      <trkpt lat="47.13562" lon="5.65022">
        <ele>215</ele>
        <time>2010-08-01T08:34:35Z</time>
      </trkpt>
      <trkpt lat="47.13548" lon="5.65021">
        <ele>215</ele>
        <time>2010-08-01T08:34:37Z</time>
      </trkpt>
      <trkpt lat="47.13534" lon="5.65019">
        <ele>215</ele>
        <time>2010-08-01T08:34:39Z</time>
      </trkpt>
      <trkpt lat="47.13519" lon="5.65018">
        <ele>215</ele>
        <time>2010-08-01T08:34:41Z</time>
      </trkpt>
      <trkpt lat="47.13504" lon="5.65017">
        <ele>215</ele>
        <time>2010-08-01T08:34:43Z</time>
      </trkpt>
      <trkpt lat="47.1349" lon="5.65016">
        <ele>215</ele>
        <time>2010-08-01T08:34:45Z</time>
      </trkpt>
      <trkpt lat="47.13475" lon="5.65016">
        <ele>215</ele>
        <time>2010-08-01T08:34:47Z</time>
      </trkpt>
      <trkpt lat="47.1346" lon="5.65018">
        <ele>215</ele>
        <time>2010-08-01T08:34:49Z</time>
      </trkpt>
      <trkpt lat="47.13446" lon="5.65019">
        <ele>215</ele>
        <time>2010-08-01T08:34:51Z</time>
      </trkpt>
      <trkpt lat="47.13431" lon="5.6502">
        <ele>215</ele>
        <time>2010-08-01T08:34:53Z</time>
      </trkpt>
      <trkpt lat="47.13417" lon="5.65021">
        <ele>215</ele>
        <time>2010-08-01T08:34:55Z</time>
      </trkpt>
      <trkpt lat="47.13403" lon="5.65023">
        <ele>215</ele>
        <time>2010-08-01T08:34:57Z</time>
      </trkpt>
      <trkpt lat="47.1339" lon="5.65026">
        <ele>215</ele>
        <time>2010-08-01T08:34:59Z</time>
      </trkpt>
      <trkpt lat="47.13376" lon="5.65029">
        <ele>215</ele>
        <time>2010-08-01T08:35:01Z</time>
      </trkpt>
      <trkpt lat="47.13363" lon="5.65033">
        <ele>215</ele>
        <time>2010-08-01T08:35:03Z</time>
      </trkpt>
      <trkpt lat="47.1335" lon="5.65038">
        <ele>215</ele>
        <time>2010-08-01T08:35:05Z</time>
      </trkpt>
      <trkpt lat="47.13339" lon="5.65044">
        <ele>215</ele>
        <time>2010-08-01T08:35:07Z</time>
      </trkpt>
      <trkpt lat="47.1333" lon="5.65053">
        <ele>220</ele>
        <time>2010-08-01T08:35:09Z</time>
      </trkpt>
      <trkpt lat="47.13321" lon="5.65064">
        <ele>220</ele>
        <time>2010-08-01T08:35:11Z</time>
      </trkpt>
      <trkpt lat="47.13312" lon="5.65073">
        <ele>220</ele>
        <time>2010-08-01T08:35:13Z</time>
      </trkpt>
      <trkpt lat="47.13304" lon="5.65081">
        <ele>220</ele>
        <time>2010-08-01T08:35:15Z</time>
      </trkpt>
      <trkpt lat="47.13295" lon="5.65085">
        <ele>220</ele>
        <time>2010-08-01T08:35:17Z</time>
      </trkpt>
      <trkpt lat="47.13285" lon="5.65084">
        <ele>220</ele>
        <time>2010-08-01T08:35:19Z</time>
      </trkpt>
      <trkpt lat="47.13276" lon="5.6508">
        <ele>226</ele>
        <time>2010-08-01T08:35:21Z</time>
      </trkpt>
      <trkpt lat="47.13267" lon="5.65072">
        <ele>226</ele>
        <time>2010-08-01T08:35:24Z</time>
      </trkpt>
      <trkpt lat="47.13258" lon="5.65062">
        <ele>226</ele>
        <time>2010-08-01T08:35:27Z</time>
      </trkpt>
      <trkpt lat="47.13249" lon="5.65051">
        <ele>226</ele>
        <time>2010-08-01T08:35:30Z</time>
      </trkpt>
      <trkpt lat="47.13241" lon="5.65039">
        <ele>232</ele>
        <time>2010-08-01T08:35:33Z</time>
      </trkpt>
      <trkpt lat="47.13233" lon="5.65023">
        <ele>232</ele>
        <time>2010-08-01T08:35:36Z</time>
      </trkpt>
      <trkpt lat="47.13229" lon="5.65011">
        <ele>232</ele>
        <time>2010-08-01T08:35:38Z</time>
      </trkpt>
      <trkpt lat="47.13224" lon="5.64995">
        <ele>232</ele>
        <time>2010-08-01T08:35:40Z</time>
      </trkpt>
      <trkpt lat="47.1322" lon="5.64979">
        <ele>232</ele>
        <time>2010-08-01T08:35:42Z</time>
      </trkpt>
      <trkpt lat="47.13216" lon="5.6496">
        <ele>232</ele>
        <time>2010-08-01T08:35:44Z</time>
      </trkpt>
      <trkpt lat="47.13213" lon="5.6494">
        <ele>232</ele>
        <time>2010-08-01T08:35:46Z</time>
      </trkpt>
      <trkpt lat="47.13209" lon="5.64921">
        <ele>232</ele>
        <time>2010-08-01T08:35:48Z</time>
      </trkpt>
      <trkpt lat="47.13206" lon="5.649">
        <ele>232</ele>
        <time>2010-08-01T08:35:50Z</time>
      </trkpt>
      <trkpt lat="47.13206" lon="5.64877">
        <ele>232</ele>
        <time>2010-08-01T08:35:52Z</time>
      </trkpt>
      <trkpt lat="47.13204" lon="5.64853">
        <ele>232</ele>
        <time>2010-08-01T08:35:54Z</time>
      </trkpt>
      <trkpt lat="47.13204" lon="5.64827">
        <ele>232</ele>
        <time>2010-08-01T08:35:56Z</time>
      </trkpt>
      <trkpt lat="47.13204" lon="5.64814">
        <ele>232</ele>
        <time>2010-08-01T08:35:57Z</time>
      </trkpt>
      <trkpt lat="47.13204" lon="5.64801">
        <ele>232</ele>
        <time>2010-08-01T08:35:58Z</time>
      </trkpt>
      <trkpt lat="47.13204" lon="5.64786">
        <ele>227</ele>
        <time>2010-08-01T08:35:59Z</time>
      </trkpt>
      <trkpt lat="47.13204" lon="5.64773">
        <ele>227</ele>
        <time>2010-08-01T08:36:00Z</time>
      </trkpt>
      <trkpt lat="47.13204" lon="5.64757">
        <ele>227</ele>
        <time>2010-08-01T08:36:01Z</time>
      </trkpt>
      <trkpt lat="47.13204" lon="5.64743">
        <ele>227</ele>
        <time>2010-08-01T08:36:02Z</time>
      </trkpt>
      <trkpt lat="47.13204" lon="5.64728">
        <ele>227</ele>
        <time>2010-08-01T08:36:03Z</time>
      </trkpt>
      <trkpt lat="47.13204" lon="5.64712">
        <ele>227</ele>
        <time>2010-08-01T08:36:04Z</time>
      </trkpt>
      <trkpt lat="47.13204" lon="5.64696">
        <ele>221</ele>
        <time>2010-08-01T08:36:05Z</time>
      </trkpt>
      <trkpt lat="47.13204" lon="5.6468">
        <ele>221</ele>
        <time>2010-08-01T08:36:06Z</time>
      </trkpt>
      <trkpt lat="47.13204" lon="5.64664">
        <ele>221</ele>
        <time>2010-08-01T08:36:07Z</time>
      </trkpt>
      <trkpt lat="47.13204" lon="5.64649">
        <ele>221</ele>
        <time>2010-08-01T08:36:08Z</time>
      </trkpt>
      <trkpt lat="47.13205" lon="5.64633">
        <ele>221</ele>
        <time>2010-08-01T08:36:09Z</time>
      </trkpt>
      <trkpt lat="47.13206" lon="5.64619">
        <ele>221</ele>
        <time>2010-08-01T08:36:10Z</time>
      </trkpt>
      <trkpt lat="47.13209" lon="5.64606">
        <ele>221</ele>
        <time>2010-08-01T08:36:11Z</time>
      </trkpt>
      <trkpt lat="47.13214" lon="5.64593">
        <ele>221</ele>
        <time>2010-08-01T08:36:12Z</time>
      </trkpt>
      <trkpt lat="47.13221" lon="5.64583">
        <ele>221</ele>
        <time>2010-08-01T08:36:13Z</time>
      </trkpt>
      <trkpt lat="47.13229" lon="5.64575">
        <ele>221</ele>
        <time>2010-08-01T08:36:14Z</time>
      </trkpt>
      <trkpt lat="47.13237" lon="5.64569">
        <ele>221</ele>
        <time>2010-08-01T08:36:15Z</time>
      </trkpt>
      <trkpt lat="47.13252" lon="5.64555">
        <ele>221</ele>
        <time>2010-08-01T08:36:17Z</time>
      </trkpt>
      <trkpt lat="47.13267" lon="5.64544">
        <ele>221</ele>
        <time>2010-08-01T08:36:19Z</time>
      </trkpt>
      <trkpt lat="47.1328" lon="5.64533">
        <ele>221</ele>
        <time>2010-08-01T08:36:21Z</time>
      </trkpt>
      <trkpt lat="47.13293" lon="5.64518">
        <ele>221</ele>
        <time>2010-08-01T08:36:23Z</time>
      </trkpt>
      <trkpt lat="47.13303" lon="5.645">
        <ele>221</ele>
        <time>2010-08-01T08:36:25Z</time>
      </trkpt>
      <trkpt lat="47.1331" lon="5.64481">
        <ele>221</ele>
        <time>2010-08-01T08:36:27Z</time>
      </trkpt>
      <trkpt lat="47.13314" lon="5.64461">
        <ele>221</ele>
        <time>2010-08-01T08:36:29Z</time>
      </trkpt>
      <trkpt lat="47.13317" lon="5.6444">
        <ele>221</ele>
        <time>2010-08-01T08:36:31Z</time>
      </trkpt>
      <trkpt lat="47.1332" lon="5.6442">
        <ele>221</ele>
        <time>2010-08-01T08:36:33Z</time>
      </trkpt>
      <trkpt lat="47.13328" lon="5.644">
        <ele>221</ele>
        <time>2010-08-01T08:36:35Z</time>
      </trkpt>
      <trkpt lat="47.13336" lon="5.64382">
        <ele>221</ele>
        <time>2010-08-01T08:36:37Z</time>
      </trkpt>
      <trkpt lat="47.13347" lon="5.64366">
        <ele>221</ele>
        <time>2010-08-01T08:36:39Z</time>
      </trkpt>
      <trkpt lat="47.13359" lon="5.64351">
        <ele>221</ele>
        <time>2010-08-01T08:36:41Z</time>
      </trkpt>
      <trkpt lat="47.13371" lon="5.64338">
        <ele>221</ele>
        <time>2010-08-01T08:36:43Z</time>
      </trkpt>
      <trkpt lat="47.13385" lon="5.64326">
        <ele>221</ele>
        <time>2010-08-01T08:36:45Z</time>
      </trkpt>
      <trkpt lat="47.13393" lon="5.64318">
        <ele>221</ele>
        <time>2010-08-01T08:36:46Z</time>
      </trkpt>
      <trkpt lat="47.13406" lon="5.64302">
        <ele>221</ele>
        <time>2010-08-01T08:36:48Z</time>
      </trkpt>
      <trkpt lat="47.13419" lon="5.64286">
        <ele>221</ele>
        <time>2010-08-01T08:36:50Z</time>
      </trkpt>
      <trkpt lat="47.13426" lon="5.64277">
        <ele>221</ele>
        <time>2010-08-01T08:36:51Z</time>
      </trkpt>
      <trkpt lat="47.13438" lon="5.64259">
        <ele>221</ele>
        <time>2010-08-01T08:36:53Z</time>
      </trkpt>
      <trkpt lat="47.13451" lon="5.64241">
        <ele>221</ele>
        <time>2010-08-01T08:36:55Z</time>
      </trkpt>
      <trkpt lat="47.13458" lon="5.64231">
        <ele>221</ele>
        <time>2010-08-01T08:36:56Z</time>
      </trkpt>
      <trkpt lat="47.13467" lon="5.6421">
        <ele>221</ele>
        <time>2010-08-01T08:36:58Z</time>
      </trkpt>
      <trkpt lat="47.13477" lon="5.64191">
        <ele>221</ele>
        <time>2010-08-01T08:37:00Z</time>
      </trkpt>
      <trkpt lat="47.13482" lon="5.64179">
        <ele>221</ele>
        <time>2010-08-01T08:37:01Z</time>
      </trkpt>
      <trkpt lat="47.13494" lon="5.64158">
        <ele>221</ele>
        <time>2010-08-01T08:37:03Z</time>
      </trkpt>
      <trkpt lat="47.13504" lon="5.64138">
        <ele>221</ele>
        <time>2010-08-01T08:37:05Z</time>
      </trkpt>
      <trkpt lat="47.13514" lon="5.64116">
        <ele>221</ele>
        <time>2010-08-01T08:37:07Z</time>
      </trkpt>
      <trkpt lat="47.13519" lon="5.64104">
        <ele>221</ele>
        <time>2010-08-01T08:37:08Z</time>
      </trkpt>
      <trkpt lat="47.13528" lon="5.64083">
        <ele>221</ele>
        <time>2010-08-01T08:37:10Z</time>
      </trkpt>
      <trkpt lat="47.13535" lon="5.64059">
        <ele>221</ele>
        <time>2010-08-01T08:37:12Z</time>
      </trkpt>
      <trkpt lat="47.13541" lon="5.64036">
        <ele>221</ele>
        <time>2010-08-01T08:37:14Z</time>
      </trkpt>
      <trkpt lat="47.13543" lon="5.64023">
        <ele>221</ele>
        <time>2010-08-01T08:37:15Z</time>
      </trkpt>
      <trkpt lat="47.13548" lon="5.64012">
        <ele>221</ele>
        <time>2010-08-01T08:37:16Z</time>
      </trkpt>
      <trkpt lat="47.13552" lon="5.64">
        <ele>221</ele>
        <time>2010-08-01T08:37:17Z</time>
      </trkpt>
      <trkpt lat="47.13559" lon="5.63977">
        <ele>226</ele>
        <time>2010-08-01T08:37:19Z</time>
      </trkpt>
      <trkpt lat="47.13565" lon="5.63953">
        <ele>226</ele>
        <time>2010-08-01T08:37:21Z</time>
      </trkpt>
      <trkpt lat="47.13571" lon="5.63931">
        <ele>226</ele>
        <time>2010-08-01T08:37:23Z</time>
      </trkpt>
      <trkpt lat="47.13575" lon="5.63908">
        <ele>226</ele>
        <time>2010-08-01T08:37:25Z</time>
      </trkpt>
      <trkpt lat="47.13576" lon="5.63885">
        <ele>232</ele>
        <time>2010-08-01T08:37:27Z</time>
      </trkpt>
      <trkpt lat="47.13576" lon="5.63861">
        <ele>232</ele>
        <time>2010-08-01T08:37:29Z</time>
      </trkpt>
      <trkpt lat="47.13571" lon="5.63837">
        <ele>232</ele>
        <time>2010-08-01T08:37:31Z</time>
      </trkpt>
      <trkpt lat="47.13561" lon="5.63817">
        <ele>232</ele>
        <time>2010-08-01T08:37:33Z</time>
      </trkpt>
      <trkpt lat="47.13554" lon="5.63807">
        <ele>232</ele>
        <time>2010-08-01T08:37:34Z</time>
      </trkpt>
      <trkpt lat="47.13548" lon="5.63797">
        <ele>232</ele>
        <time>2010-08-01T08:37:35Z</time>
      </trkpt>
      <trkpt lat="47.13542" lon="5.63787">
        <ele>232</ele>
        <time>2010-08-01T08:37:36Z</time>
      </trkpt>
      <trkpt lat="47.13536" lon="5.63776">
        <ele>232</ele>
        <time>2010-08-01T08:37:37Z</time>
      </trkpt>
      <trkpt lat="47.13531" lon="5.63765">
        <ele>232</ele>
        <time>2010-08-01T08:37:38Z</time>
      </trkpt>
      <trkpt lat="47.13523" lon="5.63741">
        <ele>232</ele>
        <time>2010-08-01T08:37:40Z</time>
      </trkpt>
      <trkpt lat="47.1352" lon="5.63717">
        <ele>232</ele>
        <time>2010-08-01T08:37:42Z</time>
      </trkpt>
      <trkpt lat="47.13521" lon="5.63694">
        <ele>232</ele>
        <time>2010-08-01T08:37:44Z</time>
      </trkpt>
      <trkpt lat="47.13525" lon="5.63671">
        <ele>232</ele>
        <time>2010-08-01T08:37:46Z</time>
      </trkpt>
      <trkpt lat="47.13531" lon="5.63647">
        <ele>232</ele>
        <time>2010-08-01T08:37:48Z</time>
      </trkpt>
      <trkpt lat="47.13538" lon="5.63624">
        <ele>232</ele>
        <time>2010-08-01T08:37:50Z</time>
      </trkpt>
      <trkpt lat="47.13543" lon="5.63599">
        <ele>232</ele>
        <time>2010-08-01T08:37:52Z</time>
      </trkpt>
      <trkpt lat="47.13549" lon="5.63576">
        <ele>232</ele>
        <time>2010-08-01T08:37:54Z</time>
      </trkpt>
      <trkpt lat="47.13553" lon="5.63553">
        <ele>232</ele>
        <time>2010-08-01T08:37:56Z</time>
      </trkpt>
      <trkpt lat="47.13559" lon="5.6353">
        <ele>238</ele>
        <time>2010-08-01T08:37:58Z</time>
      </trkpt>
      <trkpt lat="47.13564" lon="5.63508">
        <ele>238</ele>
        <time>2010-08-01T08:38:00Z</time>
      </trkpt>
      <trkpt lat="47.1357" lon="5.63485">
        <ele>238</ele>
        <time>2010-08-01T08:38:02Z</time>
      </trkpt>
      <trkpt lat="47.13577" lon="5.63464">
        <ele>238</ele>
        <time>2010-08-01T08:38:04Z</time>
      </trkpt>
      <trkpt lat="47.13586" lon="5.63442">
        <ele>238</ele>
        <time>2010-08-01T08:38:06Z</time>
      </trkpt>
      <trkpt lat="47.13594" lon="5.63421">
        <ele>245</ele>
        <time>2010-08-01T08:38:08Z</time>
      </trkpt>
      <trkpt lat="47.13602" lon="5.63397">
        <ele>245</ele>
        <time>2010-08-01T08:38:10Z</time>
      </trkpt>
      <trkpt lat="47.1361" lon="5.63375">
        <ele>245</ele>
        <time>2010-08-01T08:38:12Z</time>
      </trkpt>
      <trkpt lat="47.13617" lon="5.63352">
        <ele>245</ele>
        <time>2010-08-01T08:38:14Z</time>
      </trkpt>
      <trkpt lat="47.13623" lon="5.63329">
        <ele>245</ele>
        <time>2010-08-01T08:38:16Z</time>
      </trkpt>
      <trkpt lat="47.13626" lon="5.63316">
        <ele>245</ele>
        <time>2010-08-01T08:38:17Z</time>
      </trkpt>
      <trkpt lat="47.13633" lon="5.63293">
        <ele>251</ele>
        <time>2010-08-01T08:38:19Z</time>
      </trkpt>
      <trkpt lat="47.1364" lon="5.63271">
        <ele>251</ele>
        <time>2010-08-01T08:38:21Z</time>
      </trkpt>
      <trkpt lat="47.13646" lon="5.63247">
        <ele>251</ele>
        <time>2010-08-01T08:38:23Z</time>
      </trkpt>
      <trkpt lat="47.1365" lon="5.63223">
        <ele>251</ele>
        <time>2010-08-01T08:38:25Z</time>
      </trkpt>
      <trkpt lat="47.13651" lon="5.63198">
        <ele>251</ele>
        <time>2010-08-01T08:38:27Z</time>
      </trkpt>
      <trkpt lat="47.13651" lon="5.63173">
        <ele>251</ele>
        <time>2010-08-01T08:38:29Z</time>
      </trkpt>
      <trkpt lat="47.13651" lon="5.63147">
        <ele>251</ele>
        <time>2010-08-01T08:38:31Z</time>
      </trkpt>
      <trkpt lat="47.13652" lon="5.63121">
        <ele>251</ele>
        <time>2010-08-01T08:38:33Z</time>
      </trkpt>
      <trkpt lat="47.13653" lon="5.63107">
        <ele>251</ele>
        <time>2010-08-01T08:38:34Z</time>
      </trkpt>
      <trkpt lat="47.13656" lon="5.63081">
        <ele>251</ele>
        <time>2010-08-01T08:38:36Z</time>
      </trkpt>
      <trkpt lat="47.13655" lon="5.63068">
        <ele>251</ele>
        <time>2010-08-01T08:38:37Z</time>
      </trkpt>
      <trkpt lat="47.13658" lon="5.63045">
        <ele>251</ele>
        <time>2010-08-01T08:38:39Z</time>
      </trkpt>
      <trkpt lat="47.13662" lon="5.63022">
        <ele>244</ele>
        <time>2010-08-01T08:38:41Z</time>
      </trkpt>
      <trkpt lat="47.13664" lon="5.62997">
        <ele>244</ele>
        <time>2010-08-01T08:38:43Z</time>
      </trkpt>
      <trkpt lat="47.13665" lon="5.62983">
        <ele>244</ele>
        <time>2010-08-01T08:38:44Z</time>
      </trkpt>
      <trkpt lat="47.13665" lon="5.62969">
        <ele>244</ele>
        <time>2010-08-01T08:38:45Z</time>
      </trkpt>
      <trkpt lat="47.13659" lon="5.62954">
        <ele>237</ele>
        <time>2010-08-01T08:38:46Z</time>
      </trkpt>
      <trkpt lat="47.13657" lon="5.6294">
        <ele>237</ele>
        <time>2010-08-01T08:38:47Z</time>
      </trkpt>
      <trkpt lat="47.13656" lon="5.62926">
        <ele>237</ele>
        <time>2010-08-01T08:38:48Z</time>
      </trkpt>
      <trkpt lat="47.13654" lon="5.62911">
        <ele>237</ele>
        <time>2010-08-01T08:38:49Z</time>
      </trkpt>
      <trkpt lat="47.13651" lon="5.62897">
        <ele>237</ele>
        <time>2010-08-01T08:38:50Z</time>
      </trkpt>
      <trkpt lat="47.13644" lon="5.62883">
        <ele>227</ele>
        <time>2010-08-01T08:38:51Z</time>
      </trkpt>
      <trkpt lat="47.13643" lon="5.62869">
        <ele>227</ele>
        <time>2010-08-01T08:38:52Z</time>
      </trkpt>
      <trkpt lat="47.13643" lon="5.62856">
        <ele>227</ele>
        <time>2010-08-01T08:38:53Z</time>
      </trkpt>
      <trkpt lat="47.13642" lon="5.62842">
        <ele>227</ele>
        <time>2010-08-01T08:38:54Z</time>
      </trkpt>
      <trkpt lat="47.13641" lon="5.62829">
        <ele>227</ele>
        <time>2010-08-01T08:38:55Z</time>
      </trkpt>
      <trkpt lat="47.13637" lon="5.62815">
        <ele>221</ele>
        <time>2010-08-01T08:38:56Z</time>
      </trkpt>
      <trkpt lat="47.13636" lon="5.62802">
        <ele>221</ele>
        <time>2010-08-01T08:38:57Z</time>
      </trkpt>
      <trkpt lat="47.13635" lon="5.62788">
        <ele>221</ele>
        <time>2010-08-01T08:38:58Z</time>
      </trkpt>
      <trkpt lat="47.13635" lon="5.62775">
        <ele>221</ele>
        <time>2010-08-01T08:38:59Z</time>
      </trkpt>
      <trkpt lat="47.13634" lon="5.6275">
        <ele>221</ele>
        <time>2010-08-01T08:39:01Z</time>
      </trkpt>
      <trkpt lat="47.13637" lon="5.62726">
        <ele>221</ele>
        <time>2010-08-01T08:39:03Z</time>
      </trkpt>
      <trkpt lat="47.13637" lon="5.62712">
        <ele>221</ele>
        <time>2010-08-01T08:39:04Z</time>
      </trkpt>
      <trkpt lat="47.13638" lon="5.62698">
        <ele>221</ele>
        <time>2010-08-01T08:39:05Z</time>
      </trkpt>
      <trkpt lat="47.13638" lon="5.62685">
        <ele>221</ele>
        <time>2010-08-01T08:39:06Z</time>
      </trkpt>
      <trkpt lat="47.13635" lon="5.62659">
        <ele>221</ele>
        <time>2010-08-01T08:39:08Z</time>
      </trkpt>
      <trkpt lat="47.13635" lon="5.62634">
        <ele>221</ele>
        <time>2010-08-01T08:39:10Z</time>
      </trkpt>
      <trkpt lat="47.13633" lon="5.6262">
        <ele>221</ele>
        <time>2010-08-01T08:39:11Z</time>
      </trkpt>
      <trkpt lat="47.13632" lon="5.62607">
        <ele>221</ele>
        <time>2010-08-01T08:39:12Z</time>
      </trkpt>
      <trkpt lat="47.13632" lon="5.62583">
        <ele>221</ele>
        <time>2010-08-01T08:39:14Z</time>
      </trkpt>
      <trkpt lat="47.13631" lon="5.62558">
        <ele>221</ele>
        <time>2010-08-01T08:39:16Z</time>
      </trkpt>
      <trkpt lat="47.13629" lon="5.62535">
        <ele>221</ele>
        <time>2010-08-01T08:39:18Z</time>
      </trkpt>
      <trkpt lat="47.13624" lon="5.62509">
        <ele>221</ele>
        <time>2010-08-01T08:39:20Z</time>
      </trkpt>
      <trkpt lat="47.13621" lon="5.62484">
        <ele>221</ele>
        <time>2010-08-01T08:39:22Z</time>
      </trkpt>
      <trkpt lat="47.13616" lon="5.6246">
        <ele>221</ele>
        <time>2010-08-01T08:39:24Z</time>
      </trkpt>
      <trkpt lat="47.13613" lon="5.62433">
        <ele>221</ele>
        <time>2010-08-01T08:39:26Z</time>
      </trkpt>
      <trkpt lat="47.13611" lon="5.62408">
        <ele>221</ele>
        <time>2010-08-01T08:39:28Z</time>
      </trkpt>
      <trkpt lat="47.1361" lon="5.62395">
        <ele>221</ele>
        <time>2010-08-01T08:39:29Z</time>
      </trkpt>
      <trkpt lat="47.1361" lon="5.62381">
        <ele>221</ele>
        <time>2010-08-01T08:39:30Z</time>
      </trkpt>
      <trkpt lat="47.13608" lon="5.62354">
        <ele>221</ele>
        <time>2010-08-01T08:39:32Z</time>
      </trkpt>
      <trkpt lat="47.13606" lon="5.62341">
        <ele>221</ele>
        <time>2010-08-01T08:39:33Z</time>
      </trkpt>
      <trkpt lat="47.13604" lon="5.62327">
        <ele>221</ele>
        <time>2010-08-01T08:39:34Z</time>
      </trkpt>
      <trkpt lat="47.13602" lon="5.62302">
        <ele>221</ele>
        <time>2010-08-01T08:39:36Z</time>
      </trkpt>
      <trkpt lat="47.136" lon="5.62289">
        <ele>221</ele>
        <time>2010-08-01T08:39:37Z</time>
      </trkpt>
      <trkpt lat="47.13599" lon="5.62263">
        <ele>221</ele>
        <time>2010-08-01T08:39:39Z</time>
      </trkpt>
      <trkpt lat="47.13597" lon="5.62238">
        <ele>221</ele>
        <time>2010-08-01T08:39:41Z</time>
      </trkpt>
      <trkpt lat="47.13596" lon="5.62214">
        <ele>221</ele>
        <time>2010-08-01T08:39:43Z</time>
      </trkpt>
      <trkpt lat="47.13592" lon="5.62191">
        <ele>221</ele>
        <time>2010-08-01T08:39:45Z</time>
      </trkpt>
      <trkpt lat="47.13586" lon="5.62168">
        <ele>221</ele>
        <time>2010-08-01T08:39:47Z</time>
      </trkpt>
      <trkpt lat="47.13583" lon="5.62145">
        <ele>221</ele>
        <time>2010-08-01T08:39:49Z</time>
      </trkpt>
      <trkpt lat="47.13578" lon="5.62124">
        <ele>221</ele>
        <time>2010-08-01T08:39:51Z</time>
      </trkpt>
      <trkpt lat="47.13572" lon="5.62101">
        <ele>221</ele>
        <time>2010-08-01T08:39:53Z</time>
      </trkpt>
      <trkpt lat="47.13566" lon="5.62079">
        <ele>221</ele>
        <time>2010-08-01T08:39:55Z</time>
      </trkpt>
      <trkpt lat="47.13559" lon="5.62056">
        <ele>221</ele>
        <time>2010-08-01T08:39:57Z</time>
      </trkpt>
      <trkpt lat="47.13553" lon="5.62034">
        <ele>221</ele>
        <time>2010-08-01T08:39:59Z</time>
      </trkpt>
      <trkpt lat="47.13548" lon="5.62012">
        <ele>221</ele>
        <time>2010-08-01T08:40:01Z</time>
      </trkpt>
      <trkpt lat="47.13542" lon="5.61991">
        <ele>221</ele>
        <time>2010-08-01T08:40:03Z</time>
      </trkpt>
      <trkpt lat="47.13536" lon="5.61969">
        <ele>221</ele>
        <time>2010-08-01T08:40:05Z</time>
      </trkpt>
      <trkpt lat="47.13531" lon="5.61947">
        <ele>221</ele>
        <time>2010-08-01T08:40:07Z</time>
      </trkpt>
      <trkpt lat="47.13524" lon="5.61927">
        <ele>221</ele>
        <time>2010-08-01T08:40:09Z</time>
      </trkpt>
      <trkpt lat="47.13515" lon="5.61906">
        <ele>221</ele>
        <time>2010-08-01T08:40:11Z</time>
      </trkpt>
      <trkpt lat="47.13505" lon="5.61887">
        <ele>221</ele>
        <time>2010-08-01T08:40:13Z</time>
      </trkpt>
      <trkpt lat="47.13495" lon="5.61869">
        <ele>221</ele>
        <time>2010-08-01T08:40:15Z</time>
      </trkpt>
      <trkpt lat="47.13485" lon="5.6185">
        <ele>216</ele>
        <time>2010-08-01T08:40:17Z</time>
      </trkpt>
      <trkpt lat="47.13474" lon="5.61832">
        <ele>216</ele>
        <time>2010-08-01T08:40:19Z</time>
      </trkpt>
      <trkpt lat="47.13464" lon="5.61814">
        <ele>216</ele>
        <time>2010-08-01T08:40:21Z</time>
      </trkpt>
      <trkpt lat="47.13454" lon="5.61797">
        <ele>216</ele>
        <time>2010-08-01T08:40:23Z</time>
      </trkpt>
      <trkpt lat="47.13445" lon="5.61779">
        <ele>216</ele>
        <time>2010-08-01T08:40:25Z</time>
      </trkpt>
      <trkpt lat="47.13434" lon="5.61762">
        <ele>216</ele>
        <time>2010-08-01T08:40:27Z</time>
      </trkpt>
      <trkpt lat="47.13426" lon="5.61744">
        <ele>216</ele>
        <time>2010-08-01T08:40:29Z</time>
      </trkpt>
      <trkpt lat="47.13418" lon="5.61724">
        <ele>216</ele>
        <time>2010-08-01T08:40:31Z</time>
      </trkpt>
      <trkpt lat="47.13413" lon="5.61704">
        <ele>216</ele>
        <time>2010-08-01T08:40:33Z</time>
      </trkpt>
      <trkpt lat="47.13409" lon="5.61684">
        <ele>216</ele>
        <time>2010-08-01T08:40:35Z</time>
      </trkpt>
      <trkpt lat="47.13405" lon="5.61664">
        <ele>216</ele>
        <time>2010-08-01T08:40:37Z</time>
      </trkpt>
      <trkpt lat="47.13402" lon="5.61646">
        <ele>222</ele>
        <time>2010-08-01T08:40:39Z</time>
      </trkpt>
      <trkpt lat="47.13398" lon="5.61624">
        <ele>222</ele>
        <time>2010-08-01T08:40:41Z</time>
      </trkpt>
      <trkpt lat="47.13393" lon="5.61603">
        <ele>222</ele>
        <time>2010-08-01T08:40:43Z</time>
      </trkpt>
      <trkpt lat="47.13388" lon="5.61581">
        <ele>222</ele>
        <time>2010-08-01T08:40:45Z</time>
      </trkpt>
      <trkpt lat="47.13383" lon="5.61558">
        <ele>222</ele>
        <time>2010-08-01T08:40:47Z</time>
      </trkpt>
      <trkpt lat="47.13378" lon="5.61537">
        <ele>222</ele>
        <time>2010-08-01T08:40:49Z</time>
      </trkpt>
      <trkpt lat="47.13372" lon="5.61516">
        <ele>222</ele>
        <time>2010-08-01T08:40:51Z</time>
      </trkpt>
      <trkpt lat="47.13365" lon="5.61496">
        <ele>222</ele>
        <time>2010-08-01T08:40:53Z</time>
      </trkpt>
      <trkpt lat="47.13358" lon="5.61476">
        <ele>222</ele>
        <time>2010-08-01T08:40:55Z</time>
      </trkpt>
      <trkpt lat="47.1335" lon="5.61456">
        <ele>222</ele>
        <time>2010-08-01T08:40:57Z</time>
      </trkpt>
      <trkpt lat="47.13343" lon="5.61436">
        <ele>222</ele>
        <time>2010-08-01T08:40:59Z</time>
      </trkpt>
      <trkpt lat="47.13336" lon="5.61417">
        <ele>222</ele>
        <time>2010-08-01T08:41:01Z</time>
      </trkpt>
      <trkpt lat="47.13328" lon="5.61397">
        <ele>222</ele>
        <time>2010-08-01T08:41:03Z</time>
      </trkpt>
      <trkpt lat="47.13322" lon="5.61377">
        <ele>222</ele>
        <time>2010-08-01T08:41:05Z</time>
      </trkpt>
      <trkpt lat="47.13314" lon="5.61357">
        <ele>222</ele>
        <time>2010-08-01T08:41:07Z</time>
      </trkpt>
      <trkpt lat="47.13306" lon="5.61337">
        <ele>222</ele>
        <time>2010-08-01T08:41:09Z</time>
      </trkpt>
      <trkpt lat="47.13299" lon="5.61317">
        <ele>222</ele>
        <time>2010-08-01T08:41:11Z</time>
      </trkpt>
      <trkpt lat="47.1329" lon="5.61297">
        <ele>222</ele>
        <time>2010-08-01T08:41:13Z</time>
      </trkpt>
      <trkpt lat="47.13282" lon="5.61278">
        <ele>222</ele>
        <time>2010-08-01T08:41:15Z</time>
      </trkpt>
      <trkpt lat="47.13273" lon="5.61259">
        <ele>222</ele>
        <time>2010-08-01T08:41:17Z</time>
      </trkpt>
      <trkpt lat="47.13263" lon="5.61241">
        <ele>222</ele>
        <time>2010-08-01T08:41:19Z</time>
      </trkpt>
      <trkpt lat="47.13253" lon="5.61224">
        <ele>222</ele>
        <time>2010-08-01T08:41:21Z</time>
      </trkpt>
      <trkpt lat="47.13244" lon="5.61206">
        <ele>222</ele>
        <time>2010-08-01T08:41:23Z</time>
      </trkpt>
      <trkpt lat="47.13235" lon="5.61188">
        <ele>222</ele>
        <time>2010-08-01T08:41:25Z</time>
      </trkpt>
      <trkpt lat="47.13227" lon="5.6117">
        <ele>222</ele>
        <time>2010-08-01T08:41:27Z</time>
      </trkpt>
      <trkpt lat="47.13217" lon="5.61152">
        <ele>222</ele>
        <time>2010-08-01T08:41:29Z</time>
      </trkpt>
      <trkpt lat="47.13208" lon="5.61133">
        <ele>222</ele>
        <time>2010-08-01T08:41:31Z</time>
      </trkpt>
      <trkpt lat="47.13198" lon="5.61114">
        <ele>222</ele>
        <time>2010-08-01T08:41:33Z</time>
      </trkpt>
      <trkpt lat="47.13189" lon="5.61095">
        <ele>222</ele>
        <time>2010-08-01T08:41:35Z</time>
      </trkpt>
      <trkpt lat="47.1318" lon="5.61076">
        <ele>222</ele>
        <time>2010-08-01T08:41:37Z</time>
      </trkpt>
      <trkpt lat="47.13171" lon="5.61056">
        <ele>222</ele>
        <time>2010-08-01T08:41:39Z</time>
      </trkpt>
      <trkpt lat="47.13162" lon="5.61037">
        <ele>222</ele>
        <time>2010-08-01T08:41:41Z</time>
      </trkpt>
      <trkpt lat="47.13155" lon="5.61019">
        <ele>222</ele>
        <time>2010-08-01T08:41:43Z</time>
      </trkpt>
      <trkpt lat="47.13147" lon="5.61001">
        <ele>222</ele>
        <time>2010-08-01T08:41:45Z</time>
      </trkpt>
      <trkpt lat="47.13141" lon="5.60984">
        <ele>222</ele>
        <time>2010-08-01T08:41:47Z</time>
      </trkpt>
      <trkpt lat="47.13133" lon="5.60967">
        <ele>222</ele>
        <time>2010-08-01T08:41:49Z</time>
      </trkpt>
      <trkpt lat="47.13127" lon="5.6095">
        <ele>222</ele>
        <time>2010-08-01T08:41:51Z</time>
      </trkpt>
      <trkpt lat="47.1312" lon="5.60933">
        <ele>222</ele>
        <time>2010-08-01T08:41:53Z</time>
      </trkpt>
      <trkpt lat="47.13114" lon="5.60918">
        <ele>222</ele>
        <time>2010-08-01T08:41:55Z</time>
      </trkpt>
      <trkpt lat="47.13107" lon="5.60902">
        <ele>222</ele>
        <time>2010-08-01T08:41:57Z</time>
      </trkpt>
      <trkpt lat="47.13101" lon="5.60887">
        <ele>227</ele>
        <time>2010-08-01T08:41:59Z</time>
      </trkpt>
      <trkpt lat="47.13095" lon="5.60872">
        <ele>227</ele>
        <time>2010-08-01T08:42:01Z</time>
      </trkpt>
      <trkpt lat="47.13088" lon="5.60857">
        <ele>227</ele>
        <time>2010-08-01T08:42:03Z</time>
      </trkpt>
      <trkpt lat="47.1308" lon="5.60843">
        <ele>227</ele>
        <time>2010-08-01T08:42:05Z</time>
      </trkpt>
      <trkpt lat="47.13074" lon="5.60828">
        <ele>227</ele>
        <time>2010-08-01T08:42:07Z</time>
      </trkpt>
      <trkpt lat="47.13065" lon="5.6082">
        <ele>227</ele>
        <time>2010-08-01T08:42:08Z</time>
      </trkpt>
      <trkpt lat="47.13056" lon="5.60804">
        <ele>227</ele>
        <time>2010-08-01T08:42:10Z</time>
      </trkpt>
      <trkpt lat="47.1305" lon="5.60787">
        <ele>227</ele>
        <time>2010-08-01T08:42:12Z</time>
      </trkpt>
      <trkpt lat="47.13043" lon="5.60771">
        <ele>227</ele>
        <time>2010-08-01T08:42:14Z</time>
      </trkpt>
      <trkpt lat="47.13036" lon="5.60753">
        <ele>227</ele>
        <time>2010-08-01T08:42:16Z</time>
      </trkpt>
      <trkpt lat="47.1303" lon="5.60735">
        <ele>227</ele>
        <time>2010-08-01T08:42:18Z</time>
      </trkpt>
      <trkpt lat="47.13022" lon="5.60717">
        <ele>227</ele>
        <time>2010-08-01T08:42:20Z</time>
      </trkpt>
      <trkpt lat="47.13014" lon="5.60708">
        <ele>227</ele>
        <time>2010-08-01T08:42:21Z</time>
      </trkpt>
      <trkpt lat="47.13003" lon="5.60689">
        <ele>227</ele>
        <time>2010-08-01T08:42:23Z</time>
      </trkpt>
      <trkpt lat="47.12993" lon="5.6067">
        <ele>227</ele>
        <time>2010-08-01T08:42:25Z</time>
      </trkpt>
      <trkpt lat="47.12984" lon="5.6065">
        <ele>221</ele>
        <time>2010-08-01T08:42:27Z</time>
      </trkpt>
      <trkpt lat="47.12975" lon="5.60631">
        <ele>221</ele>
        <time>2010-08-01T08:42:29Z</time>
      </trkpt>
      <trkpt lat="47.12966" lon="5.60611">
        <ele>221</ele>
        <time>2010-08-01T08:42:31Z</time>
      </trkpt>
      <trkpt lat="47.12958" lon="5.60591">
        <ele>221</ele>
        <time>2010-08-01T08:42:33Z</time>
      </trkpt>
      <trkpt lat="47.12949" lon="5.60571">
        <ele>221</ele>
        <time>2010-08-01T08:42:35Z</time>
      </trkpt>
      <trkpt lat="47.12939" lon="5.60551">
        <ele>221</ele>
        <time>2010-08-01T08:42:37Z</time>
      </trkpt>
      <trkpt lat="47.1293" lon="5.60533">
        <ele>221</ele>
        <time>2010-08-01T08:42:39Z</time>
      </trkpt>
      <trkpt lat="47.12921" lon="5.60514">
        <ele>221</ele>
        <time>2010-08-01T08:42:41Z</time>
      </trkpt>
      <trkpt lat="47.12911" lon="5.60495">
        <ele>221</ele>
        <time>2010-08-01T08:42:43Z</time>
      </trkpt>
      <trkpt lat="47.12902" lon="5.60477">
        <ele>221</ele>
        <time>2010-08-01T08:42:45Z</time>
      </trkpt>
      <trkpt lat="47.12893" lon="5.60459">
        <ele>221</ele>
        <time>2010-08-01T08:42:47Z</time>
      </trkpt>
      <trkpt lat="47.12884" lon="5.60442">
        <ele>221</ele>
        <time>2010-08-01T08:42:49Z</time>
      </trkpt>
      <trkpt lat="47.12875" lon="5.60426">
        <ele>221</ele>
        <time>2010-08-01T08:42:51Z</time>
      </trkpt>
      <trkpt lat="47.12865" lon="5.60411">
        <ele>221</ele>
        <time>2010-08-01T08:42:53Z</time>
      </trkpt>
      <trkpt lat="47.12854" lon="5.60397">
        <ele>221</ele>
        <time>2010-08-01T08:42:55Z</time>
      </trkpt>
      <trkpt lat="47.12843" lon="5.60382">
        <ele>221</ele>
        <time>2010-08-01T08:42:57Z</time>
      </trkpt>
      <trkpt lat="47.12833" lon="5.60365">
        <ele>221</ele>
        <time>2010-08-01T08:42:59Z</time>
      </trkpt>
      <trkpt lat="47.12821" lon="5.60349">
        <ele>221</ele>
        <time>2010-08-01T08:43:01Z</time>
      </trkpt>
      <trkpt lat="47.12808" lon="5.60335">
        <ele>221</ele>
        <time>2010-08-01T08:43:03Z</time>
      </trkpt>
      <trkpt lat="47.12794" lon="5.60322">
        <ele>221</ele>
        <time>2010-08-01T08:43:05Z</time>
      </trkpt>
      <trkpt lat="47.1278" lon="5.60315">
        <ele>221</ele>
        <time>2010-08-01T08:43:07Z</time>
      </trkpt>
      <trkpt lat="47.12764" lon="5.60313">
        <ele>221</ele>
        <time>2010-08-01T08:43:09Z</time>
      </trkpt>
      <trkpt lat="47.12749" lon="5.60315">
        <ele>221</ele>
        <time>2010-08-01T08:43:11Z</time>
      </trkpt>
      <trkpt lat="47.12734" lon="5.60317">
        <ele>221</ele>
        <time>2010-08-01T08:43:13Z</time>
      </trkpt>
      <trkpt lat="47.1272" lon="5.6031">
        <ele>221</ele>
        <time>2010-08-01T08:43:15Z</time>
      </trkpt>
      <trkpt lat="47.12709" lon="5.60294">
        <ele>221</ele>
        <time>2010-08-01T08:43:17Z</time>
      </trkpt>
      <trkpt lat="47.12706" lon="5.60274">
        <ele>221</ele>
        <time>2010-08-01T08:43:19Z</time>
      </trkpt>
      <trkpt lat="47.12703" lon="5.60253">
        <ele>221</ele>
        <time>2010-08-01T08:43:21Z</time>
      </trkpt>
      <trkpt lat="47.12702" lon="5.60231">
        <ele>221</ele>
        <time>2010-08-01T08:43:23Z</time>
      </trkpt>
      <trkpt lat="47.12701" lon="5.60209">
        <ele>221</ele>
        <time>2010-08-01T08:43:25Z</time>
      </trkpt>
      <trkpt lat="47.12697" lon="5.60187">
        <ele>221</ele>
        <time>2010-08-01T08:43:27Z</time>
      </trkpt>
      <trkpt lat="47.12693" lon="5.60163">
        <ele>221</ele>
        <time>2010-08-01T08:43:29Z</time>
      </trkpt>
      <trkpt lat="47.12689" lon="5.60141">
        <ele>221</ele>
        <time>2010-08-01T08:43:31Z</time>
      </trkpt>
      <trkpt lat="47.12687" lon="5.60118">
        <ele>221</ele>
        <time>2010-08-01T08:43:33Z</time>
      </trkpt>
      <trkpt lat="47.12685" lon="5.60096">
        <ele>221</ele>
        <time>2010-08-01T08:43:35Z</time>
      </trkpt>
      <trkpt lat="47.12683" lon="5.60072">
        <ele>221</ele>
        <time>2010-08-01T08:43:37Z</time>
      </trkpt>
      <trkpt lat="47.12686" lon="5.60049">
        <ele>221</ele>
        <time>2010-08-01T08:43:39Z</time>
      </trkpt>
      <trkpt lat="47.12686" lon="5.60026">
        <ele>221</ele>
        <time>2010-08-01T08:43:41Z</time>
      </trkpt>
      <trkpt lat="47.12686" lon="5.60003">
        <ele>221</ele>
        <time>2010-08-01T08:43:43Z</time>
      </trkpt>
      <trkpt lat="47.12688" lon="5.5998">
        <ele>221</ele>
        <time>2010-08-01T08:43:45Z</time>
      </trkpt>
      <trkpt lat="47.12691" lon="5.59958">
        <ele>221</ele>
        <time>2010-08-01T08:43:47Z</time>
      </trkpt>
      <trkpt lat="47.12697" lon="5.59936">
        <ele>221</ele>
        <time>2010-08-01T08:43:49Z</time>
      </trkpt>
      <trkpt lat="47.12701" lon="5.59915">
        <ele>221</ele>
        <time>2010-08-01T08:43:51Z</time>
      </trkpt>
      <trkpt lat="47.12705" lon="5.59893">
        <ele>221</ele>
        <time>2010-08-01T08:43:53Z</time>
      </trkpt>
      <trkpt lat="47.1271" lon="5.59872">
        <ele>221</ele>
        <time>2010-08-01T08:43:55Z</time>
      </trkpt>
      <trkpt lat="47.12713" lon="5.59851">
        <ele>221</ele>
        <time>2010-08-01T08:43:57Z</time>
      </trkpt>
      <trkpt lat="47.12716" lon="5.59829">
        <ele>221</ele>
        <time>2010-08-01T08:43:59Z</time>
      </trkpt>
      <trkpt lat="47.12719" lon="5.59808">
        <ele>221</ele>
        <time>2010-08-01T08:44:01Z</time>
      </trkpt>
      <trkpt lat="47.12721" lon="5.59785">
        <ele>221</ele>
        <time>2010-08-01T08:44:03Z</time>
      </trkpt>
      <trkpt lat="47.12724" lon="5.59764">
        <ele>221</ele>
        <time>2010-08-01T08:44:05Z</time>
      </trkpt>
      <trkpt lat="47.12725" lon="5.59742">
        <ele>221</ele>
        <time>2010-08-01T08:44:07Z</time>
      </trkpt>
      <trkpt lat="47.12726" lon="5.59721">
        <ele>221</ele>
        <time>2010-08-01T08:44:09Z</time>
      </trkpt>
      <trkpt lat="47.12726" lon="5.59698">
        <ele>221</ele>
        <time>2010-08-01T08:44:11Z</time>
      </trkpt>
      <trkpt lat="47.12727" lon="5.59676">
        <ele>221</ele>
        <time>2010-08-01T08:44:13Z</time>
      </trkpt>
      <trkpt lat="47.12727" lon="5.59654">
        <ele>221</ele>
        <time>2010-08-01T08:44:15Z</time>
      </trkpt>
      <trkpt lat="47.12726" lon="5.59633">
        <ele>221</ele>
        <time>2010-08-01T08:44:17Z</time>
      </trkpt>
      <trkpt lat="47.12726" lon="5.59612">
        <ele>221</ele>
        <time>2010-08-01T08:44:19Z</time>
      </trkpt>
      <trkpt lat="47.12726" lon="5.59591">
        <ele>221</ele>
        <time>2010-08-01T08:44:21Z</time>
      </trkpt>
      <trkpt lat="47.12725" lon="5.5957">
        <ele>221</ele>
        <time>2010-08-01T08:44:23Z</time>
      </trkpt>
      <trkpt lat="47.12724" lon="5.59549">
        <ele>221</ele>
        <time>2010-08-01T08:44:25Z</time>
      </trkpt>
      <trkpt lat="47.12724" lon="5.59527">
        <ele>221</ele>
        <time>2010-08-01T08:44:27Z</time>
      </trkpt>
      <trkpt lat="47.12724" lon="5.59507">
        <ele>221</ele>
        <time>2010-08-01T08:44:29Z</time>
      </trkpt>
      <trkpt lat="47.12724" lon="5.59485">
        <ele>221</ele>
        <time>2010-08-01T08:44:31Z</time>
      </trkpt>
      <trkpt lat="47.12723" lon="5.59464">
        <ele>221</ele>
        <time>2010-08-01T08:44:33Z</time>
      </trkpt>
      <trkpt lat="47.12723" lon="5.59442">
        <ele>221</ele>
        <time>2010-08-01T08:44:35Z</time>
      </trkpt>
      <trkpt lat="47.12723" lon="5.59421">
        <ele>221</ele>
        <time>2010-08-01T08:44:37Z</time>
      </trkpt>
      <trkpt lat="47.12722" lon="5.59398">
        <ele>221</ele>
        <time>2010-08-01T08:44:39Z</time>
      </trkpt>
      <trkpt lat="47.12722" lon="5.59376">
        <ele>221</ele>
        <time>2010-08-01T08:44:41Z</time>
      </trkpt>
      <trkpt lat="47.12722" lon="5.59355">
        <ele>221</ele>
        <time>2010-08-01T08:44:43Z</time>
      </trkpt>
      <trkpt lat="47.12721" lon="5.59333">
        <ele>221</ele>
        <time>2010-08-01T08:44:45Z</time>
      </trkpt>
      <trkpt lat="47.12721" lon="5.59312">
        <ele>221</ele>
        <time>2010-08-01T08:44:47Z</time>
      </trkpt>
      <trkpt lat="47.12721" lon="5.5929">
        <ele>221</ele>
        <time>2010-08-01T08:44:49Z</time>
      </trkpt>
      <trkpt lat="47.12721" lon="5.59269">
        <ele>221</ele>
        <time>2010-08-01T08:44:51Z</time>
      </trkpt>
      <trkpt lat="47.12721" lon="5.59247">
        <ele>221</ele>
        <time>2010-08-01T08:44:53Z</time>
      </trkpt>
      <trkpt lat="47.12722" lon="5.59225">
        <ele>221</ele>
        <time>2010-08-01T08:44:55Z</time>
      </trkpt>
      <trkpt lat="47.12722" lon="5.59202">
        <ele>221</ele>
        <time>2010-08-01T08:44:57Z</time>
      </trkpt>
      <trkpt lat="47.12722" lon="5.5918">
        <ele>221</ele>
        <time>2010-08-01T08:44:59Z</time>
      </trkpt>
      <trkpt lat="47.12721" lon="5.59157">
        <ele>221</ele>
        <time>2010-08-01T08:45:01Z</time>
      </trkpt>
      <trkpt lat="47.1272" lon="5.59135">
        <ele>221</ele>
        <time>2010-08-01T08:45:03Z</time>
      </trkpt>
      <trkpt lat="47.12718" lon="5.59112">
        <ele>221</ele>
        <time>2010-08-01T08:45:05Z</time>
      </trkpt>
      <trkpt lat="47.12713" lon="5.59091">
        <ele>221</ele>
        <time>2010-08-01T08:45:07Z</time>
      </trkpt>
      <trkpt lat="47.12707" lon="5.5907">
        <ele>221</ele>
        <time>2010-08-01T08:45:09Z</time>
      </trkpt>
      <trkpt lat="47.12701" lon="5.5905">
        <ele>221</ele>
        <time>2010-08-01T08:45:11Z</time>
      </trkpt>
      <trkpt lat="47.12691" lon="5.59032">
        <ele>221</ele>
        <time>2010-08-01T08:45:13Z</time>
      </trkpt>
      <trkpt lat="47.12682" lon="5.59016">
        <ele>221</ele>
        <time>2010-08-01T08:45:15Z</time>
      </trkpt>
      <trkpt lat="47.1267" lon="5.59002">
        <ele>221</ele>
        <time>2010-08-01T08:45:17Z</time>
      </trkpt>
      <trkpt lat="47.12658" lon="5.58988">
        <ele>221</ele>
        <time>2010-08-01T08:45:19Z</time>
      </trkpt>
      <trkpt lat="47.12646" lon="5.58974">
        <ele>221</ele>
        <time>2010-08-01T08:45:21Z</time>
      </trkpt>
      <trkpt lat="47.12635" lon="5.5896">
        <ele>216</ele>
        <time>2010-08-01T08:45:23Z</time>
      </trkpt>
      <trkpt lat="47.12624" lon="5.58944">
        <ele>216</ele>
        <time>2010-08-01T08:45:25Z</time>
      </trkpt>
      <trkpt lat="47.12613" lon="5.58929">
        <ele>216</ele>
        <time>2010-08-01T08:45:27Z</time>
      </trkpt>
      <trkpt lat="47.12604" lon="5.58912">
        <ele>216</ele>
        <time>2010-08-01T08:45:29Z</time>
      </trkpt>
      <trkpt lat="47.12595" lon="5.58895">
        <ele>216</ele>
        <time>2010-08-01T08:45:31Z</time>
      </trkpt>
      <trkpt lat="47.12587" lon="5.58876">
        <ele>216</ele>
        <time>2010-08-01T08:45:33Z</time>
      </trkpt>
      <trkpt lat="47.1258" lon="5.58857">
        <ele>216</ele>
        <time>2010-08-01T08:45:35Z</time>
      </trkpt>
      <trkpt lat="47.12575" lon="5.58836">
        <ele>216</ele>
        <time>2010-08-01T08:45:37Z</time>
      </trkpt>
      <trkpt lat="47.12571" lon="5.58814">
        <ele>216</ele>
        <time>2010-08-01T08:45:39Z</time>
      </trkpt>
      <trkpt lat="47.12569" lon="5.58793">
        <ele>216</ele>
        <time>2010-08-01T08:45:41Z</time>
      </trkpt>
      <trkpt lat="47.12566" lon="5.58771">
        <ele>216</ele>
        <time>2010-08-01T08:45:43Z</time>
      </trkpt>
      <trkpt lat="47.12563" lon="5.58749">
        <ele>216</ele>
        <time>2010-08-01T08:45:45Z</time>
      </trkpt>
      <trkpt lat="47.1256" lon="5.58728">
        <ele>216</ele>
        <time>2010-08-01T08:45:47Z</time>
      </trkpt>
      <trkpt lat="47.12557" lon="5.58706">
        <ele>216</ele>
        <time>2010-08-01T08:45:49Z</time>
      </trkpt>
      <trkpt lat="47.12553" lon="5.58685">
        <ele>216</ele>
        <time>2010-08-01T08:45:51Z</time>
      </trkpt>
      <trkpt lat="47.12551" lon="5.58663">
        <ele>216</ele>
        <time>2010-08-01T08:45:53Z</time>
      </trkpt>
      <trkpt lat="47.1255" lon="5.58641">
        <ele>216</ele>
        <time>2010-08-01T08:45:55Z</time>
      </trkpt>
      <trkpt lat="47.12548" lon="5.58619">
        <ele>216</ele>
        <time>2010-08-01T08:45:57Z</time>
      </trkpt>
      <trkpt lat="47.12548" lon="5.58598">
        <ele>216</ele>
        <time>2010-08-01T08:45:59Z</time>
      </trkpt>
      <trkpt lat="47.1255" lon="5.58576">
        <ele>216</ele>
        <time>2010-08-01T08:46:01Z</time>
      </trkpt>
      <trkpt lat="47.12552" lon="5.58554">
        <ele>216</ele>
        <time>2010-08-01T08:46:03Z</time>
      </trkpt>
      <trkpt lat="47.12555" lon="5.58533">
        <ele>216</ele>
        <time>2010-08-01T08:46:05Z</time>
      </trkpt>
      <trkpt lat="47.12559" lon="5.58512">
        <ele>216</ele>
        <time>2010-08-01T08:46:07Z</time>
      </trkpt>
      <trkpt lat="47.12563" lon="5.58493">
        <ele>216</ele>
        <time>2010-08-01T08:46:09Z</time>
      </trkpt>
      <trkpt lat="47.12569" lon="5.58473">
        <ele>216</ele>
        <time>2010-08-01T08:46:11Z</time>
      </trkpt>
      <trkpt lat="47.12575" lon="5.58454">
        <ele>216</ele>
        <time>2010-08-01T08:46:13Z</time>
      </trkpt>
      <trkpt lat="47.12582" lon="5.58434">
        <ele>216</ele>
        <time>2010-08-01T08:46:15Z</time>
      </trkpt>
      <trkpt lat="47.12586" lon="5.58414">
        <ele>216</ele>
        <time>2010-08-01T08:46:17Z</time>
      </trkpt>
      <trkpt lat="47.12591" lon="5.58394">
        <ele>216</ele>
        <time>2010-08-01T08:46:19Z</time>
      </trkpt>
      <trkpt lat="47.12593" lon="5.58373">
        <ele>216</ele>
        <time>2010-08-01T08:46:21Z</time>
      </trkpt>
      <trkpt lat="47.12594" lon="5.58353">
        <ele>216</ele>
        <time>2010-08-01T08:46:23Z</time>
      </trkpt>
      <trkpt lat="47.12593" lon="5.58333">
        <ele>216</ele>
        <time>2010-08-01T08:46:25Z</time>
      </trkpt>
      <trkpt lat="47.12591" lon="5.58313">
        <ele>216</ele>
        <time>2010-08-01T08:46:27Z</time>
      </trkpt>
      <trkpt lat="47.12589" lon="5.58293">
        <ele>216</ele>
        <time>2010-08-01T08:46:29Z</time>
      </trkpt>
      <trkpt lat="47.12587" lon="5.58273">
        <ele>216</ele>
        <time>2010-08-01T08:46:31Z</time>
      </trkpt>
      <trkpt lat="47.12585" lon="5.58254">
        <ele>216</ele>
        <time>2010-08-01T08:46:33Z</time>
      </trkpt>
      <trkpt lat="47.12583" lon="5.58235">
        <ele>216</ele>
        <time>2010-08-01T08:46:35Z</time>
      </trkpt>
      <trkpt lat="47.12581" lon="5.58216">
        <ele>216</ele>
        <time>2010-08-01T08:46:37Z</time>
      </trkpt>
      <trkpt lat="47.12578" lon="5.58198">
        <ele>221</ele>
        <time>2010-08-01T08:46:39Z</time>
      </trkpt>
      <trkpt lat="47.12574" lon="5.58181">
        <ele>221</ele>
        <time>2010-08-01T08:46:41Z</time>
      </trkpt>
      <trkpt lat="47.12571" lon="5.58163">
        <ele>221</ele>
        <time>2010-08-01T08:46:43Z</time>
      </trkpt>
      <trkpt lat="47.12567" lon="5.58147">
        <ele>221</ele>
        <time>2010-08-01T08:46:45Z</time>
      </trkpt>
      <trkpt lat="47.12564" lon="5.5813">
        <ele>221</ele>
        <time>2010-08-01T08:46:47Z</time>
      </trkpt>
      <trkpt lat="47.1256" lon="5.58113">
        <ele>221</ele>
        <time>2010-08-01T08:46:49Z</time>
      </trkpt>
      <trkpt lat="47.12556" lon="5.58097">
        <ele>221</ele>
        <time>2010-08-01T08:46:51Z</time>
      </trkpt>
      <trkpt lat="47.12553" lon="5.58081">
        <ele>221</ele>
        <time>2010-08-01T08:46:53Z</time>
      </trkpt>
      <trkpt lat="47.12549" lon="5.58064">
        <ele>221</ele>
        <time>2010-08-01T08:46:55Z</time>
      </trkpt>
      <trkpt lat="47.12546" lon="5.58047">
        <ele>221</ele>
        <time>2010-08-01T08:46:57Z</time>
      </trkpt>
      <trkpt lat="47.12542" lon="5.58031">
        <ele>221</ele>
        <time>2010-08-01T08:46:59Z</time>
      </trkpt>
      <trkpt lat="47.12539" lon="5.58014">
        <ele>221</ele>
        <time>2010-08-01T08:47:01Z</time>
      </trkpt>
      <trkpt lat="47.12536" lon="5.57997">
        <ele>221</ele>
        <time>2010-08-01T08:47:03Z</time>
      </trkpt>
      <trkpt lat="47.12533" lon="5.57979">
        <ele>221</ele>
        <time>2010-08-01T08:47:05Z</time>
      </trkpt>
      <trkpt lat="47.12531" lon="5.57962">
        <ele>221</ele>
        <time>2010-08-01T08:47:07Z</time>
      </trkpt>
      <trkpt lat="47.12528" lon="5.57944">
        <ele>221</ele>
        <time>2010-08-01T08:47:09Z</time>
      </trkpt>
      <trkpt lat="47.12525" lon="5.57926">
        <ele>221</ele>
        <time>2010-08-01T08:47:11Z</time>
      </trkpt>
      <trkpt lat="47.12522" lon="5.57907">
        <ele>221</ele>
        <time>2010-08-01T08:47:13Z</time>
      </trkpt>
      <trkpt lat="47.12519" lon="5.57888">
        <ele>221</ele>
        <time>2010-08-01T08:47:15Z</time>
      </trkpt>
      <trkpt lat="47.12516" lon="5.57868">
        <ele>221</ele>
        <time>2010-08-01T08:47:17Z</time>
      </trkpt>
      <trkpt lat="47.12512" lon="5.57848">
        <ele>221</ele>
        <time>2010-08-01T08:47:19Z</time>
      </trkpt>
      <trkpt lat="47.12509" lon="5.5783">
        <ele>221</ele>
        <time>2010-08-01T08:47:21Z</time>
      </trkpt>
      <trkpt lat="47.12506" lon="5.5781">
        <ele>221</ele>
        <time>2010-08-01T08:47:23Z</time>
      </trkpt>
      <trkpt lat="47.12502" lon="5.57789">
        <ele>221</ele>
        <time>2010-08-01T08:47:25Z</time>
      </trkpt>
      <trkpt lat="47.12498" lon="5.57769">
        <ele>221</ele>
        <time>2010-08-01T08:47:27Z</time>
      </trkpt>
      <trkpt lat="47.12494" lon="5.57747">
        <ele>221</ele>
        <time>2010-08-01T08:47:29Z</time>
      </trkpt>
      <trkpt lat="47.1249" lon="5.57726">
        <ele>221</ele>
        <time>2010-08-01T08:47:31Z</time>
      </trkpt>
      <trkpt lat="47.12485" lon="5.57706">
        <ele>221</ele>
        <time>2010-08-01T08:47:33Z</time>
      </trkpt>
      <trkpt lat="47.1248" lon="5.57684">
        <ele>221</ele>
        <time>2010-08-01T08:47:35Z</time>
      </trkpt>
      <trkpt lat="47.12476" lon="5.57663">
        <ele>221</ele>
        <time>2010-08-01T08:47:37Z</time>
      </trkpt>
      <trkpt lat="47.12471" lon="5.57642">
        <ele>221</ele>
        <time>2010-08-01T08:47:39Z</time>
      </trkpt>
      <trkpt lat="47.12467" lon="5.57621">
        <ele>221</ele>
        <time>2010-08-01T08:47:41Z</time>
      </trkpt>
      <trkpt lat="47.12463" lon="5.576">
        <ele>221</ele>
        <time>2010-08-01T08:47:43Z</time>
      </trkpt>
      <trkpt lat="47.12458" lon="5.57579">
        <ele>221</ele>
        <time>2010-08-01T08:47:45Z</time>
      </trkpt>
      <trkpt lat="47.12453" lon="5.57558">
        <ele>221</ele>
        <time>2010-08-01T08:47:47Z</time>
      </trkpt>
      <trkpt lat="47.12448" lon="5.57536">
        <ele>221</ele>
        <time>2010-08-01T08:47:49Z</time>
      </trkpt>
      <trkpt lat="47.12444" lon="5.57514">
        <ele>221</ele>
        <time>2010-08-01T08:47:51Z</time>
      </trkpt>
      <trkpt lat="47.12438" lon="5.57493">
        <ele>221</ele>
        <time>2010-08-01T08:47:53Z</time>
      </trkpt>
      <trkpt lat="47.12433" lon="5.5747">
        <ele>221</ele>
        <time>2010-08-01T08:47:55Z</time>
      </trkpt>
      <trkpt lat="47.12428" lon="5.57448">
        <ele>221</ele>
        <time>2010-08-01T08:47:57Z</time>
      </trkpt>
      <trkpt lat="47.12423" lon="5.57424">
        <ele>221</ele>
        <time>2010-08-01T08:47:59Z</time>
      </trkpt>
      <trkpt lat="47.12418" lon="5.574">
        <ele>221</ele>
        <time>2010-08-01T08:48:01Z</time>
      </trkpt>
      <trkpt lat="47.12415" lon="5.57388">
        <ele>221</ele>
        <time>2010-08-01T08:48:02Z</time>
      </trkpt>
      <trkpt lat="47.12411" lon="5.57363">
        <ele>221</ele>
        <time>2010-08-01T08:48:04Z</time>
      </trkpt>
      <trkpt lat="47.12406" lon="5.57339">
        <ele>216</ele>
        <time>2010-08-01T08:48:06Z</time>
      </trkpt>
      <trkpt lat="47.12403" lon="5.57327">
        <ele>216</ele>
        <time>2010-08-01T08:48:07Z</time>
      </trkpt>
      <trkpt lat="47.12398" lon="5.57302">
        <ele>216</ele>
        <time>2010-08-01T08:48:09Z</time>
      </trkpt>
      <trkpt lat="47.12393" lon="5.57278">
        <ele>216</ele>
        <time>2010-08-01T08:48:11Z</time>
      </trkpt>
      <trkpt lat="47.12388" lon="5.57255">
        <ele>216</ele>
        <time>2010-08-01T08:48:13Z</time>
      </trkpt>
      <trkpt lat="47.12383" lon="5.57231">
        <ele>216</ele>
        <time>2010-08-01T08:48:15Z</time>
      </trkpt>
      <trkpt lat="47.1238" lon="5.57219">
        <ele>216</ele>
        <time>2010-08-01T08:48:16Z</time>
      </trkpt>
      <trkpt lat="47.12376" lon="5.57195">
        <ele>216</ele>
        <time>2010-08-01T08:48:18Z</time>
      </trkpt>
      <trkpt lat="47.12371" lon="5.57173">
        <ele>216</ele>
        <time>2010-08-01T08:48:20Z</time>
      </trkpt>
      <trkpt lat="47.12366" lon="5.5715">
        <ele>216</ele>
        <time>2010-08-01T08:48:22Z</time>
      </trkpt>
      <trkpt lat="47.12361" lon="5.57128">
        <ele>216</ele>
        <time>2010-08-01T08:48:24Z</time>
      </trkpt>
      <trkpt lat="47.12356" lon="5.57106">
        <ele>216</ele>
        <time>2010-08-01T08:48:26Z</time>
      </trkpt>
      <trkpt lat="47.12351" lon="5.57086">
        <ele>216</ele>
        <time>2010-08-01T08:48:28Z</time>
      </trkpt>
      <trkpt lat="47.12347" lon="5.57064">
        <ele>216</ele>
        <time>2010-08-01T08:48:30Z</time>
      </trkpt>
      <trkpt lat="47.12342" lon="5.57044">
        <ele>216</ele>
        <time>2010-08-01T08:48:32Z</time>
      </trkpt>
      <trkpt lat="47.12337" lon="5.57023">
        <ele>216</ele>
        <time>2010-08-01T08:48:34Z</time>
      </trkpt>
      <trkpt lat="47.12331" lon="5.57002">
        <ele>216</ele>
        <time>2010-08-01T08:48:36Z</time>
      </trkpt>
      <trkpt lat="47.12327" lon="5.56982">
        <ele>216</ele>
        <time>2010-08-01T08:48:38Z</time>
      </trkpt>
      <trkpt lat="47.12322" lon="5.56962">
        <ele>216</ele>
        <time>2010-08-01T08:48:40Z</time>
      </trkpt>
      <trkpt lat="47.12319" lon="5.56943">
        <ele>216</ele>
        <time>2010-08-01T08:48:42Z</time>
      </trkpt>
      <trkpt lat="47.12315" lon="5.56926">
        <ele>216</ele>
        <time>2010-08-01T08:48:44Z</time>
      </trkpt>
      <trkpt lat="47.12311" lon="5.5691">
        <ele>216</ele>
        <time>2010-08-01T08:48:46Z</time>
      </trkpt>
      <trkpt lat="47.12306" lon="5.56893">
        <ele>216</ele>
        <time>2010-08-01T08:48:48Z</time>
      </trkpt>
      <trkpt lat="47.123" lon="5.56878">
        <ele>216</ele>
        <time>2010-08-01T08:48:50Z</time>
      </trkpt>
      <trkpt lat="47.1229" lon="5.56873">
        <ele>216</ele>
        <time>2010-08-01T08:48:52Z</time>
      </trkpt>
      <trkpt lat="47.12279" lon="5.56873">
        <ele>216</ele>
        <time>2010-08-01T08:48:54Z</time>
      </trkpt>
      <trkpt lat="47.12267" lon="5.56873">
        <ele>216</ele>
        <time>2010-08-01T08:48:56Z</time>
      </trkpt>
      <trkpt lat="47.12255" lon="5.5687">
        <ele>216</ele>
        <time>2010-08-01T08:48:58Z</time>
      </trkpt>
      <trkpt lat="47.12244" lon="5.56866">
        <ele>216</ele>
        <time>2010-08-01T08:49:00Z</time>
      </trkpt>
      <trkpt lat="47.12233" lon="5.56862">
        <ele>216</ele>
        <time>2010-08-01T08:49:03Z</time>
      </trkpt>
      <trkpt lat="47.12225" lon="5.56868">
        <ele>216</ele>
        <time>2010-08-01T08:49:16Z</time>
      </trkpt>
      <trkpt lat="47.12219" lon="5.56878">
        <ele>206</ele>
        <time>2010-08-01T08:50:13Z</time>
      </trkpt>
      <trkpt lat="47.12214" lon="5.56867">
        <ele>214</ele>
        <time>2010-08-01T08:50:43Z</time>
      </trkpt>
      <trkpt lat="47.12206" lon="5.56859">
        <ele>214</ele>
        <time>2010-08-01T08:50:47Z</time>
      </trkpt>
      <trkpt lat="47.12196" lon="5.56852">
        <ele>214</ele>
        <time>2010-08-01T08:50:51Z</time>
      </trkpt>
      <trkpt lat="47.12188" lon="5.56846">
        <ele>214</ele>
        <time>2010-08-01T08:50:54Z</time>
      </trkpt>
      <trkpt lat="47.12177" lon="5.56835">
        <ele>214</ele>
        <time>2010-08-01T08:50:57Z</time>
      </trkpt>
      <trkpt lat="47.12168" lon="5.56825">
        <ele>214</ele>
        <time>2010-08-01T08:50:59Z</time>
      </trkpt>
      <trkpt lat="47.12161" lon="5.56813">
        <ele>214</ele>
        <time>2010-08-01T08:51:01Z</time>
      </trkpt>
      <trkpt lat="47.12155" lon="5.568">
        <ele>214</ele>
        <time>2010-08-01T08:51:03Z</time>
      </trkpt>
      <trkpt lat="47.12148" lon="5.56787">
        <ele>214</ele>
        <time>2010-08-01T08:51:05Z</time>
      </trkpt>
      <trkpt lat="47.12142" lon="5.56772">
        <ele>214</ele>
        <time>2010-08-01T08:51:07Z</time>
      </trkpt>
      <trkpt lat="47.12136" lon="5.56757">
        <ele>214</ele>
        <time>2010-08-01T08:51:09Z</time>
      </trkpt>
      <trkpt lat="47.1213" lon="5.56743">
        <ele>214</ele>
        <time>2010-08-01T08:51:11Z</time>
      </trkpt>
      <trkpt lat="47.12124" lon="5.56728">
        <ele>214</ele>
        <time>2010-08-01T08:51:13Z</time>
      </trkpt>
      <trkpt lat="47.12119" lon="5.56712">
        <ele>214</ele>
        <time>2010-08-01T08:51:15Z</time>
      </trkpt>
      <trkpt lat="47.12113" lon="5.56697">
        <ele>214</ele>
        <time>2010-08-01T08:51:17Z</time>
      </trkpt>
      <trkpt lat="47.12106" lon="5.56681">
        <ele>214</ele>
        <time>2010-08-01T08:51:19Z</time>
      </trkpt>
      <trkpt lat="47.12098" lon="5.56667">
        <ele>214</ele>
        <time>2010-08-01T08:51:21Z</time>
      </trkpt>
      <trkpt lat="47.12089" lon="5.56656">
        <ele>214</ele>
        <time>2010-08-01T08:51:23Z</time>
      </trkpt>
      <trkpt lat="47.1208" lon="5.56654">
        <ele>214</ele>
        <time>2010-08-01T08:51:25Z</time>
      </trkpt>
      <trkpt lat="47.12067" lon="5.56658">
        <ele>214</ele>
        <time>2010-08-01T08:51:27Z</time>
      </trkpt>
      <trkpt lat="47.12055" lon="5.56666">
        <ele>214</ele>
        <time>2010-08-01T08:51:29Z</time>
      </trkpt>
      <trkpt lat="47.12044" lon="5.56678">
        <ele>214</ele>
        <time>2010-08-01T08:51:31Z</time>
      </trkpt>
      <trkpt lat="47.12032" lon="5.5669">
        <ele>214</ele>
        <time>2010-08-01T08:51:33Z</time>
      </trkpt>
      <trkpt lat="47.12021" lon="5.56701">
        <ele>214</ele>
        <time>2010-08-01T08:51:35Z</time>
      </trkpt>
      <trkpt lat="47.1201" lon="5.56713">
        <ele>214</ele>
        <time>2010-08-01T08:51:37Z</time>
      </trkpt>
      <trkpt lat="47.11999" lon="5.56725">
        <ele>214</ele>
        <time>2010-08-01T08:51:39Z</time>
      </trkpt>
      <trkpt lat="47.11988" lon="5.56736">
        <ele>214</ele>
        <time>2010-08-01T08:51:41Z</time>
      </trkpt>
      <trkpt lat="47.11977" lon="5.56747">
        <ele>214</ele>
        <time>2010-08-01T08:51:43Z</time>
      </trkpt>
      <trkpt lat="47.11966" lon="5.56759">
        <ele>214</ele>
        <time>2010-08-01T08:51:45Z</time>
      </trkpt>
      <trkpt lat="47.11955" lon="5.56769">
        <ele>214</ele>
        <time>2010-08-01T08:51:47Z</time>
      </trkpt>
      <trkpt lat="47.11944" lon="5.56779">
        <ele>214</ele>
        <time>2010-08-01T08:51:49Z</time>
      </trkpt>
      <trkpt lat="47.11933" lon="5.56791">
        <ele>214</ele>
        <time>2010-08-01T08:51:51Z</time>
      </trkpt>
      <trkpt lat="47.11922" lon="5.56802">
        <ele>214</ele>
        <time>2010-08-01T08:51:53Z</time>
      </trkpt>
      <trkpt lat="47.11911" lon="5.56813">
        <ele>214</ele>
        <time>2010-08-01T08:51:55Z</time>
      </trkpt>
      <trkpt lat="47.119" lon="5.56823">
        <ele>214</ele>
        <time>2010-08-01T08:51:57Z</time>
      </trkpt>
      <trkpt lat="47.11889" lon="5.56833">
        <ele>214</ele>
        <time>2010-08-01T08:51:59Z</time>
      </trkpt>
      <trkpt lat="47.11879" lon="5.56843">
        <ele>214</ele>
        <time>2010-08-01T08:52:01Z</time>
      </trkpt>
      <trkpt lat="47.11868" lon="5.56854">
        <ele>214</ele>
        <time>2010-08-01T08:52:03Z</time>
      </trkpt>
      <trkpt lat="47.11858" lon="5.56864">
        <ele>214</ele>
        <time>2010-08-01T08:52:05Z</time>
      </trkpt>
      <trkpt lat="47.11848" lon="5.56874">
        <ele>214</ele>
        <time>2010-08-01T08:52:07Z</time>
      </trkpt>
      <trkpt lat="47.11837" lon="5.56885">
        <ele>214</ele>
        <time>2010-08-01T08:52:09Z</time>
      </trkpt>
      <trkpt lat="47.11827" lon="5.56895">
        <ele>214</ele>
        <time>2010-08-01T08:52:11Z</time>
      </trkpt>
      <trkpt lat="47.11818" lon="5.56909">
        <ele>214</ele>
        <time>2010-08-01T08:52:13Z</time>
      </trkpt>
      <trkpt lat="47.1181" lon="5.56923">
        <ele>214</ele>
        <time>2010-08-01T08:52:15Z</time>
      </trkpt>
      <trkpt lat="47.11804" lon="5.56938">
        <ele>214</ele>
        <time>2010-08-01T08:52:17Z</time>
      </trkpt>
      <trkpt lat="47.11798" lon="5.56955">
        <ele>214</ele>
        <time>2010-08-01T08:52:19Z</time>
      </trkpt>
      <trkpt lat="47.11792" lon="5.56972">
        <ele>214</ele>
        <time>2010-08-01T08:52:21Z</time>
      </trkpt>
      <trkpt lat="47.11786" lon="5.56988">
        <ele>214</ele>
        <time>2010-08-01T08:52:23Z</time>
      </trkpt>
      <trkpt lat="47.1178" lon="5.57004">
        <ele>214</ele>
        <time>2010-08-01T08:52:25Z</time>
      </trkpt>
      <trkpt lat="47.11773" lon="5.5702">
        <ele>214</ele>
        <time>2010-08-01T08:52:27Z</time>
      </trkpt>
      <trkpt lat="47.11767" lon="5.57035">
        <ele>214</ele>
        <time>2010-08-01T08:52:29Z</time>
      </trkpt>
      <trkpt lat="47.11761" lon="5.5705">
        <ele>214</ele>
        <time>2010-08-01T08:52:31Z</time>
      </trkpt>
      <trkpt lat="47.11754" lon="5.57065">
        <ele>214</ele>
        <time>2010-08-01T08:52:33Z</time>
      </trkpt>
      <trkpt lat="47.11748" lon="5.57079">
        <ele>214</ele>
        <time>2010-08-01T08:52:35Z</time>
      </trkpt>
      <trkpt lat="47.11741" lon="5.57094">
        <ele>214</ele>
        <time>2010-08-01T08:52:37Z</time>
      </trkpt>
      <trkpt lat="47.11735" lon="5.57107">
        <ele>214</ele>
        <time>2010-08-01T08:52:39Z</time>
      </trkpt>
      <trkpt lat="47.11728" lon="5.57121">
        <ele>214</ele>
        <time>2010-08-01T08:52:41Z</time>
      </trkpt>
      <trkpt lat="47.11721" lon="5.57133">
        <ele>214</ele>
        <time>2010-08-01T08:52:43Z</time>
      </trkpt>
      <trkpt lat="47.11715" lon="5.57147">
        <ele>214</ele>
        <time>2010-08-01T08:52:45Z</time>
      </trkpt>
      <trkpt lat="47.11708" lon="5.57159">
        <ele>214</ele>
        <time>2010-08-01T08:52:47Z</time>
      </trkpt>
      <trkpt lat="47.11702" lon="5.57173">
        <ele>214</ele>
        <time>2010-08-01T08:52:49Z</time>
      </trkpt>
      <trkpt lat="47.11696" lon="5.57185">
        <ele>214</ele>
        <time>2010-08-01T08:52:51Z</time>
      </trkpt>
      <trkpt lat="47.11689" lon="5.57197">
        <ele>214</ele>
        <time>2010-08-01T08:52:53Z</time>
      </trkpt>
      <trkpt lat="47.11683" lon="5.57209">
        <ele>214</ele>
        <time>2010-08-01T08:52:55Z</time>
      </trkpt>
      <trkpt lat="47.11677" lon="5.57221">
        <ele>214</ele>
        <time>2010-08-01T08:52:57Z</time>
      </trkpt>
      <trkpt lat="47.11671" lon="5.57232">
        <ele>214</ele>
        <time>2010-08-01T08:52:59Z</time>
      </trkpt>
      <trkpt lat="47.11666" lon="5.57244">
        <ele>214</ele>
        <time>2010-08-01T08:53:01Z</time>
      </trkpt>
      <trkpt lat="47.1166" lon="5.57255">
        <ele>214</ele>
        <time>2010-08-01T08:53:03Z</time>
      </trkpt>
      <trkpt lat="47.11654" lon="5.57266">
        <ele>214</ele>
        <time>2010-08-01T08:53:05Z</time>
      </trkpt>
      <trkpt lat="47.11649" lon="5.57277">
        <ele>220</ele>
        <time>2010-08-01T08:53:07Z</time>
      </trkpt>
      <trkpt lat="47.11644" lon="5.57289">
        <ele>220</ele>
        <time>2010-08-01T08:53:09Z</time>
      </trkpt>
      <trkpt lat="47.11639" lon="5.573">
        <ele>220</ele>
        <time>2010-08-01T08:53:11Z</time>
      </trkpt>
      <trkpt lat="47.11633" lon="5.57311">
        <ele>220</ele>
        <time>2010-08-01T08:53:13Z</time>
      </trkpt>
      <trkpt lat="47.11624" lon="5.57327">
        <ele>220</ele>
        <time>2010-08-01T08:53:16Z</time>
      </trkpt>
      <trkpt lat="47.11617" lon="5.57342">
        <ele>220</ele>
        <time>2010-08-01T08:53:19Z</time>
      </trkpt>
      <trkpt lat="47.1161" lon="5.57357">
        <ele>220</ele>
        <time>2010-08-01T08:53:22Z</time>
      </trkpt>
      <trkpt lat="47.11602" lon="5.57371">
        <ele>220</ele>
        <time>2010-08-01T08:53:25Z</time>
      </trkpt>
      <trkpt lat="47.11594" lon="5.57387">
        <ele>225</ele>
        <time>2010-08-01T08:53:28Z</time>
      </trkpt>
      <trkpt lat="47.11587" lon="5.57399">
        <ele>225</ele>
        <time>2010-08-01T08:53:31Z</time>
      </trkpt>
      <trkpt lat="47.11577" lon="5.57409">
        <ele>225</ele>
        <time>2010-08-01T08:53:34Z</time>
      </trkpt>
      <trkpt lat="47.11567" lon="5.57415">
        <ele>225</ele>
        <time>2010-08-01T08:53:37Z</time>
      </trkpt>
      <trkpt lat="47.11556" lon="5.57416">
        <ele>225</ele>
        <time>2010-08-01T08:53:40Z</time>
      </trkpt>
      <trkpt lat="47.11545" lon="5.57415">
        <ele>225</ele>
        <time>2010-08-01T08:53:43Z</time>
      </trkpt>
      <trkpt lat="47.11536" lon="5.57411">
        <ele>231</ele>
        <time>2010-08-01T08:53:46Z</time>
      </trkpt>
      <trkpt lat="47.11524" lon="5.57406">
        <ele>231</ele>
        <time>2010-08-01T08:53:49Z</time>
      </trkpt>
      <trkpt lat="47.11513" lon="5.574">
        <ele>231</ele>
        <time>2010-08-01T08:53:52Z</time>
      </trkpt>
      <trkpt lat="47.11503" lon="5.57393">
        <ele>231</ele>
        <time>2010-08-01T08:53:55Z</time>
      </trkpt>
      <trkpt lat="47.11493" lon="5.57388">
        <ele>231</ele>
        <time>2010-08-01T08:53:58Z</time>
      </trkpt>
      <trkpt lat="47.11482" lon="5.5738">
        <ele>236</ele>
        <time>2010-08-01T08:54:02Z</time>
      </trkpt>
      <trkpt lat="47.11472" lon="5.57374">
        <ele>236</ele>
        <time>2010-08-01T08:54:05Z</time>
      </trkpt>
      <trkpt lat="47.11462" lon="5.57369">
        <ele>236</ele>
        <time>2010-08-01T08:54:08Z</time>
      </trkpt>
      <trkpt lat="47.11453" lon="5.57362">
        <ele>236</ele>
        <time>2010-08-01T08:54:11Z</time>
      </trkpt>
      <trkpt lat="47.11444" lon="5.57356">
        <ele>236</ele>
        <time>2010-08-01T08:54:14Z</time>
      </trkpt>
      <trkpt lat="47.11434" lon="5.57349">
        <ele>236</ele>
        <time>2010-08-01T08:54:17Z</time>
      </trkpt>
      <trkpt lat="47.11425" lon="5.57343">
        <ele>236</ele>
        <time>2010-08-01T08:54:20Z</time>
      </trkpt>
      <trkpt lat="47.11415" lon="5.57336">
        <ele>236</ele>
        <time>2010-08-01T08:54:23Z</time>
      </trkpt>
      <trkpt lat="47.11404" lon="5.57331">
        <ele>236</ele>
        <time>2010-08-01T08:54:26Z</time>
      </trkpt>
      <trkpt lat="47.11393" lon="5.57327">
        <ele>236</ele>
        <time>2010-08-01T08:54:29Z</time>
      </trkpt>
      <trkpt lat="47.11381" lon="5.57321">
        <ele>236</ele>
        <time>2010-08-01T08:54:32Z</time>
      </trkpt>
      <trkpt lat="47.1137" lon="5.57318">
        <ele>236</ele>
        <time>2010-08-01T08:54:34Z</time>
      </trkpt>
      <trkpt lat="47.11361" lon="5.57314">
        <ele>236</ele>
        <time>2010-08-01T08:54:36Z</time>
      </trkpt>
      <trkpt lat="47.11352" lon="5.57309">
        <ele>236</ele>
        <time>2010-08-01T08:54:38Z</time>
      </trkpt>
      <trkpt lat="47.11342" lon="5.57304">
        <ele>236</ele>
        <time>2010-08-01T08:54:40Z</time>
      </trkpt>
      <trkpt lat="47.11333" lon="5.57296">
        <ele>236</ele>
        <time>2010-08-01T08:54:42Z</time>
      </trkpt>
      <trkpt lat="47.11323" lon="5.57285">
        <ele>236</ele>
        <time>2010-08-01T08:54:44Z</time>
      </trkpt>
      <trkpt lat="47.11314" lon="5.57274">
        <ele>236</ele>
        <time>2010-08-01T08:54:46Z</time>
      </trkpt>
      <trkpt lat="47.11305" lon="5.57261">
        <ele>236</ele>
        <time>2010-08-01T08:54:48Z</time>
      </trkpt>
      <trkpt lat="47.11295" lon="5.57247">
        <ele>236</ele>
        <time>2010-08-01T08:54:50Z</time>
      </trkpt>
      <trkpt lat="47.11285" lon="5.57232">
        <ele>236</ele>
        <time>2010-08-01T08:54:52Z</time>
      </trkpt>
      <trkpt lat="47.11274" lon="5.57217">
        <ele>236</ele>
        <time>2010-08-01T08:54:54Z</time>
      </trkpt>
      <trkpt lat="47.11264" lon="5.57202">
        <ele>236</ele>
        <time>2010-08-01T08:54:56Z</time>
      </trkpt>
      <trkpt lat="47.11255" lon="5.57185">
        <ele>236</ele>
        <time>2010-08-01T08:54:58Z</time>
      </trkpt>
      <trkpt lat="47.11245" lon="5.5717">
        <ele>236</ele>
        <time>2010-08-01T08:55:00Z</time>
      </trkpt>
      <trkpt lat="47.11236" lon="5.57157">
        <ele>236</ele>
        <time>2010-08-01T08:55:02Z</time>
      </trkpt>
      <trkpt lat="47.11228" lon="5.57143">
        <ele>236</ele>
        <time>2010-08-01T08:55:04Z</time>
      </trkpt>
      <trkpt lat="47.1122" lon="5.57129">
        <ele>236</ele>
        <time>2010-08-01T08:55:06Z</time>
      </trkpt>
      <trkpt lat="47.11212" lon="5.57115">
        <ele>236</ele>
        <time>2010-08-01T08:55:08Z</time>
      </trkpt>
      <trkpt lat="47.11203" lon="5.57099">
        <ele>236</ele>
        <time>2010-08-01T08:55:10Z</time>
      </trkpt>
      <trkpt lat="47.11194" lon="5.57084">
        <ele>236</ele>
        <time>2010-08-01T08:55:12Z</time>
      </trkpt>
      <trkpt lat="47.11185" lon="5.57068">
        <ele>236</ele>
        <time>2010-08-01T08:55:14Z</time>
      </trkpt>
      <trkpt lat="47.11176" lon="5.57052">
        <ele>236</ele>
        <time>2010-08-01T08:55:16Z</time>
      </trkpt>
      <trkpt lat="47.11167" lon="5.57035">
        <ele>236</ele>
        <time>2010-08-01T08:55:18Z</time>
      </trkpt>
      <trkpt lat="47.11157" lon="5.57019">
        <ele>236</ele>
        <time>2010-08-01T08:55:20Z</time>
      </trkpt>
      <trkpt lat="47.11148" lon="5.57002">
        <ele>236</ele>
        <time>2010-08-01T08:55:22Z</time>
      </trkpt>
      <trkpt lat="47.11138" lon="5.56985">
        <ele>236</ele>
        <time>2010-08-01T08:55:24Z</time>
      </trkpt>
      <trkpt lat="47.11129" lon="5.56969">
        <ele>236</ele>
        <time>2010-08-01T08:55:26Z</time>
      </trkpt>
      <trkpt lat="47.11119" lon="5.56953">
        <ele>236</ele>
        <time>2010-08-01T08:55:28Z</time>
      </trkpt>
      <trkpt lat="47.11109" lon="5.56938">
        <ele>236</ele>
        <time>2010-08-01T08:55:30Z</time>
      </trkpt>
      <trkpt lat="47.11099" lon="5.56921">
        <ele>236</ele>
        <time>2010-08-01T08:55:32Z</time>
      </trkpt>
      <trkpt lat="47.1109" lon="5.56905">
        <ele>236</ele>
        <time>2010-08-01T08:55:34Z</time>
      </trkpt>
      <trkpt lat="47.1108" lon="5.56889">
        <ele>236</ele>
        <time>2010-08-01T08:55:36Z</time>
      </trkpt>
      <trkpt lat="47.11071" lon="5.56873">
        <ele>236</ele>
        <time>2010-08-01T08:55:38Z</time>
      </trkpt>
      <trkpt lat="47.11061" lon="5.56858">
        <ele>236</ele>
        <time>2010-08-01T08:55:40Z</time>
      </trkpt>
      <trkpt lat="47.11052" lon="5.56841">
        <ele>236</ele>
        <time>2010-08-01T08:55:42Z</time>
      </trkpt>
      <trkpt lat="47.11044" lon="5.56825">
        <ele>236</ele>
        <time>2010-08-01T08:55:44Z</time>
      </trkpt>
      <trkpt lat="47.11035" lon="5.5681">
        <ele>236</ele>
        <time>2010-08-01T08:55:46Z</time>
      </trkpt>
      <trkpt lat="47.11027" lon="5.56795">
        <ele>236</ele>
        <time>2010-08-01T08:55:48Z</time>
      </trkpt>
      <trkpt lat="47.11019" lon="5.5678">
        <ele>236</ele>
        <time>2010-08-01T08:55:50Z</time>
      </trkpt>
      <trkpt lat="47.11009" lon="5.56766">
        <ele>236</ele>
        <time>2010-08-01T08:55:52Z</time>
      </trkpt>
      <trkpt lat="47.11" lon="5.56753">
        <ele>236</ele>
        <time>2010-08-01T08:55:54Z</time>
      </trkpt>
      <trkpt lat="47.1099" lon="5.56741">
        <ele>236</ele>
        <time>2010-08-01T08:55:56Z</time>
      </trkpt>
      <trkpt lat="47.1098" lon="5.56729">
        <ele>236</ele>
        <time>2010-08-01T08:55:58Z</time>
      </trkpt>
      <trkpt lat="47.10971" lon="5.56719">
        <ele>236</ele>
        <time>2010-08-01T08:56:00Z</time>
      </trkpt>
      <trkpt lat="47.10961" lon="5.56709">
        <ele>236</ele>
        <time>2010-08-01T08:56:02Z</time>
      </trkpt>
      <trkpt lat="47.10951" lon="5.567">
        <ele>236</ele>
        <time>2010-08-01T08:56:04Z</time>
      </trkpt>
      <trkpt lat="47.10942" lon="5.56691">
        <ele>236</ele>
        <time>2010-08-01T08:56:06Z</time>
      </trkpt>
      <trkpt lat="47.10933" lon="5.56682">
        <ele>236</ele>
        <time>2010-08-01T08:56:08Z</time>
      </trkpt>
      <trkpt lat="47.10923" lon="5.56674">
        <ele>236</ele>
        <time>2010-08-01T08:56:10Z</time>
      </trkpt>
      <trkpt lat="47.10915" lon="5.56665">
        <ele>236</ele>
        <time>2010-08-01T08:56:12Z</time>
      </trkpt>
      <trkpt lat="47.10906" lon="5.56656">
        <ele>236</ele>
        <time>2010-08-01T08:56:14Z</time>
      </trkpt>
      <trkpt lat="47.10896" lon="5.56647">
        <ele>236</ele>
        <time>2010-08-01T08:56:16Z</time>
      </trkpt>
      <trkpt lat="47.10887" lon="5.56638">
        <ele>236</ele>
        <time>2010-08-01T08:56:18Z</time>
      </trkpt>
      <trkpt lat="47.10876" lon="5.56627">
        <ele>236</ele>
        <time>2010-08-01T08:56:20Z</time>
      </trkpt>
      <trkpt lat="47.10865" lon="5.56615">
        <ele>236</ele>
        <time>2010-08-01T08:56:22Z</time>
      </trkpt>
      <trkpt lat="47.10854" lon="5.56602">
        <ele>236</ele>
        <time>2010-08-01T08:56:24Z</time>
      </trkpt>
      <trkpt lat="47.10843" lon="5.56591">
        <ele>236</ele>
        <time>2010-08-01T08:56:26Z</time>
      </trkpt>
      <trkpt lat="47.10833" lon="5.56578">
        <ele>236</ele>
        <time>2010-08-01T08:56:28Z</time>
      </trkpt>
      <trkpt lat="47.10822" lon="5.56566">
        <ele>236</ele>
        <time>2010-08-01T08:56:30Z</time>
      </trkpt>
      <trkpt lat="47.10812" lon="5.56555">
        <ele>236</ele>
        <time>2010-08-01T08:56:32Z</time>
      </trkpt>
      <trkpt lat="47.10801" lon="5.56545">
        <ele>236</ele>
        <time>2010-08-01T08:56:34Z</time>
      </trkpt>
      <trkpt lat="47.1079" lon="5.56537">
        <ele>236</ele>
        <time>2010-08-01T08:56:36Z</time>
      </trkpt>
      <trkpt lat="47.10779" lon="5.5653">
        <ele>236</ele>
        <time>2010-08-01T08:56:38Z</time>
      </trkpt>
      <trkpt lat="47.10768" lon="5.56523">
        <ele>236</ele>
        <time>2010-08-01T08:56:40Z</time>
      </trkpt>
      <trkpt lat="47.10757" lon="5.56517">
        <ele>236</ele>
        <time>2010-08-01T08:56:42Z</time>
      </trkpt>
      <trkpt lat="47.10746" lon="5.5651">
        <ele>236</ele>
        <time>2010-08-01T08:56:44Z</time>
      </trkpt>
      <trkpt lat="47.10736" lon="5.56504">
        <ele>236</ele>
        <time>2010-08-01T08:56:46Z</time>
      </trkpt>
      <trkpt lat="47.10725" lon="5.56496">
        <ele>236</ele>
        <time>2010-08-01T08:56:48Z</time>
      </trkpt>
      <trkpt lat="47.10713" lon="5.56489">
        <ele>236</ele>
        <time>2010-08-01T08:56:50Z</time>
      </trkpt>
      <trkpt lat="47.10701" lon="5.56481">
        <ele>236</ele>
        <time>2010-08-01T08:56:52Z</time>
      </trkpt>
      <trkpt lat="47.10689" lon="5.56473">
        <ele>236</ele>
        <time>2010-08-01T08:56:54Z</time>
      </trkpt>
      <trkpt lat="47.10676" lon="5.56465">
        <ele>236</ele>
        <time>2010-08-01T08:56:56Z</time>
      </trkpt>
      <trkpt lat="47.10662" lon="5.56457">
        <ele>236</ele>
        <time>2010-08-01T08:56:58Z</time>
      </trkpt>
      <trkpt lat="47.10649" lon="5.56448">
        <ele>236</ele>
        <time>2010-08-01T08:57:00Z</time>
      </trkpt>
      <trkpt lat="47.10634" lon="5.5644">
        <ele>236</ele>
        <time>2010-08-01T08:57:02Z</time>
      </trkpt>
      <trkpt lat="47.10619" lon="5.5643">
        <ele>236</ele>
        <time>2010-08-01T08:57:04Z</time>
      </trkpt>
      <trkpt lat="47.10605" lon="5.56421">
        <ele>236</ele>
        <time>2010-08-01T08:57:06Z</time>
      </trkpt>
      <trkpt lat="47.10588" lon="5.56412">
        <ele>236</ele>
        <time>2010-08-01T08:57:08Z</time>
      </trkpt>
      <trkpt lat="47.10571" lon="5.56401">
        <ele>236</ele>
        <time>2010-08-01T08:57:10Z</time>
      </trkpt>
      <trkpt lat="47.10563" lon="5.56395">
        <ele>236</ele>
        <time>2010-08-01T08:57:11Z</time>
      </trkpt>
      <trkpt lat="47.10555" lon="5.56389">
        <ele>236</ele>
        <time>2010-08-01T08:57:12Z</time>
      </trkpt>
      <trkpt lat="47.10546" lon="5.56383">
        <ele>236</ele>
        <time>2010-08-01T08:57:13Z</time>
      </trkpt>
      <trkpt lat="47.10538" lon="5.56377">
        <ele>231</ele>
        <time>2010-08-01T08:57:14Z</time>
      </trkpt>
      <trkpt lat="47.10522" lon="5.56365">
        <ele>231</ele>
        <time>2010-08-01T08:57:16Z</time>
      </trkpt>
      <trkpt lat="47.10507" lon="5.56354">
        <ele>231</ele>
        <time>2010-08-01T08:57:18Z</time>
      </trkpt>
      <trkpt lat="47.10492" lon="5.56343">
        <ele>231</ele>
        <time>2010-08-01T08:57:20Z</time>
      </trkpt>
      <trkpt lat="47.10475" lon="5.56334">
        <ele>231</ele>
        <time>2010-08-01T08:57:22Z</time>
      </trkpt>
      <trkpt lat="47.10466" lon="5.5633">
        <ele>231</ele>
        <time>2010-08-01T08:57:23Z</time>
      </trkpt>
      <trkpt lat="47.10457" lon="5.56327">
        <ele>231</ele>
        <time>2010-08-01T08:57:24Z</time>
      </trkpt>
      <trkpt lat="47.10448" lon="5.56324">
        <ele>231</ele>
        <time>2010-08-01T08:57:25Z</time>
      </trkpt>
      <trkpt lat="47.10432" lon="5.5632">
        <ele>226</ele>
        <time>2010-08-01T08:57:27Z</time>
      </trkpt>
      <trkpt lat="47.10417" lon="5.56315">
        <ele>226</ele>
        <time>2010-08-01T08:57:29Z</time>
      </trkpt>
      <trkpt lat="47.10405" lon="5.56307">
        <ele>226</ele>
        <time>2010-08-01T08:57:31Z</time>
      </trkpt>
      <trkpt lat="47.10393" lon="5.56296">
        <ele>226</ele>
        <time>2010-08-01T08:57:33Z</time>
      </trkpt>
      <trkpt lat="47.10378" lon="5.56283">
        <ele>221</ele>
        <time>2010-08-01T08:57:35Z</time>
      </trkpt>
      <trkpt lat="47.1037" lon="5.56276">
        <ele>221</ele>
        <time>2010-08-01T08:57:36Z</time>
      </trkpt>
      <trkpt lat="47.10362" lon="5.56268">
        <ele>221</ele>
        <time>2010-08-01T08:57:37Z</time>
      </trkpt>
      <trkpt lat="47.10354" lon="5.5626">
        <ele>221</ele>
        <time>2010-08-01T08:57:38Z</time>
      </trkpt>
      <trkpt lat="47.10345" lon="5.56253">
        <ele>221</ele>
        <time>2010-08-01T08:57:39Z</time>
      </trkpt>
      <trkpt lat="47.10336" lon="5.56248">
        <ele>215</ele>
        <time>2010-08-01T08:57:40Z</time>
      </trkpt>
      <trkpt lat="47.10325" lon="5.56243">
        <ele>215</ele>
        <time>2010-08-01T08:57:41Z</time>
      </trkpt>
      <trkpt lat="47.10316" lon="5.5624">
        <ele>215</ele>
        <time>2010-08-01T08:57:42Z</time>
      </trkpt>
      <trkpt lat="47.103" lon="5.56236">
        <ele>215</ele>
        <time>2010-08-01T08:57:44Z</time>
      </trkpt>
      <trkpt lat="47.10286" lon="5.56232">
        <ele>215</ele>
        <time>2010-08-01T08:57:46Z</time>
      </trkpt>
      <trkpt lat="47.10276" lon="5.5623">
        <ele>215</ele>
        <time>2010-08-01T08:57:48Z</time>
      </trkpt>
      <trkpt lat="47.10276" lon="5.56212">
        <ele>215</ele>
        <time>2010-08-01T08:57:52Z</time>
      </trkpt>
      <trkpt lat="47.10278" lon="5.56192">
        <ele>210</ele>
        <time>2010-08-01T08:57:55Z</time>
      </trkpt>
      <trkpt lat="47.10281" lon="5.56179">
        <ele>210</ele>
        <time>2010-08-01T08:57:57Z</time>
      </trkpt>
      <trkpt lat="47.10281" lon="5.56164">
        <ele>210</ele>
        <time>2010-08-01T08:58:00Z</time>
      </trkpt>
      <trkpt lat="47.10277" lon="5.56146">
        <ele>210</ele>
        <time>2010-08-01T08:58:03Z</time>
      </trkpt>
      <trkpt lat="47.10274" lon="5.56128">
        <ele>210</ele>
        <time>2010-08-01T08:58:06Z</time>
      </trkpt>
      <trkpt lat="47.10276" lon="5.56112">
        <ele>210</ele>
        <time>2010-08-01T08:58:08Z</time>
      </trkpt>
      <trkpt lat="47.10277" lon="5.56095">
        <ele>210</ele>
        <time>2010-08-01T08:58:10Z</time>
      </trkpt>
      <trkpt lat="47.10275" lon="5.56077">
        <ele>216</ele>
        <time>2010-08-01T08:58:12Z</time>
      </trkpt>
      <trkpt lat="47.10272" lon="5.5606">
        <ele>216</ele>
        <time>2010-08-01T08:58:14Z</time>
      </trkpt>
      <trkpt lat="47.1027" lon="5.56039">
        <ele>216</ele>
        <time>2010-08-01T08:58:16Z</time>
      </trkpt>
      <trkpt lat="47.10268" lon="5.56019">
        <ele>216</ele>
        <time>2010-08-01T08:58:18Z</time>
      </trkpt>
      <trkpt lat="47.10267" lon="5.55997">
        <ele>216</ele>
        <time>2010-08-01T08:58:20Z</time>
      </trkpt>
      <trkpt lat="47.10267" lon="5.55975">
        <ele>216</ele>
        <time>2010-08-01T08:58:22Z</time>
      </trkpt>
      <trkpt lat="47.10267" lon="5.55954">
        <ele>216</ele>
        <time>2010-08-01T08:58:24Z</time>
      </trkpt>
      <trkpt lat="47.10267" lon="5.55932">
        <ele>216</ele>
        <time>2010-08-01T08:58:26Z</time>
      </trkpt>
      <trkpt lat="47.1027" lon="5.55911">
        <ele>216</ele>
        <time>2010-08-01T08:58:28Z</time>
      </trkpt>
      <trkpt lat="47.10274" lon="5.5589">
        <ele>216</ele>
        <time>2010-08-01T08:58:30Z</time>
      </trkpt>
      <trkpt lat="47.10279" lon="5.55869">
        <ele>216</ele>
        <time>2010-08-01T08:58:32Z</time>
      </trkpt>
      <trkpt lat="47.10281" lon="5.55848">
        <ele>216</ele>
        <time>2010-08-01T08:58:34Z</time>
      </trkpt>
      <trkpt lat="47.1028" lon="5.55826">
        <ele>216</ele>
        <time>2010-08-01T08:58:36Z</time>
      </trkpt>
      <trkpt lat="47.10276" lon="5.55806">
        <ele>216</ele>
        <time>2010-08-01T08:58:38Z</time>
      </trkpt>
      <trkpt lat="47.1027" lon="5.55785">
        <ele>216</ele>
        <time>2010-08-01T08:58:40Z</time>
      </trkpt>
      <trkpt lat="47.10263" lon="5.55767">
        <ele>216</ele>
        <time>2010-08-01T08:58:42Z</time>
      </trkpt>
      <trkpt lat="47.10254" lon="5.55749">
        <ele>216</ele>
        <time>2010-08-01T08:58:44Z</time>
      </trkpt>
      <trkpt lat="47.10246" lon="5.55732">
        <ele>216</ele>
        <time>2010-08-01T08:58:46Z</time>
      </trkpt>
      <trkpt lat="47.10237" lon="5.55717">
        <ele>216</ele>
        <time>2010-08-01T08:58:48Z</time>
      </trkpt>
      <trkpt lat="47.10227" lon="5.55701">
        <ele>216</ele>
        <time>2010-08-01T08:58:50Z</time>
      </trkpt>
      <trkpt lat="47.10216" lon="5.55687">
        <ele>216</ele>
        <time>2010-08-01T08:58:52Z</time>
      </trkpt>
      <trkpt lat="47.10206" lon="5.55674">
        <ele>216</ele>
        <time>2010-08-01T08:58:54Z</time>
      </trkpt>
      <trkpt lat="47.10195" lon="5.55661">
        <ele>216</ele>
        <time>2010-08-01T08:58:56Z</time>
      </trkpt>
      <trkpt lat="47.10185" lon="5.55649">
        <ele>216</ele>
        <time>2010-08-01T08:58:58Z</time>
      </trkpt>
      <trkpt lat="47.10174" lon="5.55639">
        <ele>216</ele>
        <time>2010-08-01T08:59:00Z</time>
      </trkpt>
      <trkpt lat="47.10162" lon="5.5563">
        <ele>216</ele>
        <time>2010-08-01T08:59:02Z</time>
      </trkpt>
      <trkpt lat="47.10151" lon="5.5562">
        <ele>216</ele>
        <time>2010-08-01T08:59:04Z</time>
      </trkpt>
      <trkpt lat="47.10138" lon="5.55611">
        <ele>216</ele>
        <time>2010-08-01T08:59:06Z</time>
      </trkpt>
      <trkpt lat="47.10127" lon="5.55601">
        <ele>216</ele>
        <time>2010-08-01T08:59:08Z</time>
      </trkpt>
      <trkpt lat="47.10114" lon="5.55591">
        <ele>216</ele>
        <time>2010-08-01T08:59:10Z</time>
      </trkpt>
      <trkpt lat="47.10102" lon="5.55581">
        <ele>216</ele>
        <time>2010-08-01T08:59:12Z</time>
      </trkpt>
      <trkpt lat="47.10091" lon="5.5557">
        <ele>216</ele>
        <time>2010-08-01T08:59:14Z</time>
      </trkpt>
      <trkpt lat="47.10079" lon="5.55558">
        <ele>216</ele>
        <time>2010-08-01T08:59:16Z</time>
      </trkpt>
      <trkpt lat="47.10068" lon="5.55545">
        <ele>216</ele>
        <time>2010-08-01T08:59:18Z</time>
      </trkpt>
      <trkpt lat="47.10057" lon="5.55532">
        <ele>216</ele>
        <time>2010-08-01T08:59:20Z</time>
      </trkpt>
      <trkpt lat="47.10048" lon="5.55517">
        <ele>216</ele>
        <time>2010-08-01T08:59:22Z</time>
      </trkpt>
      <trkpt lat="47.10038" lon="5.55501">
        <ele>216</ele>
        <time>2010-08-01T08:59:24Z</time>
      </trkpt>
      <trkpt lat="47.1003" lon="5.55485">
        <ele>216</ele>
        <time>2010-08-01T08:59:26Z</time>
      </trkpt>
      <trkpt lat="47.10021" lon="5.55469">
        <ele>216</ele>
        <time>2010-08-01T08:59:28Z</time>
      </trkpt>
      <trkpt lat="47.10012" lon="5.55453">
        <ele>216</ele>
        <time>2010-08-01T08:59:30Z</time>
      </trkpt>
      <trkpt lat="47.10003" lon="5.55436">
        <ele>216</ele>
        <time>2010-08-01T08:59:32Z</time>
      </trkpt>
      <trkpt lat="47.09995" lon="5.55419">
        <ele>216</ele>
        <time>2010-08-01T08:59:34Z</time>
      </trkpt>
      <trkpt lat="47.09986" lon="5.55402">
        <ele>216</ele>
        <time>2010-08-01T08:59:36Z</time>
      </trkpt>
      <trkpt lat="47.09976" lon="5.55385">
        <ele>216</ele>
        <time>2010-08-01T08:59:38Z</time>
      </trkpt>
      <trkpt lat="47.09966" lon="5.55366">
        <ele>216</ele>
        <time>2010-08-01T08:59:40Z</time>
      </trkpt>
      <trkpt lat="47.09956" lon="5.55348">
        <ele>216</ele>
        <time>2010-08-01T08:59:42Z</time>
      </trkpt>
      <trkpt lat="47.09946" lon="5.5533">
        <ele>216</ele>
        <time>2010-08-01T08:59:44Z</time>
      </trkpt>
      <trkpt lat="47.09937" lon="5.55312">
        <ele>211</ele>
        <time>2010-08-01T08:59:46Z</time>
      </trkpt>
      <trkpt lat="47.09928" lon="5.55292">
        <ele>211</ele>
        <time>2010-08-01T08:59:48Z</time>
      </trkpt>
      <trkpt lat="47.09919" lon="5.55272">
        <ele>211</ele>
        <time>2010-08-01T08:59:50Z</time>
      </trkpt>
      <trkpt lat="47.0991" lon="5.55252">
        <ele>211</ele>
        <time>2010-08-01T08:59:52Z</time>
      </trkpt>
      <trkpt lat="47.09902" lon="5.55233">
        <ele>211</ele>
        <time>2010-08-01T08:59:54Z</time>
      </trkpt>
      <trkpt lat="47.09894" lon="5.55213">
        <ele>211</ele>
        <time>2010-08-01T08:59:56Z</time>
      </trkpt>
      <trkpt lat="47.09887" lon="5.55192">
        <ele>211</ele>
        <time>2010-08-01T08:59:58Z</time>
      </trkpt>
      <trkpt lat="47.0988" lon="5.55171">
        <ele>211</ele>
        <time>2010-08-01T09:00:00Z</time>
      </trkpt>
      <trkpt lat="47.09875" lon="5.5515">
        <ele>211</ele>
        <time>2010-08-01T09:00:02Z</time>
      </trkpt>
      <trkpt lat="47.0987" lon="5.55129">
        <ele>211</ele>
        <time>2010-08-01T09:00:04Z</time>
      </trkpt>
      <trkpt lat="47.09866" lon="5.55109">
        <ele>211</ele>
        <time>2010-08-01T09:00:06Z</time>
      </trkpt>
      <trkpt lat="47.09862" lon="5.55088">
        <ele>211</ele>
        <time>2010-08-01T09:00:08Z</time>
      </trkpt>
      <trkpt lat="47.09857" lon="5.55067">
        <ele>211</ele>
        <time>2010-08-01T09:00:10Z</time>
      </trkpt>
      <trkpt lat="47.09853" lon="5.55047">
        <ele>211</ele>
        <time>2010-08-01T09:00:12Z</time>
      </trkpt>
      <trkpt lat="47.09849" lon="5.55026">
        <ele>211</ele>
        <time>2010-08-01T09:00:14Z</time>
      </trkpt>
      <trkpt lat="47.09845" lon="5.55005">
        <ele>211</ele>
        <time>2010-08-01T09:00:16Z</time>
      </trkpt>
      <trkpt lat="47.0984" lon="5.54985">
        <ele>211</ele>
        <time>2010-08-01T09:00:18Z</time>
      </trkpt>
      <trkpt lat="47.09836" lon="5.54964">
        <ele>211</ele>
        <time>2010-08-01T09:00:20Z</time>
      </trkpt>
      <trkpt lat="47.09831" lon="5.54943">
        <ele>211</ele>
        <time>2010-08-01T09:00:22Z</time>
      </trkpt>
      <trkpt lat="47.09827" lon="5.54922">
        <ele>211</ele>
        <time>2010-08-01T09:00:24Z</time>
      </trkpt>
      <trkpt lat="47.09822" lon="5.549">
        <ele>211</ele>
        <time>2010-08-01T09:00:26Z</time>
      </trkpt>
      <trkpt lat="47.09817" lon="5.5488">
        <ele>216</ele>
        <time>2010-08-01T09:00:28Z</time>
      </trkpt>
      <trkpt lat="47.09813" lon="5.54858">
        <ele>216</ele>
        <time>2010-08-01T09:00:30Z</time>
      </trkpt>
      <trkpt lat="47.09808" lon="5.54837">
        <ele>216</ele>
        <time>2010-08-01T09:00:32Z</time>
      </trkpt>
      <trkpt lat="47.09803" lon="5.54817">
        <ele>216</ele>
        <time>2010-08-01T09:00:34Z</time>
      </trkpt>
      <trkpt lat="47.098" lon="5.54796">
        <ele>216</ele>
        <time>2010-08-01T09:00:36Z</time>
      </trkpt>
      <trkpt lat="47.09795" lon="5.54776">
        <ele>216</ele>
        <time>2010-08-01T09:00:38Z</time>
      </trkpt>
      <trkpt lat="47.09791" lon="5.54756">
        <ele>216</ele>
        <time>2010-08-01T09:00:40Z</time>
      </trkpt>
      <trkpt lat="47.09787" lon="5.54736">
        <ele>216</ele>
        <time>2010-08-01T09:00:42Z</time>
      </trkpt>
      <trkpt lat="47.09783" lon="5.54715">
        <ele>216</ele>
        <time>2010-08-01T09:00:44Z</time>
      </trkpt>
      <trkpt lat="47.0978" lon="5.54696">
        <ele>216</ele>
        <time>2010-08-01T09:00:46Z</time>
      </trkpt>
      <trkpt lat="47.09776" lon="5.54676">
        <ele>216</ele>
        <time>2010-08-01T09:00:48Z</time>
      </trkpt>
      <trkpt lat="47.09772" lon="5.54656">
        <ele>216</ele>
        <time>2010-08-01T09:00:50Z</time>
      </trkpt>
      <trkpt lat="47.09767" lon="5.54636">
        <ele>216</ele>
        <time>2010-08-01T09:00:52Z</time>
      </trkpt>
      <trkpt lat="47.09761" lon="5.54617">
        <ele>216</ele>
        <time>2010-08-01T09:00:54Z</time>
      </trkpt>
      <trkpt lat="47.09755" lon="5.54599">
        <ele>216</ele>
        <time>2010-08-01T09:00:56Z</time>
      </trkpt>
      <trkpt lat="47.09749" lon="5.54581">
        <ele>216</ele>
        <time>2010-08-01T09:00:58Z</time>
      </trkpt>
      <trkpt lat="47.09743" lon="5.54563">
        <ele>216</ele>
        <time>2010-08-01T09:01:00Z</time>
      </trkpt>
      <trkpt lat="47.09737" lon="5.54546">
        <ele>216</ele>
        <time>2010-08-01T09:01:02Z</time>
      </trkpt>
      <trkpt lat="47.0973" lon="5.54527">
        <ele>216</ele>
        <time>2010-08-01T09:01:04Z</time>
      </trkpt>
      <trkpt lat="47.09726" lon="5.54509">
        <ele>216</ele>
        <time>2010-08-01T09:01:06Z</time>
      </trkpt>
      <trkpt lat="47.0972" lon="5.54491">
        <ele>216</ele>
        <time>2010-08-01T09:01:08Z</time>
      </trkpt>
      <trkpt lat="47.09715" lon="5.54473">
        <ele>216</ele>
        <time>2010-08-01T09:01:10Z</time>
      </trkpt>
      <trkpt lat="47.0971" lon="5.54454">
        <ele>216</ele>
        <time>2010-08-01T09:01:12Z</time>
      </trkpt>
      <trkpt lat="47.09704" lon="5.54436">
        <ele>216</ele>
        <time>2010-08-01T09:01:14Z</time>
      </trkpt>
      <trkpt lat="47.09699" lon="5.54418">
        <ele>216</ele>
        <time>2010-08-01T09:01:16Z</time>
      </trkpt>
      <trkpt lat="47.09694" lon="5.54399">
        <ele>216</ele>
        <time>2010-08-01T09:01:18Z</time>
      </trkpt>
      <trkpt lat="47.09689" lon="5.54381">
        <ele>216</ele>
        <time>2010-08-01T09:01:20Z</time>
      </trkpt>
      <trkpt lat="47.09684" lon="5.54362">
        <ele>216</ele>
        <time>2010-08-01T09:01:22Z</time>
      </trkpt>
      <trkpt lat="47.09678" lon="5.54343">
        <ele>216</ele>
        <time>2010-08-01T09:01:24Z</time>
      </trkpt>
      <trkpt lat="47.09673" lon="5.54324">
        <ele>216</ele>
        <time>2010-08-01T09:01:26Z</time>
      </trkpt>
      <trkpt lat="47.09668" lon="5.54305">
        <ele>216</ele>
        <time>2010-08-01T09:01:28Z</time>
      </trkpt>
      <trkpt lat="47.09662" lon="5.54287">
        <ele>216</ele>
        <time>2010-08-01T09:01:30Z</time>
      </trkpt>
      <trkpt lat="47.09656" lon="5.54269">
        <ele>216</ele>
        <time>2010-08-01T09:01:32Z</time>
      </trkpt>
      <trkpt lat="47.09649" lon="5.5425">
        <ele>216</ele>
        <time>2010-08-01T09:01:34Z</time>
      </trkpt>
      <trkpt lat="47.09641" lon="5.54232">
        <ele>216</ele>
        <time>2010-08-01T09:01:36Z</time>
      </trkpt>
      <trkpt lat="47.09633" lon="5.54215">
        <ele>216</ele>
        <time>2010-08-01T09:01:38Z</time>
      </trkpt>
      <trkpt lat="47.09624" lon="5.54197">
        <ele>216</ele>
        <time>2010-08-01T09:01:40Z</time>
      </trkpt>
      <trkpt lat="47.09616" lon="5.5418">
        <ele>216</ele>
        <time>2010-08-01T09:01:42Z</time>
      </trkpt>
      <trkpt lat="47.09607" lon="5.54163">
        <ele>216</ele>
        <time>2010-08-01T09:01:44Z</time>
      </trkpt>
      <trkpt lat="47.09599" lon="5.54145">
        <ele>211</ele>
        <time>2010-08-01T09:01:46Z</time>
      </trkpt>
      <trkpt lat="47.0959" lon="5.54127">
        <ele>211</ele>
        <time>2010-08-01T09:01:48Z</time>
      </trkpt>
      <trkpt lat="47.09581" lon="5.5411">
        <ele>211</ele>
        <time>2010-08-01T09:01:50Z</time>
      </trkpt>
      <trkpt lat="47.09573" lon="5.54092">
        <ele>211</ele>
        <time>2010-08-01T09:01:52Z</time>
      </trkpt>
      <trkpt lat="47.09565" lon="5.54075">
        <ele>211</ele>
        <time>2010-08-01T09:01:54Z</time>
      </trkpt>
      <trkpt lat="47.09557" lon="5.54058">
        <ele>211</ele>
        <time>2010-08-01T09:01:56Z</time>
      </trkpt>
      <trkpt lat="47.09549" lon="5.5404">
        <ele>211</ele>
        <time>2010-08-01T09:01:58Z</time>
      </trkpt>
      <trkpt lat="47.0954" lon="5.54023">
        <ele>211</ele>
        <time>2010-08-01T09:02:00Z</time>
      </trkpt>
      <trkpt lat="47.09532" lon="5.54005">
        <ele>211</ele>
        <time>2010-08-01T09:02:02Z</time>
      </trkpt>
      <trkpt lat="47.09524" lon="5.53987">
        <ele>211</ele>
        <time>2010-08-01T09:02:04Z</time>
      </trkpt>
      <trkpt lat="47.09516" lon="5.5397">
        <ele>211</ele>
        <time>2010-08-01T09:02:06Z</time>
      </trkpt>
      <trkpt lat="47.09507" lon="5.53953">
        <ele>211</ele>
        <time>2010-08-01T09:02:08Z</time>
      </trkpt>
      <trkpt lat="47.09499" lon="5.53936">
        <ele>211</ele>
        <time>2010-08-01T09:02:10Z</time>
      </trkpt>
      <trkpt lat="47.09491" lon="5.53919">
        <ele>211</ele>
        <time>2010-08-01T09:02:12Z</time>
      </trkpt>
      <trkpt lat="47.09483" lon="5.53902">
        <ele>211</ele>
        <time>2010-08-01T09:02:14Z</time>
      </trkpt>
      <trkpt lat="47.09475" lon="5.53884">
        <ele>211</ele>
        <time>2010-08-01T09:02:16Z</time>
      </trkpt>
      <trkpt lat="47.09467" lon="5.53867">
        <ele>211</ele>
        <time>2010-08-01T09:02:18Z</time>
      </trkpt>
      <trkpt lat="47.09459" lon="5.53851">
        <ele>211</ele>
        <time>2010-08-01T09:02:20Z</time>
      </trkpt>
      <trkpt lat="47.09451" lon="5.53835">
        <ele>211</ele>
        <time>2010-08-01T09:02:22Z</time>
      </trkpt>
      <trkpt lat="47.09442" lon="5.53818">
        <ele>211</ele>
        <time>2010-08-01T09:02:24Z</time>
      </trkpt>
      <trkpt lat="47.09434" lon="5.538">
        <ele>211</ele>
        <time>2010-08-01T09:02:26Z</time>
      </trkpt>
      <trkpt lat="47.09425" lon="5.53781">
        <ele>211</ele>
        <time>2010-08-01T09:02:28Z</time>
      </trkpt>
      <trkpt lat="47.09416" lon="5.5376">
        <ele>211</ele>
        <time>2010-08-01T09:02:30Z</time>
      </trkpt>
      <trkpt lat="47.0941" lon="5.53741">
        <ele>211</ele>
        <time>2010-08-01T09:02:32Z</time>
      </trkpt>
      <trkpt lat="47.09401" lon="5.53723">
        <ele>211</ele>
        <time>2010-08-01T09:02:34Z</time>
      </trkpt>
      <trkpt lat="47.09392" lon="5.53704">
        <ele>211</ele>
        <time>2010-08-01T09:02:36Z</time>
      </trkpt>
      <trkpt lat="47.09383" lon="5.53683">
        <ele>211</ele>
        <time>2010-08-01T09:02:38Z</time>
      </trkpt>
      <trkpt lat="47.09373" lon="5.53663">
        <ele>211</ele>
        <time>2010-08-01T09:02:40Z</time>
      </trkpt>
      <trkpt lat="47.09364" lon="5.53644">
        <ele>211</ele>
        <time>2010-08-01T09:02:42Z</time>
      </trkpt>
      <trkpt lat="47.09353" lon="5.53625">
        <ele>211</ele>
        <time>2010-08-01T09:02:44Z</time>
      </trkpt>
      <trkpt lat="47.09342" lon="5.53608">
        <ele>211</ele>
        <time>2010-08-01T09:02:46Z</time>
      </trkpt>
      <trkpt lat="47.09331" lon="5.53592">
        <ele>211</ele>
        <time>2010-08-01T09:02:48Z</time>
      </trkpt>
      <trkpt lat="47.09321" lon="5.53577">
        <ele>211</ele>
        <time>2010-08-01T09:02:50Z</time>
      </trkpt>
      <trkpt lat="47.09311" lon="5.53561">
        <ele>211</ele>
        <time>2010-08-01T09:02:52Z</time>
      </trkpt>
      <trkpt lat="47.093" lon="5.53547">
        <ele>211</ele>
        <time>2010-08-01T09:02:54Z</time>
      </trkpt>
      <trkpt lat="47.09288" lon="5.53537">
        <ele>211</ele>
        <time>2010-08-01T09:02:56Z</time>
      </trkpt>
      <trkpt lat="47.09276" lon="5.53535">
        <ele>211</ele>
        <time>2010-08-01T09:02:58Z</time>
      </trkpt>
      <trkpt lat="47.09264" lon="5.53539">
        <ele>211</ele>
        <time>2010-08-01T09:03:00Z</time>
      </trkpt>
      <trkpt lat="47.09253" lon="5.53548">
        <ele>211</ele>
        <time>2010-08-01T09:03:02Z</time>
      </trkpt>
      <trkpt lat="47.09243" lon="5.53561">
        <ele>211</ele>
        <time>2010-08-01T09:03:04Z</time>
      </trkpt>
      <trkpt lat="47.09238" lon="5.53575">
        <ele>211</ele>
        <time>2010-08-01T09:03:06Z</time>
      </trkpt>
      <trkpt lat="47.09237" lon="5.53592">
        <ele>211</ele>
        <time>2010-08-01T09:03:08Z</time>
      </trkpt>
      <trkpt lat="47.09239" lon="5.53608">
        <ele>211</ele>
        <time>2010-08-01T09:03:10Z</time>
      </trkpt>
      <trkpt lat="47.09244" lon="5.53623">
        <ele>211</ele>
        <time>2010-08-01T09:03:12Z</time>
      </trkpt>
      <trkpt lat="47.09252" lon="5.53634">
        <ele>216</ele>
        <time>2010-08-01T09:03:14Z</time>
      </trkpt>
      <trkpt lat="47.09262" lon="5.53643">
        <ele>216</ele>
        <time>2010-08-01T09:03:16Z</time>
      </trkpt>
      <trkpt lat="47.09273" lon="5.53648">
        <ele>216</ele>
        <time>2010-08-01T09:03:18Z</time>
      </trkpt>
      <trkpt lat="47.09286" lon="5.53646">
        <ele>216</ele>
        <time>2010-08-01T09:03:20Z</time>
      </trkpt>
      <trkpt lat="47.09297" lon="5.53638">
        <ele>216</ele>
        <time>2010-08-01T09:03:22Z</time>
      </trkpt>
      <trkpt lat="47.09308" lon="5.53626">
        <ele>216</ele>
        <time>2010-08-01T09:03:24Z</time>
      </trkpt>
      <trkpt lat="47.09317" lon="5.53613">
        <ele>216</ele>
        <time>2010-08-01T09:03:26Z</time>
      </trkpt>
      <trkpt lat="47.09326" lon="5.53599">
        <ele>216</ele>
        <time>2010-08-01T09:03:28Z</time>
      </trkpt>
      <trkpt lat="47.09337" lon="5.53585">
        <ele>216</ele>
        <time>2010-08-01T09:03:30Z</time>
      </trkpt>
      <trkpt lat="47.09346" lon="5.53571">
        <ele>216</ele>
        <time>2010-08-01T09:03:32Z</time>
      </trkpt>
      <trkpt lat="47.09357" lon="5.53556">
        <ele>216</ele>
        <time>2010-08-01T09:03:34Z</time>
      </trkpt>
      <trkpt lat="47.09367" lon="5.53543">
        <ele>216</ele>
        <time>2010-08-01T09:03:36Z</time>
      </trkpt>
      <trkpt lat="47.09377" lon="5.53528">
        <ele>216</ele>
        <time>2010-08-01T09:03:38Z</time>
      </trkpt>
      <trkpt lat="47.09388" lon="5.53515">
        <ele>216</ele>
        <time>2010-08-01T09:03:40Z</time>
      </trkpt>
      <trkpt lat="47.09398" lon="5.53501">
        <ele>216</ele>
        <time>2010-08-01T09:03:42Z</time>
      </trkpt>
      <trkpt lat="47.09408" lon="5.53486">
        <ele>216</ele>
        <time>2010-08-01T09:03:44Z</time>
      </trkpt>
      <trkpt lat="47.09419" lon="5.53471">
        <ele>216</ele>
        <time>2010-08-01T09:03:46Z</time>
      </trkpt>
      <trkpt lat="47.09429" lon="5.53457">
        <ele>216</ele>
        <time>2010-08-01T09:03:48Z</time>
      </trkpt>
      <trkpt lat="47.09438" lon="5.53444">
        <ele>216</ele>
        <time>2010-08-01T09:03:50Z</time>
      </trkpt>
      <trkpt lat="47.09449" lon="5.53429">
        <ele>216</ele>
        <time>2010-08-01T09:03:52Z</time>
      </trkpt>
      <trkpt lat="47.0946" lon="5.53412">
        <ele>216</ele>
        <time>2010-08-01T09:03:54Z</time>
      </trkpt>
      <trkpt lat="47.09471" lon="5.53396">
        <ele>216</ele>
        <time>2010-08-01T09:03:56Z</time>
      </trkpt>
      <trkpt lat="47.09481" lon="5.53378">
        <ele>216</ele>
        <time>2010-08-01T09:03:58Z</time>
      </trkpt>
      <trkpt lat="47.09489" lon="5.53357">
        <ele>216</ele>
        <time>2010-08-01T09:04:00Z</time>
      </trkpt>
      <trkpt lat="47.09495" lon="5.53334">
        <ele>216</ele>
        <time>2010-08-01T09:04:02Z</time>
      </trkpt>
      <trkpt lat="47.095" lon="5.5331">
        <ele>216</ele>
        <time>2010-08-01T09:04:04Z</time>
      </trkpt>
      <trkpt lat="47.09502" lon="5.53297">
        <ele>216</ele>
        <time>2010-08-01T09:04:05Z</time>
      </trkpt>
      <trkpt lat="47.09503" lon="5.53283">
        <ele>216</ele>
        <time>2010-08-01T09:04:06Z</time>
      </trkpt>
      <trkpt lat="47.09505" lon="5.53269">
        <ele>216</ele>
        <time>2010-08-01T09:04:07Z</time>
      </trkpt>
      <trkpt lat="47.09506" lon="5.53254">
        <ele>216</ele>
        <time>2010-08-01T09:04:08Z</time>
      </trkpt>
      <trkpt lat="47.09506" lon="5.53238">
        <ele>216</ele>
        <time>2010-08-01T09:04:09Z</time>
      </trkpt>
      <trkpt lat="47.09507" lon="5.53222">
        <ele>216</ele>
        <time>2010-08-01T09:04:10Z</time>
      </trkpt>
      <trkpt lat="47.09507" lon="5.53207">
        <ele>216</ele>
        <time>2010-08-01T09:04:11Z</time>
      </trkpt>
      <trkpt lat="47.09509" lon="5.53192">
        <ele>216</ele>
        <time>2010-08-01T09:04:12Z</time>
      </trkpt>
      <trkpt lat="47.0951" lon="5.53176">
        <ele>216</ele>
        <time>2010-08-01T09:04:13Z</time>
      </trkpt>
      <trkpt lat="47.09511" lon="5.53161">
        <ele>216</ele>
        <time>2010-08-01T09:04:14Z</time>
      </trkpt>
      <trkpt lat="47.09512" lon="5.53146">
        <ele>216</ele>
        <time>2010-08-01T09:04:15Z</time>
      </trkpt>
      <trkpt lat="47.09513" lon="5.53131">
        <ele>216</ele>
        <time>2010-08-01T09:04:16Z</time>
      </trkpt>
      <trkpt lat="47.09513" lon="5.53117">
        <ele>216</ele>
        <time>2010-08-01T09:04:17Z</time>
      </trkpt>
      <trkpt lat="47.09515" lon="5.53103">
        <ele>216</ele>
        <time>2010-08-01T09:04:18Z</time>
      </trkpt>
      <trkpt lat="47.09516" lon="5.53089">
        <ele>216</ele>
        <time>2010-08-01T09:04:19Z</time>
      </trkpt>
      <trkpt lat="47.09516" lon="5.53075">
        <ele>216</ele>
        <time>2010-08-01T09:04:20Z</time>
      </trkpt>
      <trkpt lat="47.09519" lon="5.5305">
        <ele>216</ele>
        <time>2010-08-01T09:04:22Z</time>
      </trkpt>
      <trkpt lat="47.09518" lon="5.53035">
        <ele>216</ele>
        <time>2010-08-01T09:04:23Z</time>
      </trkpt>
      <trkpt lat="47.09516" lon="5.53009">
        <ele>216</ele>
        <time>2010-08-01T09:04:25Z</time>
      </trkpt>
      <trkpt lat="47.09513" lon="5.52984">
        <ele>216</ele>
        <time>2010-08-01T09:04:27Z</time>
      </trkpt>
      <trkpt lat="47.0951" lon="5.52971">
        <ele>216</ele>
        <time>2010-08-01T09:04:28Z</time>
      </trkpt>
      <trkpt lat="47.09506" lon="5.52948">
        <ele>216</ele>
        <time>2010-08-01T09:04:30Z</time>
      </trkpt>
      <trkpt lat="47.09501" lon="5.52925">
        <ele>216</ele>
        <time>2010-08-01T09:04:32Z</time>
      </trkpt>
      <trkpt lat="47.09497" lon="5.52901">
        <ele>216</ele>
        <time>2010-08-01T09:04:34Z</time>
      </trkpt>
      <trkpt lat="47.09492" lon="5.52879">
        <ele>216</ele>
        <time>2010-08-01T09:04:36Z</time>
      </trkpt>
      <trkpt lat="47.0949" lon="5.52857">
        <ele>216</ele>
        <time>2010-08-01T09:04:38Z</time>
      </trkpt>
      <trkpt lat="47.09488" lon="5.52834">
        <ele>216</ele>
        <time>2010-08-01T09:04:40Z</time>
      </trkpt>
      <trkpt lat="47.09489" lon="5.52812">
        <ele>216</ele>
        <time>2010-08-01T09:04:42Z</time>
      </trkpt>
      <trkpt lat="47.09492" lon="5.52792">
        <ele>216</ele>
        <time>2010-08-01T09:04:44Z</time>
      </trkpt>
      <trkpt lat="47.09497" lon="5.52771">
        <ele>216</ele>
        <time>2010-08-01T09:04:46Z</time>
      </trkpt>
      <trkpt lat="47.095" lon="5.52752">
        <ele>216</ele>
        <time>2010-08-01T09:04:48Z</time>
      </trkpt>
      <trkpt lat="47.09505" lon="5.52733">
        <ele>216</ele>
        <time>2010-08-01T09:04:50Z</time>
      </trkpt>
      <trkpt lat="47.09511" lon="5.52714">
        <ele>216</ele>
        <time>2010-08-01T09:04:52Z</time>
      </trkpt>
      <trkpt lat="47.09518" lon="5.52698">
        <ele>216</ele>
        <time>2010-08-01T09:04:54Z</time>
      </trkpt>
      <trkpt lat="47.09528" lon="5.52688">
        <ele>216</ele>
        <time>2010-08-01T09:04:56Z</time>
      </trkpt>
      <trkpt lat="47.0954" lon="5.52682">
        <ele>216</ele>
        <time>2010-08-01T09:04:58Z</time>
      </trkpt>
      <trkpt lat="47.09552" lon="5.52677">
        <ele>216</ele>
        <time>2010-08-01T09:05:00Z</time>
      </trkpt>
      <trkpt lat="47.09565" lon="5.52666">
        <ele>216</ele>
        <time>2010-08-01T09:05:02Z</time>
      </trkpt>
      <trkpt lat="47.09576" lon="5.52647">
        <ele>216</ele>
        <time>2010-08-01T09:05:04Z</time>
      </trkpt>
      <trkpt lat="47.09581" lon="5.52636">
        <ele>216</ele>
        <time>2010-08-01T09:05:05Z</time>
      </trkpt>
      <trkpt lat="47.09591" lon="5.52614">
        <ele>216</ele>
        <time>2010-08-01T09:05:07Z</time>
      </trkpt>
      <trkpt lat="47.09601" lon="5.52593">
        <ele>216</ele>
        <time>2010-08-01T09:05:09Z</time>
      </trkpt>
      <trkpt lat="47.09611" lon="5.52573">
        <ele>210</ele>
        <time>2010-08-01T09:05:11Z</time>
      </trkpt>
      <trkpt lat="47.09621" lon="5.52552">
        <ele>210</ele>
        <time>2010-08-01T09:05:13Z</time>
      </trkpt>
      <trkpt lat="47.0963" lon="5.52532">
        <ele>210</ele>
        <time>2010-08-01T09:05:15Z</time>
      </trkpt>
      <trkpt lat="47.09639" lon="5.52512">
        <ele>210</ele>
        <time>2010-08-01T09:05:17Z</time>
      </trkpt>
      <trkpt lat="47.09647" lon="5.52491">
        <ele>210</ele>
        <time>2010-08-01T09:05:19Z</time>
      </trkpt>
      <trkpt lat="47.09654" lon="5.5247">
        <ele>210</ele>
        <time>2010-08-01T09:05:21Z</time>
      </trkpt>
      <trkpt lat="47.09659" lon="5.5245">
        <ele>210</ele>
        <time>2010-08-01T09:05:23Z</time>
      </trkpt>
      <trkpt lat="47.09661" lon="5.5243">
        <ele>210</ele>
        <time>2010-08-01T09:05:25Z</time>
      </trkpt>
      <trkpt lat="47.09657" lon="5.5241">
        <ele>210</ele>
        <time>2010-08-01T09:05:27Z</time>
      </trkpt>
      <trkpt lat="47.0965" lon="5.52392">
        <ele>210</ele>
        <time>2010-08-01T09:05:29Z</time>
      </trkpt>
      <trkpt lat="47.09642" lon="5.52374">
        <ele>210</ele>
        <time>2010-08-01T09:05:31Z</time>
      </trkpt>
      <trkpt lat="47.09635" lon="5.52356">
        <ele>210</ele>
        <time>2010-08-01T09:05:33Z</time>
      </trkpt>
      <trkpt lat="47.0963" lon="5.52338">
        <ele>217</ele>
        <time>2010-08-01T09:05:35Z</time>
      </trkpt>
      <trkpt lat="47.09627" lon="5.52319">
        <ele>217</ele>
        <time>2010-08-01T09:05:37Z</time>
      </trkpt>
      <trkpt lat="47.09627" lon="5.52299">
        <ele>217</ele>
        <time>2010-08-01T09:05:39Z</time>
      </trkpt>
      <trkpt lat="47.09628" lon="5.52282">
        <ele>217</ele>
        <time>2010-08-01T09:05:41Z</time>
      </trkpt>
      <trkpt lat="47.09627" lon="5.52265">
        <ele>217</ele>
        <time>2010-08-01T09:05:43Z</time>
      </trkpt>
      <trkpt lat="47.09627" lon="5.52248">
        <ele>217</ele>
        <time>2010-08-01T09:05:45Z</time>
      </trkpt>
      <trkpt lat="47.09627" lon="5.52232">
        <ele>217</ele>
        <time>2010-08-01T09:05:47Z</time>
      </trkpt>
      <trkpt lat="47.09627" lon="5.52217">
        <ele>217</ele>
        <time>2010-08-01T09:05:49Z</time>
      </trkpt>
      <trkpt lat="47.09621" lon="5.52198">
        <ele>217</ele>
        <time>2010-08-01T09:05:52Z</time>
      </trkpt>
      <trkpt lat="47.09615" lon="5.52185">
        <ele>217</ele>
        <time>2010-08-01T09:05:54Z</time>
      </trkpt>
      <trkpt lat="47.09608" lon="5.52172">
        <ele>217</ele>
        <time>2010-08-01T09:05:56Z</time>
      </trkpt>
      <trkpt lat="47.09602" lon="5.52159">
        <ele>217</ele>
        <time>2010-08-01T09:05:58Z</time>
      </trkpt>
      <trkpt lat="47.09595" lon="5.52145">
        <ele>217</ele>
        <time>2010-08-01T09:06:00Z</time>
      </trkpt>
      <trkpt lat="47.09588" lon="5.52131">
        <ele>222</ele>
        <time>2010-08-01T09:06:02Z</time>
      </trkpt>
      <trkpt lat="47.09581" lon="5.52116">
        <ele>222</ele>
        <time>2010-08-01T09:06:04Z</time>
      </trkpt>
      <trkpt lat="47.09575" lon="5.52101">
        <ele>222</ele>
        <time>2010-08-01T09:06:06Z</time>
      </trkpt>
      <trkpt lat="47.09569" lon="5.52085">
        <ele>222</ele>
        <time>2010-08-01T09:06:08Z</time>
      </trkpt>
      <trkpt lat="47.09564" lon="5.52068">
        <ele>222</ele>
        <time>2010-08-01T09:06:10Z</time>
      </trkpt>
      <trkpt lat="47.09557" lon="5.5205">
        <ele>222</ele>
        <time>2010-08-01T09:06:12Z</time>
      </trkpt>
      <trkpt lat="47.09551" lon="5.52033">
        <ele>222</ele>
        <time>2010-08-01T09:06:14Z</time>
      </trkpt>
      <trkpt lat="47.09544" lon="5.52014">
        <ele>222</ele>
        <time>2010-08-01T09:06:16Z</time>
      </trkpt>
      <trkpt lat="47.09538" lon="5.51994">
        <ele>222</ele>
        <time>2010-08-01T09:06:18Z</time>
      </trkpt>
      <trkpt lat="47.09533" lon="5.51975">
        <ele>222</ele>
        <time>2010-08-01T09:06:20Z</time>
      </trkpt>
      <trkpt lat="47.09527" lon="5.51955">
        <ele>222</ele>
        <time>2010-08-01T09:06:22Z</time>
      </trkpt>
      <trkpt lat="47.09522" lon="5.51934">
        <ele>222</ele>
        <time>2010-08-01T09:06:24Z</time>
      </trkpt>
      <trkpt lat="47.09518" lon="5.51915">
        <ele>222</ele>
        <time>2010-08-01T09:06:26Z</time>
      </trkpt>
      <trkpt lat="47.09515" lon="5.51891">
        <ele>222</ele>
        <time>2010-08-01T09:06:28Z</time>
      </trkpt>
      <trkpt lat="47.0951" lon="5.51867">
        <ele>222</ele>
        <time>2010-08-01T09:06:30Z</time>
      </trkpt>
      <trkpt lat="47.09507" lon="5.51854">
        <ele>222</ele>
        <time>2010-08-01T09:06:31Z</time>
      </trkpt>
      <trkpt lat="47.09501" lon="5.5183">
        <ele>216</ele>
        <time>2010-08-01T09:06:33Z</time>
      </trkpt>
      <trkpt lat="47.09493" lon="5.51806">
        <ele>216</ele>
        <time>2010-08-01T09:06:35Z</time>
      </trkpt>
      <trkpt lat="47.09486" lon="5.51783">
        <ele>216</ele>
        <time>2010-08-01T09:06:37Z</time>
      </trkpt>
      <trkpt lat="47.09482" lon="5.5177">
        <ele>216</ele>
        <time>2010-08-01T09:06:38Z</time>
      </trkpt>
      <trkpt lat="47.09478" lon="5.51759">
        <ele>216</ele>
        <time>2010-08-01T09:06:39Z</time>
      </trkpt>
      <trkpt lat="47.0947" lon="5.51735">
        <ele>216</ele>
        <time>2010-08-01T09:06:41Z</time>
      </trkpt>
      <trkpt lat="47.09468" lon="5.51723">
        <ele>216</ele>
        <time>2010-08-01T09:06:42Z</time>
      </trkpt>
      <trkpt lat="47.09465" lon="5.51699">
        <ele>216</ele>
        <time>2010-08-01T09:06:44Z</time>
      </trkpt>
      <trkpt lat="47.09467" lon="5.51675">
        <ele>216</ele>
        <time>2010-08-01T09:06:46Z</time>
      </trkpt>
      <trkpt lat="47.09472" lon="5.51652">
        <ele>216</ele>
        <time>2010-08-01T09:06:48Z</time>
      </trkpt>
      <trkpt lat="47.09476" lon="5.51629">
        <ele>216</ele>
        <time>2010-08-01T09:06:50Z</time>
      </trkpt>
      <trkpt lat="47.09479" lon="5.51607">
        <ele>216</ele>
        <time>2010-08-01T09:06:52Z</time>
      </trkpt>
      <trkpt lat="47.09479" lon="5.51586">
        <ele>216</ele>
        <time>2010-08-01T09:06:54Z</time>
      </trkpt>
      <trkpt lat="47.09476" lon="5.51567">
        <ele>216</ele>
        <time>2010-08-01T09:06:56Z</time>
      </trkpt>
      <trkpt lat="47.09474" lon="5.51549">
        <ele>216</ele>
        <time>2010-08-01T09:06:58Z</time>
      </trkpt>
      <trkpt lat="47.09471" lon="5.5153">
        <ele>216</ele>
        <time>2010-08-01T09:07:00Z</time>
      </trkpt>
      <trkpt lat="47.09467" lon="5.51513">
        <ele>216</ele>
        <time>2010-08-01T09:07:02Z</time>
      </trkpt>
      <trkpt lat="47.09464" lon="5.51496">
        <ele>216</ele>
        <time>2010-08-01T09:07:04Z</time>
      </trkpt>
      <trkpt lat="47.0946" lon="5.51478">
        <ele>216</ele>
        <time>2010-08-01T09:07:06Z</time>
      </trkpt>
      <trkpt lat="47.09456" lon="5.51461">
        <ele>216</ele>
        <time>2010-08-01T09:07:08Z</time>
      </trkpt>
      <trkpt lat="47.09453" lon="5.51446">
        <ele>221</ele>
        <time>2010-08-01T09:07:10Z</time>
      </trkpt>
      <trkpt lat="47.09451" lon="5.51431">
        <ele>221</ele>
        <time>2010-08-01T09:07:12Z</time>
      </trkpt>
      <trkpt lat="47.09448" lon="5.51417">
        <ele>221</ele>
        <time>2010-08-01T09:07:14Z</time>
      </trkpt>
      <trkpt lat="47.09445" lon="5.51401">
        <ele>221</ele>
        <time>2010-08-01T09:07:16Z</time>
      </trkpt>
      <trkpt lat="47.09442" lon="5.51386">
        <ele>221</ele>
        <time>2010-08-01T09:07:18Z</time>
      </trkpt>
      <trkpt lat="47.09439" lon="5.51371">
        <ele>221</ele>
        <time>2010-08-01T09:07:20Z</time>
      </trkpt>
      <trkpt lat="47.09436" lon="5.51355">
        <ele>221</ele>
        <time>2010-08-01T09:07:22Z</time>
      </trkpt>
      <trkpt lat="47.09432" lon="5.5134">
        <ele>221</ele>
        <time>2010-08-01T09:07:24Z</time>
      </trkpt>
      <trkpt lat="47.09429" lon="5.51324">
        <ele>221</ele>
        <time>2010-08-01T09:07:26Z</time>
      </trkpt>
      <trkpt lat="47.09426" lon="5.51308">
        <ele>221</ele>
        <time>2010-08-01T09:07:28Z</time>
      </trkpt>
      <trkpt lat="47.09424" lon="5.51292">
        <ele>221</ele>
        <time>2010-08-01T09:07:30Z</time>
      </trkpt>
      <trkpt lat="47.09422" lon="5.51275">
        <ele>221</ele>
        <time>2010-08-01T09:07:32Z</time>
      </trkpt>
      <trkpt lat="47.09421" lon="5.51257">
        <ele>221</ele>
        <time>2010-08-01T09:07:34Z</time>
      </trkpt>
      <trkpt lat="47.09421" lon="5.5124">
        <ele>221</ele>
        <time>2010-08-01T09:07:36Z</time>
      </trkpt>
      <trkpt lat="47.09422" lon="5.51222">
        <ele>227</ele>
        <time>2010-08-01T09:07:38Z</time>
      </trkpt>
      <trkpt lat="47.09424" lon="5.51205">
        <ele>227</ele>
        <time>2010-08-01T09:07:40Z</time>
      </trkpt>
      <trkpt lat="47.09425" lon="5.51189">
        <ele>227</ele>
        <time>2010-08-01T09:07:42Z</time>
      </trkpt>
      <trkpt lat="47.09427" lon="5.51173">
        <ele>227</ele>
        <time>2010-08-01T09:07:44Z</time>
      </trkpt>
      <trkpt lat="47.09428" lon="5.51157">
        <ele>227</ele>
        <time>2010-08-01T09:07:46Z</time>
      </trkpt>
      <trkpt lat="47.0943" lon="5.51142">
        <ele>227</ele>
        <time>2010-08-01T09:07:48Z</time>
      </trkpt>
      <trkpt lat="47.09431" lon="5.51125">
        <ele>227</ele>
        <time>2010-08-01T09:07:50Z</time>
      </trkpt>
      <trkpt lat="47.09432" lon="5.51109">
        <ele>227</ele>
        <time>2010-08-01T09:07:52Z</time>
      </trkpt>
      <trkpt lat="47.09433" lon="5.51093">
        <ele>227</ele>
        <time>2010-08-01T09:07:54Z</time>
      </trkpt>
      <trkpt lat="47.09434" lon="5.51076">
        <ele>227</ele>
        <time>2010-08-01T09:07:56Z</time>
      </trkpt>
      <trkpt lat="47.09436" lon="5.51059">
        <ele>227</ele>
        <time>2010-08-01T09:07:58Z</time>
      </trkpt>
      <trkpt lat="47.09437" lon="5.51041">
        <ele>227</ele>
        <time>2010-08-01T09:08:00Z</time>
      </trkpt>
      <trkpt lat="47.09438" lon="5.51023">
        <ele>227</ele>
        <time>2010-08-01T09:08:02Z</time>
      </trkpt>
      <trkpt lat="47.09439" lon="5.51006">
        <ele>227</ele>
        <time>2010-08-01T09:08:04Z</time>
      </trkpt>
      <trkpt lat="47.0944" lon="5.50987">
        <ele>227</ele>
        <time>2010-08-01T09:08:06Z</time>
      </trkpt>
      <trkpt lat="47.09441" lon="5.50968">
        <ele>227</ele>
        <time>2010-08-01T09:08:08Z</time>
      </trkpt>
      <trkpt lat="47.09442" lon="5.5095">
        <ele>227</ele>
        <time>2010-08-01T09:08:10Z</time>
      </trkpt>
      <trkpt lat="47.09443" lon="5.50934">
        <ele>227</ele>
        <time>2010-08-01T09:08:12Z</time>
      </trkpt>
      <trkpt lat="47.09445" lon="5.50919">
        <ele>227</ele>
        <time>2010-08-01T09:08:14Z</time>
      </trkpt>
      <trkpt lat="47.09446" lon="5.50905">
        <ele>227</ele>
        <time>2010-08-01T09:08:16Z</time>
      </trkpt>
      <trkpt lat="47.09446" lon="5.5089">
        <ele>227</ele>
        <time>2010-08-01T09:08:18Z</time>
      </trkpt>
      <trkpt lat="47.09446" lon="5.50871">
        <ele>227</ele>
        <time>2010-08-01T09:08:20Z</time>
      </trkpt>
      <trkpt lat="47.09449" lon="5.50851">
        <ele>227</ele>
        <time>2010-08-01T09:08:22Z</time>
      </trkpt>
      <trkpt lat="47.09453" lon="5.50831">
        <ele>227</ele>
        <time>2010-08-01T09:08:24Z</time>
      </trkpt>
      <trkpt lat="47.09456" lon="5.50811">
        <ele>227</ele>
        <time>2010-08-01T09:08:26Z</time>
      </trkpt>
      <trkpt lat="47.09457" lon="5.50789">
        <ele>227</ele>
        <time>2010-08-01T09:08:28Z</time>
      </trkpt>
      <trkpt lat="47.09459" lon="5.50768">
        <ele>227</ele>
        <time>2010-08-01T09:08:30Z</time>
      </trkpt>
      <trkpt lat="47.09459" lon="5.50745">
        <ele>227</ele>
        <time>2010-08-01T09:08:32Z</time>
      </trkpt>
      <trkpt lat="47.09462" lon="5.50724">
        <ele>227</ele>
        <time>2010-08-01T09:08:34Z</time>
      </trkpt>
      <trkpt lat="47.09468" lon="5.50703">
        <ele>227</ele>
        <time>2010-08-01T09:08:36Z</time>
      </trkpt>
      <trkpt lat="47.09474" lon="5.50683">
        <ele>227</ele>
        <time>2010-08-01T09:08:38Z</time>
      </trkpt>
      <trkpt lat="47.0948" lon="5.50664">
        <ele>227</ele>
        <time>2010-08-01T09:08:40Z</time>
      </trkpt>
      <trkpt lat="47.09486" lon="5.50644">
        <ele>227</ele>
        <time>2010-08-01T09:08:42Z</time>
      </trkpt>
      <trkpt lat="47.09492" lon="5.50623">
        <ele>227</ele>
        <time>2010-08-01T09:08:44Z</time>
      </trkpt>
      <trkpt lat="47.09497" lon="5.50603">
        <ele>227</ele>
        <time>2010-08-01T09:08:46Z</time>
      </trkpt>
      <trkpt lat="47.09502" lon="5.50581">
        <ele>227</ele>
        <time>2010-08-01T09:08:48Z</time>
      </trkpt>
      <trkpt lat="47.09508" lon="5.5056">
        <ele>227</ele>
        <time>2010-08-01T09:08:50Z</time>
      </trkpt>
      <trkpt lat="47.09511" lon="5.50538">
        <ele>221</ele>
        <time>2010-08-01T09:08:52Z</time>
      </trkpt>
      <trkpt lat="47.09511" lon="5.50513">
        <ele>221</ele>
        <time>2010-08-01T09:08:54Z</time>
      </trkpt>
      <trkpt lat="47.0951" lon="5.50498">
        <ele>221</ele>
        <time>2010-08-01T09:08:55Z</time>
      </trkpt>
      <trkpt lat="47.09508" lon="5.50484">
        <ele>221</ele>
        <time>2010-08-01T09:08:56Z</time>
      </trkpt>
      <trkpt lat="47.09507" lon="5.5047">
        <ele>221</ele>
        <time>2010-08-01T09:08:57Z</time>
      </trkpt>
      <trkpt lat="47.09505" lon="5.50454">
        <ele>221</ele>
        <time>2010-08-01T09:08:58Z</time>
      </trkpt>
      <trkpt lat="47.09504" lon="5.50439">
        <ele>221</ele>
        <time>2010-08-01T09:08:59Z</time>
      </trkpt>
      <trkpt lat="47.09504" lon="5.50425">
        <ele>221</ele>
        <time>2010-08-01T09:09:00Z</time>
      </trkpt>
      <trkpt lat="47.09505" lon="5.5041">
        <ele>221</ele>
        <time>2010-08-01T09:09:01Z</time>
      </trkpt>
      <trkpt lat="47.09507" lon="5.50395">
        <ele>221</ele>
        <time>2010-08-01T09:09:02Z</time>
      </trkpt>
      <trkpt lat="47.09507" lon="5.50381">
        <ele>221</ele>
        <time>2010-08-01T09:09:03Z</time>
      </trkpt>
      <trkpt lat="47.09508" lon="5.50366">
        <ele>221</ele>
        <time>2010-08-01T09:09:04Z</time>
      </trkpt>
      <trkpt lat="47.0951" lon="5.50352">
        <ele>221</ele>
        <time>2010-08-01T09:09:05Z</time>
      </trkpt>
      <trkpt lat="47.09511" lon="5.50339">
        <ele>221</ele>
        <time>2010-08-01T09:09:06Z</time>
      </trkpt>
      <trkpt lat="47.09512" lon="5.50325">
        <ele>221</ele>
        <time>2010-08-01T09:09:07Z</time>
      </trkpt>
      <trkpt lat="47.09515" lon="5.50312">
        <ele>221</ele>
        <time>2010-08-01T09:09:08Z</time>
      </trkpt>
      <trkpt lat="47.09518" lon="5.50288">
        <ele>221</ele>
        <time>2010-08-01T09:09:10Z</time>
      </trkpt>
      <trkpt lat="47.09523" lon="5.50267">
        <ele>221</ele>
        <time>2010-08-01T09:09:12Z</time>
      </trkpt>
      <trkpt lat="47.09535" lon="5.50259">
        <ele>221</ele>
        <time>2010-08-01T09:09:14Z</time>
      </trkpt>
      <trkpt lat="47.09545" lon="5.50259">
        <ele>221</ele>
        <time>2010-08-01T09:09:16Z</time>
      </trkpt>
      <trkpt lat="47.09554" lon="5.50253">
        <ele>221</ele>
        <time>2010-08-01T09:09:18Z</time>
      </trkpt>
      <trkpt lat="47.09557" lon="5.50233">
        <ele>221</ele>
        <time>2010-08-01T09:09:21Z</time>
      </trkpt>
      <trkpt lat="47.09556" lon="5.50217">
        <ele>221</ele>
        <time>2010-08-01T09:09:23Z</time>
      </trkpt>
      <trkpt lat="47.09555" lon="5.502">
        <ele>221</ele>
        <time>2010-08-01T09:09:25Z</time>
      </trkpt>
      <trkpt lat="47.09556" lon="5.50182">
        <ele>221</ele>
        <time>2010-08-01T09:09:27Z</time>
      </trkpt>
      <trkpt lat="47.09557" lon="5.50163">
        <ele>221</ele>
        <time>2010-08-01T09:09:29Z</time>
      </trkpt>
      <trkpt lat="47.09557" lon="5.50145">
        <ele>221</ele>
        <time>2010-08-01T09:09:31Z</time>
      </trkpt>
      <trkpt lat="47.09559" lon="5.50127">
        <ele>221</ele>
        <time>2010-08-01T09:09:33Z</time>
      </trkpt>
      <trkpt lat="47.09561" lon="5.50109">
        <ele>227</ele>
        <time>2010-08-01T09:09:35Z</time>
      </trkpt>
      <trkpt lat="47.09561" lon="5.50094">
        <ele>227</ele>
        <time>2010-08-01T09:09:37Z</time>
      </trkpt>
      <trkpt lat="47.0956" lon="5.50079">
        <ele>227</ele>
        <time>2010-08-01T09:09:39Z</time>
      </trkpt>
      <trkpt lat="47.09563" lon="5.50064">
        <ele>227</ele>
        <time>2010-08-01T09:09:41Z</time>
      </trkpt>
      <trkpt lat="47.09566" lon="5.5005">
        <ele>227</ele>
        <time>2010-08-01T09:09:43Z</time>
      </trkpt>
      <trkpt lat="47.09568" lon="5.50038">
        <ele>227</ele>
        <time>2010-08-01T09:09:45Z</time>
      </trkpt>
      <trkpt lat="47.09571" lon="5.5002">
        <ele>227</ele>
        <time>2010-08-01T09:09:48Z</time>
      </trkpt>
      <trkpt lat="47.09571" lon="5.50006">
        <ele>227</ele>
        <time>2010-08-01T09:09:50Z</time>
      </trkpt>
      <trkpt lat="47.09573" lon="5.49988">
        <ele>227</ele>
        <time>2010-08-01T09:09:53Z</time>
      </trkpt>
      <trkpt lat="47.09575" lon="5.4997">
        <ele>232</ele>
        <time>2010-08-01T09:09:56Z</time>
      </trkpt>
      <trkpt lat="47.09581" lon="5.49959">
        <ele>232</ele>
        <time>2010-08-01T09:09:59Z</time>
      </trkpt>
      <trkpt lat="47.09582" lon="5.49946">
        <ele>232</ele>
        <time>2010-08-01T09:10:02Z</time>
      </trkpt>
      <trkpt lat="47.09573" lon="5.49932">
        <ele>232</ele>
        <time>2010-08-01T09:10:05Z</time>
      </trkpt>
      <trkpt lat="47.09566" lon="5.49918">
        <ele>232</ele>
        <time>2010-08-01T09:10:08Z</time>
      </trkpt>
      <trkpt lat="47.09561" lon="5.49907">
        <ele>232</ele>
        <time>2010-08-01T09:10:10Z</time>
      </trkpt>
      <trkpt lat="47.09553" lon="5.49893">
        <ele>232</ele>
        <time>2010-08-01T09:10:13Z</time>
      </trkpt>
      <trkpt lat="47.09547" lon="5.49882">
        <ele>232</ele>
        <time>2010-08-01T09:10:15Z</time>
      </trkpt>
      <trkpt lat="47.09541" lon="5.49865">
        <ele>232</ele>
        <time>2010-08-01T09:10:18Z</time>
      </trkpt>
      <trkpt lat="47.09534" lon="5.49849">
        <ele>232</ele>
        <time>2010-08-01T09:10:21Z</time>
      </trkpt>
      <trkpt lat="47.09527" lon="5.49835">
        <ele>232</ele>
        <time>2010-08-01T09:10:24Z</time>
      </trkpt>
      <trkpt lat="47.09521" lon="5.49824">
        <ele>232</ele>
        <time>2010-08-01T09:10:26Z</time>
      </trkpt>
      <trkpt lat="47.09515" lon="5.49813">
        <ele>232</ele>
        <time>2010-08-01T09:10:28Z</time>
      </trkpt>
      <trkpt lat="47.09507" lon="5.49799">
        <ele>238</ele>
        <time>2010-08-01T09:10:31Z</time>
      </trkpt>
      <trkpt lat="47.09502" lon="5.49783">
        <ele>238</ele>
        <time>2010-08-01T09:10:34Z</time>
      </trkpt>
      <trkpt lat="47.09495" lon="5.49773">
        <ele>238</ele>
        <time>2010-08-01T09:10:37Z</time>
      </trkpt>
      <trkpt lat="47.09486" lon="5.49771">
        <ele>238</ele>
        <time>2010-08-01T09:10:46Z</time>
      </trkpt>
      <trkpt lat="47.09479" lon="5.4978">
        <ele>250</ele>
        <time>2010-08-01T09:12:12Z</time>
      </trkpt>
      <trkpt lat="47.09489" lon="5.49777">
        <ele>240</ele>
        <time>2010-08-01T09:12:21Z</time>
      </trkpt>
    </trkseg>
  </trk>
</gpx>